<?xml version="1.0" encoding="UTF-8" standalone="no" ?>
<gpx xmlns="http://www.topografix.com/GPX/1/1" xmlns:xsi="http://www.w3.org/2001/XMLSchema-instance" xsi:schemaLocation="http://www.topografix.com/GPX/1/1 http://www.topografix.com/GPX/1/1/gpx.xsd" version="1.1" creator="VisuGPX - https://www.visugpx.com">
  <metadata>
    <name>Pic de Brougat-refuge du Pinet</name>
    <desc><![CDATA[Pic de Brougat-refuge du Pinet]]></desc>
  </metadata>
  <trk>
    <name><![CDATA[Rando-course]]></name>
    <cmt><![CDATA[Brougat-Montestaure-Pinet]]></cmt>
    <trkseg>
      <trkpt lat="42.71013" lon="1.42573">
        <ele>1188.3269042969</ele>
        <time>2012-09-15T07:31:07Z</time>
      </trkpt>
      <trkpt lat="42.71013" lon="1.42572">
        <ele>1187.8461914062</ele>
        <time>2012-09-15T07:31:08Z</time>
      </trkpt>
      <trkpt lat="42.71013" lon="1.42572">
        <ele>1187.8461914062</ele>
        <time>2012-09-15T07:31:09Z</time>
      </trkpt>
      <trkpt lat="42.71006" lon="1.42565">
        <ele>1188.3269042969</ele>
        <time>2012-09-15T07:31:14Z</time>
      </trkpt>
      <trkpt lat="42.71006" lon="1.42564">
        <ele>1188.3269042969</ele>
        <time>2012-09-15T07:31:15Z</time>
      </trkpt>
      <trkpt lat="42.71016" lon="1.42551">
        <ele>1184.0009765625</ele>
        <time>2012-09-15T07:31:24Z</time>
      </trkpt>
      <trkpt lat="42.71019" lon="1.42551">
        <ele>1181.1171875</ele>
        <time>2012-09-15T07:31:27Z</time>
      </trkpt>
      <trkpt lat="42.71029" lon="1.42551">
        <ele>1180.6364746094</ele>
        <time>2012-09-15T07:31:33Z</time>
      </trkpt>
      <trkpt lat="42.71034" lon="1.4255">
        <ele>1179.6748046875</ele>
        <time>2012-09-15T07:31:38Z</time>
      </trkpt>
      <trkpt lat="42.71037" lon="1.42548">
        <ele>1184.0009765625</ele>
        <time>2012-09-15T07:31:44Z</time>
      </trkpt>
      <trkpt lat="42.71036" lon="1.42545">
        <ele>1185.9235839844</ele>
        <time>2012-09-15T07:31:46Z</time>
      </trkpt>
      <trkpt lat="42.71032" lon="1.4254">
        <ele>1188.3269042969</ele>
        <time>2012-09-15T07:31:51Z</time>
      </trkpt>
      <trkpt lat="42.71033" lon="1.42528">
        <ele>1195.0559082031</ele>
        <time>2012-09-15T07:32:03Z</time>
      </trkpt>
      <trkpt lat="42.7104" lon="1.42524">
        <ele>1199.3820800781</ele>
        <time>2012-09-15T07:32:09Z</time>
      </trkpt>
      <trkpt lat="42.71034" lon="1.42517">
        <ele>1200.3435058594</ele>
        <time>2012-09-15T07:32:15Z</time>
      </trkpt>
      <trkpt lat="42.71025" lon="1.42513">
        <ele>1201.7854003906</ele>
        <time>2012-09-15T07:32:20Z</time>
      </trkpt>
      <trkpt lat="42.71027" lon="1.42507">
        <ele>1198.9013671875</ele>
        <time>2012-09-15T07:32:24Z</time>
      </trkpt>
      <trkpt lat="42.71021" lon="1.425">
        <ele>1201.3046875</ele>
        <time>2012-09-15T07:32:29Z</time>
      </trkpt>
      <trkpt lat="42.71017" lon="1.42495">
        <ele>1204.1887207031</ele>
        <time>2012-09-15T07:32:32Z</time>
      </trkpt>
      <trkpt lat="42.71014" lon="1.42484">
        <ele>1201.7854003906</ele>
        <time>2012-09-15T07:32:40Z</time>
      </trkpt>
      <trkpt lat="42.71016" lon="1.42481">
        <ele>1198.4206542969</ele>
        <time>2012-09-15T07:32:45Z</time>
      </trkpt>
      <trkpt lat="42.71025" lon="1.42499">
        <ele>1182.0783691406</ele>
        <time>2012-09-15T07:33:02Z</time>
      </trkpt>
      <trkpt lat="42.7103" lon="1.42497">
        <ele>1205.6306152344</ele>
        <time>2012-09-15T07:33:25Z</time>
      </trkpt>
      <trkpt lat="42.71014" lon="1.42487">
        <ele>1202.2658691406</ele>
        <time>2012-09-15T07:33:29Z</time>
      </trkpt>
      <trkpt lat="42.71013" lon="1.42463">
        <ele>1189.2880859375</ele>
        <time>2012-09-15T07:33:34Z</time>
      </trkpt>
      <trkpt lat="42.7101" lon="1.42459">
        <ele>1189.7687988281</ele>
        <time>2012-09-15T07:33:35Z</time>
      </trkpt>
      <trkpt lat="42.71001" lon="1.4244">
        <ele>1189.7687988281</ele>
        <time>2012-09-15T07:33:40Z</time>
      </trkpt>
      <trkpt lat="42.70991" lon="1.42425">
        <ele>1196.4982910156</ele>
        <time>2012-09-15T07:33:44Z</time>
      </trkpt>
      <trkpt lat="42.70974" lon="1.42406">
        <ele>1205.6306152344</ele>
        <time>2012-09-15T07:33:50Z</time>
      </trkpt>
      <trkpt lat="42.7097" lon="1.42393">
        <ele>1199.3820800781</ele>
        <time>2012-09-15T07:33:55Z</time>
      </trkpt>
      <trkpt lat="42.70975" lon="1.42373">
        <ele>1189.2880859375</ele>
        <time>2012-09-15T07:34:01Z</time>
      </trkpt>
      <trkpt lat="42.70974" lon="1.42358">
        <ele>1182.5590820312</ele>
        <time>2012-09-15T07:34:06Z</time>
      </trkpt>
      <trkpt lat="42.70959" lon="1.42345">
        <ele>1187.3654785156</ele>
        <time>2012-09-15T07:34:11Z</time>
      </trkpt>
      <trkpt lat="42.70958" lon="1.42342">
        <ele>1187.3654785156</ele>
        <time>2012-09-15T07:34:12Z</time>
      </trkpt>
      <trkpt lat="42.70946" lon="1.42328">
        <ele>1192.6528320312</ele>
        <time>2012-09-15T07:34:17Z</time>
      </trkpt>
      <trkpt lat="42.70936" lon="1.42314">
        <ele>1202.2658691406</ele>
        <time>2012-09-15T07:34:21Z</time>
      </trkpt>
      <trkpt lat="42.7092" lon="1.42296">
        <ele>1218.6083984375</ele>
        <time>2012-09-15T07:34:26Z</time>
      </trkpt>
      <trkpt lat="42.70919" lon="1.42292">
        <ele>1221.4921875</ele>
        <time>2012-09-15T07:34:27Z</time>
      </trkpt>
      <trkpt lat="42.7091" lon="1.42273">
        <ele>1238.3154296875</ele>
        <time>2012-09-15T07:34:34Z</time>
      </trkpt>
      <trkpt lat="42.7091" lon="1.42259">
        <ele>1243.1218261719</ele>
        <time>2012-09-15T07:34:38Z</time>
      </trkpt>
      <trkpt lat="42.70904" lon="1.42245">
        <ele>1247.4479980469</ele>
        <time>2012-09-15T07:34:42Z</time>
      </trkpt>
      <trkpt lat="42.70897" lon="1.42229">
        <ele>1249.3706054688</ele>
        <time>2012-09-15T07:34:46Z</time>
      </trkpt>
      <trkpt lat="42.70906" lon="1.42211">
        <ele>1242.1606445312</ele>
        <time>2012-09-15T07:34:51Z</time>
      </trkpt>
      <trkpt lat="42.70913" lon="1.42201">
        <ele>1235.912109375</ele>
        <time>2012-09-15T07:34:54Z</time>
      </trkpt>
      <trkpt lat="42.70902" lon="1.42185">
        <ele>1239.2766113281</ele>
        <time>2012-09-15T07:34:59Z</time>
      </trkpt>
      <trkpt lat="42.709" lon="1.42171">
        <ele>1239.2766113281</ele>
        <time>2012-09-15T07:35:03Z</time>
      </trkpt>
      <trkpt lat="42.70899" lon="1.4217">
        <ele>1241.19921875</ele>
        <time>2012-09-15T07:35:04Z</time>
      </trkpt>
      <trkpt lat="42.7089" lon="1.42161">
        <ele>1246.9672851562</ele>
        <time>2012-09-15T07:35:09Z</time>
      </trkpt>
      <trkpt lat="42.70883" lon="1.42153">
        <ele>1252.2543945312</ele>
        <time>2012-09-15T07:35:15Z</time>
      </trkpt>
      <trkpt lat="42.70879" lon="1.4215">
        <ele>1257.0610351562</ele>
        <time>2012-09-15T07:35:18Z</time>
      </trkpt>
      <trkpt lat="42.70881" lon="1.42146">
        <ele>1258.9836425781</ele>
        <time>2012-09-15T07:35:22Z</time>
      </trkpt>
      <trkpt lat="42.7088" lon="1.4214">
        <ele>1260.9064941406</ele>
        <time>2012-09-15T07:35:26Z</time>
      </trkpt>
      <trkpt lat="42.70878" lon="1.42134">
        <ele>1261.8679199219</ele>
        <time>2012-09-15T07:35:30Z</time>
      </trkpt>
      <trkpt lat="42.7088" lon="1.42131">
        <ele>1262.3483886719</ele>
        <time>2012-09-15T07:35:33Z</time>
      </trkpt>
      <trkpt lat="42.70886" lon="1.42122">
        <ele>1263.7902832031</ele>
        <time>2012-09-15T07:35:41Z</time>
      </trkpt>
      <trkpt lat="42.70877" lon="1.42113">
        <ele>1264.2709960938</ele>
        <time>2012-09-15T07:35:46Z</time>
      </trkpt>
      <trkpt lat="42.70881" lon="1.42107">
        <ele>1264.7517089844</ele>
        <time>2012-09-15T07:35:52Z</time>
      </trkpt>
      <trkpt lat="42.70877" lon="1.42098">
        <ele>1265.232421875</ele>
        <time>2012-09-15T07:35:59Z</time>
      </trkpt>
      <trkpt lat="42.70876" lon="1.42094">
        <ele>1265.232421875</ele>
        <time>2012-09-15T07:36:03Z</time>
      </trkpt>
      <trkpt lat="42.70881" lon="1.42087">
        <ele>1264.7517089844</ele>
        <time>2012-09-15T07:36:11Z</time>
      </trkpt>
      <trkpt lat="42.70881" lon="1.42084">
        <ele>1264.2709960938</ele>
        <time>2012-09-15T07:36:15Z</time>
      </trkpt>
      <trkpt lat="42.70886" lon="1.42089">
        <ele>1263.3098144531</ele>
        <time>2012-09-15T07:36:22Z</time>
      </trkpt>
      <trkpt lat="42.70889" lon="1.42095">
        <ele>1262.8291015625</ele>
        <time>2012-09-15T07:36:27Z</time>
      </trkpt>
      <trkpt lat="42.70888" lon="1.42096">
        <ele>1262.8291015625</ele>
        <time>2012-09-15T07:36:28Z</time>
      </trkpt>
      <trkpt lat="42.70913" lon="1.42107">
        <ele>1239.2766113281</ele>
        <time>2012-09-15T07:36:35Z</time>
      </trkpt>
      <trkpt lat="42.70932" lon="1.42111">
        <ele>1223.8955078125</ele>
        <time>2012-09-15T07:36:37Z</time>
      </trkpt>
      <trkpt lat="42.70947" lon="1.42118">
        <ele>1218.6083984375</ele>
        <time>2012-09-15T07:36:41Z</time>
      </trkpt>
      <trkpt lat="42.70957" lon="1.42126">
        <ele>1218.1276855469</ele>
        <time>2012-09-15T07:36:45Z</time>
      </trkpt>
      <trkpt lat="42.70968" lon="1.42137">
        <ele>1214.7631835938</ele>
        <time>2012-09-15T07:36:53Z</time>
      </trkpt>
      <trkpt lat="42.70974" lon="1.42144">
        <ele>1215.2438964844</ele>
        <time>2012-09-15T07:36:58Z</time>
      </trkpt>
      <trkpt lat="42.70973" lon="1.42146">
        <ele>1214.7631835938</ele>
        <time>2012-09-15T07:37:01Z</time>
      </trkpt>
      <trkpt lat="42.70966" lon="1.42154">
        <ele>1218.1276855469</ele>
        <time>2012-09-15T07:37:08Z</time>
      </trkpt>
      <trkpt lat="42.70965" lon="1.42155">
        <ele>1217.6469726562</ele>
        <time>2012-09-15T07:37:09Z</time>
      </trkpt>
      <trkpt lat="42.70959" lon="1.42166">
        <ele>1227.2602539062</ele>
        <time>2012-09-15T07:37:15Z</time>
      </trkpt>
      <trkpt lat="42.70957" lon="1.4217">
        <ele>1231.1057128906</ele>
        <time>2012-09-15T07:37:18Z</time>
      </trkpt>
      <trkpt lat="42.70956" lon="1.42175">
        <ele>1232.5476074219</ele>
        <time>2012-09-15T07:37:21Z</time>
      </trkpt>
      <trkpt lat="42.70956" lon="1.4218">
        <ele>1234.4702148438</ele>
        <time>2012-09-15T07:37:24Z</time>
      </trkpt>
      <trkpt lat="42.70958" lon="1.42186">
        <ele>1236.3928222656</ele>
        <time>2012-09-15T07:37:27Z</time>
      </trkpt>
      <trkpt lat="42.70958" lon="1.42189">
        <ele>1238.3154296875</ele>
        <time>2012-09-15T07:37:29Z</time>
      </trkpt>
      <trkpt lat="42.70956" lon="1.42201">
        <ele>1245.525390625</ele>
        <time>2012-09-15T07:37:37Z</time>
      </trkpt>
      <trkpt lat="42.70964" lon="1.42212">
        <ele>1243.6025390625</ele>
        <time>2012-09-15T07:37:43Z</time>
      </trkpt>
      <trkpt lat="42.70963" lon="1.42223">
        <ele>1245.0446777344</ele>
        <time>2012-09-15T07:37:49Z</time>
      </trkpt>
      <trkpt lat="42.70958" lon="1.42237">
        <ele>1251.7739257812</ele>
        <time>2012-09-15T07:37:55Z</time>
      </trkpt>
      <trkpt lat="42.70962" lon="1.42251">
        <ele>1246.4868164062</ele>
        <time>2012-09-15T07:38:02Z</time>
      </trkpt>
      <trkpt lat="42.70965" lon="1.42262">
        <ele>1245.0446777344</ele>
        <time>2012-09-15T07:38:07Z</time>
      </trkpt>
      <trkpt lat="42.70966" lon="1.4227">
        <ele>1245.525390625</ele>
        <time>2012-09-15T07:38:12Z</time>
      </trkpt>
      <trkpt lat="42.70972" lon="1.42279">
        <ele>1241.6799316406</ele>
        <time>2012-09-15T07:38:17Z</time>
      </trkpt>
      <trkpt lat="42.70988" lon="1.4229">
        <ele>1227.7407226562</ele>
        <time>2012-09-15T07:38:24Z</time>
      </trkpt>
      <trkpt lat="42.71" lon="1.42297">
        <ele>1220.5310058594</ele>
        <time>2012-09-15T07:38:30Z</time>
      </trkpt>
      <trkpt lat="42.71006" lon="1.42302">
        <ele>1219.0891113281</ele>
        <time>2012-09-15T07:38:35Z</time>
      </trkpt>
      <trkpt lat="42.71009" lon="1.42303">
        <ele>1221.4921875</ele>
        <time>2012-09-15T07:38:39Z</time>
      </trkpt>
      <trkpt lat="42.71016" lon="1.42308">
        <ele>1224.3762207031</ele>
        <time>2012-09-15T07:38:45Z</time>
      </trkpt>
      <trkpt lat="42.71012" lon="1.42302">
        <ele>1226.298828125</ele>
        <time>2012-09-15T07:38:51Z</time>
      </trkpt>
      <trkpt lat="42.71009" lon="1.42295">
        <ele>1227.2602539062</ele>
        <time>2012-09-15T07:38:58Z</time>
      </trkpt>
      <trkpt lat="42.71006" lon="1.42285">
        <ele>1227.7407226562</ele>
        <time>2012-09-15T07:39:07Z</time>
      </trkpt>
      <trkpt lat="42.71004" lon="1.42279">
        <ele>1228.2216796875</ele>
        <time>2012-09-15T07:39:11Z</time>
      </trkpt>
      <trkpt lat="42.71005" lon="1.42273">
        <ele>1227.7407226562</ele>
        <time>2012-09-15T07:39:16Z</time>
      </trkpt>
      <trkpt lat="42.71004" lon="1.42268">
        <ele>1227.2602539062</ele>
        <time>2012-09-15T07:39:20Z</time>
      </trkpt>
      <trkpt lat="42.71004" lon="1.42261">
        <ele>1228.2216796875</ele>
        <time>2012-09-15T07:39:25Z</time>
      </trkpt>
      <trkpt lat="42.71005" lon="1.42257">
        <ele>1230.1442871094</ele>
        <time>2012-09-15T07:39:29Z</time>
      </trkpt>
      <trkpt lat="42.71007" lon="1.4225">
        <ele>1229.6635742188</ele>
        <time>2012-09-15T07:39:35Z</time>
      </trkpt>
      <trkpt lat="42.71006" lon="1.42245">
        <ele>1232.5476074219</ele>
        <time>2012-09-15T07:39:39Z</time>
      </trkpt>
      <trkpt lat="42.71005" lon="1.4224">
        <ele>1234.9509277344</ele>
        <time>2012-09-15T07:39:44Z</time>
      </trkpt>
      <trkpt lat="42.71006" lon="1.42233">
        <ele>1236.8732910156</ele>
        <time>2012-09-15T07:39:50Z</time>
      </trkpt>
      <trkpt lat="42.71002" lon="1.42227">
        <ele>1246.9672851562</ele>
        <time>2012-09-15T07:39:56Z</time>
      </trkpt>
      <trkpt lat="42.71003" lon="1.42222">
        <ele>1253.6965332031</ele>
        <time>2012-09-15T07:40:02Z</time>
      </trkpt>
      <trkpt lat="42.71003" lon="1.42214">
        <ele>1259.4643554688</ele>
        <time>2012-09-15T07:40:10Z</time>
      </trkpt>
      <trkpt lat="42.71004" lon="1.42203">
        <ele>1267.1550292969</ele>
        <time>2012-09-15T07:40:25Z</time>
      </trkpt>
      <trkpt lat="42.71003" lon="1.42199">
        <ele>1270.51953125</ele>
        <time>2012-09-15T07:40:29Z</time>
      </trkpt>
      <trkpt lat="42.71" lon="1.42194">
        <ele>1277.2490234375</ele>
        <time>2012-09-15T07:40:34Z</time>
      </trkpt>
      <trkpt lat="42.70996" lon="1.42191">
        <ele>1278.2102050781</ele>
        <time>2012-09-15T07:40:38Z</time>
      </trkpt>
      <trkpt lat="42.70997" lon="1.42187">
        <ele>1277.2490234375</ele>
        <time>2012-09-15T07:40:42Z</time>
      </trkpt>
      <trkpt lat="42.71002" lon="1.4218">
        <ele>1276.7683105469</ele>
        <time>2012-09-15T07:40:50Z</time>
      </trkpt>
      <trkpt lat="42.71008" lon="1.42176">
        <ele>1272.4421386719</ele>
        <time>2012-09-15T07:40:55Z</time>
      </trkpt>
      <trkpt lat="42.71004" lon="1.42172">
        <ele>1274.8454589844</ele>
        <time>2012-09-15T07:41:02Z</time>
      </trkpt>
      <trkpt lat="42.71008" lon="1.42168">
        <ele>1274.8454589844</ele>
        <time>2012-09-15T07:41:08Z</time>
      </trkpt>
      <trkpt lat="42.71003" lon="1.42163">
        <ele>1283.4973144531</ele>
        <time>2012-09-15T07:41:14Z</time>
      </trkpt>
      <trkpt lat="42.7101" lon="1.42155">
        <ele>1285.419921875</ele>
        <time>2012-09-15T07:41:24Z</time>
      </trkpt>
      <trkpt lat="42.71015" lon="1.42153">
        <ele>1283.4973144531</ele>
        <time>2012-09-15T07:41:28Z</time>
      </trkpt>
      <trkpt lat="42.71022" lon="1.42151">
        <ele>1277.7294921875</ele>
        <time>2012-09-15T07:41:32Z</time>
      </trkpt>
      <trkpt lat="42.71026" lon="1.42149">
        <ele>1272.9228515625</ele>
        <time>2012-09-15T07:41:35Z</time>
      </trkpt>
      <trkpt lat="42.71027" lon="1.42145">
        <ele>1273.4035644531</ele>
        <time>2012-09-15T07:41:39Z</time>
      </trkpt>
      <trkpt lat="42.71029" lon="1.42142">
        <ele>1273.8840332031</ele>
        <time>2012-09-15T07:41:45Z</time>
      </trkpt>
      <trkpt lat="42.71028" lon="1.42141">
        <ele>1273.4035644531</ele>
        <time>2012-09-15T07:41:46Z</time>
      </trkpt>
      <trkpt lat="42.71027" lon="1.42136">
        <ele>1273.4035644531</ele>
        <time>2012-09-15T07:41:51Z</time>
      </trkpt>
      <trkpt lat="42.71027" lon="1.42132">
        <ele>1271.0002441406</ele>
        <time>2012-09-15T07:41:54Z</time>
      </trkpt>
      <trkpt lat="42.71029" lon="1.42128">
        <ele>1269.5583496094</ele>
        <time>2012-09-15T07:41:58Z</time>
      </trkpt>
      <trkpt lat="42.71031" lon="1.42122">
        <ele>1267.6354980469</ele>
        <time>2012-09-15T07:42:04Z</time>
      </trkpt>
      <trkpt lat="42.71032" lon="1.42117">
        <ele>1269.0776367188</ele>
        <time>2012-09-15T07:42:08Z</time>
      </trkpt>
      <trkpt lat="42.7103" lon="1.42112">
        <ele>1273.4035644531</ele>
        <time>2012-09-15T07:42:12Z</time>
      </trkpt>
      <trkpt lat="42.71031" lon="1.42107">
        <ele>1276.2875976562</ele>
        <time>2012-09-15T07:42:16Z</time>
      </trkpt>
      <trkpt lat="42.71035" lon="1.421">
        <ele>1273.8840332031</ele>
        <time>2012-09-15T07:42:22Z</time>
      </trkpt>
      <trkpt lat="42.7103" lon="1.42094">
        <ele>1280.1328125</ele>
        <time>2012-09-15T07:42:27Z</time>
      </trkpt>
      <trkpt lat="42.71028" lon="1.42088">
        <ele>1283.4973144531</ele>
        <time>2012-09-15T07:42:32Z</time>
      </trkpt>
      <trkpt lat="42.71029" lon="1.42084">
        <ele>1284.939453125</ele>
        <time>2012-09-15T07:42:36Z</time>
      </trkpt>
      <trkpt lat="42.71031" lon="1.4208">
        <ele>1287.3425292969</ele>
        <time>2012-09-15T07:42:41Z</time>
      </trkpt>
      <trkpt lat="42.71033" lon="1.42078">
        <ele>1285.419921875</ele>
        <time>2012-09-15T07:42:43Z</time>
      </trkpt>
      <trkpt lat="42.71037" lon="1.42072">
        <ele>1282.5361328125</ele>
        <time>2012-09-15T07:42:49Z</time>
      </trkpt>
      <trkpt lat="42.7104" lon="1.42058">
        <ele>1283.4973144531</ele>
        <time>2012-09-15T07:43:02Z</time>
      </trkpt>
      <trkpt lat="42.71041" lon="1.42051">
        <ele>1284.4587402344</ele>
        <time>2012-09-15T07:43:08Z</time>
      </trkpt>
      <trkpt lat="42.71042" lon="1.42047">
        <ele>1285.9006347656</ele>
        <time>2012-09-15T07:43:12Z</time>
      </trkpt>
      <trkpt lat="42.71043" lon="1.42043">
        <ele>1287.3425292969</ele>
        <time>2012-09-15T07:43:16Z</time>
      </trkpt>
      <trkpt lat="42.71045" lon="1.42038">
        <ele>1287.8232421875</ele>
        <time>2012-09-15T07:43:21Z</time>
      </trkpt>
      <trkpt lat="42.71048" lon="1.42034">
        <ele>1289.2651367188</ele>
        <time>2012-09-15T07:43:26Z</time>
      </trkpt>
      <trkpt lat="42.71048" lon="1.42025">
        <ele>1295.5139160156</ele>
        <time>2012-09-15T07:43:35Z</time>
      </trkpt>
      <trkpt lat="42.71049" lon="1.42018">
        <ele>1301.7624511719</ele>
        <time>2012-09-15T07:43:41Z</time>
      </trkpt>
      <trkpt lat="42.71052" lon="1.42012">
        <ele>1301.2817382812</ele>
        <time>2012-09-15T07:43:46Z</time>
      </trkpt>
      <trkpt lat="42.71054" lon="1.42007">
        <ele>1299.3591308594</ele>
        <time>2012-09-15T07:43:50Z</time>
      </trkpt>
      <trkpt lat="42.71054" lon="1.42002">
        <ele>1298.8784179688</ele>
        <time>2012-09-15T07:43:55Z</time>
      </trkpt>
      <trkpt lat="42.71053" lon="1.41996">
        <ele>1303.2043457031</ele>
        <time>2012-09-15T07:44:00Z</time>
      </trkpt>
      <trkpt lat="42.71056" lon="1.41991">
        <ele>1303.6850585938</ele>
        <time>2012-09-15T07:44:05Z</time>
      </trkpt>
      <trkpt lat="42.7106" lon="1.41981">
        <ele>1308.4916992188</ele>
        <time>2012-09-15T07:44:17Z</time>
      </trkpt>
      <trkpt lat="42.71061" lon="1.41977">
        <ele>1304.6462402344</ele>
        <time>2012-09-15T07:44:20Z</time>
      </trkpt>
      <trkpt lat="42.71065" lon="1.41973">
        <ele>1302.7236328125</ele>
        <time>2012-09-15T07:44:24Z</time>
      </trkpt>
      <trkpt lat="42.71068" lon="1.41968">
        <ele>1302.2429199219</ele>
        <time>2012-09-15T07:44:28Z</time>
      </trkpt>
      <trkpt lat="42.71071" lon="1.41964">
        <ele>1303.6850585938</ele>
        <time>2012-09-15T07:44:32Z</time>
      </trkpt>
      <trkpt lat="42.7107" lon="1.41954">
        <ele>1307.5302734375</ele>
        <time>2012-09-15T07:44:39Z</time>
      </trkpt>
      <trkpt lat="42.71069" lon="1.4195">
        <ele>1310.8950195312</ele>
        <time>2012-09-15T07:44:42Z</time>
      </trkpt>
      <trkpt lat="42.71069" lon="1.41945">
        <ele>1315.2209472656</ele>
        <time>2012-09-15T07:44:48Z</time>
      </trkpt>
      <trkpt lat="42.71068" lon="1.41939">
        <ele>1317.1435546875</ele>
        <time>2012-09-15T07:44:54Z</time>
      </trkpt>
      <trkpt lat="42.71069" lon="1.41933">
        <ele>1317.6240234375</ele>
        <time>2012-09-15T07:44:59Z</time>
      </trkpt>
      <trkpt lat="42.71072" lon="1.41928">
        <ele>1312.3369140625</ele>
        <time>2012-09-15T07:45:05Z</time>
      </trkpt>
      <trkpt lat="42.71074" lon="1.41926">
        <ele>1311.8564453125</ele>
        <time>2012-09-15T07:45:07Z</time>
      </trkpt>
      <trkpt lat="42.71077" lon="1.4192">
        <ele>1312.3369140625</ele>
        <time>2012-09-15T07:45:14Z</time>
      </trkpt>
      <trkpt lat="42.71075" lon="1.41916">
        <ele>1313.2983398438</ele>
        <time>2012-09-15T07:45:19Z</time>
      </trkpt>
      <trkpt lat="42.71075" lon="1.41911">
        <ele>1313.7788085938</ele>
        <time>2012-09-15T07:45:23Z</time>
      </trkpt>
      <trkpt lat="42.7107" lon="1.41905">
        <ele>1320.5080566406</ele>
        <time>2012-09-15T07:45:28Z</time>
      </trkpt>
      <trkpt lat="42.71069" lon="1.419">
        <ele>1323.8725585938</ele>
        <time>2012-09-15T07:45:33Z</time>
      </trkpt>
      <trkpt lat="42.71077" lon="1.41893">
        <ele>1324.8342285156</ele>
        <time>2012-09-15T07:45:43Z</time>
      </trkpt>
      <trkpt lat="42.71083" lon="1.41892">
        <ele>1324.8342285156</ele>
        <time>2012-09-15T07:45:48Z</time>
      </trkpt>
      <trkpt lat="42.71085" lon="1.41891">
        <ele>1325.3146972656</ele>
        <time>2012-09-15T07:45:51Z</time>
      </trkpt>
      <trkpt lat="42.71088" lon="1.41887">
        <ele>1325.3146972656</ele>
        <time>2012-09-15T07:45:56Z</time>
      </trkpt>
      <trkpt lat="42.71089" lon="1.41884">
        <ele>1326.2761230469</ele>
        <time>2012-09-15T07:46:00Z</time>
      </trkpt>
      <trkpt lat="42.71091" lon="1.41882">
        <ele>1326.7568359375</ele>
        <time>2012-09-15T07:46:03Z</time>
      </trkpt>
      <trkpt lat="42.71092" lon="1.41874">
        <ele>1333.0051269531</ele>
        <time>2012-09-15T07:46:12Z</time>
      </trkpt>
      <trkpt lat="42.71091" lon="1.41869">
        <ele>1337.8117675781</ele>
        <time>2012-09-15T07:46:18Z</time>
      </trkpt>
      <trkpt lat="42.71093" lon="1.41862">
        <ele>1340.2153320312</ele>
        <time>2012-09-15T07:46:24Z</time>
      </trkpt>
      <trkpt lat="42.71093" lon="1.41858">
        <ele>1339.2536621094</ele>
        <time>2012-09-15T07:46:28Z</time>
      </trkpt>
      <trkpt lat="42.71093" lon="1.41853">
        <ele>1340.6958007812</ele>
        <time>2012-09-15T07:46:33Z</time>
      </trkpt>
      <trkpt lat="42.71098" lon="1.41844">
        <ele>1341.6572265625</ele>
        <time>2012-09-15T07:46:41Z</time>
      </trkpt>
      <trkpt lat="42.71104" lon="1.41829">
        <ele>1345.0217285156</ele>
        <time>2012-09-15T07:46:58Z</time>
      </trkpt>
      <trkpt lat="42.71106" lon="1.41825">
        <ele>1345.9831542969</ele>
        <time>2012-09-15T07:47:02Z</time>
      </trkpt>
      <trkpt lat="42.71108" lon="1.4182">
        <ele>1345.9831542969</ele>
        <time>2012-09-15T07:47:08Z</time>
      </trkpt>
      <trkpt lat="42.71109" lon="1.41815">
        <ele>1347.4250488281</ele>
        <time>2012-09-15T07:47:13Z</time>
      </trkpt>
      <trkpt lat="42.71111" lon="1.4181">
        <ele>1347.9057617188</ele>
        <time>2012-09-15T07:47:18Z</time>
      </trkpt>
      <trkpt lat="42.71113" lon="1.41808">
        <ele>1348.3862304688</ele>
        <time>2012-09-15T07:47:21Z</time>
      </trkpt>
      <trkpt lat="42.71115" lon="1.41805">
        <ele>1347.4250488281</ele>
        <time>2012-09-15T07:47:26Z</time>
      </trkpt>
      <trkpt lat="42.71118" lon="1.418">
        <ele>1347.9057617188</ele>
        <time>2012-09-15T07:47:32Z</time>
      </trkpt>
      <trkpt lat="42.71119" lon="1.41797">
        <ele>1348.3862304688</ele>
        <time>2012-09-15T07:47:36Z</time>
      </trkpt>
      <trkpt lat="42.71121" lon="1.41793">
        <ele>1349.8283691406</ele>
        <time>2012-09-15T07:47:41Z</time>
      </trkpt>
      <trkpt lat="42.71122" lon="1.41788">
        <ele>1350.7895507812</ele>
        <time>2012-09-15T07:47:44Z</time>
      </trkpt>
      <trkpt lat="42.71122" lon="1.41785">
        <ele>1351.2702636719</ele>
        <time>2012-09-15T07:47:47Z</time>
      </trkpt>
      <trkpt lat="42.71122" lon="1.41782">
        <ele>1351.7509765625</ele>
        <time>2012-09-15T07:47:49Z</time>
      </trkpt>
      <trkpt lat="42.71123" lon="1.41773">
        <ele>1354.154296875</ele>
        <time>2012-09-15T07:47:56Z</time>
      </trkpt>
      <trkpt lat="42.71124" lon="1.41768">
        <ele>1354.634765625</ele>
        <time>2012-09-15T07:48:00Z</time>
      </trkpt>
      <trkpt lat="42.71125" lon="1.41762">
        <ele>1355.1154785156</ele>
        <time>2012-09-15T07:48:06Z</time>
      </trkpt>
      <trkpt lat="42.71126" lon="1.41757">
        <ele>1356.0769042969</ele>
        <time>2012-09-15T07:48:10Z</time>
      </trkpt>
      <trkpt lat="42.71128" lon="1.4175">
        <ele>1356.5576171875</ele>
        <time>2012-09-15T07:48:15Z</time>
      </trkpt>
      <trkpt lat="42.71129" lon="1.41744">
        <ele>1357.9997558594</ele>
        <time>2012-09-15T07:48:20Z</time>
      </trkpt>
      <trkpt lat="42.71132" lon="1.41738">
        <ele>1358.4802246094</ele>
        <time>2012-09-15T07:48:26Z</time>
      </trkpt>
      <trkpt lat="42.71135" lon="1.41734">
        <ele>1359.4416503906</ele>
        <time>2012-09-15T07:48:31Z</time>
      </trkpt>
      <trkpt lat="42.71136" lon="1.41733">
        <ele>1359.4416503906</ele>
        <time>2012-09-15T07:48:32Z</time>
      </trkpt>
      <trkpt lat="42.7114" lon="1.41726">
        <ele>1362.3254394531</ele>
        <time>2012-09-15T07:48:38Z</time>
      </trkpt>
      <trkpt lat="42.71141" lon="1.41723">
        <ele>1362.3254394531</ele>
        <time>2012-09-15T07:48:41Z</time>
      </trkpt>
      <trkpt lat="42.71144" lon="1.41715">
        <ele>1363.7673339844</ele>
        <time>2012-09-15T07:48:46Z</time>
      </trkpt>
      <trkpt lat="42.71146" lon="1.41709">
        <ele>1364.7287597656</ele>
        <time>2012-09-15T07:48:51Z</time>
      </trkpt>
      <trkpt lat="42.71146" lon="1.41701">
        <ele>1365.2094726562</ele>
        <time>2012-09-15T07:48:56Z</time>
      </trkpt>
      <trkpt lat="42.71148" lon="1.41695">
        <ele>1367.1320800781</ele>
        <time>2012-09-15T07:49:00Z</time>
      </trkpt>
      <trkpt lat="42.7115" lon="1.41682">
        <ele>1369.5354003906</ele>
        <time>2012-09-15T07:49:07Z</time>
      </trkpt>
      <trkpt lat="42.7115" lon="1.4167">
        <ele>1370.9772949219</ele>
        <time>2012-09-15T07:49:13Z</time>
      </trkpt>
      <trkpt lat="42.71152" lon="1.41661">
        <ele>1370.4965820312</ele>
        <time>2012-09-15T07:49:19Z</time>
      </trkpt>
      <trkpt lat="42.71148" lon="1.41651">
        <ele>1370.0158691406</ele>
        <time>2012-09-15T07:49:24Z</time>
      </trkpt>
      <trkpt lat="42.71146" lon="1.41645">
        <ele>1364.7287597656</ele>
        <time>2012-09-15T07:49:28Z</time>
      </trkpt>
      <trkpt lat="42.71144" lon="1.41635">
        <ele>1363.2868652344</ele>
        <time>2012-09-15T07:49:34Z</time>
      </trkpt>
      <trkpt lat="42.71144" lon="1.41628">
        <ele>1365.2094726562</ele>
        <time>2012-09-15T07:49:38Z</time>
      </trkpt>
      <trkpt lat="42.71145" lon="1.41621">
        <ele>1367.6125488281</ele>
        <time>2012-09-15T07:49:43Z</time>
      </trkpt>
      <trkpt lat="42.71145" lon="1.41619">
        <ele>1368.0932617188</ele>
        <time>2012-09-15T07:49:44Z</time>
      </trkpt>
      <trkpt lat="42.71148" lon="1.41615">
        <ele>1369.5354003906</ele>
        <time>2012-09-15T07:49:48Z</time>
      </trkpt>
      <trkpt lat="42.7115" lon="1.41609">
        <ele>1370.0158691406</ele>
        <time>2012-09-15T07:49:52Z</time>
      </trkpt>
      <trkpt lat="42.71157" lon="1.41601">
        <ele>1371.4577636719</ele>
        <time>2012-09-15T07:49:58Z</time>
      </trkpt>
      <trkpt lat="42.71158" lon="1.41593">
        <ele>1378.1872558594</ele>
        <time>2012-09-15T07:50:03Z</time>
      </trkpt>
      <trkpt lat="42.71154" lon="1.41588">
        <ele>1384.4357910156</ele>
        <time>2012-09-15T07:50:06Z</time>
      </trkpt>
      <trkpt lat="42.71154" lon="1.41586">
        <ele>1383.955078125</ele>
        <time>2012-09-15T07:50:08Z</time>
      </trkpt>
      <trkpt lat="42.71143" lon="1.41576">
        <ele>1393.0876464844</ele>
        <time>2012-09-15T07:50:16Z</time>
      </trkpt>
      <trkpt lat="42.71144" lon="1.41572">
        <ele>1391.1650390625</ele>
        <time>2012-09-15T07:50:20Z</time>
      </trkpt>
      <trkpt lat="42.71147" lon="1.41567">
        <ele>1388.7619628906</ele>
        <time>2012-09-15T07:50:26Z</time>
      </trkpt>
      <trkpt lat="42.71145" lon="1.41563">
        <ele>1391.1650390625</ele>
        <time>2012-09-15T07:50:29Z</time>
      </trkpt>
      <trkpt lat="42.71146" lon="1.4155">
        <ele>1389.7231445312</ele>
        <time>2012-09-15T07:50:37Z</time>
      </trkpt>
      <trkpt lat="42.71148" lon="1.41542">
        <ele>1388.7619628906</ele>
        <time>2012-09-15T07:50:42Z</time>
      </trkpt>
      <trkpt lat="42.71149" lon="1.41532">
        <ele>1386.3583984375</ele>
        <time>2012-09-15T07:50:48Z</time>
      </trkpt>
      <trkpt lat="42.71147" lon="1.41526">
        <ele>1388.7619628906</ele>
        <time>2012-09-15T07:50:52Z</time>
      </trkpt>
      <trkpt lat="42.71147" lon="1.41523">
        <ele>1389.2424316406</ele>
        <time>2012-09-15T07:50:54Z</time>
      </trkpt>
      <trkpt lat="42.71145" lon="1.41515">
        <ele>1387.3195800781</ele>
        <time>2012-09-15T07:51:00Z</time>
      </trkpt>
      <trkpt lat="42.71143" lon="1.41508">
        <ele>1385.3969726562</ele>
        <time>2012-09-15T07:51:04Z</time>
      </trkpt>
      <trkpt lat="42.7114" lon="1.41501">
        <ele>1387.3195800781</ele>
        <time>2012-09-15T07:51:08Z</time>
      </trkpt>
      <trkpt lat="42.71144" lon="1.41487">
        <ele>1387.3195800781</ele>
        <time>2012-09-15T07:51:15Z</time>
      </trkpt>
      <trkpt lat="42.71149" lon="1.41477">
        <ele>1386.3583984375</ele>
        <time>2012-09-15T07:51:19Z</time>
      </trkpt>
      <trkpt lat="42.71156" lon="1.41463">
        <ele>1383.955078125</ele>
        <time>2012-09-15T07:51:24Z</time>
      </trkpt>
      <trkpt lat="42.71159" lon="1.41454">
        <ele>1386.3583984375</ele>
        <time>2012-09-15T07:51:27Z</time>
      </trkpt>
      <trkpt lat="42.71159" lon="1.41449">
        <ele>1387.3195800781</ele>
        <time>2012-09-15T07:51:29Z</time>
      </trkpt>
      <trkpt lat="42.71165" lon="1.41437">
        <ele>1388.28125</ele>
        <time>2012-09-15T07:51:34Z</time>
      </trkpt>
      <trkpt lat="42.71165" lon="1.41431">
        <ele>1389.2424316406</ele>
        <time>2012-09-15T07:51:38Z</time>
      </trkpt>
      <trkpt lat="42.71167" lon="1.41428">
        <ele>1387.8002929688</ele>
        <time>2012-09-15T07:51:41Z</time>
      </trkpt>
      <trkpt lat="42.71169" lon="1.41418">
        <ele>1387.8002929688</ele>
        <time>2012-09-15T07:51:46Z</time>
      </trkpt>
      <trkpt lat="42.71172" lon="1.41407">
        <ele>1394.0490722656</ele>
        <time>2012-09-15T07:51:52Z</time>
      </trkpt>
      <trkpt lat="42.71172" lon="1.414">
        <ele>1397.4135742188</ele>
        <time>2012-09-15T07:51:57Z</time>
      </trkpt>
      <trkpt lat="42.71173" lon="1.4139">
        <ele>1399.8168945312</ele>
        <time>2012-09-15T07:52:03Z</time>
      </trkpt>
      <trkpt lat="42.71172" lon="1.41379">
        <ele>1399.8168945312</ele>
        <time>2012-09-15T07:52:10Z</time>
      </trkpt>
      <trkpt lat="42.71172" lon="1.4137">
        <ele>1404.1430664062</ele>
        <time>2012-09-15T07:52:16Z</time>
      </trkpt>
      <trkpt lat="42.71189" lon="1.41376">
        <ele>1399.8168945312</ele>
        <time>2012-09-15T07:52:44Z</time>
      </trkpt>
      <trkpt lat="42.71181" lon="1.41374">
        <ele>1406.0654296875</ele>
        <time>2012-09-15T07:52:50Z</time>
      </trkpt>
      <trkpt lat="42.71178" lon="1.41372">
        <ele>1407.5075683594</ele>
        <time>2012-09-15T07:52:51Z</time>
      </trkpt>
      <trkpt lat="42.71173" lon="1.41363">
        <ele>1405.5849609375</ele>
        <time>2012-09-15T07:52:56Z</time>
      </trkpt>
      <trkpt lat="42.71173" lon="1.41358">
        <ele>1403.662109375</ele>
        <time>2012-09-15T07:52:59Z</time>
      </trkpt>
      <trkpt lat="42.71174" lon="1.41336">
        <ele>1401.7395019531</ele>
        <time>2012-09-15T07:53:05Z</time>
      </trkpt>
      <trkpt lat="42.71177" lon="1.41329">
        <ele>1400.2976074219</ele>
        <time>2012-09-15T07:53:08Z</time>
      </trkpt>
      <trkpt lat="42.71181" lon="1.41313">
        <ele>1402.7006835938</ele>
        <time>2012-09-15T07:53:14Z</time>
      </trkpt>
      <trkpt lat="42.71182" lon="1.4131">
        <ele>1402.7006835938</ele>
        <time>2012-09-15T07:53:15Z</time>
      </trkpt>
      <trkpt lat="42.71186" lon="1.41292">
        <ele>1405.5849609375</ele>
        <time>2012-09-15T07:53:21Z</time>
      </trkpt>
      <trkpt lat="42.71189" lon="1.4128">
        <ele>1403.662109375</ele>
        <time>2012-09-15T07:53:27Z</time>
      </trkpt>
      <trkpt lat="42.71191" lon="1.41271">
        <ele>1402.2199707031</ele>
        <time>2012-09-15T07:53:41Z</time>
      </trkpt>
      <trkpt lat="42.71201" lon="1.41259">
        <ele>1402.7006835938</ele>
        <time>2012-09-15T07:53:46Z</time>
      </trkpt>
      <trkpt lat="42.71211" lon="1.41241">
        <ele>1413.275390625</ele>
        <time>2012-09-15T07:53:51Z</time>
      </trkpt>
      <trkpt lat="42.71222" lon="1.41231">
        <ele>1416.6398925781</ele>
        <time>2012-09-15T07:53:57Z</time>
      </trkpt>
      <trkpt lat="42.71226" lon="1.41229">
        <ele>1416.6398925781</ele>
        <time>2012-09-15T07:53:59Z</time>
      </trkpt>
      <trkpt lat="42.71233" lon="1.41223">
        <ele>1416.6398925781</ele>
        <time>2012-09-15T07:54:04Z</time>
      </trkpt>
      <trkpt lat="42.71236" lon="1.4122">
        <ele>1416.1591796875</ele>
        <time>2012-09-15T07:54:06Z</time>
      </trkpt>
      <trkpt lat="42.71248" lon="1.41208">
        <ele>1414.7172851562</ele>
        <time>2012-09-15T07:54:12Z</time>
      </trkpt>
      <trkpt lat="42.7126" lon="1.41199">
        <ele>1419.0432128906</ele>
        <time>2012-09-15T07:54:17Z</time>
      </trkpt>
      <trkpt lat="42.71272" lon="1.4119">
        <ele>1421.9272460938</ele>
        <time>2012-09-15T07:54:22Z</time>
      </trkpt>
      <trkpt lat="42.7127" lon="1.41188">
        <ele>1420.4853515625</ele>
        <time>2012-09-15T07:54:26Z</time>
      </trkpt>
      <trkpt lat="42.71267" lon="1.4118">
        <ele>1419.0432128906</ele>
        <time>2012-09-15T07:54:32Z</time>
      </trkpt>
      <trkpt lat="42.71268" lon="1.41177">
        <ele>1418.0817871094</ele>
        <time>2012-09-15T07:54:38Z</time>
      </trkpt>
      <trkpt lat="42.71261" lon="1.41169">
        <ele>1417.1206054688</ele>
        <time>2012-09-15T07:54:49Z</time>
      </trkpt>
      <trkpt lat="42.71258" lon="1.41168">
        <ele>1418.0817871094</ele>
        <time>2012-09-15T07:54:53Z</time>
      </trkpt>
      <trkpt lat="42.71253" lon="1.41167">
        <ele>1422.4079589844</ele>
        <time>2012-09-15T07:54:55Z</time>
      </trkpt>
      <trkpt lat="42.71241" lon="1.41162">
        <ele>1434.4243164062</ele>
        <time>2012-09-15T07:55:00Z</time>
      </trkpt>
      <trkpt lat="42.71238" lon="1.41154">
        <ele>1435.3854980469</ele>
        <time>2012-09-15T07:55:07Z</time>
      </trkpt>
      <trkpt lat="42.71237" lon="1.41149">
        <ele>1432.0209960938</ele>
        <time>2012-09-15T07:55:12Z</time>
      </trkpt>
      <trkpt lat="42.71238" lon="1.41143">
        <ele>1428.17578125</ele>
        <time>2012-09-15T07:55:16Z</time>
      </trkpt>
      <trkpt lat="42.71239" lon="1.41132">
        <ele>1422.4079589844</ele>
        <time>2012-09-15T07:55:24Z</time>
      </trkpt>
      <trkpt lat="42.71239" lon="1.41125">
        <ele>1420.9660644531</ele>
        <time>2012-09-15T07:55:29Z</time>
      </trkpt>
      <trkpt lat="42.71241" lon="1.41121">
        <ele>1420.4853515625</ele>
        <time>2012-09-15T07:55:33Z</time>
      </trkpt>
      <trkpt lat="42.71244" lon="1.41113">
        <ele>1416.6398925781</ele>
        <time>2012-09-15T07:55:39Z</time>
      </trkpt>
      <trkpt lat="42.71242" lon="1.41108">
        <ele>1417.6010742188</ele>
        <time>2012-09-15T07:55:42Z</time>
      </trkpt>
      <trkpt lat="42.71241" lon="1.411">
        <ele>1416.6398925781</ele>
        <time>2012-09-15T07:55:48Z</time>
      </trkpt>
      <trkpt lat="42.71236" lon="1.4109">
        <ele>1420.9660644531</ele>
        <time>2012-09-15T07:55:54Z</time>
      </trkpt>
      <trkpt lat="42.71235" lon="1.41089">
        <ele>1421.4465332031</ele>
        <time>2012-09-15T07:55:55Z</time>
      </trkpt>
      <trkpt lat="42.71237" lon="1.41082">
        <ele>1420.0046386719</ele>
        <time>2012-09-15T07:55:59Z</time>
      </trkpt>
      <trkpt lat="42.71238" lon="1.41068">
        <ele>1417.6010742188</ele>
        <time>2012-09-15T07:56:04Z</time>
      </trkpt>
      <trkpt lat="42.71239" lon="1.41062">
        <ele>1417.6010742188</ele>
        <time>2012-09-15T07:56:06Z</time>
      </trkpt>
      <trkpt lat="42.71242" lon="1.4105">
        <ele>1416.1591796875</ele>
        <time>2012-09-15T07:56:10Z</time>
      </trkpt>
      <trkpt lat="42.71247" lon="1.41036">
        <ele>1411.3527832031</ele>
        <time>2012-09-15T07:56:15Z</time>
      </trkpt>
      <trkpt lat="42.71254" lon="1.41028">
        <ele>1412.3139648438</ele>
        <time>2012-09-15T07:56:18Z</time>
      </trkpt>
      <trkpt lat="42.7126" lon="1.4101">
        <ele>1414.2365722656</ele>
        <time>2012-09-15T07:56:24Z</time>
      </trkpt>
      <trkpt lat="42.71259" lon="1.41007">
        <ele>1415.6787109375</ele>
        <time>2012-09-15T07:56:25Z</time>
      </trkpt>
      <trkpt lat="42.71253" lon="1.41">
        <ele>1419.0432128906</ele>
        <time>2012-09-15T07:56:29Z</time>
      </trkpt>
      <trkpt lat="42.71244" lon="1.40988">
        <ele>1425.7724609375</ele>
        <time>2012-09-15T07:56:35Z</time>
      </trkpt>
      <trkpt lat="42.71242" lon="1.40982">
        <ele>1425.7724609375</ele>
        <time>2012-09-15T07:56:39Z</time>
      </trkpt>
      <trkpt lat="42.71239" lon="1.40971">
        <ele>1425.2917480469</ele>
        <time>2012-09-15T07:56:46Z</time>
      </trkpt>
      <trkpt lat="42.71233" lon="1.40961">
        <ele>1431.0598144531</ele>
        <time>2012-09-15T07:56:53Z</time>
      </trkpt>
      <trkpt lat="42.71234" lon="1.40958">
        <ele>1429.6176757812</ele>
        <time>2012-09-15T07:57:00Z</time>
      </trkpt>
      <trkpt lat="42.71234" lon="1.40958">
        <ele>1429.6176757812</ele>
        <time>2012-09-15T07:57:02Z</time>
      </trkpt>
      <trkpt lat="42.71228" lon="1.40956">
        <ele>1436.3471679688</ele>
        <time>2012-09-15T07:57:07Z</time>
      </trkpt>
      <trkpt lat="42.71224" lon="1.40941">
        <ele>1433.9436035156</ele>
        <time>2012-09-15T07:57:12Z</time>
      </trkpt>
      <trkpt lat="42.71222" lon="1.40924">
        <ele>1431.0598144531</ele>
        <time>2012-09-15T07:57:17Z</time>
      </trkpt>
      <trkpt lat="42.7122" lon="1.40907">
        <ele>1430.0983886719</ele>
        <time>2012-09-15T07:57:23Z</time>
      </trkpt>
      <trkpt lat="42.71215" lon="1.40895">
        <ele>1429.6176757812</ele>
        <time>2012-09-15T07:57:28Z</time>
      </trkpt>
      <trkpt lat="42.71214" lon="1.40892">
        <ele>1429.1369628906</ele>
        <time>2012-09-15T07:57:30Z</time>
      </trkpt>
      <trkpt lat="42.71213" lon="1.4088">
        <ele>1428.6564941406</ele>
        <time>2012-09-15T07:57:38Z</time>
      </trkpt>
      <trkpt lat="42.71211" lon="1.40875">
        <ele>1429.1369628906</ele>
        <time>2012-09-15T07:57:41Z</time>
      </trkpt>
      <trkpt lat="42.71205" lon="1.40861">
        <ele>1430.0983886719</ele>
        <time>2012-09-15T07:57:47Z</time>
      </trkpt>
      <trkpt lat="42.71199" lon="1.40849">
        <ele>1430.5791015625</ele>
        <time>2012-09-15T07:57:52Z</time>
      </trkpt>
      <trkpt lat="42.71193" lon="1.40833">
        <ele>1430.0983886719</ele>
        <time>2012-09-15T07:57:58Z</time>
      </trkpt>
      <trkpt lat="42.71187" lon="1.40824">
        <ele>1429.6176757812</ele>
        <time>2012-09-15T07:58:03Z</time>
      </trkpt>
      <trkpt lat="42.7118" lon="1.40813">
        <ele>1430.5791015625</ele>
        <time>2012-09-15T07:58:08Z</time>
      </trkpt>
      <trkpt lat="42.71174" lon="1.40797">
        <ele>1431.0598144531</ele>
        <time>2012-09-15T07:58:15Z</time>
      </trkpt>
      <trkpt lat="42.7117" lon="1.40786">
        <ele>1431.0598144531</ele>
        <time>2012-09-15T07:58:20Z</time>
      </trkpt>
      <trkpt lat="42.71166" lon="1.4078">
        <ele>1431.5402832031</ele>
        <time>2012-09-15T07:58:24Z</time>
      </trkpt>
      <trkpt lat="42.71159" lon="1.40767">
        <ele>1431.5402832031</ele>
        <time>2012-09-15T07:58:32Z</time>
      </trkpt>
      <trkpt lat="42.71157" lon="1.40766">
        <ele>1431.5402832031</ele>
        <time>2012-09-15T07:58:33Z</time>
      </trkpt>
      <trkpt lat="42.71154" lon="1.40759">
        <ele>1432.0209960938</ele>
        <time>2012-09-15T07:58:37Z</time>
      </trkpt>
      <trkpt lat="42.71154" lon="1.40757">
        <ele>1432.0209960938</ele>
        <time>2012-09-15T07:58:39Z</time>
      </trkpt>
      <trkpt lat="42.71151" lon="1.40749">
        <ele>1429.6176757812</ele>
        <time>2012-09-15T07:58:44Z</time>
      </trkpt>
      <trkpt lat="42.7115" lon="1.40748">
        <ele>1429.6176757812</ele>
        <time>2012-09-15T07:58:45Z</time>
      </trkpt>
      <trkpt lat="42.71148" lon="1.40743">
        <ele>1429.1369628906</ele>
        <time>2012-09-15T07:58:49Z</time>
      </trkpt>
      <trkpt lat="42.71142" lon="1.40737">
        <ele>1428.17578125</ele>
        <time>2012-09-15T07:58:54Z</time>
      </trkpt>
      <trkpt lat="42.71139" lon="1.40732">
        <ele>1426.2531738281</ele>
        <time>2012-09-15T07:58:58Z</time>
      </trkpt>
      <trkpt lat="42.71136" lon="1.40723">
        <ele>1426.7338867188</ele>
        <time>2012-09-15T07:59:04Z</time>
      </trkpt>
      <trkpt lat="42.71136" lon="1.40715">
        <ele>1426.2531738281</ele>
        <time>2012-09-15T07:59:10Z</time>
      </trkpt>
      <trkpt lat="42.71134" lon="1.40707">
        <ele>1426.2531738281</ele>
        <time>2012-09-15T07:59:15Z</time>
      </trkpt>
      <trkpt lat="42.71133" lon="1.40699">
        <ele>1426.2531738281</ele>
        <time>2012-09-15T07:59:20Z</time>
      </trkpt>
      <trkpt lat="42.71132" lon="1.40691">
        <ele>1424.8112792969</ele>
        <time>2012-09-15T07:59:25Z</time>
      </trkpt>
      <trkpt lat="42.7113" lon="1.40679">
        <ele>1423.3693847656</ele>
        <time>2012-09-15T07:59:29Z</time>
      </trkpt>
      <trkpt lat="42.71129" lon="1.40673">
        <ele>1422.888671875</ele>
        <time>2012-09-15T07:59:32Z</time>
      </trkpt>
      <trkpt lat="42.71127" lon="1.40665">
        <ele>1423.8498535156</ele>
        <time>2012-09-15T07:59:37Z</time>
      </trkpt>
      <trkpt lat="42.71124" lon="1.40654">
        <ele>1423.8498535156</ele>
        <time>2012-09-15T07:59:43Z</time>
      </trkpt>
      <trkpt lat="42.7112" lon="1.40641">
        <ele>1425.2917480469</ele>
        <time>2012-09-15T07:59:51Z</time>
      </trkpt>
      <trkpt lat="42.71121" lon="1.40629">
        <ele>1427.2145996094</ele>
        <time>2012-09-15T07:59:59Z</time>
      </trkpt>
      <trkpt lat="42.71121" lon="1.40617">
        <ele>1428.17578125</ele>
        <time>2012-09-15T08:00:06Z</time>
      </trkpt>
      <trkpt lat="42.71121" lon="1.40604">
        <ele>1430.0983886719</ele>
        <time>2012-09-15T08:00:13Z</time>
      </trkpt>
      <trkpt lat="42.7112" lon="1.40596">
        <ele>1430.5791015625</ele>
        <time>2012-09-15T08:00:18Z</time>
      </trkpt>
      <trkpt lat="42.71119" lon="1.40585">
        <ele>1428.6564941406</ele>
        <time>2012-09-15T08:00:24Z</time>
      </trkpt>
      <trkpt lat="42.71121" lon="1.40572">
        <ele>1424.8112792969</ele>
        <time>2012-09-15T08:00:31Z</time>
      </trkpt>
      <trkpt lat="42.71122" lon="1.40571">
        <ele>1423.8498535156</ele>
        <time>2012-09-15T08:00:32Z</time>
      </trkpt>
      <trkpt lat="42.71123" lon="1.40554">
        <ele>1422.4079589844</ele>
        <time>2012-09-15T08:00:40Z</time>
      </trkpt>
      <trkpt lat="42.71125" lon="1.40547">
        <ele>1420.9660644531</ele>
        <time>2012-09-15T08:00:46Z</time>
      </trkpt>
      <trkpt lat="42.71122" lon="1.4054">
        <ele>1421.4465332031</ele>
        <time>2012-09-15T08:00:50Z</time>
      </trkpt>
      <trkpt lat="42.71121" lon="1.40539">
        <ele>1421.9272460938</ele>
        <time>2012-09-15T08:00:51Z</time>
      </trkpt>
      <trkpt lat="42.71119" lon="1.4053">
        <ele>1421.4465332031</ele>
        <time>2012-09-15T08:00:55Z</time>
      </trkpt>
      <trkpt lat="42.71122" lon="1.40519">
        <ele>1421.9272460938</ele>
        <time>2012-09-15T08:01:01Z</time>
      </trkpt>
      <trkpt lat="42.71124" lon="1.40505">
        <ele>1419.5239257812</ele>
        <time>2012-09-15T08:01:06Z</time>
      </trkpt>
      <trkpt lat="42.71125" lon="1.40496">
        <ele>1417.6010742188</ele>
        <time>2012-09-15T08:01:10Z</time>
      </trkpt>
      <trkpt lat="42.71126" lon="1.40492">
        <ele>1418.5625</ele>
        <time>2012-09-15T08:01:12Z</time>
      </trkpt>
      <trkpt lat="42.71126" lon="1.40477">
        <ele>1418.5625</ele>
        <time>2012-09-15T08:01:18Z</time>
      </trkpt>
      <trkpt lat="42.7113" lon="1.4046">
        <ele>1417.6010742188</ele>
        <time>2012-09-15T08:01:24Z</time>
      </trkpt>
      <trkpt lat="42.71134" lon="1.40451">
        <ele>1417.6010742188</ele>
        <time>2012-09-15T08:01:29Z</time>
      </trkpt>
      <trkpt lat="42.71136" lon="1.40446">
        <ele>1416.6398925781</ele>
        <time>2012-09-15T08:01:32Z</time>
      </trkpt>
      <trkpt lat="42.71138" lon="1.40437">
        <ele>1415.6787109375</ele>
        <time>2012-09-15T08:01:37Z</time>
      </trkpt>
      <trkpt lat="42.71139" lon="1.40428">
        <ele>1413.755859375</ele>
        <time>2012-09-15T08:01:42Z</time>
      </trkpt>
      <trkpt lat="42.7114" lon="1.40424">
        <ele>1412.7946777344</ele>
        <time>2012-09-15T08:01:44Z</time>
      </trkpt>
      <trkpt lat="42.71141" lon="1.40418">
        <ele>1412.3139648438</ele>
        <time>2012-09-15T08:01:46Z</time>
      </trkpt>
      <trkpt lat="42.71144" lon="1.40412">
        <ele>1410.3913574219</ele>
        <time>2012-09-15T08:01:50Z</time>
      </trkpt>
      <trkpt lat="42.71146" lon="1.40402">
        <ele>1408.46875</ele>
        <time>2012-09-15T08:01:56Z</time>
      </trkpt>
      <trkpt lat="42.71144" lon="1.40399">
        <ele>1407.5075683594</ele>
        <time>2012-09-15T08:01:59Z</time>
      </trkpt>
      <trkpt lat="42.71148" lon="1.4039">
        <ele>1405.5849609375</ele>
        <time>2012-09-15T08:02:04Z</time>
      </trkpt>
      <trkpt lat="42.71151" lon="1.40387">
        <ele>1403.1813964844</ele>
        <time>2012-09-15T08:02:07Z</time>
      </trkpt>
      <trkpt lat="42.71154" lon="1.4038">
        <ele>1400.7780761719</ele>
        <time>2012-09-15T08:02:11Z</time>
      </trkpt>
      <trkpt lat="42.71156" lon="1.40378">
        <ele>1400.7780761719</ele>
        <time>2012-09-15T08:02:12Z</time>
      </trkpt>
      <trkpt lat="42.71162" lon="1.40373">
        <ele>1399.8168945312</ele>
        <time>2012-09-15T08:02:16Z</time>
      </trkpt>
      <trkpt lat="42.7117" lon="1.40362">
        <ele>1398.3747558594</ele>
        <time>2012-09-15T08:02:21Z</time>
      </trkpt>
      <trkpt lat="42.71175" lon="1.40358">
        <ele>1397.8942871094</ele>
        <time>2012-09-15T08:02:24Z</time>
      </trkpt>
      <trkpt lat="42.71184" lon="1.40343">
        <ele>1402.2199707031</ele>
        <time>2012-09-15T08:02:30Z</time>
      </trkpt>
      <trkpt lat="42.71186" lon="1.40341">
        <ele>1402.7006835938</ele>
        <time>2012-09-15T08:02:31Z</time>
      </trkpt>
      <trkpt lat="42.71194" lon="1.40329">
        <ele>1410.8720703125</ele>
        <time>2012-09-15T08:02:37Z</time>
      </trkpt>
      <trkpt lat="42.71206" lon="1.40319">
        <ele>1413.755859375</ele>
        <time>2012-09-15T08:02:44Z</time>
      </trkpt>
      <trkpt lat="42.71207" lon="1.40317">
        <ele>1415.6787109375</ele>
        <time>2012-09-15T08:02:45Z</time>
      </trkpt>
      <trkpt lat="42.71217" lon="1.40306">
        <ele>1417.6010742188</ele>
        <time>2012-09-15T08:02:51Z</time>
      </trkpt>
      <trkpt lat="42.71224" lon="1.40297">
        <ele>1420.0046386719</ele>
        <time>2012-09-15T08:02:56Z</time>
      </trkpt>
      <trkpt lat="42.7123" lon="1.40289">
        <ele>1420.4853515625</ele>
        <time>2012-09-15T08:03:00Z</time>
      </trkpt>
      <trkpt lat="42.71238" lon="1.40284">
        <ele>1418.5625</ele>
        <time>2012-09-15T08:03:05Z</time>
      </trkpt>
      <trkpt lat="42.71247" lon="1.40281">
        <ele>1414.2365722656</ele>
        <time>2012-09-15T08:03:12Z</time>
      </trkpt>
      <trkpt lat="42.71249" lon="1.40279">
        <ele>1414.7172851562</ele>
        <time>2012-09-15T08:03:17Z</time>
      </trkpt>
      <trkpt lat="42.71248" lon="1.40274">
        <ele>1414.2365722656</ele>
        <time>2012-09-15T08:03:24Z</time>
      </trkpt>
      <trkpt lat="42.71249" lon="1.40273">
        <ele>1413.755859375</ele>
        <time>2012-09-15T08:03:25Z</time>
      </trkpt>
      <trkpt lat="42.71249" lon="1.40266">
        <ele>1412.3139648438</ele>
        <time>2012-09-15T08:03:31Z</time>
      </trkpt>
      <trkpt lat="42.71247" lon="1.40263">
        <ele>1413.275390625</ele>
        <time>2012-09-15T08:03:34Z</time>
      </trkpt>
      <trkpt lat="42.71252" lon="1.40259">
        <ele>1411.8334960938</ele>
        <time>2012-09-15T08:03:41Z</time>
      </trkpt>
      <trkpt lat="42.71256" lon="1.40255">
        <ele>1412.7946777344</ele>
        <time>2012-09-15T08:03:46Z</time>
      </trkpt>
      <trkpt lat="42.71257" lon="1.40255">
        <ele>1412.7946777344</ele>
        <time>2012-09-15T08:03:47Z</time>
      </trkpt>
      <trkpt lat="42.71266" lon="1.40247">
        <ele>1413.275390625</ele>
        <time>2012-09-15T08:03:55Z</time>
      </trkpt>
      <trkpt lat="42.71268" lon="1.40242">
        <ele>1412.3139648438</ele>
        <time>2012-09-15T08:04:00Z</time>
      </trkpt>
      <trkpt lat="42.71273" lon="1.40238">
        <ele>1411.8334960938</ele>
        <time>2012-09-15T08:04:05Z</time>
      </trkpt>
      <trkpt lat="42.71276" lon="1.40238">
        <ele>1409.9106445312</ele>
        <time>2012-09-15T08:04:11Z</time>
      </trkpt>
      <trkpt lat="42.71279" lon="1.40235">
        <ele>1409.4301757812</ele>
        <time>2012-09-15T08:04:24Z</time>
      </trkpt>
      <trkpt lat="42.71283" lon="1.40232">
        <ele>1410.8720703125</ele>
        <time>2012-09-15T08:04:29Z</time>
      </trkpt>
      <trkpt lat="42.71283" lon="1.40226">
        <ele>1411.3527832031</ele>
        <time>2012-09-15T08:04:35Z</time>
      </trkpt>
      <trkpt lat="42.71283" lon="1.40222">
        <ele>1411.3527832031</ele>
        <time>2012-09-15T08:04:39Z</time>
      </trkpt>
      <trkpt lat="42.71288" lon="1.40221">
        <ele>1413.755859375</ele>
        <time>2012-09-15T08:04:44Z</time>
      </trkpt>
      <trkpt lat="42.7129" lon="1.40217">
        <ele>1415.1979980469</ele>
        <time>2012-09-15T08:04:48Z</time>
      </trkpt>
      <trkpt lat="42.71292" lon="1.40212">
        <ele>1416.1591796875</ele>
        <time>2012-09-15T08:04:53Z</time>
      </trkpt>
      <trkpt lat="42.71294" lon="1.40213">
        <ele>1420.0046386719</ele>
        <time>2012-09-15T08:04:58Z</time>
      </trkpt>
      <trkpt lat="42.71297" lon="1.40209">
        <ele>1423.3693847656</ele>
        <time>2012-09-15T08:05:04Z</time>
      </trkpt>
      <trkpt lat="42.71299" lon="1.40204">
        <ele>1424.3305664062</ele>
        <time>2012-09-15T08:05:10Z</time>
      </trkpt>
      <trkpt lat="42.71304" lon="1.40203">
        <ele>1425.2917480469</ele>
        <time>2012-09-15T08:05:17Z</time>
      </trkpt>
      <trkpt lat="42.71307" lon="1.40201">
        <ele>1425.2917480469</ele>
        <time>2012-09-15T08:05:21Z</time>
      </trkpt>
      <trkpt lat="42.71309" lon="1.40201">
        <ele>1425.2917480469</ele>
        <time>2012-09-15T08:05:25Z</time>
      </trkpt>
      <trkpt lat="42.71314" lon="1.40199">
        <ele>1424.8112792969</ele>
        <time>2012-09-15T08:05:31Z</time>
      </trkpt>
      <trkpt lat="42.71321" lon="1.40196">
        <ele>1425.2917480469</ele>
        <time>2012-09-15T08:05:38Z</time>
      </trkpt>
      <trkpt lat="42.71326" lon="1.40192">
        <ele>1424.8112792969</ele>
        <time>2012-09-15T08:05:44Z</time>
      </trkpt>
      <trkpt lat="42.71333" lon="1.40188">
        <ele>1426.7338867188</ele>
        <time>2012-09-15T08:05:51Z</time>
      </trkpt>
      <trkpt lat="42.71336" lon="1.40185">
        <ele>1427.6950683594</ele>
        <time>2012-09-15T08:05:56Z</time>
      </trkpt>
      <trkpt lat="42.71342" lon="1.40181">
        <ele>1428.17578125</ele>
        <time>2012-09-15T08:06:03Z</time>
      </trkpt>
      <trkpt lat="42.71352" lon="1.40179">
        <ele>1430.0983886719</ele>
        <time>2012-09-15T08:06:11Z</time>
      </trkpt>
      <trkpt lat="42.71357" lon="1.40178">
        <ele>1431.5402832031</ele>
        <time>2012-09-15T08:06:16Z</time>
      </trkpt>
      <trkpt lat="42.71365" lon="1.40174">
        <ele>1432.5017089844</ele>
        <time>2012-09-15T08:06:23Z</time>
      </trkpt>
      <trkpt lat="42.7137" lon="1.40172">
        <ele>1433.462890625</ele>
        <time>2012-09-15T08:06:28Z</time>
      </trkpt>
      <trkpt lat="42.71373" lon="1.4017">
        <ele>1434.4243164062</ele>
        <time>2012-09-15T08:06:32Z</time>
      </trkpt>
      <trkpt lat="42.71377" lon="1.40169">
        <ele>1435.8662109375</ele>
        <time>2012-09-15T08:06:37Z</time>
      </trkpt>
      <trkpt lat="42.71382" lon="1.40164">
        <ele>1436.8276367188</ele>
        <time>2012-09-15T08:06:45Z</time>
      </trkpt>
      <trkpt lat="42.71387" lon="1.4016">
        <ele>1438.2697753906</ele>
        <time>2012-09-15T08:06:51Z</time>
      </trkpt>
      <trkpt lat="42.7139" lon="1.40154">
        <ele>1439.2309570312</ele>
        <time>2012-09-15T08:06:57Z</time>
      </trkpt>
      <trkpt lat="42.71396" lon="1.40149">
        <ele>1439.7116699219</ele>
        <time>2012-09-15T08:07:03Z</time>
      </trkpt>
      <trkpt lat="42.71399" lon="1.40146">
        <ele>1440.1923828125</ele>
        <time>2012-09-15T08:07:07Z</time>
      </trkpt>
      <trkpt lat="42.71401" lon="1.40142">
        <ele>1440.1923828125</ele>
        <time>2012-09-15T08:07:11Z</time>
      </trkpt>
      <trkpt lat="42.714" lon="1.40133">
        <ele>1441.1535644531</ele>
        <time>2012-09-15T08:07:18Z</time>
      </trkpt>
      <trkpt lat="42.71401" lon="1.40129">
        <ele>1441.6342773438</ele>
        <time>2012-09-15T08:07:21Z</time>
      </trkpt>
      <trkpt lat="42.71404" lon="1.40125">
        <ele>1442.595703125</ele>
        <time>2012-09-15T08:07:26Z</time>
      </trkpt>
      <trkpt lat="42.71405" lon="1.4012">
        <ele>1443.076171875</ele>
        <time>2012-09-15T08:07:30Z</time>
      </trkpt>
      <trkpt lat="42.71408" lon="1.40115">
        <ele>1444.0375976562</ele>
        <time>2012-09-15T08:07:36Z</time>
      </trkpt>
      <trkpt lat="42.71414" lon="1.40109">
        <ele>1445.4794921875</ele>
        <time>2012-09-15T08:07:43Z</time>
      </trkpt>
      <trkpt lat="42.71416" lon="1.40104">
        <ele>1445.9602050781</ele>
        <time>2012-09-15T08:07:47Z</time>
      </trkpt>
      <trkpt lat="42.71417" lon="1.40103">
        <ele>1445.9602050781</ele>
        <time>2012-09-15T08:07:48Z</time>
      </trkpt>
      <trkpt lat="42.71423" lon="1.401">
        <ele>1445.4794921875</ele>
        <time>2012-09-15T08:07:53Z</time>
      </trkpt>
      <trkpt lat="42.71424" lon="1.40099">
        <ele>1445.9602050781</ele>
        <time>2012-09-15T08:07:55Z</time>
      </trkpt>
      <trkpt lat="42.7143" lon="1.40094">
        <ele>1447.4020996094</ele>
        <time>2012-09-15T08:08:01Z</time>
      </trkpt>
      <trkpt lat="42.71435" lon="1.40093">
        <ele>1447.8828125</ele>
        <time>2012-09-15T08:08:05Z</time>
      </trkpt>
      <trkpt lat="42.71437" lon="1.40092">
        <ele>1447.8828125</ele>
        <time>2012-09-15T08:08:08Z</time>
      </trkpt>
      <trkpt lat="42.71438" lon="1.40086">
        <ele>1449.8054199219</ele>
        <time>2012-09-15T08:08:13Z</time>
      </trkpt>
      <trkpt lat="42.71441" lon="1.40084">
        <ele>1451.2473144531</ele>
        <time>2012-09-15T08:08:17Z</time>
      </trkpt>
      <trkpt lat="42.71442" lon="1.4008">
        <ele>1452.689453125</ele>
        <time>2012-09-15T08:08:21Z</time>
      </trkpt>
      <trkpt lat="42.71444" lon="1.40076">
        <ele>1454.1315917969</ele>
        <time>2012-09-15T08:08:27Z</time>
      </trkpt>
      <trkpt lat="42.71447" lon="1.40072">
        <ele>1455.5734863281</ele>
        <time>2012-09-15T08:08:32Z</time>
      </trkpt>
      <trkpt lat="42.71449" lon="1.40069">
        <ele>1457.0153808594</ele>
        <time>2012-09-15T08:08:36Z</time>
      </trkpt>
      <trkpt lat="42.71452" lon="1.40067">
        <ele>1457.49609375</ele>
        <time>2012-09-15T08:08:40Z</time>
      </trkpt>
      <trkpt lat="42.71457" lon="1.40066">
        <ele>1459.4187011719</ele>
        <time>2012-09-15T08:08:46Z</time>
      </trkpt>
      <trkpt lat="42.71459" lon="1.40063">
        <ele>1460.3798828125</ele>
        <time>2012-09-15T08:08:50Z</time>
      </trkpt>
      <trkpt lat="42.71463" lon="1.4006">
        <ele>1461.3413085938</ele>
        <time>2012-09-15T08:08:55Z</time>
      </trkpt>
      <trkpt lat="42.71468" lon="1.40057">
        <ele>1463.2639160156</ele>
        <time>2012-09-15T08:09:01Z</time>
      </trkpt>
      <trkpt lat="42.7147" lon="1.40055">
        <ele>1463.2639160156</ele>
        <time>2012-09-15T08:09:04Z</time>
      </trkpt>
      <trkpt lat="42.71472" lon="1.4005">
        <ele>1463.2639160156</ele>
        <time>2012-09-15T08:09:08Z</time>
      </trkpt>
      <trkpt lat="42.71475" lon="1.40046">
        <ele>1463.7443847656</ele>
        <time>2012-09-15T08:09:13Z</time>
      </trkpt>
      <trkpt lat="42.71477" lon="1.40041">
        <ele>1469.9931640625</ele>
        <time>2012-09-15T08:09:19Z</time>
      </trkpt>
      <trkpt lat="42.7148" lon="1.40036">
        <ele>1471.4350585938</ele>
        <time>2012-09-15T08:09:24Z</time>
      </trkpt>
      <trkpt lat="42.7148" lon="1.40031">
        <ele>1475.7609863281</ele>
        <time>2012-09-15T08:09:28Z</time>
      </trkpt>
      <trkpt lat="42.7148" lon="1.40028">
        <ele>1477.203125</ele>
        <time>2012-09-15T08:09:30Z</time>
      </trkpt>
      <trkpt lat="42.71482" lon="1.40022">
        <ele>1484.4130859375</ele>
        <time>2012-09-15T08:09:36Z</time>
      </trkpt>
      <trkpt lat="42.71486" lon="1.40018">
        <ele>1483.4514160156</ele>
        <time>2012-09-15T08:09:41Z</time>
      </trkpt>
      <trkpt lat="42.7149" lon="1.40017">
        <ele>1482.970703125</ele>
        <time>2012-09-15T08:09:45Z</time>
      </trkpt>
      <trkpt lat="42.71498" lon="1.40016">
        <ele>1482.970703125</ele>
        <time>2012-09-15T08:09:52Z</time>
      </trkpt>
      <trkpt lat="42.71504" lon="1.40015">
        <ele>1484.8937988281</ele>
        <time>2012-09-15T08:09:58Z</time>
      </trkpt>
      <trkpt lat="42.71505" lon="1.40015">
        <ele>1484.8937988281</ele>
        <time>2012-09-15T08:09:59Z</time>
      </trkpt>
      <trkpt lat="42.71508" lon="1.40011">
        <ele>1487.296875</ele>
        <time>2012-09-15T08:10:03Z</time>
      </trkpt>
      <trkpt lat="42.71511" lon="1.40008">
        <ele>1491.6228027344</ele>
        <time>2012-09-15T08:10:08Z</time>
      </trkpt>
      <trkpt lat="42.71514" lon="1.40002">
        <ele>1495.9487304688</ele>
        <time>2012-09-15T08:10:14Z</time>
      </trkpt>
      <trkpt lat="42.71516" lon="1.39993">
        <ele>1495.9487304688</ele>
        <time>2012-09-15T08:10:21Z</time>
      </trkpt>
      <trkpt lat="42.71519" lon="1.39987">
        <ele>1494.5065917969</ele>
        <time>2012-09-15T08:10:27Z</time>
      </trkpt>
      <trkpt lat="42.71524" lon="1.39981">
        <ele>1492.5842285156</ele>
        <time>2012-09-15T08:10:34Z</time>
      </trkpt>
      <trkpt lat="42.71527" lon="1.39973">
        <ele>1492.5842285156</ele>
        <time>2012-09-15T08:10:40Z</time>
      </trkpt>
      <trkpt lat="42.71528" lon="1.3997">
        <ele>1492.103515625</ele>
        <time>2012-09-15T08:10:43Z</time>
      </trkpt>
      <trkpt lat="42.71529" lon="1.39968">
        <ele>1492.5842285156</ele>
        <time>2012-09-15T08:10:45Z</time>
      </trkpt>
      <trkpt lat="42.71532" lon="1.39965">
        <ele>1492.103515625</ele>
        <time>2012-09-15T08:10:48Z</time>
      </trkpt>
      <trkpt lat="42.71534" lon="1.39959">
        <ele>1492.5842285156</ele>
        <time>2012-09-15T08:10:53Z</time>
      </trkpt>
      <trkpt lat="42.71538" lon="1.39952">
        <ele>1492.103515625</ele>
        <time>2012-09-15T08:10:59Z</time>
      </trkpt>
      <trkpt lat="42.7154" lon="1.39943">
        <ele>1493.0646972656</ele>
        <time>2012-09-15T08:11:06Z</time>
      </trkpt>
      <trkpt lat="42.71544" lon="1.39937">
        <ele>1493.0646972656</ele>
        <time>2012-09-15T08:11:11Z</time>
      </trkpt>
      <trkpt lat="42.71548" lon="1.39934">
        <ele>1494.0261230469</ele>
        <time>2012-09-15T08:11:16Z</time>
      </trkpt>
      <trkpt lat="42.71551" lon="1.39931">
        <ele>1494.9873046875</ele>
        <time>2012-09-15T08:11:21Z</time>
      </trkpt>
      <trkpt lat="42.71556" lon="1.39931">
        <ele>1495.4680175781</ele>
        <time>2012-09-15T08:11:26Z</time>
      </trkpt>
      <trkpt lat="42.7156" lon="1.39929">
        <ele>1496.4294433594</ele>
        <time>2012-09-15T08:11:31Z</time>
      </trkpt>
      <trkpt lat="42.71561" lon="1.39927">
        <ele>1496.9099121094</ele>
        <time>2012-09-15T08:11:35Z</time>
      </trkpt>
      <trkpt lat="42.71562" lon="1.39922">
        <ele>1497.8713378906</ele>
        <time>2012-09-15T08:11:39Z</time>
      </trkpt>
      <trkpt lat="42.71562" lon="1.39916">
        <ele>1498.8325195312</ele>
        <time>2012-09-15T08:11:44Z</time>
      </trkpt>
      <trkpt lat="42.7156" lon="1.39911">
        <ele>1500.2749023438</ele>
        <time>2012-09-15T08:11:49Z</time>
      </trkpt>
      <trkpt lat="42.7156" lon="1.39906">
        <ele>1502.6779785156</ele>
        <time>2012-09-15T08:11:54Z</time>
      </trkpt>
      <trkpt lat="42.7156" lon="1.39901">
        <ele>1504.1201171875</ele>
        <time>2012-09-15T08:12:00Z</time>
      </trkpt>
      <trkpt lat="42.71558" lon="1.39896">
        <ele>1506.5231933594</ele>
        <time>2012-09-15T08:12:06Z</time>
      </trkpt>
      <trkpt lat="42.71557" lon="1.39891">
        <ele>1507.9653320312</ele>
        <time>2012-09-15T08:12:11Z</time>
      </trkpt>
      <trkpt lat="42.71559" lon="1.39888">
        <ele>1508.4458007812</ele>
        <time>2012-09-15T08:12:15Z</time>
      </trkpt>
      <trkpt lat="42.71561" lon="1.39886">
        <ele>1509.8876953125</ele>
        <time>2012-09-15T08:12:20Z</time>
      </trkpt>
      <trkpt lat="42.71561" lon="1.39883">
        <ele>1510.8491210938</ele>
        <time>2012-09-15T08:12:24Z</time>
      </trkpt>
      <trkpt lat="42.71559" lon="1.3988">
        <ele>1512.291015625</ele>
        <time>2012-09-15T08:12:29Z</time>
      </trkpt>
      <trkpt lat="42.7156" lon="1.39876">
        <ele>1514.2136230469</ele>
        <time>2012-09-15T08:12:33Z</time>
      </trkpt>
      <trkpt lat="42.71562" lon="1.39874">
        <ele>1514.6943359375</ele>
        <time>2012-09-15T08:12:37Z</time>
      </trkpt>
      <trkpt lat="42.71562" lon="1.3987">
        <ele>1514.6943359375</ele>
        <time>2012-09-15T08:12:41Z</time>
      </trkpt>
      <trkpt lat="42.71561" lon="1.39866">
        <ele>1515.6557617188</ele>
        <time>2012-09-15T08:12:46Z</time>
      </trkpt>
      <trkpt lat="42.71564" lon="1.39862">
        <ele>1517.5783691406</ele>
        <time>2012-09-15T08:12:53Z</time>
      </trkpt>
      <trkpt lat="42.71563" lon="1.39859">
        <ele>1519.0205078125</ele>
        <time>2012-09-15T08:12:59Z</time>
      </trkpt>
      <trkpt lat="42.7156" lon="1.39855">
        <ele>1520.9431152344</ele>
        <time>2012-09-15T08:13:04Z</time>
      </trkpt>
      <trkpt lat="42.71556" lon="1.39851">
        <ele>1523.8269042969</ele>
        <time>2012-09-15T08:13:11Z</time>
      </trkpt>
      <trkpt lat="42.71549" lon="1.39849">
        <ele>1526.7109375</ele>
        <time>2012-09-15T08:13:19Z</time>
      </trkpt>
      <trkpt lat="42.71545" lon="1.39845">
        <ele>1528.6335449219</ele>
        <time>2012-09-15T08:13:24Z</time>
      </trkpt>
      <trkpt lat="42.7154" lon="1.39841">
        <ele>1530.0754394531</ele>
        <time>2012-09-15T08:13:31Z</time>
      </trkpt>
      <trkpt lat="42.71543" lon="1.39837">
        <ele>1529.5947265625</ele>
        <time>2012-09-15T08:13:35Z</time>
      </trkpt>
      <trkpt lat="42.71548" lon="1.39835">
        <ele>1529.1140136719</ele>
        <time>2012-09-15T08:13:39Z</time>
      </trkpt>
      <trkpt lat="42.71553" lon="1.39832">
        <ele>1529.1140136719</ele>
        <time>2012-09-15T08:13:45Z</time>
      </trkpt>
      <trkpt lat="42.71557" lon="1.3983">
        <ele>1530.0754394531</ele>
        <time>2012-09-15T08:13:50Z</time>
      </trkpt>
      <trkpt lat="42.71563" lon="1.39828">
        <ele>1529.5947265625</ele>
        <time>2012-09-15T08:13:56Z</time>
      </trkpt>
      <trkpt lat="42.71566" lon="1.39826">
        <ele>1529.5947265625</ele>
        <time>2012-09-15T08:14:00Z</time>
      </trkpt>
      <trkpt lat="42.71571" lon="1.39823">
        <ele>1530.5561523438</ele>
        <time>2012-09-15T08:14:06Z</time>
      </trkpt>
      <trkpt lat="42.71574" lon="1.39822">
        <ele>1531.5173339844</ele>
        <time>2012-09-15T08:14:10Z</time>
      </trkpt>
      <trkpt lat="42.71577" lon="1.39822">
        <ele>1531.998046875</ele>
        <time>2012-09-15T08:14:14Z</time>
      </trkpt>
      <trkpt lat="42.71579" lon="1.39821">
        <ele>1533.9208984375</ele>
        <time>2012-09-15T08:14:19Z</time>
      </trkpt>
      <trkpt lat="42.71578" lon="1.39819">
        <ele>1535.3627929688</ele>
        <time>2012-09-15T08:14:23Z</time>
      </trkpt>
      <trkpt lat="42.71573" lon="1.39814">
        <ele>1538.2468261719</ele>
        <time>2012-09-15T08:14:29Z</time>
      </trkpt>
      <trkpt lat="42.71571" lon="1.3981">
        <ele>1539.6887207031</ele>
        <time>2012-09-15T08:14:33Z</time>
      </trkpt>
      <trkpt lat="42.71565" lon="1.39806">
        <ele>1541.611328125</ele>
        <time>2012-09-15T08:14:40Z</time>
      </trkpt>
      <trkpt lat="42.71561" lon="1.39805">
        <ele>1544.0146484375</ele>
        <time>2012-09-15T08:14:45Z</time>
      </trkpt>
      <trkpt lat="42.71558" lon="1.39805">
        <ele>1546.41796875</ele>
        <time>2012-09-15T08:14:49Z</time>
      </trkpt>
      <trkpt lat="42.71556" lon="1.39802">
        <ele>1547.8598632812</ele>
        <time>2012-09-15T08:14:54Z</time>
      </trkpt>
      <trkpt lat="42.7156" lon="1.39798">
        <ele>1548.3405761719</ele>
        <time>2012-09-15T08:15:00Z</time>
      </trkpt>
      <trkpt lat="42.71564" lon="1.39796">
        <ele>1548.3405761719</ele>
        <time>2012-09-15T08:15:04Z</time>
      </trkpt>
      <trkpt lat="42.71567" lon="1.39794">
        <ele>1547.3791503906</ele>
        <time>2012-09-15T08:15:06Z</time>
      </trkpt>
      <trkpt lat="42.71574" lon="1.39792">
        <ele>1546.41796875</ele>
        <time>2012-09-15T08:15:11Z</time>
      </trkpt>
      <trkpt lat="42.71577" lon="1.39792">
        <ele>1547.3791503906</ele>
        <time>2012-09-15T08:15:17Z</time>
      </trkpt>
      <trkpt lat="42.71578" lon="1.39792">
        <ele>1547.8598632812</ele>
        <time>2012-09-15T08:15:20Z</time>
      </trkpt>
      <trkpt lat="42.71576" lon="1.3979">
        <ele>1552.1857910156</ele>
        <time>2012-09-15T08:15:22Z</time>
      </trkpt>
      <trkpt lat="42.71574" lon="1.39787">
        <ele>1554.5891113281</ele>
        <time>2012-09-15T08:15:29Z</time>
      </trkpt>
      <trkpt lat="42.71572" lon="1.39786">
        <ele>1556.51171875</ele>
        <time>2012-09-15T08:15:32Z</time>
      </trkpt>
      <trkpt lat="42.71571" lon="1.39783">
        <ele>1557.9538574219</ele>
        <time>2012-09-15T08:15:37Z</time>
      </trkpt>
      <trkpt lat="42.71567" lon="1.3978">
        <ele>1560.3569335938</ele>
        <time>2012-09-15T08:15:42Z</time>
      </trkpt>
      <trkpt lat="42.71563" lon="1.39777">
        <ele>1562.7602539062</ele>
        <time>2012-09-15T08:15:47Z</time>
      </trkpt>
      <trkpt lat="42.7156" lon="1.39777">
        <ele>1564.6831054688</ele>
        <time>2012-09-15T08:15:50Z</time>
      </trkpt>
      <trkpt lat="42.71555" lon="1.39775">
        <ele>1566.125</ele>
        <time>2012-09-15T08:15:56Z</time>
      </trkpt>
      <trkpt lat="42.71551" lon="1.39772">
        <ele>1566.6057128906</ele>
        <time>2012-09-15T08:16:01Z</time>
      </trkpt>
      <trkpt lat="42.71546" lon="1.39771">
        <ele>1569.0090332031</ele>
        <time>2012-09-15T08:16:08Z</time>
      </trkpt>
      <trkpt lat="42.71543" lon="1.39771">
        <ele>1569.9702148438</ele>
        <time>2012-09-15T08:16:13Z</time>
      </trkpt>
      <trkpt lat="42.71539" lon="1.39769">
        <ele>1570.931640625</ele>
        <time>2012-09-15T08:16:18Z</time>
      </trkpt>
      <trkpt lat="42.71539" lon="1.39764">
        <ele>1570.931640625</ele>
        <time>2012-09-15T08:16:23Z</time>
      </trkpt>
      <trkpt lat="42.71541" lon="1.39761">
        <ele>1570.4509277344</ele>
        <time>2012-09-15T08:16:29Z</time>
      </trkpt>
      <trkpt lat="42.71539" lon="1.39759">
        <ele>1570.931640625</ele>
        <time>2012-09-15T08:16:35Z</time>
      </trkpt>
      <trkpt lat="42.71536" lon="1.39758">
        <ele>1571.8928222656</ele>
        <time>2012-09-15T08:16:40Z</time>
      </trkpt>
      <trkpt lat="42.71536" lon="1.39754">
        <ele>1572.3735351562</ele>
        <time>2012-09-15T08:16:44Z</time>
      </trkpt>
      <trkpt lat="42.71539" lon="1.3975">
        <ele>1573.8154296875</ele>
        <time>2012-09-15T08:16:49Z</time>
      </trkpt>
      <trkpt lat="42.71539" lon="1.39748">
        <ele>1574.7768554688</ele>
        <time>2012-09-15T08:16:53Z</time>
      </trkpt>
      <trkpt lat="42.71542" lon="1.39746">
        <ele>1575.2573242188</ele>
        <time>2012-09-15T08:16:58Z</time>
      </trkpt>
      <trkpt lat="42.71544" lon="1.39744">
        <ele>1576.21875</ele>
        <time>2012-09-15T08:17:01Z</time>
      </trkpt>
      <trkpt lat="42.71548" lon="1.39741">
        <ele>1576.21875</ele>
        <time>2012-09-15T08:17:07Z</time>
      </trkpt>
      <trkpt lat="42.71549" lon="1.39738">
        <ele>1577.1801757812</ele>
        <time>2012-09-15T08:17:11Z</time>
      </trkpt>
      <trkpt lat="42.7155" lon="1.39737">
        <ele>1579.1025390625</ele>
        <time>2012-09-15T08:17:15Z</time>
      </trkpt>
      <trkpt lat="42.71554" lon="1.39736">
        <ele>1580.0642089844</ele>
        <time>2012-09-15T08:17:21Z</time>
      </trkpt>
      <trkpt lat="42.71557" lon="1.39734">
        <ele>1581.5061035156</ele>
        <time>2012-09-15T08:17:26Z</time>
      </trkpt>
      <trkpt lat="42.71562" lon="1.39735">
        <ele>1581.0256347656</ele>
        <time>2012-09-15T08:17:31Z</time>
      </trkpt>
      <trkpt lat="42.71566" lon="1.39735">
        <ele>1581.9868164062</ele>
        <time>2012-09-15T08:17:35Z</time>
      </trkpt>
      <trkpt lat="42.71569" lon="1.39738">
        <ele>1582.9479980469</ele>
        <time>2012-09-15T08:17:41Z</time>
      </trkpt>
      <trkpt lat="42.71572" lon="1.3974">
        <ele>1583.9094238281</ele>
        <time>2012-09-15T08:17:46Z</time>
      </trkpt>
      <trkpt lat="42.71571" lon="1.39737">
        <ele>1584.8708496094</ele>
        <time>2012-09-15T08:17:51Z</time>
      </trkpt>
      <trkpt lat="42.71571" lon="1.39735">
        <ele>1586.3127441406</ele>
        <time>2012-09-15T08:17:57Z</time>
      </trkpt>
      <trkpt lat="42.71568" lon="1.39731">
        <ele>1589.1965332031</ele>
        <time>2012-09-15T08:18:06Z</time>
      </trkpt>
      <trkpt lat="42.71566" lon="1.39723">
        <ele>1590.6384277344</ele>
        <time>2012-09-15T08:18:13Z</time>
      </trkpt>
      <trkpt lat="42.71565" lon="1.39719">
        <ele>1591.5998535156</ele>
        <time>2012-09-15T08:18:18Z</time>
      </trkpt>
      <trkpt lat="42.71563" lon="1.39714">
        <ele>1593.0417480469</ele>
        <time>2012-09-15T08:18:24Z</time>
      </trkpt>
      <trkpt lat="42.71557" lon="1.39714">
        <ele>1594.9643554688</ele>
        <time>2012-09-15T08:18:31Z</time>
      </trkpt>
      <trkpt lat="42.71554" lon="1.39713">
        <ele>1595.92578125</ele>
        <time>2012-09-15T08:18:35Z</time>
      </trkpt>
      <trkpt lat="42.71552" lon="1.39711">
        <ele>1596.8872070312</ele>
        <time>2012-09-15T08:18:40Z</time>
      </trkpt>
      <trkpt lat="42.71553" lon="1.39706">
        <ele>1598.3291015625</ele>
        <time>2012-09-15T08:18:47Z</time>
      </trkpt>
      <trkpt lat="42.71556" lon="1.39703">
        <ele>1598.3291015625</ele>
        <time>2012-09-15T08:18:52Z</time>
      </trkpt>
      <trkpt lat="42.71561" lon="1.39702">
        <ele>1598.8098144531</ele>
        <time>2012-09-15T08:18:58Z</time>
      </trkpt>
      <trkpt lat="42.71566" lon="1.39703">
        <ele>1600.251953125</ele>
        <time>2012-09-15T08:19:03Z</time>
      </trkpt>
      <trkpt lat="42.71568" lon="1.39702">
        <ele>1601.6938476562</ele>
        <time>2012-09-15T08:19:07Z</time>
      </trkpt>
      <trkpt lat="42.71573" lon="1.397">
        <ele>1602.6550292969</ele>
        <time>2012-09-15T08:19:12Z</time>
      </trkpt>
      <trkpt lat="42.71577" lon="1.39701">
        <ele>1603.6164550781</ele>
        <time>2012-09-15T08:19:17Z</time>
      </trkpt>
      <trkpt lat="42.71579" lon="1.39701">
        <ele>1604.0971679688</ele>
        <time>2012-09-15T08:19:23Z</time>
      </trkpt>
      <trkpt lat="42.71579" lon="1.39699">
        <ele>1604.5776367188</ele>
        <time>2012-09-15T08:19:28Z</time>
      </trkpt>
      <trkpt lat="42.71575" lon="1.39695">
        <ele>1606.5002441406</ele>
        <time>2012-09-15T08:19:34Z</time>
      </trkpt>
      <trkpt lat="42.71571" lon="1.39691">
        <ele>1609.3842773438</ele>
        <time>2012-09-15T08:19:40Z</time>
      </trkpt>
      <trkpt lat="42.71566" lon="1.39688">
        <ele>1611.7875976562</ele>
        <time>2012-09-15T08:19:45Z</time>
      </trkpt>
      <trkpt lat="42.71563" lon="1.39687">
        <ele>1614.1909179688</ele>
        <time>2012-09-15T08:19:49Z</time>
      </trkpt>
      <trkpt lat="42.71559" lon="1.39685">
        <ele>1615.6330566406</ele>
        <time>2012-09-15T08:19:53Z</time>
      </trkpt>
      <trkpt lat="42.71554" lon="1.39683">
        <ele>1617.5554199219</ele>
        <time>2012-09-15T08:19:59Z</time>
      </trkpt>
      <trkpt lat="42.71549" lon="1.39683">
        <ele>1621.4006347656</ele>
        <time>2012-09-15T08:20:04Z</time>
      </trkpt>
      <trkpt lat="42.71545" lon="1.39681">
        <ele>1623.8039550781</ele>
        <time>2012-09-15T08:20:10Z</time>
      </trkpt>
      <trkpt lat="42.71541" lon="1.39678">
        <ele>1625.2458496094</ele>
        <time>2012-09-15T08:20:15Z</time>
      </trkpt>
      <trkpt lat="42.71537" lon="1.39677">
        <ele>1626.2072753906</ele>
        <time>2012-09-15T08:20:20Z</time>
      </trkpt>
      <trkpt lat="42.71534" lon="1.39675">
        <ele>1626.2072753906</ele>
        <time>2012-09-15T08:20:24Z</time>
      </trkpt>
      <trkpt lat="42.71533" lon="1.39672">
        <ele>1626.6879882812</ele>
        <time>2012-09-15T08:20:29Z</time>
      </trkpt>
      <trkpt lat="42.71529" lon="1.39672">
        <ele>1627.6491699219</ele>
        <time>2012-09-15T08:20:34Z</time>
      </trkpt>
      <trkpt lat="42.71527" lon="1.39668">
        <ele>1627.1687011719</ele>
        <time>2012-09-15T08:20:39Z</time>
      </trkpt>
      <trkpt lat="42.71525" lon="1.39663">
        <ele>1627.6491699219</ele>
        <time>2012-09-15T08:20:46Z</time>
      </trkpt>
      <trkpt lat="42.71522" lon="1.39662">
        <ele>1629.5720214844</ele>
        <time>2012-09-15T08:20:51Z</time>
      </trkpt>
      <trkpt lat="42.71523" lon="1.39657">
        <ele>1629.5720214844</ele>
        <time>2012-09-15T08:20:57Z</time>
      </trkpt>
      <trkpt lat="42.71525" lon="1.39652">
        <ele>1629.5720214844</ele>
        <time>2012-09-15T08:21:03Z</time>
      </trkpt>
      <trkpt lat="42.71522" lon="1.39648">
        <ele>1630.5334472656</ele>
        <time>2012-09-15T08:21:08Z</time>
      </trkpt>
      <trkpt lat="42.71521" lon="1.39645">
        <ele>1631.0141601562</ele>
        <time>2012-09-15T08:21:12Z</time>
      </trkpt>
      <trkpt lat="42.71521" lon="1.39642">
        <ele>1631.4946289062</ele>
        <time>2012-09-15T08:21:16Z</time>
      </trkpt>
      <trkpt lat="42.71523" lon="1.39637">
        <ele>1631.4946289062</ele>
        <time>2012-09-15T08:21:21Z</time>
      </trkpt>
      <trkpt lat="42.71524" lon="1.39633">
        <ele>1632.4560546875</ele>
        <time>2012-09-15T08:21:26Z</time>
      </trkpt>
      <trkpt lat="42.71523" lon="1.39629">
        <ele>1632.9365234375</ele>
        <time>2012-09-15T08:21:32Z</time>
      </trkpt>
      <trkpt lat="42.71523" lon="1.39624">
        <ele>1633.4172363281</ele>
        <time>2012-09-15T08:21:39Z</time>
      </trkpt>
      <trkpt lat="42.71521" lon="1.39619">
        <ele>1634.3786621094</ele>
        <time>2012-09-15T08:21:45Z</time>
      </trkpt>
      <trkpt lat="42.71521" lon="1.39612">
        <ele>1635.8205566406</ele>
        <time>2012-09-15T08:21:52Z</time>
      </trkpt>
      <trkpt lat="42.7152" lon="1.39607">
        <ele>1636.7817382812</ele>
        <time>2012-09-15T08:21:58Z</time>
      </trkpt>
      <trkpt lat="42.71518" lon="1.39601">
        <ele>1638.7045898438</ele>
        <time>2012-09-15T08:22:05Z</time>
      </trkpt>
      <trkpt lat="42.71518" lon="1.39597">
        <ele>1639.1850585938</ele>
        <time>2012-09-15T08:22:09Z</time>
      </trkpt>
      <trkpt lat="42.71519" lon="1.3959">
        <ele>1639.1850585938</ele>
        <time>2012-09-15T08:22:15Z</time>
      </trkpt>
      <trkpt lat="42.71518" lon="1.39587">
        <ele>1640.146484375</ele>
        <time>2012-09-15T08:22:19Z</time>
      </trkpt>
      <trkpt lat="42.71518" lon="1.39583">
        <ele>1640.626953125</ele>
        <time>2012-09-15T08:22:23Z</time>
      </trkpt>
      <trkpt lat="42.71517" lon="1.39576">
        <ele>1642.5498046875</ele>
        <time>2012-09-15T08:22:30Z</time>
      </trkpt>
      <trkpt lat="42.71516" lon="1.39572">
        <ele>1643.5109863281</ele>
        <time>2012-09-15T08:22:34Z</time>
      </trkpt>
      <trkpt lat="42.71515" lon="1.39568">
        <ele>1644.4724121094</ele>
        <time>2012-09-15T08:22:39Z</time>
      </trkpt>
      <trkpt lat="42.71514" lon="1.39561">
        <ele>1645.9145507812</ele>
        <time>2012-09-15T08:22:46Z</time>
      </trkpt>
      <trkpt lat="42.71513" lon="1.39558">
        <ele>1646.3952636719</ele>
        <time>2012-09-15T08:22:51Z</time>
      </trkpt>
      <trkpt lat="42.71511" lon="1.39552">
        <ele>1646.8757324219</ele>
        <time>2012-09-15T08:22:57Z</time>
      </trkpt>
      <trkpt lat="42.71508" lon="1.39543">
        <ele>1648.3176269531</ele>
        <time>2012-09-15T08:23:04Z</time>
      </trkpt>
      <trkpt lat="42.71508" lon="1.39537">
        <ele>1648.7983398438</ele>
        <time>2012-09-15T08:23:10Z</time>
      </trkpt>
      <trkpt lat="42.71507" lon="1.39532">
        <ele>1649.759765625</ele>
        <time>2012-09-15T08:23:15Z</time>
      </trkpt>
      <trkpt lat="42.71505" lon="1.39526">
        <ele>1651.2016601562</ele>
        <time>2012-09-15T08:23:21Z</time>
      </trkpt>
      <trkpt lat="42.71504" lon="1.39518">
        <ele>1651.6823730469</ele>
        <time>2012-09-15T08:23:27Z</time>
      </trkpt>
      <trkpt lat="42.71503" lon="1.39514">
        <ele>1651.6823730469</ele>
        <time>2012-09-15T08:23:31Z</time>
      </trkpt>
      <trkpt lat="42.715" lon="1.39507">
        <ele>1652.1628417969</ele>
        <time>2012-09-15T08:23:37Z</time>
      </trkpt>
      <trkpt lat="42.715" lon="1.39501">
        <ele>1652.1628417969</ele>
        <time>2012-09-15T08:23:42Z</time>
      </trkpt>
      <trkpt lat="42.71499" lon="1.39495">
        <ele>1653.1242675781</ele>
        <time>2012-09-15T08:23:47Z</time>
      </trkpt>
      <trkpt lat="42.715" lon="1.39491">
        <ele>1654.0856933594</ele>
        <time>2012-09-15T08:23:51Z</time>
      </trkpt>
      <trkpt lat="42.71499" lon="1.39487">
        <ele>1655.046875</ele>
        <time>2012-09-15T08:23:56Z</time>
      </trkpt>
      <trkpt lat="42.71498" lon="1.39484">
        <ele>1656.4887695312</ele>
        <time>2012-09-15T08:24:01Z</time>
      </trkpt>
      <trkpt lat="42.71497" lon="1.39481">
        <ele>1657.4501953125</ele>
        <time>2012-09-15T08:24:05Z</time>
      </trkpt>
      <trkpt lat="42.71495" lon="1.39475">
        <ele>1658.4113769531</ele>
        <time>2012-09-15T08:24:11Z</time>
      </trkpt>
      <trkpt lat="42.71494" lon="1.39468">
        <ele>1659.3728027344</ele>
        <time>2012-09-15T08:24:17Z</time>
      </trkpt>
      <trkpt lat="42.71493" lon="1.39458">
        <ele>1660.8149414062</ele>
        <time>2012-09-15T08:24:25Z</time>
      </trkpt>
      <trkpt lat="42.71493" lon="1.39451">
        <ele>1660.8149414062</ele>
        <time>2012-09-15T08:24:31Z</time>
      </trkpt>
      <trkpt lat="42.71491" lon="1.39445">
        <ele>1662.7375488281</ele>
        <time>2012-09-15T08:24:37Z</time>
      </trkpt>
      <trkpt lat="42.71489" lon="1.39439">
        <ele>1664.66015625</ele>
        <time>2012-09-15T08:24:43Z</time>
      </trkpt>
      <trkpt lat="42.71486" lon="1.39436">
        <ele>1666.1020507812</ele>
        <time>2012-09-15T08:24:48Z</time>
      </trkpt>
      <trkpt lat="42.71486" lon="1.3943">
        <ele>1667.0634765625</ele>
        <time>2012-09-15T08:24:54Z</time>
      </trkpt>
      <trkpt lat="42.71486" lon="1.39425">
        <ele>1667.5439453125</ele>
        <time>2012-09-15T08:25:00Z</time>
      </trkpt>
      <trkpt lat="42.71484" lon="1.39422">
        <ele>1668.5053710938</ele>
        <time>2012-09-15T08:25:06Z</time>
      </trkpt>
      <trkpt lat="42.71482" lon="1.39423">
        <ele>1669.947265625</ele>
        <time>2012-09-15T08:25:11Z</time>
      </trkpt>
      <trkpt lat="42.71481" lon="1.39422">
        <ele>1670.9086914062</ele>
        <time>2012-09-15T08:25:17Z</time>
      </trkpt>
      <trkpt lat="42.7148" lon="1.39422">
        <ele>1671.8698730469</ele>
        <time>2012-09-15T08:25:24Z</time>
      </trkpt>
      <trkpt lat="42.71478" lon="1.3942">
        <ele>1673.3120117188</ele>
        <time>2012-09-15T08:25:29Z</time>
      </trkpt>
      <trkpt lat="42.71476" lon="1.39418">
        <ele>1675.7150878906</ele>
        <time>2012-09-15T08:25:34Z</time>
      </trkpt>
      <trkpt lat="42.71475" lon="1.39414">
        <ele>1676.6767578125</ele>
        <time>2012-09-15T08:25:39Z</time>
      </trkpt>
      <trkpt lat="42.71474" lon="1.39407">
        <ele>1676.6767578125</ele>
        <time>2012-09-15T08:25:44Z</time>
      </trkpt>
      <trkpt lat="42.71471" lon="1.394">
        <ele>1678.1186523438</ele>
        <time>2012-09-15T08:25:51Z</time>
      </trkpt>
      <trkpt lat="42.71465" lon="1.3939">
        <ele>1681.0026855469</ele>
        <time>2012-09-15T08:26:01Z</time>
      </trkpt>
      <trkpt lat="42.7146" lon="1.39383">
        <ele>1683.8864746094</ele>
        <time>2012-09-15T08:26:09Z</time>
      </trkpt>
      <trkpt lat="42.71455" lon="1.39375">
        <ele>1685.8090820312</ele>
        <time>2012-09-15T08:26:16Z</time>
      </trkpt>
      <trkpt lat="42.71451" lon="1.3937">
        <ele>1688.2124023438</ele>
        <time>2012-09-15T08:26:23Z</time>
      </trkpt>
      <trkpt lat="42.71446" lon="1.39366">
        <ele>1690.1350097656</ele>
        <time>2012-09-15T08:26:28Z</time>
      </trkpt>
      <trkpt lat="42.7144" lon="1.39356">
        <ele>1692.5385742188</ele>
        <time>2012-09-15T08:26:36Z</time>
      </trkpt>
      <trkpt lat="42.71435" lon="1.39347">
        <ele>1693.98046875</ele>
        <time>2012-09-15T08:26:43Z</time>
      </trkpt>
      <trkpt lat="42.71434" lon="1.39344">
        <ele>1693.98046875</ele>
        <time>2012-09-15T08:26:45Z</time>
      </trkpt>
      <trkpt lat="42.71429" lon="1.39339">
        <ele>1695.9030761719</ele>
        <time>2012-09-15T08:26:50Z</time>
      </trkpt>
      <trkpt lat="42.71428" lon="1.39325">
        <ele>1695.9030761719</ele>
        <time>2012-09-15T08:26:59Z</time>
      </trkpt>
      <trkpt lat="42.71426" lon="1.3932">
        <ele>1695.9030761719</ele>
        <time>2012-09-15T08:27:02Z</time>
      </trkpt>
      <trkpt lat="42.71419" lon="1.39307">
        <ele>1693.98046875</ele>
        <time>2012-09-15T08:27:11Z</time>
      </trkpt>
      <trkpt lat="42.71415" lon="1.39299">
        <ele>1694.4609375</ele>
        <time>2012-09-15T08:27:18Z</time>
      </trkpt>
      <trkpt lat="42.71413" lon="1.39289">
        <ele>1693.0190429688</ele>
        <time>2012-09-15T08:27:25Z</time>
      </trkpt>
      <trkpt lat="42.71412" lon="1.39281">
        <ele>1693.0190429688</ele>
        <time>2012-09-15T08:27:30Z</time>
      </trkpt>
      <trkpt lat="42.71415" lon="1.39272">
        <ele>1691.5769042969</ele>
        <time>2012-09-15T08:27:37Z</time>
      </trkpt>
      <trkpt lat="42.71415" lon="1.39271">
        <ele>1692.0578613281</ele>
        <time>2012-09-15T08:27:38Z</time>
      </trkpt>
      <trkpt lat="42.71415" lon="1.39263">
        <ele>1691.5769042969</ele>
        <time>2012-09-15T08:27:44Z</time>
      </trkpt>
      <trkpt lat="42.71415" lon="1.39247">
        <ele>1690.6154785156</ele>
        <time>2012-09-15T08:27:53Z</time>
      </trkpt>
      <trkpt lat="42.71414" lon="1.39244">
        <ele>1690.6154785156</ele>
        <time>2012-09-15T08:27:55Z</time>
      </trkpt>
      <trkpt lat="42.71414" lon="1.39235">
        <ele>1690.6154785156</ele>
        <time>2012-09-15T08:28:01Z</time>
      </trkpt>
      <trkpt lat="42.71413" lon="1.39222">
        <ele>1691.0961914062</ele>
        <time>2012-09-15T08:28:09Z</time>
      </trkpt>
      <trkpt lat="42.7141" lon="1.39208">
        <ele>1690.1350097656</ele>
        <time>2012-09-15T08:28:17Z</time>
      </trkpt>
      <trkpt lat="42.71408" lon="1.39197">
        <ele>1690.6154785156</ele>
        <time>2012-09-15T08:28:24Z</time>
      </trkpt>
      <trkpt lat="42.71407" lon="1.39187">
        <ele>1690.6154785156</ele>
        <time>2012-09-15T08:28:30Z</time>
      </trkpt>
      <trkpt lat="42.71402" lon="1.39176">
        <ele>1690.6154785156</ele>
        <time>2012-09-15T08:28:37Z</time>
      </trkpt>
      <trkpt lat="42.71397" lon="1.39165">
        <ele>1690.1350097656</ele>
        <time>2012-09-15T08:28:44Z</time>
      </trkpt>
      <trkpt lat="42.71391" lon="1.39156">
        <ele>1690.6154785156</ele>
        <time>2012-09-15T08:28:51Z</time>
      </trkpt>
      <trkpt lat="42.7139" lon="1.39154">
        <ele>1691.0961914062</ele>
        <time>2012-09-15T08:28:53Z</time>
      </trkpt>
      <trkpt lat="42.71386" lon="1.39147">
        <ele>1691.5769042969</ele>
        <time>2012-09-15T08:28:59Z</time>
      </trkpt>
      <trkpt lat="42.71385" lon="1.39146">
        <ele>1691.5769042969</ele>
        <time>2012-09-15T08:29:00Z</time>
      </trkpt>
      <trkpt lat="42.71381" lon="1.39135">
        <ele>1692.5385742188</ele>
        <time>2012-09-15T08:29:07Z</time>
      </trkpt>
      <trkpt lat="42.71381" lon="1.39134">
        <ele>1692.5385742188</ele>
        <time>2012-09-15T08:29:08Z</time>
      </trkpt>
      <trkpt lat="42.71378" lon="1.39123">
        <ele>1692.0578613281</ele>
        <time>2012-09-15T08:29:16Z</time>
      </trkpt>
      <trkpt lat="42.71378" lon="1.39112">
        <ele>1691.0961914062</ele>
        <time>2012-09-15T08:29:22Z</time>
      </trkpt>
      <trkpt lat="42.71378" lon="1.39108">
        <ele>1691.0961914062</ele>
        <time>2012-09-15T08:29:25Z</time>
      </trkpt>
      <trkpt lat="42.71378" lon="1.39102">
        <ele>1691.0961914062</ele>
        <time>2012-09-15T08:29:29Z</time>
      </trkpt>
      <trkpt lat="42.71377" lon="1.39097">
        <ele>1691.5769042969</ele>
        <time>2012-09-15T08:29:33Z</time>
      </trkpt>
      <trkpt lat="42.71377" lon="1.39095">
        <ele>1692.5385742188</ele>
        <time>2012-09-15T08:29:35Z</time>
      </trkpt>
      <trkpt lat="42.71376" lon="1.39085">
        <ele>1694.4609375</ele>
        <time>2012-09-15T08:29:43Z</time>
      </trkpt>
      <trkpt lat="42.71378" lon="1.39077">
        <ele>1693.98046875</ele>
        <time>2012-09-15T08:29:49Z</time>
      </trkpt>
      <trkpt lat="42.71379" lon="1.3907">
        <ele>1693.4997558594</ele>
        <time>2012-09-15T08:29:54Z</time>
      </trkpt>
      <trkpt lat="42.71382" lon="1.39059">
        <ele>1695.4223632812</ele>
        <time>2012-09-15T08:30:03Z</time>
      </trkpt>
      <trkpt lat="42.71383" lon="1.39054">
        <ele>1696.3837890625</ele>
        <time>2012-09-15T08:30:08Z</time>
      </trkpt>
      <trkpt lat="42.71383" lon="1.39049">
        <ele>1697.3449707031</ele>
        <time>2012-09-15T08:30:13Z</time>
      </trkpt>
      <trkpt lat="42.71383" lon="1.39041">
        <ele>1696.8642578125</ele>
        <time>2012-09-15T08:30:19Z</time>
      </trkpt>
      <trkpt lat="42.71385" lon="1.39034">
        <ele>1696.3837890625</ele>
        <time>2012-09-15T08:30:25Z</time>
      </trkpt>
      <trkpt lat="42.71386" lon="1.39025">
        <ele>1696.3837890625</ele>
        <time>2012-09-15T08:30:32Z</time>
      </trkpt>
      <trkpt lat="42.71386" lon="1.39024">
        <ele>1696.3837890625</ele>
        <time>2012-09-15T08:30:33Z</time>
      </trkpt>
      <trkpt lat="42.71384" lon="1.39016">
        <ele>1699.267578125</ele>
        <time>2012-09-15T08:30:40Z</time>
      </trkpt>
      <trkpt lat="42.71384" lon="1.39013">
        <ele>1700.7094726562</ele>
        <time>2012-09-15T08:30:45Z</time>
      </trkpt>
      <trkpt lat="42.71384" lon="1.39013">
        <ele>1702.6320800781</ele>
        <time>2012-09-15T08:31:05Z</time>
      </trkpt>
      <trkpt lat="42.71381" lon="1.39006">
        <ele>1702.1513671875</ele>
        <time>2012-09-15T08:31:16Z</time>
      </trkpt>
      <trkpt lat="42.7138" lon="1.39002">
        <ele>1703.5935058594</ele>
        <time>2012-09-15T08:31:22Z</time>
      </trkpt>
      <trkpt lat="42.7138" lon="1.38998">
        <ele>1703.5935058594</ele>
        <time>2012-09-15T08:31:27Z</time>
      </trkpt>
      <trkpt lat="42.7138" lon="1.38999">
        <ele>1702.6320800781</ele>
        <time>2012-09-15T08:31:40Z</time>
      </trkpt>
      <trkpt lat="42.71381" lon="1.38998">
        <ele>1701.6708984375</ele>
        <time>2012-09-15T08:31:56Z</time>
      </trkpt>
      <trkpt lat="42.71382" lon="1.38999">
        <ele>1702.6320800781</ele>
        <time>2012-09-15T08:33:16Z</time>
      </trkpt>
      <trkpt lat="42.71382" lon="1.38996">
        <ele>1702.6320800781</ele>
        <time>2012-09-15T08:33:27Z</time>
      </trkpt>
      <trkpt lat="42.71381" lon="1.38991">
        <ele>1702.6320800781</ele>
        <time>2012-09-15T08:33:35Z</time>
      </trkpt>
      <trkpt lat="42.7138" lon="1.3898">
        <ele>1703.1127929688</ele>
        <time>2012-09-15T08:33:42Z</time>
      </trkpt>
      <trkpt lat="42.71379" lon="1.3897">
        <ele>1703.5935058594</ele>
        <time>2012-09-15T08:33:48Z</time>
      </trkpt>
      <trkpt lat="42.71379" lon="1.38959">
        <ele>1705.0354003906</ele>
        <time>2012-09-15T08:33:56Z</time>
      </trkpt>
      <trkpt lat="42.71378" lon="1.38952">
        <ele>1705.5161132812</ele>
        <time>2012-09-15T08:34:02Z</time>
      </trkpt>
      <trkpt lat="42.71376" lon="1.38941">
        <ele>1706.4772949219</ele>
        <time>2012-09-15T08:34:10Z</time>
      </trkpt>
      <trkpt lat="42.71376" lon="1.38934">
        <ele>1708.4001464844</ele>
        <time>2012-09-15T08:34:16Z</time>
      </trkpt>
      <trkpt lat="42.71374" lon="1.38925">
        <ele>1709.8420410156</ele>
        <time>2012-09-15T08:34:23Z</time>
      </trkpt>
      <trkpt lat="42.71373" lon="1.38921">
        <ele>1710.8034667969</ele>
        <time>2012-09-15T08:34:28Z</time>
      </trkpt>
      <trkpt lat="42.71373" lon="1.38919">
        <ele>1710.8034667969</ele>
        <time>2012-09-15T08:34:33Z</time>
      </trkpt>
      <trkpt lat="42.71372" lon="1.38918">
        <ele>1711.7648925781</ele>
        <time>2012-09-15T08:34:40Z</time>
      </trkpt>
      <trkpt lat="42.71371" lon="1.38911">
        <ele>1712.2453613281</ele>
        <time>2012-09-15T08:34:46Z</time>
      </trkpt>
      <trkpt lat="42.71371" lon="1.38899">
        <ele>1712.2453613281</ele>
        <time>2012-09-15T08:34:54Z</time>
      </trkpt>
      <trkpt lat="42.71371" lon="1.38889">
        <ele>1711.2841796875</ele>
        <time>2012-09-15T08:35:00Z</time>
      </trkpt>
      <trkpt lat="42.7137" lon="1.38879">
        <ele>1711.2841796875</ele>
        <time>2012-09-15T08:35:06Z</time>
      </trkpt>
      <trkpt lat="42.71369" lon="1.38869">
        <ele>1710.3227539062</ele>
        <time>2012-09-15T08:35:12Z</time>
      </trkpt>
      <trkpt lat="42.71368" lon="1.3886">
        <ele>1710.3227539062</ele>
        <time>2012-09-15T08:35:18Z</time>
      </trkpt>
      <trkpt lat="42.71367" lon="1.38854">
        <ele>1710.8034667969</ele>
        <time>2012-09-15T08:35:22Z</time>
      </trkpt>
      <trkpt lat="42.71365" lon="1.38849">
        <ele>1711.7648925781</ele>
        <time>2012-09-15T08:35:26Z</time>
      </trkpt>
      <trkpt lat="42.71363" lon="1.38845">
        <ele>1712.2453613281</ele>
        <time>2012-09-15T08:35:30Z</time>
      </trkpt>
      <trkpt lat="42.7136" lon="1.38832">
        <ele>1713.2067871094</ele>
        <time>2012-09-15T08:35:39Z</time>
      </trkpt>
      <trkpt lat="42.71358" lon="1.3882">
        <ele>1713.6872558594</ele>
        <time>2012-09-15T08:35:47Z</time>
      </trkpt>
      <trkpt lat="42.71357" lon="1.38814">
        <ele>1714.16796875</ele>
        <time>2012-09-15T08:35:52Z</time>
      </trkpt>
      <trkpt lat="42.71357" lon="1.38811">
        <ele>1714.6486816406</ele>
        <time>2012-09-15T08:35:54Z</time>
      </trkpt>
      <trkpt lat="42.71355" lon="1.388">
        <ele>1716.0905761719</ele>
        <time>2012-09-15T08:36:04Z</time>
      </trkpt>
      <trkpt lat="42.71354" lon="1.38796">
        <ele>1717.5324707031</ele>
        <time>2012-09-15T08:36:08Z</time>
      </trkpt>
      <trkpt lat="42.71353" lon="1.38789">
        <ele>1718.0131835938</ele>
        <time>2012-09-15T08:36:14Z</time>
      </trkpt>
      <trkpt lat="42.71352" lon="1.3878">
        <ele>1718.974609375</ele>
        <time>2012-09-15T08:36:20Z</time>
      </trkpt>
      <trkpt lat="42.71351" lon="1.38769">
        <ele>1720.4165039062</ele>
        <time>2012-09-15T08:36:28Z</time>
      </trkpt>
      <trkpt lat="42.7135" lon="1.38759">
        <ele>1721.8583984375</ele>
        <time>2012-09-15T08:36:36Z</time>
      </trkpt>
      <trkpt lat="42.71349" lon="1.38755">
        <ele>1722.8198242188</ele>
        <time>2012-09-15T08:36:42Z</time>
      </trkpt>
      <trkpt lat="42.71348" lon="1.38749">
        <ele>1724.2619628906</ele>
        <time>2012-09-15T08:36:48Z</time>
      </trkpt>
      <trkpt lat="42.71347" lon="1.38744">
        <ele>1726.1845703125</ele>
        <time>2012-09-15T08:36:54Z</time>
      </trkpt>
      <trkpt lat="42.71346" lon="1.38739">
        <ele>1727.6264648438</ele>
        <time>2012-09-15T08:37:00Z</time>
      </trkpt>
      <trkpt lat="42.71344" lon="1.38736">
        <ele>1727.6264648438</ele>
        <time>2012-09-15T08:37:05Z</time>
      </trkpt>
      <trkpt lat="42.71343" lon="1.38732">
        <ele>1729.068359375</ele>
        <time>2012-09-15T08:37:11Z</time>
      </trkpt>
      <trkpt lat="42.71342" lon="1.38726">
        <ele>1730.9912109375</ele>
        <time>2012-09-15T08:37:18Z</time>
      </trkpt>
      <trkpt lat="42.71341" lon="1.38723">
        <ele>1732.4331054688</ele>
        <time>2012-09-15T08:37:22Z</time>
      </trkpt>
      <trkpt lat="42.71339" lon="1.38718">
        <ele>1732.4331054688</ele>
        <time>2012-09-15T08:37:27Z</time>
      </trkpt>
      <trkpt lat="42.71339" lon="1.38713">
        <ele>1733.3942871094</ele>
        <time>2012-09-15T08:37:33Z</time>
      </trkpt>
      <trkpt lat="42.71338" lon="1.38712">
        <ele>1734.3557128906</ele>
        <time>2012-09-15T08:37:39Z</time>
      </trkpt>
      <trkpt lat="42.71335" lon="1.38713">
        <ele>1737.2395019531</ele>
        <time>2012-09-15T08:37:56Z</time>
      </trkpt>
      <trkpt lat="42.71334" lon="1.38709">
        <ele>1738.681640625</ele>
        <time>2012-09-15T08:38:02Z</time>
      </trkpt>
      <trkpt lat="42.71333" lon="1.38704">
        <ele>1739.6428222656</ele>
        <time>2012-09-15T08:38:08Z</time>
      </trkpt>
      <trkpt lat="42.71331" lon="1.38697">
        <ele>1740.6042480469</ele>
        <time>2012-09-15T08:38:14Z</time>
      </trkpt>
      <trkpt lat="42.71329" lon="1.38686">
        <ele>1743.0075683594</ele>
        <time>2012-09-15T08:38:23Z</time>
      </trkpt>
      <trkpt lat="42.71327" lon="1.38682">
        <ele>1745.4108886719</ele>
        <time>2012-09-15T08:38:29Z</time>
      </trkpt>
      <trkpt lat="42.71325" lon="1.38678">
        <ele>1746.8527832031</ele>
        <time>2012-09-15T08:38:34Z</time>
      </trkpt>
      <trkpt lat="42.71324" lon="1.38675">
        <ele>1747.3334960938</ele>
        <time>2012-09-15T08:38:38Z</time>
      </trkpt>
      <trkpt lat="42.71323" lon="1.38671">
        <ele>1747.8142089844</ele>
        <time>2012-09-15T08:38:43Z</time>
      </trkpt>
      <trkpt lat="42.7132" lon="1.38667">
        <ele>1748.775390625</ele>
        <time>2012-09-15T08:38:50Z</time>
      </trkpt>
      <trkpt lat="42.71318" lon="1.38668">
        <ele>1750.2175292969</ele>
        <time>2012-09-15T08:38:55Z</time>
      </trkpt>
      <trkpt lat="42.71315" lon="1.38664">
        <ele>1751.6594238281</ele>
        <time>2012-09-15T08:39:01Z</time>
      </trkpt>
      <trkpt lat="42.71312" lon="1.38662">
        <ele>1753.1013183594</ele>
        <time>2012-09-15T08:39:06Z</time>
      </trkpt>
      <trkpt lat="42.71307" lon="1.38659">
        <ele>1754.0627441406</ele>
        <time>2012-09-15T08:39:12Z</time>
      </trkpt>
      <trkpt lat="42.71302" lon="1.38657">
        <ele>1755.5046386719</ele>
        <time>2012-09-15T08:39:18Z</time>
      </trkpt>
      <trkpt lat="42.71298" lon="1.38653">
        <ele>1756.4660644531</ele>
        <time>2012-09-15T08:39:24Z</time>
      </trkpt>
      <trkpt lat="42.71296" lon="1.3865">
        <ele>1757.908203125</ele>
        <time>2012-09-15T08:39:28Z</time>
      </trkpt>
      <trkpt lat="42.71293" lon="1.38646">
        <ele>1758.8693847656</ele>
        <time>2012-09-15T08:39:34Z</time>
      </trkpt>
      <trkpt lat="42.71291" lon="1.38643">
        <ele>1760.3112792969</ele>
        <time>2012-09-15T08:39:40Z</time>
      </trkpt>
      <trkpt lat="42.71288" lon="1.3864">
        <ele>1761.7534179688</ele>
        <time>2012-09-15T08:39:46Z</time>
      </trkpt>
      <trkpt lat="42.71284" lon="1.38633">
        <ele>1762.7145996094</ele>
        <time>2012-09-15T08:39:53Z</time>
      </trkpt>
      <trkpt lat="42.71285" lon="1.38627">
        <ele>1762.2338867188</ele>
        <time>2012-09-15T08:39:57Z</time>
      </trkpt>
      <trkpt lat="42.71284" lon="1.38618">
        <ele>1763.1953125</ele>
        <time>2012-09-15T08:40:05Z</time>
      </trkpt>
      <trkpt lat="42.71281" lon="1.3861">
        <ele>1764.6372070312</ele>
        <time>2012-09-15T08:40:13Z</time>
      </trkpt>
      <trkpt lat="42.71278" lon="1.38603">
        <ele>1766.0791015625</ele>
        <time>2012-09-15T08:40:21Z</time>
      </trkpt>
      <trkpt lat="42.71276" lon="1.38596">
        <ele>1767.5209960938</ele>
        <time>2012-09-15T08:40:28Z</time>
      </trkpt>
      <trkpt lat="42.71274" lon="1.38587">
        <ele>1768.482421875</ele>
        <time>2012-09-15T08:40:35Z</time>
      </trkpt>
      <trkpt lat="42.71272" lon="1.38582">
        <ele>1769.4438476562</ele>
        <time>2012-09-15T08:40:40Z</time>
      </trkpt>
      <trkpt lat="42.71266" lon="1.38571">
        <ele>1772.3278808594</ele>
        <time>2012-09-15T08:40:50Z</time>
      </trkpt>
      <trkpt lat="42.71265" lon="1.38558">
        <ele>1774.2504882812</ele>
        <time>2012-09-15T08:40:59Z</time>
      </trkpt>
      <trkpt lat="42.71262" lon="1.38553">
        <ele>1776.6538085938</ele>
        <time>2012-09-15T08:41:05Z</time>
      </trkpt>
      <trkpt lat="42.71256" lon="1.38551">
        <ele>1778.095703125</ele>
        <time>2012-09-15T08:41:11Z</time>
      </trkpt>
      <trkpt lat="42.71253" lon="1.38549">
        <ele>1778.095703125</ele>
        <time>2012-09-15T08:41:14Z</time>
      </trkpt>
      <trkpt lat="42.71251" lon="1.38548">
        <ele>1778.095703125</ele>
        <time>2012-09-15T08:41:16Z</time>
      </trkpt>
      <trkpt lat="42.7125" lon="1.38546">
        <ele>1778.095703125</ele>
        <time>2012-09-15T08:41:18Z</time>
      </trkpt>
      <trkpt lat="42.71248" lon="1.38541">
        <ele>1779.5375976562</ele>
        <time>2012-09-15T08:41:24Z</time>
      </trkpt>
      <trkpt lat="42.71246" lon="1.38534">
        <ele>1779.5375976562</ele>
        <time>2012-09-15T08:41:29Z</time>
      </trkpt>
      <trkpt lat="42.71244" lon="1.3853">
        <ele>1779.5375976562</ele>
        <time>2012-09-15T08:41:33Z</time>
      </trkpt>
      <trkpt lat="42.71236" lon="1.3852">
        <ele>1780.9797363281</ele>
        <time>2012-09-15T08:41:42Z</time>
      </trkpt>
      <trkpt lat="42.71233" lon="1.38509">
        <ele>1782.4216308594</ele>
        <time>2012-09-15T08:41:51Z</time>
      </trkpt>
      <trkpt lat="42.7123" lon="1.38504">
        <ele>1785.3054199219</ele>
        <time>2012-09-15T08:41:58Z</time>
      </trkpt>
      <trkpt lat="42.71227" lon="1.38498">
        <ele>1786.7473144531</ele>
        <time>2012-09-15T08:42:04Z</time>
      </trkpt>
      <trkpt lat="42.71223" lon="1.3849">
        <ele>1787.7087402344</ele>
        <time>2012-09-15T08:42:11Z</time>
      </trkpt>
      <trkpt lat="42.71218" lon="1.3848">
        <ele>1787.7087402344</ele>
        <time>2012-09-15T08:42:19Z</time>
      </trkpt>
      <trkpt lat="42.71215" lon="1.38469">
        <ele>1789.1508789062</ele>
        <time>2012-09-15T08:42:27Z</time>
      </trkpt>
      <trkpt lat="42.71214" lon="1.3846">
        <ele>1791.0734863281</ele>
        <time>2012-09-15T08:42:34Z</time>
      </trkpt>
      <trkpt lat="42.71214" lon="1.38455">
        <ele>1791.0734863281</ele>
        <time>2012-09-15T08:42:39Z</time>
      </trkpt>
      <trkpt lat="42.71214" lon="1.3845">
        <ele>1791.0734863281</ele>
        <time>2012-09-15T08:42:44Z</time>
      </trkpt>
      <trkpt lat="42.71212" lon="1.38444">
        <ele>1792.515625</ele>
        <time>2012-09-15T08:42:50Z</time>
      </trkpt>
      <trkpt lat="42.71209" lon="1.38433">
        <ele>1792.515625</ele>
        <time>2012-09-15T08:42:58Z</time>
      </trkpt>
      <trkpt lat="42.71206" lon="1.38423">
        <ele>1792.0349121094</ele>
        <time>2012-09-15T08:43:05Z</time>
      </trkpt>
      <trkpt lat="42.71205" lon="1.3842">
        <ele>1792.0349121094</ele>
        <time>2012-09-15T08:43:07Z</time>
      </trkpt>
      <trkpt lat="42.71204" lon="1.38417">
        <ele>1792.0349121094</ele>
        <time>2012-09-15T08:43:09Z</time>
      </trkpt>
      <trkpt lat="42.71204" lon="1.38415">
        <ele>1792.515625</ele>
        <time>2012-09-15T08:43:11Z</time>
      </trkpt>
      <trkpt lat="42.71203" lon="1.38405">
        <ele>1793.4768066406</ele>
        <time>2012-09-15T08:43:19Z</time>
      </trkpt>
      <trkpt lat="42.712" lon="1.38396">
        <ele>1792.99609375</ele>
        <time>2012-09-15T08:43:27Z</time>
      </trkpt>
      <trkpt lat="42.71198" lon="1.3839">
        <ele>1793.4768066406</ele>
        <time>2012-09-15T08:43:32Z</time>
      </trkpt>
      <trkpt lat="42.71198" lon="1.38384">
        <ele>1794.9187011719</ele>
        <time>2012-09-15T08:43:36Z</time>
      </trkpt>
      <trkpt lat="42.71198" lon="1.38374">
        <ele>1795.3994140625</ele>
        <time>2012-09-15T08:43:43Z</time>
      </trkpt>
      <trkpt lat="42.71201" lon="1.38372">
        <ele>1797.3220214844</ele>
        <time>2012-09-15T08:43:48Z</time>
      </trkpt>
      <trkpt lat="42.71202" lon="1.38367">
        <ele>1798.7639160156</ele>
        <time>2012-09-15T08:43:53Z</time>
      </trkpt>
      <trkpt lat="42.71199" lon="1.38361">
        <ele>1799.2446289062</ele>
        <time>2012-09-15T08:43:59Z</time>
      </trkpt>
      <trkpt lat="42.712" lon="1.38353">
        <ele>1797.802734375</ele>
        <time>2012-09-15T08:44:06Z</time>
      </trkpt>
      <trkpt lat="42.71201" lon="1.38344">
        <ele>1797.802734375</ele>
        <time>2012-09-15T08:44:12Z</time>
      </trkpt>
      <trkpt lat="42.71198" lon="1.38335">
        <ele>1798.283203125</ele>
        <time>2012-09-15T08:44:19Z</time>
      </trkpt>
      <trkpt lat="42.71196" lon="1.38333">
        <ele>1798.7639160156</ele>
        <time>2012-09-15T08:44:21Z</time>
      </trkpt>
      <trkpt lat="42.71192" lon="1.38326">
        <ele>1800.2060546875</ele>
        <time>2012-09-15T08:44:28Z</time>
      </trkpt>
      <trkpt lat="42.71189" lon="1.38314">
        <ele>1800.2060546875</ele>
        <time>2012-09-15T08:44:36Z</time>
      </trkpt>
      <trkpt lat="42.71187" lon="1.38309">
        <ele>1800.6865234375</ele>
        <time>2012-09-15T08:44:40Z</time>
      </trkpt>
      <trkpt lat="42.71188" lon="1.38298">
        <ele>1800.2060546875</ele>
        <time>2012-09-15T08:44:47Z</time>
      </trkpt>
      <trkpt lat="42.71188" lon="1.38294">
        <ele>1800.2060546875</ele>
        <time>2012-09-15T08:44:51Z</time>
      </trkpt>
      <trkpt lat="42.71191" lon="1.38284">
        <ele>1799.7253417969</ele>
        <time>2012-09-15T08:44:59Z</time>
      </trkpt>
      <trkpt lat="42.71189" lon="1.3828">
        <ele>1800.6865234375</ele>
        <time>2012-09-15T08:45:03Z</time>
      </trkpt>
      <trkpt lat="42.71185" lon="1.38271">
        <ele>1802.1284179688</ele>
        <time>2012-09-15T08:45:12Z</time>
      </trkpt>
      <trkpt lat="42.71185" lon="1.38262">
        <ele>1800.6865234375</ele>
        <time>2012-09-15T08:45:18Z</time>
      </trkpt>
      <trkpt lat="42.71185" lon="1.38259">
        <ele>1801.1672363281</ele>
        <time>2012-09-15T08:45:20Z</time>
      </trkpt>
      <trkpt lat="42.71183" lon="1.38248">
        <ele>1800.6865234375</ele>
        <time>2012-09-15T08:45:27Z</time>
      </trkpt>
      <trkpt lat="42.71181" lon="1.3824">
        <ele>1801.6479492188</ele>
        <time>2012-09-15T08:45:35Z</time>
      </trkpt>
      <trkpt lat="42.7118" lon="1.38233">
        <ele>1803.08984375</ele>
        <time>2012-09-15T08:45:42Z</time>
      </trkpt>
      <trkpt lat="42.71181" lon="1.38227">
        <ele>1804.0515136719</ele>
        <time>2012-09-15T08:45:48Z</time>
      </trkpt>
      <trkpt lat="42.71181" lon="1.38221">
        <ele>1803.5705566406</ele>
        <time>2012-09-15T08:45:53Z</time>
      </trkpt>
      <trkpt lat="42.71181" lon="1.38217">
        <ele>1803.5705566406</ele>
        <time>2012-09-15T08:45:57Z</time>
      </trkpt>
      <trkpt lat="42.71182" lon="1.38213">
        <ele>1805.0126953125</ele>
        <time>2012-09-15T08:46:03Z</time>
      </trkpt>
      <trkpt lat="42.71181" lon="1.38211">
        <ele>1806.4545898438</ele>
        <time>2012-09-15T08:46:08Z</time>
      </trkpt>
      <trkpt lat="42.7118" lon="1.38209">
        <ele>1808.3771972656</ele>
        <time>2012-09-15T08:46:13Z</time>
      </trkpt>
      <trkpt lat="42.71179" lon="1.38205">
        <ele>1809.3386230469</ele>
        <time>2012-09-15T08:46:18Z</time>
      </trkpt>
      <trkpt lat="42.71178" lon="1.38202">
        <ele>1810.2998046875</ele>
        <time>2012-09-15T08:46:22Z</time>
      </trkpt>
      <trkpt lat="42.71177" lon="1.38198">
        <ele>1811.2612304688</ele>
        <time>2012-09-15T08:46:26Z</time>
      </trkpt>
      <trkpt lat="42.71176" lon="1.38193">
        <ele>1812.2224121094</ele>
        <time>2012-09-15T08:46:31Z</time>
      </trkpt>
      <trkpt lat="42.71173" lon="1.38189">
        <ele>1815.1064453125</ele>
        <time>2012-09-15T08:46:37Z</time>
      </trkpt>
      <trkpt lat="42.71172" lon="1.38188">
        <ele>1816.5483398438</ele>
        <time>2012-09-15T08:46:42Z</time>
      </trkpt>
      <trkpt lat="42.71169" lon="1.38185">
        <ele>1818.4709472656</ele>
        <time>2012-09-15T08:46:48Z</time>
      </trkpt>
      <trkpt lat="42.71166" lon="1.38184">
        <ele>1820.3937988281</ele>
        <time>2012-09-15T08:46:54Z</time>
      </trkpt>
      <trkpt lat="42.71165" lon="1.38179">
        <ele>1821.8356933594</ele>
        <time>2012-09-15T08:47:01Z</time>
      </trkpt>
      <trkpt lat="42.71166" lon="1.38175">
        <ele>1822.31640625</ele>
        <time>2012-09-15T08:47:08Z</time>
      </trkpt>
      <trkpt lat="42.71166" lon="1.38173">
        <ele>1823.2778320312</ele>
        <time>2012-09-15T08:47:12Z</time>
      </trkpt>
      <trkpt lat="42.71164" lon="1.3817">
        <ele>1824.2390136719</ele>
        <time>2012-09-15T08:47:16Z</time>
      </trkpt>
      <trkpt lat="42.71162" lon="1.38167">
        <ele>1825.2001953125</ele>
        <time>2012-09-15T08:47:21Z</time>
      </trkpt>
      <trkpt lat="42.71159" lon="1.38164">
        <ele>1826.1616210938</ele>
        <time>2012-09-15T08:47:27Z</time>
      </trkpt>
      <trkpt lat="42.71155" lon="1.38159">
        <ele>1826.6423339844</ele>
        <time>2012-09-15T08:47:33Z</time>
      </trkpt>
      <trkpt lat="42.71152" lon="1.38155">
        <ele>1827.603515625</ele>
        <time>2012-09-15T08:47:38Z</time>
      </trkpt>
      <trkpt lat="42.7115" lon="1.3815">
        <ele>1829.0454101562</ele>
        <time>2012-09-15T08:47:44Z</time>
      </trkpt>
      <trkpt lat="42.71149" lon="1.38145">
        <ele>1829.0454101562</ele>
        <time>2012-09-15T08:47:49Z</time>
      </trkpt>
      <trkpt lat="42.71146" lon="1.38134">
        <ele>1829.0454101562</ele>
        <time>2012-09-15T08:47:57Z</time>
      </trkpt>
      <trkpt lat="42.71145" lon="1.38131">
        <ele>1829.0454101562</ele>
        <time>2012-09-15T08:48:00Z</time>
      </trkpt>
      <trkpt lat="42.71141" lon="1.38124">
        <ele>1830.9682617188</ele>
        <time>2012-09-15T08:48:06Z</time>
      </trkpt>
      <trkpt lat="42.71138" lon="1.38118">
        <ele>1832.41015625</ele>
        <time>2012-09-15T08:48:12Z</time>
      </trkpt>
      <trkpt lat="42.71135" lon="1.38112">
        <ele>1833.8520507812</ele>
        <time>2012-09-15T08:48:19Z</time>
      </trkpt>
      <trkpt lat="42.71132" lon="1.38107">
        <ele>1834.3327636719</ele>
        <time>2012-09-15T08:48:25Z</time>
      </trkpt>
      <trkpt lat="42.7113" lon="1.38106">
        <ele>1835.2939453125</ele>
        <time>2012-09-15T08:48:28Z</time>
      </trkpt>
      <trkpt lat="42.71129" lon="1.38104">
        <ele>1836.7360839844</ele>
        <time>2012-09-15T08:48:32Z</time>
      </trkpt>
      <trkpt lat="42.71126" lon="1.38103">
        <ele>1837.6975097656</ele>
        <time>2012-09-15T08:48:38Z</time>
      </trkpt>
      <trkpt lat="42.71125" lon="1.38102">
        <ele>1838.6589355469</ele>
        <time>2012-09-15T08:48:44Z</time>
      </trkpt>
      <trkpt lat="42.71123" lon="1.38098">
        <ele>1840.1008300781</ele>
        <time>2012-09-15T08:48:50Z</time>
      </trkpt>
      <trkpt lat="42.71121" lon="1.38093">
        <ele>1841.0620117188</ele>
        <time>2012-09-15T08:48:57Z</time>
      </trkpt>
      <trkpt lat="42.71121" lon="1.38089">
        <ele>1841.5427246094</ele>
        <time>2012-09-15T08:49:01Z</time>
      </trkpt>
      <trkpt lat="42.7112" lon="1.38083">
        <ele>1842.0234375</ele>
        <time>2012-09-15T08:49:07Z</time>
      </trkpt>
      <trkpt lat="42.71118" lon="1.3808">
        <ele>1843.9460449219</ele>
        <time>2012-09-15T08:49:13Z</time>
      </trkpt>
      <trkpt lat="42.71118" lon="1.38075">
        <ele>1844.4265136719</ele>
        <time>2012-09-15T08:49:18Z</time>
      </trkpt>
      <trkpt lat="42.71119" lon="1.3807">
        <ele>1844.4265136719</ele>
        <time>2012-09-15T08:49:23Z</time>
      </trkpt>
      <trkpt lat="42.7112" lon="1.38064">
        <ele>1844.4265136719</ele>
        <time>2012-09-15T08:49:29Z</time>
      </trkpt>
      <trkpt lat="42.7112" lon="1.38058">
        <ele>1845.3879394531</ele>
        <time>2012-09-15T08:49:35Z</time>
      </trkpt>
      <trkpt lat="42.71121" lon="1.38057">
        <ele>1846.8298339844</ele>
        <time>2012-09-15T08:49:40Z</time>
      </trkpt>
      <trkpt lat="42.71121" lon="1.38058">
        <ele>1846.8298339844</ele>
        <time>2012-09-15T08:49:46Z</time>
      </trkpt>
      <trkpt lat="42.71121" lon="1.38058">
        <ele>1848.7524414062</ele>
        <time>2012-09-15T08:50:00Z</time>
      </trkpt>
      <trkpt lat="42.7112" lon="1.38059">
        <ele>1849.7138671875</ele>
        <time>2012-09-15T08:50:36Z</time>
      </trkpt>
      <trkpt lat="42.71119" lon="1.38058">
        <ele>1847.7912597656</ele>
        <time>2012-09-15T08:50:42Z</time>
      </trkpt>
      <trkpt lat="42.71119" lon="1.38059">
        <ele>1848.7524414062</ele>
        <time>2012-09-15T08:50:46Z</time>
      </trkpt>
      <trkpt lat="42.71119" lon="1.38058">
        <ele>1849.2331542969</ele>
        <time>2012-09-15T08:51:02Z</time>
      </trkpt>
      <trkpt lat="42.71118" lon="1.38051">
        <ele>1849.2331542969</ele>
        <time>2012-09-15T08:51:08Z</time>
      </trkpt>
      <trkpt lat="42.71114" lon="1.38047">
        <ele>1850.6750488281</ele>
        <time>2012-09-15T08:51:14Z</time>
      </trkpt>
      <trkpt lat="42.71111" lon="1.38045">
        <ele>1852.5979003906</ele>
        <time>2012-09-15T08:51:19Z</time>
      </trkpt>
      <trkpt lat="42.7111" lon="1.38042">
        <ele>1853.0786132812</ele>
        <time>2012-09-15T08:51:23Z</time>
      </trkpt>
      <trkpt lat="42.71107" lon="1.38037">
        <ele>1853.5593261719</ele>
        <time>2012-09-15T08:51:30Z</time>
      </trkpt>
      <trkpt lat="42.71107" lon="1.38034">
        <ele>1854.0400390625</ele>
        <time>2012-09-15T08:51:34Z</time>
      </trkpt>
      <trkpt lat="42.71107" lon="1.38026">
        <ele>1852.1171875</ele>
        <time>2012-09-15T08:51:40Z</time>
      </trkpt>
      <trkpt lat="42.71105" lon="1.38023">
        <ele>1854.0400390625</ele>
        <time>2012-09-15T08:51:45Z</time>
      </trkpt>
      <trkpt lat="42.71104" lon="1.3802">
        <ele>1855.4819335938</ele>
        <time>2012-09-15T08:51:49Z</time>
      </trkpt>
      <trkpt lat="42.71101" lon="1.38014">
        <ele>1855.4819335938</ele>
        <time>2012-09-15T08:51:55Z</time>
      </trkpt>
      <trkpt lat="42.71098" lon="1.38012">
        <ele>1856.923828125</ele>
        <time>2012-09-15T08:52:00Z</time>
      </trkpt>
      <trkpt lat="42.71096" lon="1.38007">
        <ele>1857.8852539062</ele>
        <time>2012-09-15T08:52:06Z</time>
      </trkpt>
      <trkpt lat="42.71092" lon="1.38004">
        <ele>1859.8076171875</ele>
        <time>2012-09-15T08:52:12Z</time>
      </trkpt>
      <trkpt lat="42.71088" lon="1.38">
        <ele>1862.6916503906</ele>
        <time>2012-09-15T08:52:19Z</time>
      </trkpt>
      <trkpt lat="42.71087" lon="1.37996">
        <ele>1863.1723632812</ele>
        <time>2012-09-15T08:52:24Z</time>
      </trkpt>
      <trkpt lat="42.71083" lon="1.3799">
        <ele>1863.6528320312</ele>
        <time>2012-09-15T08:52:31Z</time>
      </trkpt>
      <trkpt lat="42.7108" lon="1.3798">
        <ele>1862.6916503906</ele>
        <time>2012-09-15T08:52:39Z</time>
      </trkpt>
      <trkpt lat="42.71078" lon="1.37976">
        <ele>1863.1723632812</ele>
        <time>2012-09-15T08:52:43Z</time>
      </trkpt>
      <trkpt lat="42.71074" lon="1.37971">
        <ele>1865.0949707031</ele>
        <time>2012-09-15T08:52:48Z</time>
      </trkpt>
      <trkpt lat="42.71071" lon="1.37967">
        <ele>1865.5756835938</ele>
        <time>2012-09-15T08:52:53Z</time>
      </trkpt>
      <trkpt lat="42.71068" lon="1.37962">
        <ele>1866.0561523438</ele>
        <time>2012-09-15T08:52:57Z</time>
      </trkpt>
      <trkpt lat="42.71062" lon="1.37954">
        <ele>1867.017578125</ele>
        <time>2012-09-15T08:53:05Z</time>
      </trkpt>
      <trkpt lat="42.71068" lon="1.37945">
        <ele>1865.0949707031</ele>
        <time>2012-09-15T08:53:10Z</time>
      </trkpt>
      <trkpt lat="42.71064" lon="1.37941">
        <ele>1865.5756835938</ele>
        <time>2012-09-15T08:53:15Z</time>
      </trkpt>
      <trkpt lat="42.71059" lon="1.37938">
        <ele>1866.0561523438</ele>
        <time>2012-09-15T08:53:20Z</time>
      </trkpt>
      <trkpt lat="42.71056" lon="1.37939">
        <ele>1867.498046875</ele>
        <time>2012-09-15T08:53:23Z</time>
      </trkpt>
      <trkpt lat="42.71052" lon="1.37935">
        <ele>1871.3435058594</ele>
        <time>2012-09-15T08:53:31Z</time>
      </trkpt>
      <trkpt lat="42.71051" lon="1.37931">
        <ele>1871.82421875</ele>
        <time>2012-09-15T08:53:35Z</time>
      </trkpt>
      <trkpt lat="42.71052" lon="1.37927">
        <ele>1872.7856445312</ele>
        <time>2012-09-15T08:53:39Z</time>
      </trkpt>
      <trkpt lat="42.71051" lon="1.37921">
        <ele>1872.7856445312</ele>
        <time>2012-09-15T08:53:44Z</time>
      </trkpt>
      <trkpt lat="42.7105" lon="1.37918">
        <ele>1873.7468261719</ele>
        <time>2012-09-15T08:53:48Z</time>
      </trkpt>
      <trkpt lat="42.71044" lon="1.37916">
        <ele>1876.1501464844</ele>
        <time>2012-09-15T08:53:56Z</time>
      </trkpt>
      <trkpt lat="42.71044" lon="1.37911">
        <ele>1877.5920410156</ele>
        <time>2012-09-15T08:54:02Z</time>
      </trkpt>
      <trkpt lat="42.71041" lon="1.3791">
        <ele>1878.0727539062</ele>
        <time>2012-09-15T08:54:06Z</time>
      </trkpt>
      <trkpt lat="42.71039" lon="1.37908">
        <ele>1878.0727539062</ele>
        <time>2012-09-15T08:54:10Z</time>
      </trkpt>
      <trkpt lat="42.71039" lon="1.37901">
        <ele>1877.5920410156</ele>
        <time>2012-09-15T08:54:18Z</time>
      </trkpt>
      <trkpt lat="42.71038" lon="1.37898">
        <ele>1878.0727539062</ele>
        <time>2012-09-15T08:54:23Z</time>
      </trkpt>
      <trkpt lat="42.71036" lon="1.37893">
        <ele>1877.1115722656</ele>
        <time>2012-09-15T08:54:27Z</time>
      </trkpt>
      <trkpt lat="42.71035" lon="1.37891">
        <ele>1877.1115722656</ele>
        <time>2012-09-15T08:54:33Z</time>
      </trkpt>
      <trkpt lat="42.71034" lon="1.37887">
        <ele>1878.5534667969</ele>
        <time>2012-09-15T08:54:42Z</time>
      </trkpt>
      <trkpt lat="42.71033" lon="1.37885">
        <ele>1880.9567871094</ele>
        <time>2012-09-15T08:54:48Z</time>
      </trkpt>
      <trkpt lat="42.71031" lon="1.37884">
        <ele>1882.3986816406</ele>
        <time>2012-09-15T08:54:53Z</time>
      </trkpt>
      <trkpt lat="42.7103" lon="1.37882">
        <ele>1883.8405761719</ele>
        <time>2012-09-15T08:54:59Z</time>
      </trkpt>
      <trkpt lat="42.71029" lon="1.37879">
        <ele>1883.8405761719</ele>
        <time>2012-09-15T08:55:08Z</time>
      </trkpt>
      <trkpt lat="42.7103" lon="1.37873">
        <ele>1882.8791503906</ele>
        <time>2012-09-15T08:55:14Z</time>
      </trkpt>
      <trkpt lat="42.71029" lon="1.3787">
        <ele>1883.8405761719</ele>
        <time>2012-09-15T08:55:22Z</time>
      </trkpt>
      <trkpt lat="42.71028" lon="1.37868">
        <ele>1885.7634277344</ele>
        <time>2012-09-15T08:55:27Z</time>
      </trkpt>
      <trkpt lat="42.71028" lon="1.37866">
        <ele>1886.244140625</ele>
        <time>2012-09-15T08:55:33Z</time>
      </trkpt>
      <trkpt lat="42.71028" lon="1.37863">
        <ele>1885.7634277344</ele>
        <time>2012-09-15T08:55:39Z</time>
      </trkpt>
      <trkpt lat="42.71026" lon="1.37857">
        <ele>1884.8022460938</ele>
        <time>2012-09-15T08:55:45Z</time>
      </trkpt>
      <trkpt lat="42.71024" lon="1.3785">
        <ele>1883.8405761719</ele>
        <time>2012-09-15T08:55:51Z</time>
      </trkpt>
      <trkpt lat="42.71022" lon="1.37841">
        <ele>1882.8791503906</ele>
        <time>2012-09-15T08:55:59Z</time>
      </trkpt>
      <trkpt lat="42.7102" lon="1.37837">
        <ele>1883.8405761719</ele>
        <time>2012-09-15T08:56:02Z</time>
      </trkpt>
      <trkpt lat="42.71019" lon="1.37829">
        <ele>1883.8405761719</ele>
        <time>2012-09-15T08:56:08Z</time>
      </trkpt>
      <trkpt lat="42.71016" lon="1.37822">
        <ele>1883.8405761719</ele>
        <time>2012-09-15T08:56:15Z</time>
      </trkpt>
      <trkpt lat="42.71014" lon="1.37816">
        <ele>1885.2827148438</ele>
        <time>2012-09-15T08:56:21Z</time>
      </trkpt>
      <trkpt lat="42.71013" lon="1.37809">
        <ele>1886.244140625</ele>
        <time>2012-09-15T08:56:28Z</time>
      </trkpt>
      <trkpt lat="42.71013" lon="1.37803">
        <ele>1887.6860351562</ele>
        <time>2012-09-15T08:56:34Z</time>
      </trkpt>
      <trkpt lat="42.71013" lon="1.37795">
        <ele>1887.2053222656</ele>
        <time>2012-09-15T08:56:39Z</time>
      </trkpt>
      <trkpt lat="42.71013" lon="1.3779">
        <ele>1888.6474609375</ele>
        <time>2012-09-15T08:56:44Z</time>
      </trkpt>
      <trkpt lat="42.71013" lon="1.37786">
        <ele>1888.6474609375</ele>
        <time>2012-09-15T08:56:49Z</time>
      </trkpt>
      <trkpt lat="42.71011" lon="1.37779">
        <ele>1888.1667480469</ele>
        <time>2012-09-15T08:56:56Z</time>
      </trkpt>
      <trkpt lat="42.71011" lon="1.37775">
        <ele>1887.2053222656</ele>
        <time>2012-09-15T08:57:01Z</time>
      </trkpt>
      <trkpt lat="42.7101" lon="1.37771">
        <ele>1886.724609375</ele>
        <time>2012-09-15T08:57:06Z</time>
      </trkpt>
      <trkpt lat="42.71008" lon="1.37767">
        <ele>1887.6860351562</ele>
        <time>2012-09-15T08:57:11Z</time>
      </trkpt>
      <trkpt lat="42.71008" lon="1.3776">
        <ele>1885.2827148438</ele>
        <time>2012-09-15T08:57:17Z</time>
      </trkpt>
      <trkpt lat="42.71006" lon="1.37752">
        <ele>1884.3215332031</ele>
        <time>2012-09-15T08:57:23Z</time>
      </trkpt>
      <trkpt lat="42.71008" lon="1.37745">
        <ele>1882.8791503906</ele>
        <time>2012-09-15T08:57:28Z</time>
      </trkpt>
      <trkpt lat="42.71009" lon="1.3774">
        <ele>1881.91796875</ele>
        <time>2012-09-15T08:57:31Z</time>
      </trkpt>
      <trkpt lat="42.71006" lon="1.37733">
        <ele>1883.8405761719</ele>
        <time>2012-09-15T08:57:37Z</time>
      </trkpt>
      <trkpt lat="42.71001" lon="1.37731">
        <ele>1886.724609375</ele>
        <time>2012-09-15T08:57:42Z</time>
      </trkpt>
      <trkpt lat="42.70997" lon="1.37726">
        <ele>1888.1667480469</ele>
        <time>2012-09-15T08:57:48Z</time>
      </trkpt>
      <trkpt lat="42.70992" lon="1.37723">
        <ele>1890.0893554688</ele>
        <time>2012-09-15T08:57:54Z</time>
      </trkpt>
      <trkpt lat="42.70991" lon="1.37722">
        <ele>1893.9345703125</ele>
        <time>2012-09-15T08:58:01Z</time>
      </trkpt>
      <trkpt lat="42.70992" lon="1.37717">
        <ele>1896.337890625</ele>
        <time>2012-09-15T08:58:07Z</time>
      </trkpt>
      <trkpt lat="42.70987" lon="1.37716">
        <ele>1897.2990722656</ele>
        <time>2012-09-15T08:58:12Z</time>
      </trkpt>
      <trkpt lat="42.70983" lon="1.37714">
        <ele>1898.7409667969</ele>
        <time>2012-09-15T08:58:17Z</time>
      </trkpt>
      <trkpt lat="42.7098" lon="1.37712">
        <ele>1898.7409667969</ele>
        <time>2012-09-15T08:58:23Z</time>
      </trkpt>
      <trkpt lat="42.70976" lon="1.3771">
        <ele>1900.1833496094</ele>
        <time>2012-09-15T08:58:28Z</time>
      </trkpt>
      <trkpt lat="42.70974" lon="1.37708">
        <ele>1899.7023925781</ele>
        <time>2012-09-15T08:58:32Z</time>
      </trkpt>
      <trkpt lat="42.70971" lon="1.37704">
        <ele>1900.6638183594</ele>
        <time>2012-09-15T08:58:41Z</time>
      </trkpt>
      <trkpt lat="42.70967" lon="1.37698">
        <ele>1902.1057128906</ele>
        <time>2012-09-15T08:58:49Z</time>
      </trkpt>
      <trkpt lat="42.70963" lon="1.37695">
        <ele>1901.6252441406</ele>
        <time>2012-09-15T08:58:55Z</time>
      </trkpt>
      <trkpt lat="42.70961" lon="1.37689">
        <ele>1900.1833496094</ele>
        <time>2012-09-15T08:59:01Z</time>
      </trkpt>
      <trkpt lat="42.70959" lon="1.37682">
        <ele>1899.7023925781</ele>
        <time>2012-09-15T08:59:07Z</time>
      </trkpt>
      <trkpt lat="42.70958" lon="1.37674">
        <ele>1899.7023925781</ele>
        <time>2012-09-15T08:59:12Z</time>
      </trkpt>
      <trkpt lat="42.70958" lon="1.3767">
        <ele>1900.1833496094</ele>
        <time>2012-09-15T08:59:16Z</time>
      </trkpt>
      <trkpt lat="42.70956" lon="1.37664">
        <ele>1902.1057128906</ele>
        <time>2012-09-15T08:59:21Z</time>
      </trkpt>
      <trkpt lat="42.70957" lon="1.3766">
        <ele>1902.1057128906</ele>
        <time>2012-09-15T08:59:26Z</time>
      </trkpt>
      <trkpt lat="42.70956" lon="1.37655">
        <ele>1902.1057128906</ele>
        <time>2012-09-15T08:59:31Z</time>
      </trkpt>
      <trkpt lat="42.70954" lon="1.37646">
        <ele>1902.5864257812</ele>
        <time>2012-09-15T08:59:38Z</time>
      </trkpt>
      <trkpt lat="42.70955" lon="1.3764">
        <ele>1901.6252441406</ele>
        <time>2012-09-15T08:59:43Z</time>
      </trkpt>
      <trkpt lat="42.70955" lon="1.3763">
        <ele>1901.6252441406</ele>
        <time>2012-09-15T08:59:50Z</time>
      </trkpt>
      <trkpt lat="42.70948" lon="1.37618">
        <ele>1901.6252441406</ele>
        <time>2012-09-15T08:59:58Z</time>
      </trkpt>
      <trkpt lat="42.70945" lon="1.37609">
        <ele>1902.5864257812</ele>
        <time>2012-09-15T09:00:04Z</time>
      </trkpt>
      <trkpt lat="42.70944" lon="1.37608">
        <ele>1902.5864257812</ele>
        <time>2012-09-15T09:00:05Z</time>
      </trkpt>
      <trkpt lat="42.7094" lon="1.37602">
        <ele>1903.5478515625</ele>
        <time>2012-09-15T09:00:10Z</time>
      </trkpt>
      <trkpt lat="42.70935" lon="1.37591">
        <ele>1904.0285644531</ele>
        <time>2012-09-15T09:00:17Z</time>
      </trkpt>
      <trkpt lat="42.70929" lon="1.37582">
        <ele>1904.9897460938</ele>
        <time>2012-09-15T09:00:24Z</time>
      </trkpt>
      <trkpt lat="42.70923" lon="1.37572">
        <ele>1906.431640625</ele>
        <time>2012-09-15T09:00:32Z</time>
      </trkpt>
      <trkpt lat="42.70917" lon="1.37564">
        <ele>1906.431640625</ele>
        <time>2012-09-15T09:00:40Z</time>
      </trkpt>
      <trkpt lat="42.70911" lon="1.3756">
        <ele>1908.3542480469</ele>
        <time>2012-09-15T09:00:47Z</time>
      </trkpt>
      <trkpt lat="42.7091" lon="1.37556">
        <ele>1909.3156738281</ele>
        <time>2012-09-15T09:00:51Z</time>
      </trkpt>
      <trkpt lat="42.7091" lon="1.37548">
        <ele>1907.8737792969</ele>
        <time>2012-09-15T09:00:57Z</time>
      </trkpt>
      <trkpt lat="42.70908" lon="1.37543">
        <ele>1906.9123535156</ele>
        <time>2012-09-15T09:01:02Z</time>
      </trkpt>
      <trkpt lat="42.70907" lon="1.37538">
        <ele>1906.431640625</ele>
        <time>2012-09-15T09:01:07Z</time>
      </trkpt>
      <trkpt lat="42.70905" lon="1.3753">
        <ele>1905.4704589844</ele>
        <time>2012-09-15T09:01:13Z</time>
      </trkpt>
      <trkpt lat="42.70903" lon="1.37526">
        <ele>1904.9897460938</ele>
        <time>2012-09-15T09:01:16Z</time>
      </trkpt>
      <trkpt lat="42.70902" lon="1.37522">
        <ele>1904.5090332031</ele>
        <time>2012-09-15T09:01:20Z</time>
      </trkpt>
      <trkpt lat="42.70899" lon="1.37513">
        <ele>1904.0285644531</ele>
        <time>2012-09-15T09:01:27Z</time>
      </trkpt>
      <trkpt lat="42.70897" lon="1.37507">
        <ele>1904.0285644531</ele>
        <time>2012-09-15T09:01:32Z</time>
      </trkpt>
      <trkpt lat="42.70891" lon="1.37496">
        <ele>1904.9897460938</ele>
        <time>2012-09-15T09:01:40Z</time>
      </trkpt>
      <trkpt lat="42.70885" lon="1.37483">
        <ele>1906.431640625</ele>
        <time>2012-09-15T09:01:49Z</time>
      </trkpt>
      <trkpt lat="42.70883" lon="1.3748">
        <ele>1907.3930664062</ele>
        <time>2012-09-15T09:01:52Z</time>
      </trkpt>
      <trkpt lat="42.70882" lon="1.37471">
        <ele>1909.7961425781</ele>
        <time>2012-09-15T09:01:58Z</time>
      </trkpt>
      <trkpt lat="42.70881" lon="1.37461">
        <ele>1910.2768554688</ele>
        <time>2012-09-15T09:02:05Z</time>
      </trkpt>
      <trkpt lat="42.70878" lon="1.37451">
        <ele>1910.2768554688</ele>
        <time>2012-09-15T09:02:11Z</time>
      </trkpt>
      <trkpt lat="42.70877" lon="1.3745">
        <ele>1910.7575683594</ele>
        <time>2012-09-15T09:02:12Z</time>
      </trkpt>
      <trkpt lat="42.70876" lon="1.37442">
        <ele>1910.7575683594</ele>
        <time>2012-09-15T09:02:18Z</time>
      </trkpt>
      <trkpt lat="42.70872" lon="1.37433">
        <ele>1911.7189941406</ele>
        <time>2012-09-15T09:02:25Z</time>
      </trkpt>
      <trkpt lat="42.7087" lon="1.37429">
        <ele>1912.1994628906</ele>
        <time>2012-09-15T09:02:29Z</time>
      </trkpt>
      <trkpt lat="42.7087" lon="1.3742">
        <ele>1911.23828125</ele>
        <time>2012-09-15T09:02:36Z</time>
      </trkpt>
      <trkpt lat="42.70866" lon="1.37413">
        <ele>1912.1994628906</ele>
        <time>2012-09-15T09:02:42Z</time>
      </trkpt>
      <trkpt lat="42.70863" lon="1.37407">
        <ele>1914.1220703125</ele>
        <time>2012-09-15T09:02:49Z</time>
      </trkpt>
      <trkpt lat="42.7086" lon="1.374">
        <ele>1915.0834960938</ele>
        <time>2012-09-15T09:02:56Z</time>
      </trkpt>
      <trkpt lat="42.70859" lon="1.37391">
        <ele>1914.1220703125</ele>
        <time>2012-09-15T09:03:03Z</time>
      </trkpt>
      <trkpt lat="42.70859" lon="1.37389">
        <ele>1913.6413574219</ele>
        <time>2012-09-15T09:03:04Z</time>
      </trkpt>
      <trkpt lat="42.70858" lon="1.37383">
        <ele>1914.6027832031</ele>
        <time>2012-09-15T09:03:09Z</time>
      </trkpt>
      <trkpt lat="42.70856" lon="1.3738">
        <ele>1915.0834960938</ele>
        <time>2012-09-15T09:03:13Z</time>
      </trkpt>
      <trkpt lat="42.70853" lon="1.37377">
        <ele>1916.5256347656</ele>
        <time>2012-09-15T09:03:19Z</time>
      </trkpt>
      <trkpt lat="42.70853" lon="1.3737">
        <ele>1916.5256347656</ele>
        <time>2012-09-15T09:03:25Z</time>
      </trkpt>
      <trkpt lat="42.70851" lon="1.37363">
        <ele>1916.5256347656</ele>
        <time>2012-09-15T09:03:31Z</time>
      </trkpt>
      <trkpt lat="42.7085" lon="1.37358">
        <ele>1917.4868164062</ele>
        <time>2012-09-15T09:03:36Z</time>
      </trkpt>
      <trkpt lat="42.70847" lon="1.37355">
        <ele>1918.9289550781</ele>
        <time>2012-09-15T09:03:41Z</time>
      </trkpt>
      <trkpt lat="42.70843" lon="1.37352">
        <ele>1919.4096679688</ele>
        <time>2012-09-15T09:03:45Z</time>
      </trkpt>
      <trkpt lat="42.70842" lon="1.37348">
        <ele>1918.4482421875</ele>
        <time>2012-09-15T09:03:49Z</time>
      </trkpt>
      <trkpt lat="42.70842" lon="1.37343">
        <ele>1918.9289550781</ele>
        <time>2012-09-15T09:03:53Z</time>
      </trkpt>
      <trkpt lat="42.70841" lon="1.37338">
        <ele>1919.4096679688</ele>
        <time>2012-09-15T09:03:58Z</time>
      </trkpt>
      <trkpt lat="42.70836" lon="1.37336">
        <ele>1921.8127441406</ele>
        <time>2012-09-15T09:04:06Z</time>
      </trkpt>
      <trkpt lat="42.70836" lon="1.37332">
        <ele>1922.7741699219</ele>
        <time>2012-09-15T09:04:10Z</time>
      </trkpt>
      <trkpt lat="42.70835" lon="1.37324">
        <ele>1924.2160644531</ele>
        <time>2012-09-15T09:04:17Z</time>
      </trkpt>
      <trkpt lat="42.70832" lon="1.37324">
        <ele>1927.5805664062</ele>
        <time>2012-09-15T09:04:23Z</time>
      </trkpt>
      <trkpt lat="42.70831" lon="1.37321">
        <ele>1929.0224609375</ele>
        <time>2012-09-15T09:04:27Z</time>
      </trkpt>
      <trkpt lat="42.70829" lon="1.37318">
        <ele>1929.9838867188</ele>
        <time>2012-09-15T09:04:33Z</time>
      </trkpt>
      <trkpt lat="42.70827" lon="1.37314">
        <ele>1930.4645996094</ele>
        <time>2012-09-15T09:04:38Z</time>
      </trkpt>
      <trkpt lat="42.70826" lon="1.37312">
        <ele>1932.3874511719</ele>
        <time>2012-09-15T09:04:43Z</time>
      </trkpt>
      <trkpt lat="42.70824" lon="1.3731">
        <ele>1933.8293457031</ele>
        <time>2012-09-15T09:04:47Z</time>
      </trkpt>
      <trkpt lat="42.70822" lon="1.37306">
        <ele>1934.3100585938</ele>
        <time>2012-09-15T09:04:52Z</time>
      </trkpt>
      <trkpt lat="42.70819" lon="1.37302">
        <ele>1934.7907714844</ele>
        <time>2012-09-15T09:04:58Z</time>
      </trkpt>
      <trkpt lat="42.70815" lon="1.37295">
        <ele>1935.751953125</ele>
        <time>2012-09-15T09:05:06Z</time>
      </trkpt>
      <trkpt lat="42.70813" lon="1.37291">
        <ele>1937.6745605469</ele>
        <time>2012-09-15T09:05:11Z</time>
      </trkpt>
      <trkpt lat="42.7081" lon="1.37286">
        <ele>1939.5971679688</ele>
        <time>2012-09-15T09:05:17Z</time>
      </trkpt>
      <trkpt lat="42.70807" lon="1.37281">
        <ele>1938.6359863281</ele>
        <time>2012-09-15T09:05:22Z</time>
      </trkpt>
      <trkpt lat="42.70805" lon="1.37279">
        <ele>1939.1164550781</ele>
        <time>2012-09-15T09:05:26Z</time>
      </trkpt>
      <trkpt lat="42.70802" lon="1.37275">
        <ele>1939.1164550781</ele>
        <time>2012-09-15T09:05:31Z</time>
      </trkpt>
      <trkpt lat="42.708" lon="1.37271">
        <ele>1939.1164550781</ele>
        <time>2012-09-15T09:05:36Z</time>
      </trkpt>
      <trkpt lat="42.70797" lon="1.37268">
        <ele>1939.5971679688</ele>
        <time>2012-09-15T09:05:41Z</time>
      </trkpt>
      <trkpt lat="42.70797" lon="1.37264">
        <ele>1940.5583496094</ele>
        <time>2012-09-15T09:05:45Z</time>
      </trkpt>
      <trkpt lat="42.70794" lon="1.3726">
        <ele>1942.0004882812</ele>
        <time>2012-09-15T09:05:51Z</time>
      </trkpt>
      <trkpt lat="42.70791" lon="1.37257">
        <ele>1942.9616699219</ele>
        <time>2012-09-15T09:05:55Z</time>
      </trkpt>
      <trkpt lat="42.7079" lon="1.37254">
        <ele>1943.9230957031</ele>
        <time>2012-09-15T09:05:59Z</time>
      </trkpt>
      <trkpt lat="42.70787" lon="1.37249">
        <ele>1944.4035644531</ele>
        <time>2012-09-15T09:06:05Z</time>
      </trkpt>
      <trkpt lat="42.70784" lon="1.37249">
        <ele>1946.3264160156</ele>
        <time>2012-09-15T09:06:11Z</time>
      </trkpt>
      <trkpt lat="42.7078" lon="1.37247">
        <ele>1948.2490234375</ele>
        <time>2012-09-15T09:06:17Z</time>
      </trkpt>
      <trkpt lat="42.70779" lon="1.37243">
        <ele>1948.7297363281</ele>
        <time>2012-09-15T09:06:21Z</time>
      </trkpt>
      <trkpt lat="42.70777" lon="1.3724">
        <ele>1949.6911621094</ele>
        <time>2012-09-15T09:06:27Z</time>
      </trkpt>
      <trkpt lat="42.70775" lon="1.37238">
        <ele>1951.1330566406</ele>
        <time>2012-09-15T09:06:33Z</time>
      </trkpt>
      <trkpt lat="42.70772" lon="1.37236">
        <ele>1952.0942382812</ele>
        <time>2012-09-15T09:06:38Z</time>
      </trkpt>
      <trkpt lat="42.70769" lon="1.37235">
        <ele>1953.5363769531</ele>
        <time>2012-09-15T09:06:44Z</time>
      </trkpt>
      <trkpt lat="42.70767" lon="1.37232">
        <ele>1954.9782714844</ele>
        <time>2012-09-15T09:06:49Z</time>
      </trkpt>
      <trkpt lat="42.70766" lon="1.37227">
        <ele>1955.939453125</ele>
        <time>2012-09-15T09:06:54Z</time>
      </trkpt>
      <trkpt lat="42.70764" lon="1.37224">
        <ele>1956.4201660156</ele>
        <time>2012-09-15T09:06:59Z</time>
      </trkpt>
      <trkpt lat="42.70762" lon="1.3722">
        <ele>1957.3815917969</ele>
        <time>2012-09-15T09:07:04Z</time>
      </trkpt>
      <trkpt lat="42.7076" lon="1.37218">
        <ele>1957.8623046875</ele>
        <time>2012-09-15T09:07:09Z</time>
      </trkpt>
      <trkpt lat="42.70757" lon="1.37214">
        <ele>1958.8234863281</ele>
        <time>2012-09-15T09:07:15Z</time>
      </trkpt>
      <trkpt lat="42.70754" lon="1.37211">
        <ele>1959.7846679688</ele>
        <time>2012-09-15T09:07:21Z</time>
      </trkpt>
      <trkpt lat="42.70752" lon="1.37208">
        <ele>1961.2268066406</ele>
        <time>2012-09-15T09:07:25Z</time>
      </trkpt>
      <trkpt lat="42.70748" lon="1.37204">
        <ele>1962.1879882812</ele>
        <time>2012-09-15T09:07:31Z</time>
      </trkpt>
      <trkpt lat="42.70745" lon="1.37203">
        <ele>1963.6298828125</ele>
        <time>2012-09-15T09:07:36Z</time>
      </trkpt>
      <trkpt lat="42.70741" lon="1.372">
        <ele>1964.5915527344</ele>
        <time>2012-09-15T09:07:41Z</time>
      </trkpt>
      <trkpt lat="42.70735" lon="1.37196">
        <ele>1966.0334472656</ele>
        <time>2012-09-15T09:07:49Z</time>
      </trkpt>
      <trkpt lat="42.7073" lon="1.37195">
        <ele>1967.4753417969</ele>
        <time>2012-09-15T09:07:55Z</time>
      </trkpt>
      <trkpt lat="42.70725" lon="1.37191">
        <ele>1969.3981933594</ele>
        <time>2012-09-15T09:08:02Z</time>
      </trkpt>
      <trkpt lat="42.70723" lon="1.37188">
        <ele>1969.8786621094</ele>
        <time>2012-09-15T09:08:06Z</time>
      </trkpt>
      <trkpt lat="42.70716" lon="1.37185">
        <ele>1970.359375</ele>
        <time>2012-09-15T09:08:13Z</time>
      </trkpt>
      <trkpt lat="42.70712" lon="1.37182">
        <ele>1971.3205566406</ele>
        <time>2012-09-15T09:08:19Z</time>
      </trkpt>
      <trkpt lat="42.7071" lon="1.3718">
        <ele>1972.7626953125</ele>
        <time>2012-09-15T09:08:24Z</time>
      </trkpt>
      <trkpt lat="42.70705" lon="1.37181">
        <ele>1974.6853027344</ele>
        <time>2012-09-15T09:08:29Z</time>
      </trkpt>
      <trkpt lat="42.70701" lon="1.37177">
        <ele>1976.6079101562</ele>
        <time>2012-09-15T09:08:35Z</time>
      </trkpt>
      <trkpt lat="42.70697" lon="1.37176">
        <ele>1978.5305175781</ele>
        <time>2012-09-15T09:08:41Z</time>
      </trkpt>
      <trkpt lat="42.70692" lon="1.37174">
        <ele>1979.9724121094</ele>
        <time>2012-09-15T09:08:46Z</time>
      </trkpt>
      <trkpt lat="42.70688" lon="1.37172">
        <ele>1981.4145507812</ele>
        <time>2012-09-15T09:08:51Z</time>
      </trkpt>
      <trkpt lat="42.70685" lon="1.3717">
        <ele>1981.8952636719</ele>
        <time>2012-09-15T09:08:57Z</time>
      </trkpt>
      <trkpt lat="42.70681" lon="1.37167">
        <ele>1982.8564453125</ele>
        <time>2012-09-15T09:09:03Z</time>
      </trkpt>
      <trkpt lat="42.70676" lon="1.37164">
        <ele>1983.8178710938</ele>
        <time>2012-09-15T09:09:09Z</time>
      </trkpt>
      <trkpt lat="42.70672" lon="1.37161">
        <ele>1984.779296875</ele>
        <time>2012-09-15T09:09:15Z</time>
      </trkpt>
      <trkpt lat="42.70668" lon="1.37155">
        <ele>1985.259765625</ele>
        <time>2012-09-15T09:09:20Z</time>
      </trkpt>
      <trkpt lat="42.70664" lon="1.3715">
        <ele>1985.7404785156</ele>
        <time>2012-09-15T09:09:26Z</time>
      </trkpt>
      <trkpt lat="42.70662" lon="1.37147">
        <ele>1986.2211914062</ele>
        <time>2012-09-15T09:09:30Z</time>
      </trkpt>
      <trkpt lat="42.7066" lon="1.37145">
        <ele>1986.7016601562</ele>
        <time>2012-09-15T09:09:33Z</time>
      </trkpt>
      <trkpt lat="42.70656" lon="1.3714">
        <ele>1987.1823730469</ele>
        <time>2012-09-15T09:09:39Z</time>
      </trkpt>
      <trkpt lat="42.70653" lon="1.37136">
        <ele>1988.1437988281</ele>
        <time>2012-09-15T09:09:44Z</time>
      </trkpt>
      <trkpt lat="42.7065" lon="1.37132">
        <ele>1987.6630859375</ele>
        <time>2012-09-15T09:09:48Z</time>
      </trkpt>
      <trkpt lat="42.70648" lon="1.37126">
        <ele>1989.1049804688</ele>
        <time>2012-09-15T09:09:54Z</time>
      </trkpt>
      <trkpt lat="42.70644" lon="1.37122">
        <ele>1991.0275878906</ele>
        <time>2012-09-15T09:10:00Z</time>
      </trkpt>
      <trkpt lat="42.7064" lon="1.37122">
        <ele>1992.4697265625</ele>
        <time>2012-09-15T09:10:06Z</time>
      </trkpt>
      <trkpt lat="42.70638" lon="1.37118">
        <ele>1992.9501953125</ele>
        <time>2012-09-15T09:10:11Z</time>
      </trkpt>
      <trkpt lat="42.70637" lon="1.37113">
        <ele>1994.3920898438</ele>
        <time>2012-09-15T09:10:16Z</time>
      </trkpt>
      <trkpt lat="42.70634" lon="1.37107">
        <ele>1994.3920898438</ele>
        <time>2012-09-15T09:10:22Z</time>
      </trkpt>
      <trkpt lat="42.70632" lon="1.37104">
        <ele>1993.9116210938</ele>
        <time>2012-09-15T09:10:27Z</time>
      </trkpt>
      <trkpt lat="42.70631" lon="1.37101">
        <ele>1993.9116210938</ele>
        <time>2012-09-15T09:10:30Z</time>
      </trkpt>
      <trkpt lat="42.70629" lon="1.37098">
        <ele>1995.353515625</ele>
        <time>2012-09-15T09:10:35Z</time>
      </trkpt>
      <trkpt lat="42.70626" lon="1.37097">
        <ele>1997.2763671875</ele>
        <time>2012-09-15T09:10:40Z</time>
      </trkpt>
      <trkpt lat="42.70624" lon="1.37093">
        <ele>1998.7182617188</ele>
        <time>2012-09-15T09:10:45Z</time>
      </trkpt>
      <trkpt lat="42.70623" lon="1.37091">
        <ele>2000.1604003906</ele>
        <time>2012-09-15T09:10:49Z</time>
      </trkpt>
      <trkpt lat="42.7062" lon="1.37088">
        <ele>2001.6022949219</ele>
        <time>2012-09-15T09:10:54Z</time>
      </trkpt>
      <trkpt lat="42.70618" lon="1.37085">
        <ele>2003.0441894531</ele>
        <time>2012-09-15T09:10:59Z</time>
      </trkpt>
      <trkpt lat="42.70617" lon="1.3708">
        <ele>2003.0441894531</ele>
        <time>2012-09-15T09:11:05Z</time>
      </trkpt>
      <trkpt lat="42.70615" lon="1.37077">
        <ele>2003.5249023438</ele>
        <time>2012-09-15T09:11:11Z</time>
      </trkpt>
      <trkpt lat="42.70612" lon="1.37073">
        <ele>2004.4860839844</ele>
        <time>2012-09-15T09:11:17Z</time>
      </trkpt>
      <trkpt lat="42.70609" lon="1.37072">
        <ele>2005.4475097656</ele>
        <time>2012-09-15T09:11:23Z</time>
      </trkpt>
      <trkpt lat="42.70607" lon="1.37069">
        <ele>2006.4086914062</ele>
        <time>2012-09-15T09:11:27Z</time>
      </trkpt>
      <trkpt lat="42.70604" lon="1.37065">
        <ele>2008.3312988281</ele>
        <time>2012-09-15T09:11:32Z</time>
      </trkpt>
      <trkpt lat="42.70604" lon="1.37063">
        <ele>2010.25390625</ele>
        <time>2012-09-15T09:11:37Z</time>
      </trkpt>
      <trkpt lat="42.70601" lon="1.37062">
        <ele>2011.6960449219</ele>
        <time>2012-09-15T09:11:43Z</time>
      </trkpt>
      <trkpt lat="42.70599" lon="1.3706">
        <ele>2013.1381835938</ele>
        <time>2012-09-15T09:11:49Z</time>
      </trkpt>
      <trkpt lat="42.706" lon="1.37055">
        <ele>2013.6186523438</ele>
        <time>2012-09-15T09:11:53Z</time>
      </trkpt>
      <trkpt lat="42.70601" lon="1.37052">
        <ele>2015.0607910156</ele>
        <time>2012-09-15T09:11:58Z</time>
      </trkpt>
      <trkpt lat="42.70601" lon="1.37048">
        <ele>2016.0219726562</ele>
        <time>2012-09-15T09:12:03Z</time>
      </trkpt>
      <trkpt lat="42.70599" lon="1.37046">
        <ele>2016.9833984375</ele>
        <time>2012-09-15T09:12:07Z</time>
      </trkpt>
      <trkpt lat="42.70598" lon="1.37043">
        <ele>2017.9445800781</ele>
        <time>2012-09-15T09:12:12Z</time>
      </trkpt>
      <trkpt lat="42.70596" lon="1.37041">
        <ele>2019.38671875</ele>
        <time>2012-09-15T09:12:17Z</time>
      </trkpt>
      <trkpt lat="42.70596" lon="1.37038">
        <ele>2019.38671875</ele>
        <time>2012-09-15T09:12:22Z</time>
      </trkpt>
      <trkpt lat="42.70599" lon="1.37035">
        <ele>2021.3090820312</ele>
        <time>2012-09-15T09:12:28Z</time>
      </trkpt>
      <trkpt lat="42.706" lon="1.37032">
        <ele>2021.7897949219</ele>
        <time>2012-09-15T09:12:33Z</time>
      </trkpt>
      <trkpt lat="42.70599" lon="1.37028">
        <ele>2022.2705078125</ele>
        <time>2012-09-15T09:12:40Z</time>
      </trkpt>
      <trkpt lat="42.70599" lon="1.37023">
        <ele>2023.2319335938</ele>
        <time>2012-09-15T09:12:46Z</time>
      </trkpt>
      <trkpt lat="42.70598" lon="1.37021">
        <ele>2025.6350097656</ele>
        <time>2012-09-15T09:12:50Z</time>
      </trkpt>
      <trkpt lat="42.70596" lon="1.37019">
        <ele>2027.5576171875</ele>
        <time>2012-09-15T09:12:56Z</time>
      </trkpt>
      <trkpt lat="42.70594" lon="1.37016">
        <ele>2028.5192871094</ele>
        <time>2012-09-15T09:13:01Z</time>
      </trkpt>
      <trkpt lat="42.70593" lon="1.37013">
        <ele>2028.5192871094</ele>
        <time>2012-09-15T09:13:04Z</time>
      </trkpt>
      <trkpt lat="42.70592" lon="1.37006">
        <ele>2029.48046875</ele>
        <time>2012-09-15T09:13:10Z</time>
      </trkpt>
      <trkpt lat="42.70593" lon="1.36997">
        <ele>2030.9226074219</ele>
        <time>2012-09-15T09:13:17Z</time>
      </trkpt>
      <trkpt lat="42.70593" lon="1.36994">
        <ele>2033.3256835938</ele>
        <time>2012-09-15T09:13:22Z</time>
      </trkpt>
      <trkpt lat="42.70593" lon="1.36989">
        <ele>2033.8063964844</ele>
        <time>2012-09-15T09:13:28Z</time>
      </trkpt>
      <trkpt lat="42.70593" lon="1.36981">
        <ele>2035.7290039062</ele>
        <time>2012-09-15T09:13:36Z</time>
      </trkpt>
      <trkpt lat="42.70593" lon="1.36978">
        <ele>2036.6901855469</ele>
        <time>2012-09-15T09:13:42Z</time>
      </trkpt>
      <trkpt lat="42.70595" lon="1.36972">
        <ele>2037.6516113281</ele>
        <time>2012-09-15T09:13:48Z</time>
      </trkpt>
      <trkpt lat="42.70598" lon="1.36967">
        <ele>2039.0935058594</ele>
        <time>2012-09-15T09:13:55Z</time>
      </trkpt>
      <trkpt lat="42.70596" lon="1.36965">
        <ele>2040.0549316406</ele>
        <time>2012-09-15T09:14:00Z</time>
      </trkpt>
      <trkpt lat="42.70596" lon="1.36962">
        <ele>2040.0549316406</ele>
        <time>2012-09-15T09:14:04Z</time>
      </trkpt>
      <trkpt lat="42.70597" lon="1.36959">
        <ele>2040.5354003906</ele>
        <time>2012-09-15T09:14:10Z</time>
      </trkpt>
      <trkpt lat="42.70595" lon="1.36958">
        <ele>2041.9775390625</ele>
        <time>2012-09-15T09:14:16Z</time>
      </trkpt>
      <trkpt lat="42.70594" lon="1.36956">
        <ele>2042.9387207031</ele>
        <time>2012-09-15T09:14:24Z</time>
      </trkpt>
      <trkpt lat="42.70592" lon="1.36953">
        <ele>2044.8615722656</ele>
        <time>2012-09-15T09:14:30Z</time>
      </trkpt>
      <trkpt lat="42.7059" lon="1.36951">
        <ele>2045.3422851562</ele>
        <time>2012-09-15T09:14:36Z</time>
      </trkpt>
      <trkpt lat="42.70588" lon="1.3695">
        <ele>2048.2260742188</ele>
        <time>2012-09-15T09:14:43Z</time>
      </trkpt>
      <trkpt lat="42.70588" lon="1.36946">
        <ele>2049.6682128906</ele>
        <time>2012-09-15T09:14:48Z</time>
      </trkpt>
      <trkpt lat="42.70589" lon="1.36945">
        <ele>2051.1101074219</ele>
        <time>2012-09-15T09:14:55Z</time>
      </trkpt>
      <trkpt lat="42.70588" lon="1.36945">
        <ele>2051.5908203125</ele>
        <time>2012-09-15T09:15:00Z</time>
      </trkpt>
      <trkpt lat="42.70588" lon="1.3694">
        <ele>2053.0327148438</ele>
        <time>2012-09-15T09:15:07Z</time>
      </trkpt>
      <trkpt lat="42.70589" lon="1.36936">
        <ele>2054.474609375</ele>
        <time>2012-09-15T09:15:13Z</time>
      </trkpt>
      <trkpt lat="42.70589" lon="1.36932">
        <ele>2055.9165039062</ele>
        <time>2012-09-15T09:15:18Z</time>
      </trkpt>
      <trkpt lat="42.7059" lon="1.36928">
        <ele>2056.3972167969</ele>
        <time>2012-09-15T09:15:24Z</time>
      </trkpt>
      <trkpt lat="42.70589" lon="1.36925">
        <ele>2055.9165039062</ele>
        <time>2012-09-15T09:15:29Z</time>
      </trkpt>
      <trkpt lat="42.70589" lon="1.36919">
        <ele>2055.4360351562</ele>
        <time>2012-09-15T09:15:35Z</time>
      </trkpt>
      <trkpt lat="42.70589" lon="1.36914">
        <ele>2056.8779296875</ele>
        <time>2012-09-15T09:15:42Z</time>
      </trkpt>
      <trkpt lat="42.70591" lon="1.36909">
        <ele>2058.8005371094</ele>
        <time>2012-09-15T09:15:48Z</time>
      </trkpt>
      <trkpt lat="42.70592" lon="1.36906">
        <ele>2060.2426757812</ele>
        <time>2012-09-15T09:15:53Z</time>
      </trkpt>
      <trkpt lat="42.7059" lon="1.36904">
        <ele>2061.6848144531</ele>
        <time>2012-09-15T09:15:57Z</time>
      </trkpt>
      <trkpt lat="42.70587" lon="1.36901">
        <ele>2062.6459960938</ele>
        <time>2012-09-15T09:16:04Z</time>
      </trkpt>
      <trkpt lat="42.70585" lon="1.36899">
        <ele>2063.6071777344</ele>
        <time>2012-09-15T09:16:09Z</time>
      </trkpt>
      <trkpt lat="42.70584" lon="1.36896">
        <ele>2064.087890625</ele>
        <time>2012-09-15T09:16:14Z</time>
      </trkpt>
      <trkpt lat="42.70583" lon="1.36894">
        <ele>2065.5300292969</ele>
        <time>2012-09-15T09:16:19Z</time>
      </trkpt>
      <trkpt lat="42.70581" lon="1.36891">
        <ele>2066.4912109375</ele>
        <time>2012-09-15T09:16:24Z</time>
      </trkpt>
      <trkpt lat="42.7058" lon="1.36889">
        <ele>2067.4523925781</ele>
        <time>2012-09-15T09:16:28Z</time>
      </trkpt>
      <trkpt lat="42.70577" lon="1.36886">
        <ele>2068.4138183594</ele>
        <time>2012-09-15T09:16:34Z</time>
      </trkpt>
      <trkpt lat="42.70573" lon="1.36885">
        <ele>2069.3752441406</ele>
        <time>2012-09-15T09:16:40Z</time>
      </trkpt>
      <trkpt lat="42.7057" lon="1.36883">
        <ele>2070.3364257812</ele>
        <time>2012-09-15T09:16:47Z</time>
      </trkpt>
      <trkpt lat="42.70568" lon="1.36878">
        <ele>2070.8171386719</ele>
        <time>2012-09-15T09:16:54Z</time>
      </trkpt>
      <trkpt lat="42.70567" lon="1.36875">
        <ele>2071.7783203125</ele>
        <time>2012-09-15T09:16:58Z</time>
      </trkpt>
      <trkpt lat="42.70564" lon="1.36871">
        <ele>2072.2590332031</ele>
        <time>2012-09-15T09:17:04Z</time>
      </trkpt>
      <trkpt lat="42.70562" lon="1.36868">
        <ele>2072.7397460938</ele>
        <time>2012-09-15T09:17:09Z</time>
      </trkpt>
      <trkpt lat="42.70562" lon="1.36866">
        <ele>2073.2204589844</ele>
        <time>2012-09-15T09:17:16Z</time>
      </trkpt>
      <trkpt lat="42.7056" lon="1.36866">
        <ele>2074.181640625</ele>
        <time>2012-09-15T09:17:31Z</time>
      </trkpt>
      <trkpt lat="42.70556" lon="1.36867">
        <ele>2075.1428222656</ele>
        <time>2012-09-15T09:17:38Z</time>
      </trkpt>
      <trkpt lat="42.70553" lon="1.3687">
        <ele>2076.1044921875</ele>
        <time>2012-09-15T09:17:44Z</time>
      </trkpt>
      <trkpt lat="42.70549" lon="1.36872">
        <ele>2077.0659179688</ele>
        <time>2012-09-15T09:17:51Z</time>
      </trkpt>
      <trkpt lat="42.70547" lon="1.36876">
        <ele>2078.5078125</ele>
        <time>2012-09-15T09:17:57Z</time>
      </trkpt>
      <trkpt lat="42.70545" lon="1.36876">
        <ele>2079.9497070312</ele>
        <time>2012-09-15T09:18:03Z</time>
      </trkpt>
      <trkpt lat="42.70543" lon="1.36874">
        <ele>2080.4304199219</ele>
        <time>2012-09-15T09:18:08Z</time>
      </trkpt>
      <trkpt lat="42.70539" lon="1.36873">
        <ele>2080.4304199219</ele>
        <time>2012-09-15T09:18:12Z</time>
      </trkpt>
      <trkpt lat="42.70538" lon="1.36871">
        <ele>2081.3916015625</ele>
        <time>2012-09-15T09:18:18Z</time>
      </trkpt>
      <trkpt lat="42.70535" lon="1.36871">
        <ele>2082.8334960938</ele>
        <time>2012-09-15T09:18:22Z</time>
      </trkpt>
      <trkpt lat="42.70533" lon="1.36871">
        <ele>2084.2756347656</ele>
        <time>2012-09-15T09:18:27Z</time>
      </trkpt>
      <trkpt lat="42.70532" lon="1.36872">
        <ele>2085.2368164062</ele>
        <time>2012-09-15T09:18:35Z</time>
      </trkpt>
      <trkpt lat="42.70532" lon="1.36872">
        <ele>2085.2368164062</ele>
        <time>2012-09-15T09:18:41Z</time>
      </trkpt>
      <trkpt lat="42.70532" lon="1.36872">
        <ele>2084.2756347656</ele>
        <time>2012-09-15T09:18:46Z</time>
      </trkpt>
      <trkpt lat="42.70527" lon="1.36871">
        <ele>2089.5627441406</ele>
        <time>2012-09-15T09:28:03Z</time>
      </trkpt>
      <trkpt lat="42.70527" lon="1.36871">
        <ele>2089.08203125</ele>
        <time>2012-09-15T09:28:04Z</time>
      </trkpt>
      <trkpt lat="42.70526" lon="1.36869">
        <ele>2090.5239257812</ele>
        <time>2012-09-15T09:28:09Z</time>
      </trkpt>
      <trkpt lat="42.70522" lon="1.3687">
        <ele>2090.5239257812</ele>
        <time>2012-09-15T09:28:16Z</time>
      </trkpt>
      <trkpt lat="42.70518" lon="1.3687">
        <ele>2091.9660644531</ele>
        <time>2012-09-15T09:28:24Z</time>
      </trkpt>
      <trkpt lat="42.70515" lon="1.36867">
        <ele>2093.408203125</ele>
        <time>2012-09-15T09:28:30Z</time>
      </trkpt>
      <trkpt lat="42.70512" lon="1.36868">
        <ele>2093.8889160156</ele>
        <time>2012-09-15T09:28:38Z</time>
      </trkpt>
      <trkpt lat="42.70509" lon="1.3687">
        <ele>2094.3693847656</ele>
        <time>2012-09-15T09:28:43Z</time>
      </trkpt>
      <trkpt lat="42.70507" lon="1.3687">
        <ele>2095.8115234375</ele>
        <time>2012-09-15T09:28:48Z</time>
      </trkpt>
      <trkpt lat="42.70506" lon="1.36875">
        <ele>2097.2534179688</ele>
        <time>2012-09-15T09:28:55Z</time>
      </trkpt>
      <trkpt lat="42.70504" lon="1.36877">
        <ele>2097.2534179688</ele>
        <time>2012-09-15T09:29:00Z</time>
      </trkpt>
      <trkpt lat="42.70504" lon="1.36873">
        <ele>2098.2145996094</ele>
        <time>2012-09-15T09:29:08Z</time>
      </trkpt>
      <trkpt lat="42.70501" lon="1.36873">
        <ele>2098.6953125</ele>
        <time>2012-09-15T09:29:13Z</time>
      </trkpt>
      <trkpt lat="42.70498" lon="1.3687">
        <ele>2100.1374511719</ele>
        <time>2012-09-15T09:29:18Z</time>
      </trkpt>
      <trkpt lat="42.70495" lon="1.36867">
        <ele>2100.6179199219</ele>
        <time>2012-09-15T09:29:23Z</time>
      </trkpt>
      <trkpt lat="42.70492" lon="1.36866">
        <ele>2101.0986328125</ele>
        <time>2012-09-15T09:29:27Z</time>
      </trkpt>
      <trkpt lat="42.70488" lon="1.36866">
        <ele>2101.5793457031</ele>
        <time>2012-09-15T09:29:32Z</time>
      </trkpt>
      <trkpt lat="42.70484" lon="1.36863">
        <ele>2102.0598144531</ele>
        <time>2012-09-15T09:29:37Z</time>
      </trkpt>
      <trkpt lat="42.70481" lon="1.3686">
        <ele>2103.501953125</ele>
        <time>2012-09-15T09:29:42Z</time>
      </trkpt>
      <trkpt lat="42.70476" lon="1.3686">
        <ele>2104.4631347656</ele>
        <time>2012-09-15T09:29:48Z</time>
      </trkpt>
      <trkpt lat="42.70469" lon="1.36861">
        <ele>2106.8664550781</ele>
        <time>2012-09-15T09:29:57Z</time>
      </trkpt>
      <trkpt lat="42.70467" lon="1.36862">
        <ele>2106.8664550781</ele>
        <time>2012-09-15T09:30:01Z</time>
      </trkpt>
      <trkpt lat="42.70464" lon="1.36863">
        <ele>2107.8278808594</ele>
        <time>2012-09-15T09:30:06Z</time>
      </trkpt>
      <trkpt lat="42.70461" lon="1.36865">
        <ele>2108.7893066406</ele>
        <time>2012-09-15T09:30:12Z</time>
      </trkpt>
      <trkpt lat="42.7046" lon="1.36867">
        <ele>2109.2700195312</ele>
        <time>2012-09-15T09:30:16Z</time>
      </trkpt>
      <trkpt lat="42.70457" lon="1.36869">
        <ele>2110.7119140625</ele>
        <time>2012-09-15T09:30:20Z</time>
      </trkpt>
      <trkpt lat="42.70456" lon="1.3687">
        <ele>2112.1538085938</ele>
        <time>2012-09-15T09:30:24Z</time>
      </trkpt>
      <trkpt lat="42.70452" lon="1.36873">
        <ele>2113.595703125</ele>
        <time>2012-09-15T09:30:30Z</time>
      </trkpt>
      <trkpt lat="42.70449" lon="1.36873">
        <ele>2114.0764160156</ele>
        <time>2012-09-15T09:30:35Z</time>
      </trkpt>
      <trkpt lat="42.70446" lon="1.36871">
        <ele>2114.5571289062</ele>
        <time>2012-09-15T09:30:40Z</time>
      </trkpt>
      <trkpt lat="42.70443" lon="1.3687">
        <ele>2114.5571289062</ele>
        <time>2012-09-15T09:30:45Z</time>
      </trkpt>
      <trkpt lat="42.70441" lon="1.36871">
        <ele>2114.5571289062</ele>
        <time>2012-09-15T09:30:48Z</time>
      </trkpt>
      <trkpt lat="42.70438" lon="1.36872">
        <ele>2115.5185546875</ele>
        <time>2012-09-15T09:30:53Z</time>
      </trkpt>
      <trkpt lat="42.70435" lon="1.3687">
        <ele>2115.0378417969</ele>
        <time>2012-09-15T09:30:58Z</time>
      </trkpt>
      <trkpt lat="42.70432" lon="1.36869">
        <ele>2115.9990234375</ele>
        <time>2012-09-15T09:31:04Z</time>
      </trkpt>
      <trkpt lat="42.70431" lon="1.3687">
        <ele>2115.9990234375</ele>
        <time>2012-09-15T09:31:10Z</time>
      </trkpt>
      <trkpt lat="42.70431" lon="1.3687">
        <ele>2115.9990234375</ele>
        <time>2012-09-15T09:31:19Z</time>
      </trkpt>
      <trkpt lat="42.70429" lon="1.36872">
        <ele>2116.4797363281</ele>
        <time>2012-09-15T09:31:27Z</time>
      </trkpt>
      <trkpt lat="42.70427" lon="1.36873">
        <ele>2117.4409179688</ele>
        <time>2012-09-15T09:31:32Z</time>
      </trkpt>
      <trkpt lat="42.70424" lon="1.36874">
        <ele>2118.40234375</ele>
        <time>2012-09-15T09:31:37Z</time>
      </trkpt>
      <trkpt lat="42.7042" lon="1.36877">
        <ele>2119.3637695312</ele>
        <time>2012-09-15T09:31:44Z</time>
      </trkpt>
      <trkpt lat="42.70417" lon="1.36878">
        <ele>2120.3249511719</ele>
        <time>2012-09-15T09:31:50Z</time>
      </trkpt>
      <trkpt lat="42.70414" lon="1.36878">
        <ele>2121.2861328125</ele>
        <time>2012-09-15T09:31:55Z</time>
      </trkpt>
      <trkpt lat="42.70412" lon="1.36878">
        <ele>2122.2475585938</ele>
        <time>2012-09-15T09:31:59Z</time>
      </trkpt>
      <trkpt lat="42.7041" lon="1.3688">
        <ele>2123.689453125</ele>
        <time>2012-09-15T09:32:04Z</time>
      </trkpt>
      <trkpt lat="42.70408" lon="1.36885">
        <ele>2125.1315917969</ele>
        <time>2012-09-15T09:32:11Z</time>
      </trkpt>
      <trkpt lat="42.70405" lon="1.36889">
        <ele>2128.015625</ele>
        <time>2012-09-15T09:32:18Z</time>
      </trkpt>
      <trkpt lat="42.70403" lon="1.36891">
        <ele>2129.4575195312</ele>
        <time>2012-09-15T09:32:23Z</time>
      </trkpt>
      <trkpt lat="42.70401" lon="1.36894">
        <ele>2130.8996582031</ele>
        <time>2012-09-15T09:32:28Z</time>
      </trkpt>
      <trkpt lat="42.70398" lon="1.36898">
        <ele>2131.8608398438</ele>
        <time>2012-09-15T09:32:34Z</time>
      </trkpt>
      <trkpt lat="42.70397" lon="1.36901">
        <ele>2132.3415527344</ele>
        <time>2012-09-15T09:32:38Z</time>
      </trkpt>
      <trkpt lat="42.70395" lon="1.36903">
        <ele>2133.7834472656</ele>
        <time>2012-09-15T09:32:43Z</time>
      </trkpt>
      <trkpt lat="42.70393" lon="1.36906">
        <ele>2134.7448730469</ele>
        <time>2012-09-15T09:32:48Z</time>
      </trkpt>
      <trkpt lat="42.7039" lon="1.36911">
        <ele>2135.7060546875</ele>
        <time>2012-09-15T09:32:53Z</time>
      </trkpt>
      <trkpt lat="42.70387" lon="1.36915">
        <ele>2137.6286621094</ele>
        <time>2012-09-15T09:33:01Z</time>
      </trkpt>
      <trkpt lat="42.70386" lon="1.36917">
        <ele>2138.109375</ele>
        <time>2012-09-15T09:33:05Z</time>
      </trkpt>
      <trkpt lat="42.70387" lon="1.36922">
        <ele>2138.5900878906</ele>
        <time>2012-09-15T09:33:11Z</time>
      </trkpt>
      <trkpt lat="42.70387" lon="1.36926">
        <ele>2140.0322265625</ele>
        <time>2012-09-15T09:33:16Z</time>
      </trkpt>
      <trkpt lat="42.70389" lon="1.36931">
        <ele>2140.9934082031</ele>
        <time>2012-09-15T09:33:23Z</time>
      </trkpt>
      <trkpt lat="42.70391" lon="1.36934">
        <ele>2142.435546875</ele>
        <time>2012-09-15T09:33:28Z</time>
      </trkpt>
      <trkpt lat="42.70393" lon="1.36941">
        <ele>2143.3967285156</ele>
        <time>2012-09-15T09:33:36Z</time>
      </trkpt>
      <trkpt lat="42.70394" lon="1.36945">
        <ele>2144.3579101562</ele>
        <time>2012-09-15T09:33:42Z</time>
      </trkpt>
      <trkpt lat="42.70392" lon="1.36948">
        <ele>2145.8000488281</ele>
        <time>2012-09-15T09:33:46Z</time>
      </trkpt>
      <trkpt lat="42.7039" lon="1.36948">
        <ele>2146.2807617188</ele>
        <time>2012-09-15T09:33:51Z</time>
      </trkpt>
      <trkpt lat="42.70389" lon="1.36947">
        <ele>2147.2419433594</ele>
        <time>2012-09-15T09:33:56Z</time>
      </trkpt>
      <trkpt lat="42.70387" lon="1.36947">
        <ele>2149.1645507812</ele>
        <time>2012-09-15T09:34:02Z</time>
      </trkpt>
      <trkpt lat="42.70386" lon="1.36948">
        <ele>2150.6064453125</ele>
        <time>2012-09-15T09:34:07Z</time>
      </trkpt>
      <trkpt lat="42.70385" lon="1.36951">
        <ele>2152.0483398438</ele>
        <time>2012-09-15T09:34:12Z</time>
      </trkpt>
      <trkpt lat="42.70385" lon="1.36954">
        <ele>2153.4904785156</ele>
        <time>2012-09-15T09:34:18Z</time>
      </trkpt>
      <trkpt lat="42.70383" lon="1.36955">
        <ele>2155.8935546875</ele>
        <time>2012-09-15T09:34:24Z</time>
      </trkpt>
      <trkpt lat="42.7038" lon="1.36958">
        <ele>2157.8166503906</ele>
        <time>2012-09-15T09:34:30Z</time>
      </trkpt>
      <trkpt lat="42.7038" lon="1.36959">
        <ele>2158.2971191406</ele>
        <time>2012-09-15T09:34:35Z</time>
      </trkpt>
      <trkpt lat="42.70378" lon="1.36962">
        <ele>2159.2585449219</ele>
        <time>2012-09-15T09:34:41Z</time>
      </trkpt>
      <trkpt lat="42.70381" lon="1.36963">
        <ele>2160.2197265625</ele>
        <time>2012-09-15T09:34:47Z</time>
      </trkpt>
      <trkpt lat="42.70381" lon="1.36965">
        <ele>2161.1811523438</ele>
        <time>2012-09-15T09:34:52Z</time>
      </trkpt>
      <trkpt lat="42.7038" lon="1.36967">
        <ele>2162.1423339844</ele>
        <time>2012-09-15T09:34:57Z</time>
      </trkpt>
      <trkpt lat="42.70379" lon="1.36971">
        <ele>2163.1037597656</ele>
        <time>2012-09-15T09:35:03Z</time>
      </trkpt>
      <trkpt lat="42.70378" lon="1.36973">
        <ele>2165.0263671875</ele>
        <time>2012-09-15T09:35:07Z</time>
      </trkpt>
      <trkpt lat="42.70378" lon="1.36975">
        <ele>2165.5070800781</ele>
        <time>2012-09-15T09:35:15Z</time>
      </trkpt>
      <trkpt lat="42.70379" lon="1.36978">
        <ele>2166.4682617188</ele>
        <time>2012-09-15T09:35:21Z</time>
      </trkpt>
      <trkpt lat="42.7038" lon="1.36981">
        <ele>2167.4294433594</ele>
        <time>2012-09-15T09:35:27Z</time>
      </trkpt>
      <trkpt lat="42.70382" lon="1.36985">
        <ele>2168.3908691406</ele>
        <time>2012-09-15T09:35:33Z</time>
      </trkpt>
      <trkpt lat="42.70383" lon="1.3699">
        <ele>2170.3134765625</ele>
        <time>2012-09-15T09:35:39Z</time>
      </trkpt>
      <trkpt lat="42.70383" lon="1.36992">
        <ele>2171.2746582031</ele>
        <time>2012-09-15T09:35:44Z</time>
      </trkpt>
      <trkpt lat="42.70383" lon="1.36997">
        <ele>2172.236328125</ele>
        <time>2012-09-15T09:35:50Z</time>
      </trkpt>
      <trkpt lat="42.70382" lon="1.36999">
        <ele>2173.1977539062</ele>
        <time>2012-09-15T09:35:56Z</time>
      </trkpt>
      <trkpt lat="42.7038" lon="1.37">
        <ele>2174.6396484375</ele>
        <time>2012-09-15T09:36:01Z</time>
      </trkpt>
      <trkpt lat="42.7038" lon="1.37002">
        <ele>2175.6008300781</ele>
        <time>2012-09-15T09:36:06Z</time>
      </trkpt>
      <trkpt lat="42.70377" lon="1.37002">
        <ele>2176.5622558594</ele>
        <time>2012-09-15T09:36:10Z</time>
      </trkpt>
      <trkpt lat="42.70376" lon="1.37002">
        <ele>2178.0041503906</ele>
        <time>2012-09-15T09:36:15Z</time>
      </trkpt>
      <trkpt lat="42.70376" lon="1.37006">
        <ele>2178.9653320312</ele>
        <time>2012-09-15T09:36:21Z</time>
      </trkpt>
      <trkpt lat="42.70374" lon="1.37007">
        <ele>2180.4074707031</ele>
        <time>2012-09-15T09:36:26Z</time>
      </trkpt>
      <trkpt lat="42.70375" lon="1.37009">
        <ele>2181.8493652344</ele>
        <time>2012-09-15T09:36:32Z</time>
      </trkpt>
      <trkpt lat="42.70375" lon="1.37011">
        <ele>2182.330078125</ele>
        <time>2012-09-15T09:36:38Z</time>
      </trkpt>
      <trkpt lat="42.70374" lon="1.37015">
        <ele>2183.7719726562</ele>
        <time>2012-09-15T09:36:44Z</time>
      </trkpt>
      <trkpt lat="42.70372" lon="1.37015">
        <ele>2185.2138671875</ele>
        <time>2012-09-15T09:36:51Z</time>
      </trkpt>
      <trkpt lat="42.70372" lon="1.37018">
        <ele>2185.6945800781</ele>
        <time>2012-09-15T09:36:57Z</time>
      </trkpt>
      <trkpt lat="42.7037" lon="1.37019">
        <ele>2186.1752929688</ele>
        <time>2012-09-15T09:37:03Z</time>
      </trkpt>
      <trkpt lat="42.7037" lon="1.37022">
        <ele>2187.6171875</ele>
        <time>2012-09-15T09:37:08Z</time>
      </trkpt>
      <trkpt lat="42.70368" lon="1.37022">
        <ele>2189.5400390625</ele>
        <time>2012-09-15T09:37:13Z</time>
      </trkpt>
      <trkpt lat="42.70366" lon="1.37022">
        <ele>2190.9819335938</ele>
        <time>2012-09-15T09:37:20Z</time>
      </trkpt>
      <trkpt lat="42.70361" lon="1.3702">
        <ele>2192.4240722656</ele>
        <time>2012-09-15T09:37:28Z</time>
      </trkpt>
      <trkpt lat="42.70359" lon="1.37021">
        <ele>2193.3852539062</ele>
        <time>2012-09-15T09:37:33Z</time>
      </trkpt>
      <trkpt lat="42.70358" lon="1.37024">
        <ele>2193.8659667969</ele>
        <time>2012-09-15T09:37:37Z</time>
      </trkpt>
      <trkpt lat="42.70358" lon="1.37027">
        <ele>2194.8271484375</ele>
        <time>2012-09-15T09:37:41Z</time>
      </trkpt>
      <trkpt lat="42.70359" lon="1.3703">
        <ele>2196.7497558594</ele>
        <time>2012-09-15T09:37:47Z</time>
      </trkpt>
      <trkpt lat="42.70359" lon="1.37034">
        <ele>2197.23046875</ele>
        <time>2012-09-15T09:37:54Z</time>
      </trkpt>
      <trkpt lat="42.70359" lon="1.37037">
        <ele>2198.6723632812</ele>
        <time>2012-09-15T09:37:59Z</time>
      </trkpt>
      <trkpt lat="42.70359" lon="1.37039">
        <ele>2199.6337890625</ele>
        <time>2012-09-15T09:38:04Z</time>
      </trkpt>
      <trkpt lat="42.70359" lon="1.37042">
        <ele>2200.5949707031</ele>
        <time>2012-09-15T09:38:09Z</time>
      </trkpt>
      <trkpt lat="42.70359" lon="1.37047">
        <ele>2202.0368652344</ele>
        <time>2012-09-15T09:38:15Z</time>
      </trkpt>
      <trkpt lat="42.70358" lon="1.37053">
        <ele>2203.4790039062</ele>
        <time>2012-09-15T09:38:21Z</time>
      </trkpt>
      <trkpt lat="42.70358" lon="1.37057">
        <ele>2205.4018554688</ele>
        <time>2012-09-15T09:38:27Z</time>
      </trkpt>
      <trkpt lat="42.70357" lon="1.3706">
        <ele>2205.8823242188</ele>
        <time>2012-09-15T09:38:33Z</time>
      </trkpt>
      <trkpt lat="42.70354" lon="1.3706">
        <ele>2207.8051757812</ele>
        <time>2012-09-15T09:38:39Z</time>
      </trkpt>
      <trkpt lat="42.70352" lon="1.37062">
        <ele>2208.2856445312</ele>
        <time>2012-09-15T09:38:45Z</time>
      </trkpt>
      <trkpt lat="42.7035" lon="1.37064">
        <ele>2209.2470703125</ele>
        <time>2012-09-15T09:38:50Z</time>
      </trkpt>
      <trkpt lat="42.70348" lon="1.37067">
        <ele>2210.2082519531</ele>
        <time>2012-09-15T09:38:56Z</time>
      </trkpt>
      <trkpt lat="42.70346" lon="1.3707">
        <ele>2211.1696777344</ele>
        <time>2012-09-15T09:39:02Z</time>
      </trkpt>
      <trkpt lat="42.70344" lon="1.37072">
        <ele>2212.130859375</ele>
        <time>2012-09-15T09:39:07Z</time>
      </trkpt>
      <trkpt lat="42.70342" lon="1.37073">
        <ele>2213.5727539062</ele>
        <time>2012-09-15T09:39:12Z</time>
      </trkpt>
      <trkpt lat="42.70341" lon="1.37077">
        <ele>2214.5341796875</ele>
        <time>2012-09-15T09:39:18Z</time>
      </trkpt>
      <trkpt lat="42.70338" lon="1.37079">
        <ele>2215.0148925781</ele>
        <time>2012-09-15T09:39:23Z</time>
      </trkpt>
      <trkpt lat="42.70336" lon="1.37081">
        <ele>2215.0148925781</ele>
        <time>2012-09-15T09:39:27Z</time>
      </trkpt>
      <trkpt lat="42.70335" lon="1.37086">
        <ele>2215.9760742188</ele>
        <time>2012-09-15T09:39:34Z</time>
      </trkpt>
      <trkpt lat="42.70333" lon="1.3709">
        <ele>2216.9375</ele>
        <time>2012-09-15T09:39:40Z</time>
      </trkpt>
      <trkpt lat="42.70333" lon="1.37094">
        <ele>2217.8986816406</ele>
        <time>2012-09-15T09:39:44Z</time>
      </trkpt>
      <trkpt lat="42.70332" lon="1.37099">
        <ele>2219.3408203125</ele>
        <time>2012-09-15T09:39:50Z</time>
      </trkpt>
      <trkpt lat="42.70332" lon="1.37103">
        <ele>2220.3022460938</ele>
        <time>2012-09-15T09:39:55Z</time>
      </trkpt>
      <trkpt lat="42.70331" lon="1.37107">
        <ele>2221.744140625</ele>
        <time>2012-09-15T09:40:01Z</time>
      </trkpt>
      <trkpt lat="42.70329" lon="1.3711">
        <ele>2222.7055664062</ele>
        <time>2012-09-15T09:40:07Z</time>
      </trkpt>
      <trkpt lat="42.70327" lon="1.37116">
        <ele>2226.0700683594</ele>
        <time>2012-09-15T09:40:15Z</time>
      </trkpt>
      <trkpt lat="42.70327" lon="1.37118">
        <ele>2226.0700683594</ele>
        <time>2012-09-15T09:40:19Z</time>
      </trkpt>
      <trkpt lat="42.70327" lon="1.37123">
        <ele>2227.0314941406</ele>
        <time>2012-09-15T09:40:25Z</time>
      </trkpt>
      <trkpt lat="42.70325" lon="1.37125">
        <ele>2227.9926757812</ele>
        <time>2012-09-15T09:40:30Z</time>
      </trkpt>
      <trkpt lat="42.70324" lon="1.37125">
        <ele>2228.9538574219</ele>
        <time>2012-09-15T09:40:35Z</time>
      </trkpt>
      <trkpt lat="42.70323" lon="1.37125">
        <ele>2230.3959960938</ele>
        <time>2012-09-15T09:40:40Z</time>
      </trkpt>
      <trkpt lat="42.70322" lon="1.37124">
        <ele>2236.1640625</ele>
        <time>2012-09-15T09:40:59Z</time>
      </trkpt>
      <trkpt lat="42.70321" lon="1.37126">
        <ele>2238.0866699219</ele>
        <time>2012-09-15T09:41:03Z</time>
      </trkpt>
      <trkpt lat="42.70319" lon="1.37131">
        <ele>2238.0866699219</ele>
        <time>2012-09-15T09:41:09Z</time>
      </trkpt>
      <trkpt lat="42.70317" lon="1.37134">
        <ele>2238.5673828125</ele>
        <time>2012-09-15T09:41:15Z</time>
      </trkpt>
      <trkpt lat="42.70317" lon="1.37136">
        <ele>2239.0478515625</ele>
        <time>2012-09-15T09:41:21Z</time>
      </trkpt>
      <trkpt lat="42.70316" lon="1.3714">
        <ele>2240.0092773438</ele>
        <time>2012-09-15T09:41:27Z</time>
      </trkpt>
      <trkpt lat="42.70314" lon="1.37143">
        <ele>2241.451171875</ele>
        <time>2012-09-15T09:41:33Z</time>
      </trkpt>
      <trkpt lat="42.70313" lon="1.37145">
        <ele>2241.9318847656</ele>
        <time>2012-09-15T09:41:38Z</time>
      </trkpt>
      <trkpt lat="42.70312" lon="1.37146">
        <ele>2242.8930664062</ele>
        <time>2012-09-15T09:41:43Z</time>
      </trkpt>
      <trkpt lat="42.7031" lon="1.37147">
        <ele>2243.3737792969</ele>
        <time>2012-09-15T09:41:48Z</time>
      </trkpt>
      <trkpt lat="42.7031" lon="1.37149">
        <ele>2244.8156738281</ele>
        <time>2012-09-15T09:41:55Z</time>
      </trkpt>
      <trkpt lat="42.70309" lon="1.37153">
        <ele>2245.7770996094</ele>
        <time>2012-09-15T09:42:00Z</time>
      </trkpt>
      <trkpt lat="42.70309" lon="1.37156">
        <ele>2247.2189941406</ele>
        <time>2012-09-15T09:42:06Z</time>
      </trkpt>
      <trkpt lat="42.70309" lon="1.3716">
        <ele>2248.6608886719</ele>
        <time>2012-09-15T09:42:12Z</time>
      </trkpt>
      <trkpt lat="42.7031" lon="1.37163">
        <ele>2250.5834960938</ele>
        <time>2012-09-15T09:42:17Z</time>
      </trkpt>
      <trkpt lat="42.70309" lon="1.37162">
        <ele>2250.1030273438</ele>
        <time>2012-09-15T09:42:22Z</time>
      </trkpt>
      <trkpt lat="42.70306" lon="1.37162">
        <ele>2250.5834960938</ele>
        <time>2012-09-15T09:42:28Z</time>
      </trkpt>
      <trkpt lat="42.70303" lon="1.3716">
        <ele>2251.544921875</ele>
        <time>2012-09-15T09:42:33Z</time>
      </trkpt>
      <trkpt lat="42.70302" lon="1.37162">
        <ele>2253.4677734375</ele>
        <time>2012-09-15T09:42:39Z</time>
      </trkpt>
      <trkpt lat="42.703" lon="1.37164">
        <ele>2254.9096679688</ele>
        <time>2012-09-15T09:42:44Z</time>
      </trkpt>
      <trkpt lat="42.70297" lon="1.37161">
        <ele>2255.3903808594</ele>
        <time>2012-09-15T09:42:51Z</time>
      </trkpt>
      <trkpt lat="42.70295" lon="1.3716">
        <ele>2256.8322753906</ele>
        <time>2012-09-15T09:42:57Z</time>
      </trkpt>
      <trkpt lat="42.70295" lon="1.37163">
        <ele>2257.7937011719</ele>
        <time>2012-09-15T09:43:02Z</time>
      </trkpt>
      <trkpt lat="42.70296" lon="1.37166">
        <ele>2258.7548828125</ele>
        <time>2012-09-15T09:43:06Z</time>
      </trkpt>
      <trkpt lat="42.70295" lon="1.37165">
        <ele>2259.2355957031</ele>
        <time>2012-09-15T09:43:12Z</time>
      </trkpt>
      <trkpt lat="42.70292" lon="1.37164">
        <ele>2259.2355957031</ele>
        <time>2012-09-15T09:43:18Z</time>
      </trkpt>
      <trkpt lat="42.7029" lon="1.37163">
        <ele>2261.158203125</ele>
        <time>2012-09-15T09:43:24Z</time>
      </trkpt>
      <trkpt lat="42.70291" lon="1.37167">
        <ele>2263.0808105469</ele>
        <time>2012-09-15T09:43:31Z</time>
      </trkpt>
      <trkpt lat="42.7029" lon="1.37171">
        <ele>2264.5227050781</ele>
        <time>2012-09-15T09:43:37Z</time>
      </trkpt>
      <trkpt lat="42.7029" lon="1.37175">
        <ele>2265.9645996094</ele>
        <time>2012-09-15T09:43:43Z</time>
      </trkpt>
      <trkpt lat="42.70289" lon="1.37179">
        <ele>2266.9260253906</ele>
        <time>2012-09-15T09:43:49Z</time>
      </trkpt>
      <trkpt lat="42.70289" lon="1.37183">
        <ele>2268.8488769531</ele>
        <time>2012-09-15T09:43:55Z</time>
      </trkpt>
      <trkpt lat="42.70288" lon="1.37185">
        <ele>2269.8100585938</ele>
        <time>2012-09-15T09:44:00Z</time>
      </trkpt>
      <trkpt lat="42.70285" lon="1.37185">
        <ele>2271.251953125</ele>
        <time>2012-09-15T09:44:07Z</time>
      </trkpt>
      <trkpt lat="42.70284" lon="1.37185">
        <ele>2271.251953125</ele>
        <time>2012-09-15T09:44:14Z</time>
      </trkpt>
      <trkpt lat="42.70281" lon="1.37186">
        <ele>2272.2133789062</ele>
        <time>2012-09-15T09:44:19Z</time>
      </trkpt>
      <trkpt lat="42.70279" lon="1.3718">
        <ele>2274.6166992188</ele>
        <time>2012-09-15T09:44:27Z</time>
      </trkpt>
      <trkpt lat="42.70275" lon="1.3718">
        <ele>2275.5778808594</ele>
        <time>2012-09-15T09:44:33Z</time>
      </trkpt>
      <trkpt lat="42.70272" lon="1.37176">
        <ele>2276.5393066406</ele>
        <time>2012-09-15T09:44:39Z</time>
      </trkpt>
      <trkpt lat="42.70271" lon="1.37175">
        <ele>2277.5004882812</ele>
        <time>2012-09-15T09:44:44Z</time>
      </trkpt>
      <trkpt lat="42.70269" lon="1.37177">
        <ele>2279.4230957031</ele>
        <time>2012-09-15T09:44:50Z</time>
      </trkpt>
      <trkpt lat="42.70267" lon="1.37177">
        <ele>2280.865234375</ele>
        <time>2012-09-15T09:44:57Z</time>
      </trkpt>
      <trkpt lat="42.70266" lon="1.37176">
        <ele>2282.3071289062</ele>
        <time>2012-09-15T09:45:03Z</time>
      </trkpt>
      <trkpt lat="42.70263" lon="1.37175">
        <ele>2282.7875976562</ele>
        <time>2012-09-15T09:45:08Z</time>
      </trkpt>
      <trkpt lat="42.70259" lon="1.37174">
        <ele>2283.2683105469</ele>
        <time>2012-09-15T09:45:15Z</time>
      </trkpt>
      <trkpt lat="42.70257" lon="1.37176">
        <ele>2284.7106933594</ele>
        <time>2012-09-15T09:45:23Z</time>
      </trkpt>
      <trkpt lat="42.70258" lon="1.37181">
        <ele>2286.6330566406</ele>
        <time>2012-09-15T09:45:31Z</time>
      </trkpt>
      <trkpt lat="42.70258" lon="1.37185">
        <ele>2289.0363769531</ele>
        <time>2012-09-15T09:45:38Z</time>
      </trkpt>
      <trkpt lat="42.70256" lon="1.3719">
        <ele>2289.5170898438</ele>
        <time>2012-09-15T09:45:45Z</time>
      </trkpt>
      <trkpt lat="42.70253" lon="1.37188">
        <ele>2290.4782714844</ele>
        <time>2012-09-15T09:45:52Z</time>
      </trkpt>
      <trkpt lat="42.7025" lon="1.37189">
        <ele>2291.9204101562</ele>
        <time>2012-09-15T09:45:59Z</time>
      </trkpt>
      <trkpt lat="42.7025" lon="1.37192">
        <ele>2292.8815917969</ele>
        <time>2012-09-15T09:46:04Z</time>
      </trkpt>
      <trkpt lat="42.7025" lon="1.37195">
        <ele>2294.3234863281</ele>
        <time>2012-09-15T09:46:10Z</time>
      </trkpt>
      <trkpt lat="42.70249" lon="1.37197">
        <ele>2295.2849121094</ele>
        <time>2012-09-15T09:46:16Z</time>
      </trkpt>
      <trkpt lat="42.70248" lon="1.37199">
        <ele>2296.7268066406</ele>
        <time>2012-09-15T09:46:21Z</time>
      </trkpt>
      <trkpt lat="42.70246" lon="1.37202">
        <ele>2297.6882324219</ele>
        <time>2012-09-15T09:46:26Z</time>
      </trkpt>
      <trkpt lat="42.70244" lon="1.37206">
        <ele>2298.6494140625</ele>
        <time>2012-09-15T09:46:33Z</time>
      </trkpt>
      <trkpt lat="42.70242" lon="1.37207">
        <ele>2300.572265625</ele>
        <time>2012-09-15T09:46:40Z</time>
      </trkpt>
      <trkpt lat="42.7024" lon="1.37208">
        <ele>2302.4948730469</ele>
        <time>2012-09-15T09:46:46Z</time>
      </trkpt>
      <trkpt lat="42.70237" lon="1.37208">
        <ele>2302.9755859375</ele>
        <time>2012-09-15T09:46:52Z</time>
      </trkpt>
      <trkpt lat="42.70234" lon="1.37208">
        <ele>2303.9370117188</ele>
        <time>2012-09-15T09:46:57Z</time>
      </trkpt>
      <trkpt lat="42.70231" lon="1.37207">
        <ele>2305.37890625</ele>
        <time>2012-09-15T09:47:02Z</time>
      </trkpt>
      <trkpt lat="42.70229" lon="1.37208">
        <ele>2306.3400878906</ele>
        <time>2012-09-15T09:47:08Z</time>
      </trkpt>
      <trkpt lat="42.70226" lon="1.37207">
        <ele>2306.8208007812</ele>
        <time>2012-09-15T09:47:14Z</time>
      </trkpt>
      <trkpt lat="42.70223" lon="1.37206">
        <ele>2307.3015136719</ele>
        <time>2012-09-15T09:47:21Z</time>
      </trkpt>
      <trkpt lat="42.70222" lon="1.37207">
        <ele>2307.7822265625</ele>
        <time>2012-09-15T09:47:23Z</time>
      </trkpt>
      <trkpt lat="42.70227" lon="1.37189">
        <ele>2329.8923339844</ele>
        <time>2012-09-15T09:51:12Z</time>
      </trkpt>
      <trkpt lat="42.70226" lon="1.37189">
        <ele>2329.8923339844</ele>
        <time>2012-09-15T09:51:13Z</time>
      </trkpt>
      <trkpt lat="42.70222" lon="1.37194">
        <ele>2330.373046875</ele>
        <time>2012-09-15T09:51:19Z</time>
      </trkpt>
      <trkpt lat="42.70218" lon="1.372">
        <ele>2330.373046875</ele>
        <time>2012-09-15T09:51:23Z</time>
      </trkpt>
      <trkpt lat="42.70216" lon="1.37202">
        <ele>2330.373046875</ele>
        <time>2012-09-15T09:51:25Z</time>
      </trkpt>
      <trkpt lat="42.70211" lon="1.37211">
        <ele>2325.56640625</ele>
        <time>2012-09-15T09:51:41Z</time>
      </trkpt>
      <trkpt lat="42.7021" lon="1.37215">
        <ele>2322.2019042969</ele>
        <time>2012-09-15T09:51:54Z</time>
      </trkpt>
      <trkpt lat="42.70208" lon="1.3722">
        <ele>2322.2019042969</ele>
        <time>2012-09-15T09:52:00Z</time>
      </trkpt>
      <trkpt lat="42.70207" lon="1.37226">
        <ele>2322.2019042969</ele>
        <time>2012-09-15T09:52:06Z</time>
      </trkpt>
      <trkpt lat="42.70208" lon="1.3723">
        <ele>2322.6826171875</ele>
        <time>2012-09-15T09:52:13Z</time>
      </trkpt>
      <trkpt lat="42.7021" lon="1.37235">
        <ele>2323.1633300781</ele>
        <time>2012-09-15T09:52:16Z</time>
      </trkpt>
      <trkpt lat="42.70209" lon="1.37244">
        <ele>2323.1633300781</ele>
        <time>2012-09-15T09:52:23Z</time>
      </trkpt>
      <trkpt lat="42.70209" lon="1.37245">
        <ele>2322.6826171875</ele>
        <time>2012-09-15T09:52:24Z</time>
      </trkpt>
      <trkpt lat="42.70208" lon="1.37253">
        <ele>2320.7600097656</ele>
        <time>2012-09-15T09:52:31Z</time>
      </trkpt>
      <trkpt lat="42.70209" lon="1.37256">
        <ele>2320.279296875</ele>
        <time>2012-09-15T09:52:36Z</time>
      </trkpt>
      <trkpt lat="42.70209" lon="1.37261">
        <ele>2318.8374023438</ele>
        <time>2012-09-15T09:52:41Z</time>
      </trkpt>
      <trkpt lat="42.70211" lon="1.37268">
        <ele>2318.3566894531</ele>
        <time>2012-09-15T09:52:45Z</time>
      </trkpt>
      <trkpt lat="42.70214" lon="1.37273">
        <ele>2317.8759765625</ele>
        <time>2012-09-15T09:52:48Z</time>
      </trkpt>
      <trkpt lat="42.70217" lon="1.3728">
        <ele>2315.953125</ele>
        <time>2012-09-15T09:52:54Z</time>
      </trkpt>
      <trkpt lat="42.70218" lon="1.37284">
        <ele>2315.953125</ele>
        <time>2012-09-15T09:52:57Z</time>
      </trkpt>
      <trkpt lat="42.70221" lon="1.37288">
        <ele>2315.47265625</ele>
        <time>2012-09-15T09:53:00Z</time>
      </trkpt>
      <trkpt lat="42.70222" lon="1.37289">
        <ele>2314.9919433594</ele>
        <time>2012-09-15T09:53:01Z</time>
      </trkpt>
      <trkpt lat="42.70222" lon="1.3729">
        <ele>2314.5112304688</ele>
        <time>2012-09-15T09:53:04Z</time>
      </trkpt>
      <trkpt lat="42.70223" lon="1.37294">
        <ele>2312.5886230469</ele>
        <time>2012-09-15T09:53:07Z</time>
      </trkpt>
      <trkpt lat="42.70224" lon="1.37295">
        <ele>2312.1079101562</ele>
        <time>2012-09-15T09:53:08Z</time>
      </trkpt>
      <trkpt lat="42.70219" lon="1.373">
        <ele>2309.2241210938</ele>
        <time>2012-09-15T09:53:13Z</time>
      </trkpt>
      <trkpt lat="42.70217" lon="1.37302">
        <ele>2308.2626953125</ele>
        <time>2012-09-15T09:53:16Z</time>
      </trkpt>
      <trkpt lat="42.70218" lon="1.37301">
        <ele>2308.7434082031</ele>
        <time>2012-09-15T09:53:21Z</time>
      </trkpt>
      <trkpt lat="42.70212" lon="1.37303">
        <ele>2305.37890625</ele>
        <time>2012-09-15T09:55:43Z</time>
      </trkpt>
      <trkpt lat="42.70213" lon="1.37303">
        <ele>2305.37890625</ele>
        <time>2012-09-15T09:55:44Z</time>
      </trkpt>
      <trkpt lat="42.70212" lon="1.37303">
        <ele>2304.8981933594</ele>
        <time>2012-09-15T09:55:48Z</time>
      </trkpt>
      <trkpt lat="42.70207" lon="1.37301">
        <ele>2303.4562988281</ele>
        <time>2012-09-15T09:55:55Z</time>
      </trkpt>
      <trkpt lat="42.70203" lon="1.37297">
        <ele>2301.5336914062</ele>
        <time>2012-09-15T09:56:01Z</time>
      </trkpt>
      <trkpt lat="42.70198" lon="1.37294">
        <ele>2301.0529785156</ele>
        <time>2012-09-15T09:56:06Z</time>
      </trkpt>
      <trkpt lat="42.70192" lon="1.37291">
        <ele>2300.091796875</ele>
        <time>2012-09-15T09:56:11Z</time>
      </trkpt>
      <trkpt lat="42.70186" lon="1.37287">
        <ele>2298.1687011719</ele>
        <time>2012-09-15T09:56:19Z</time>
      </trkpt>
      <trkpt lat="42.70181" lon="1.3728">
        <ele>2295.765625</ele>
        <time>2012-09-15T09:56:24Z</time>
      </trkpt>
      <trkpt lat="42.7018" lon="1.37279">
        <ele>2295.765625</ele>
        <time>2012-09-15T09:56:25Z</time>
      </trkpt>
      <trkpt lat="42.70176" lon="1.37279">
        <ele>2295.2849121094</ele>
        <time>2012-09-15T09:56:28Z</time>
      </trkpt>
      <trkpt lat="42.70172" lon="1.37276">
        <ele>2295.2849121094</ele>
        <time>2012-09-15T09:56:32Z</time>
      </trkpt>
      <trkpt lat="42.70166" lon="1.37275">
        <ele>2294.8041992188</ele>
        <time>2012-09-15T09:56:39Z</time>
      </trkpt>
      <trkpt lat="42.70163" lon="1.37271">
        <ele>2293.3623046875</ele>
        <time>2012-09-15T09:56:44Z</time>
      </trkpt>
      <trkpt lat="42.7016" lon="1.37268">
        <ele>2291.4396972656</ele>
        <time>2012-09-15T09:56:49Z</time>
      </trkpt>
      <trkpt lat="42.70157" lon="1.37264">
        <ele>2289.9978027344</ele>
        <time>2012-09-15T09:56:56Z</time>
      </trkpt>
      <trkpt lat="42.70149" lon="1.37262">
        <ele>2288.5559082031</ele>
        <time>2012-09-15T09:57:02Z</time>
      </trkpt>
      <trkpt lat="42.70145" lon="1.37262">
        <ele>2288.5559082031</ele>
        <time>2012-09-15T09:57:06Z</time>
      </trkpt>
      <trkpt lat="42.70144" lon="1.37259">
        <ele>2289.0363769531</ele>
        <time>2012-09-15T09:57:10Z</time>
      </trkpt>
      <trkpt lat="42.70139" lon="1.37259">
        <ele>2289.5170898438</ele>
        <time>2012-09-15T09:57:16Z</time>
      </trkpt>
      <trkpt lat="42.70135" lon="1.37256">
        <ele>2292.4011230469</ele>
        <time>2012-09-15T09:57:21Z</time>
      </trkpt>
      <trkpt lat="42.70131" lon="1.3726">
        <ele>2294.3234863281</ele>
        <time>2012-09-15T09:57:28Z</time>
      </trkpt>
      <trkpt lat="42.70127" lon="1.3726">
        <ele>2296.7268066406</ele>
        <time>2012-09-15T09:57:32Z</time>
      </trkpt>
      <trkpt lat="42.70119" lon="1.37262">
        <ele>2297.6882324219</ele>
        <time>2012-09-15T09:57:43Z</time>
      </trkpt>
      <trkpt lat="42.70116" lon="1.37264">
        <ele>2298.1687011719</ele>
        <time>2012-09-15T09:57:47Z</time>
      </trkpt>
      <trkpt lat="42.7011" lon="1.37268">
        <ele>2296.7268066406</ele>
        <time>2012-09-15T09:57:52Z</time>
      </trkpt>
      <trkpt lat="42.70107" lon="1.3727">
        <ele>2296.7268066406</ele>
        <time>2012-09-15T09:57:57Z</time>
      </trkpt>
      <trkpt lat="42.70102" lon="1.37269">
        <ele>2295.765625</ele>
        <time>2012-09-15T09:58:04Z</time>
      </trkpt>
      <trkpt lat="42.70098" lon="1.3727">
        <ele>2294.8041992188</ele>
        <time>2012-09-15T09:58:08Z</time>
      </trkpt>
      <trkpt lat="42.70095" lon="1.37271">
        <ele>2294.8041992188</ele>
        <time>2012-09-15T09:58:12Z</time>
      </trkpt>
      <trkpt lat="42.70088" lon="1.37276">
        <ele>2293.8430175781</ele>
        <time>2012-09-15T09:58:19Z</time>
      </trkpt>
      <trkpt lat="42.70082" lon="1.3728">
        <ele>2292.4011230469</ele>
        <time>2012-09-15T09:58:25Z</time>
      </trkpt>
      <trkpt lat="42.70081" lon="1.3728">
        <ele>2291.9204101562</ele>
        <time>2012-09-15T09:58:26Z</time>
      </trkpt>
      <trkpt lat="42.70074" lon="1.37276">
        <ele>2291.9204101562</ele>
        <time>2012-09-15T09:58:34Z</time>
      </trkpt>
      <trkpt lat="42.70073" lon="1.37275">
        <ele>2291.9204101562</ele>
        <time>2012-09-15T09:58:35Z</time>
      </trkpt>
      <trkpt lat="42.70066" lon="1.37276">
        <ele>2292.4011230469</ele>
        <time>2012-09-15T09:58:42Z</time>
      </trkpt>
      <trkpt lat="42.7006" lon="1.37277">
        <ele>2292.8815917969</ele>
        <time>2012-09-15T09:58:49Z</time>
      </trkpt>
      <trkpt lat="42.70057" lon="1.37278">
        <ele>2293.3623046875</ele>
        <time>2012-09-15T09:58:54Z</time>
      </trkpt>
      <trkpt lat="42.70054" lon="1.3728">
        <ele>2293.8430175781</ele>
        <time>2012-09-15T09:58:59Z</time>
      </trkpt>
      <trkpt lat="42.7005" lon="1.37282">
        <ele>2294.3234863281</ele>
        <time>2012-09-15T09:59:04Z</time>
      </trkpt>
      <trkpt lat="42.70047" lon="1.37284">
        <ele>2294.8041992188</ele>
        <time>2012-09-15T09:59:08Z</time>
      </trkpt>
      <trkpt lat="42.70045" lon="1.37286">
        <ele>2295.2849121094</ele>
        <time>2012-09-15T09:59:13Z</time>
      </trkpt>
      <trkpt lat="42.70043" lon="1.37291">
        <ele>2296.2463378906</ele>
        <time>2012-09-15T09:59:19Z</time>
      </trkpt>
      <trkpt lat="42.70039" lon="1.37295">
        <ele>2296.7268066406</ele>
        <time>2012-09-15T09:59:25Z</time>
      </trkpt>
      <trkpt lat="42.70037" lon="1.37297">
        <ele>2297.2075195312</ele>
        <time>2012-09-15T09:59:31Z</time>
      </trkpt>
      <trkpt lat="42.70036" lon="1.37299">
        <ele>2296.7268066406</ele>
        <time>2012-09-15T09:59:40Z</time>
      </trkpt>
      <trkpt lat="42.70033" lon="1.373">
        <ele>2295.765625</ele>
        <time>2012-09-15T09:59:45Z</time>
      </trkpt>
      <trkpt lat="42.70029" lon="1.37303">
        <ele>2295.765625</ele>
        <time>2012-09-15T09:59:51Z</time>
      </trkpt>
      <trkpt lat="42.70025" lon="1.37308">
        <ele>2296.7268066406</ele>
        <time>2012-09-15T09:59:58Z</time>
      </trkpt>
      <trkpt lat="42.70023" lon="1.3731">
        <ele>2297.2075195312</ele>
        <time>2012-09-15T10:00:03Z</time>
      </trkpt>
      <trkpt lat="42.7002" lon="1.37312">
        <ele>2297.6882324219</ele>
        <time>2012-09-15T10:00:10Z</time>
      </trkpt>
      <trkpt lat="42.70016" lon="1.37314">
        <ele>2298.6494140625</ele>
        <time>2012-09-15T10:00:15Z</time>
      </trkpt>
      <trkpt lat="42.70012" lon="1.37316">
        <ele>2300.091796875</ele>
        <time>2012-09-15T10:00:21Z</time>
      </trkpt>
      <trkpt lat="42.7001" lon="1.37315">
        <ele>2301.5336914062</ele>
        <time>2012-09-15T10:00:26Z</time>
      </trkpt>
      <trkpt lat="42.70008" lon="1.37315">
        <ele>2302.0141601562</ele>
        <time>2012-09-15T10:00:30Z</time>
      </trkpt>
      <trkpt lat="42.70005" lon="1.37316">
        <ele>2303.4562988281</ele>
        <time>2012-09-15T10:00:36Z</time>
      </trkpt>
      <trkpt lat="42.70002" lon="1.37316">
        <ele>2304.8981933594</ele>
        <time>2012-09-15T10:00:41Z</time>
      </trkpt>
      <trkpt lat="42.7" lon="1.37316">
        <ele>2305.859375</ele>
        <time>2012-09-15T10:00:46Z</time>
      </trkpt>
      <trkpt lat="42.69998" lon="1.37317">
        <ele>2306.3400878906</ele>
        <time>2012-09-15T10:00:51Z</time>
      </trkpt>
      <trkpt lat="42.69994" lon="1.37317">
        <ele>2308.7434082031</ele>
        <time>2012-09-15T10:00:59Z</time>
      </trkpt>
      <trkpt lat="42.69991" lon="1.37318">
        <ele>2310.666015625</ele>
        <time>2012-09-15T10:01:04Z</time>
      </trkpt>
      <trkpt lat="42.69989" lon="1.37317">
        <ele>2313.5498046875</ele>
        <time>2012-09-15T10:01:13Z</time>
      </trkpt>
      <trkpt lat="42.69986" lon="1.37317">
        <ele>2314.0305175781</ele>
        <time>2012-09-15T10:01:18Z</time>
      </trkpt>
      <trkpt lat="42.69985" lon="1.37315">
        <ele>2313.0693359375</ele>
        <time>2012-09-15T10:01:25Z</time>
      </trkpt>
      <trkpt lat="42.69981" lon="1.37312">
        <ele>2313.5498046875</ele>
        <time>2012-09-15T10:01:33Z</time>
      </trkpt>
      <trkpt lat="42.69976" lon="1.37312">
        <ele>2314.0305175781</ele>
        <time>2012-09-15T10:01:39Z</time>
      </trkpt>
      <trkpt lat="42.69973" lon="1.3731">
        <ele>2314.9919433594</ele>
        <time>2012-09-15T10:01:45Z</time>
      </trkpt>
      <trkpt lat="42.69967" lon="1.37309">
        <ele>2316.9147949219</ele>
        <time>2012-09-15T10:01:53Z</time>
      </trkpt>
      <trkpt lat="42.69965" lon="1.37309">
        <ele>2317.3952636719</ele>
        <time>2012-09-15T10:01:57Z</time>
      </trkpt>
      <trkpt lat="42.69961" lon="1.37308">
        <ele>2317.8759765625</ele>
        <time>2012-09-15T10:02:03Z</time>
      </trkpt>
      <trkpt lat="42.69958" lon="1.37307">
        <ele>2319.3181152344</ele>
        <time>2012-09-15T10:02:08Z</time>
      </trkpt>
      <trkpt lat="42.69958" lon="1.37306">
        <ele>2320.279296875</ele>
        <time>2012-09-15T10:02:11Z</time>
      </trkpt>
      <trkpt lat="42.69955" lon="1.37306">
        <ele>2321.2404785156</ele>
        <time>2012-09-15T10:02:16Z</time>
      </trkpt>
      <trkpt lat="42.69955" lon="1.37308">
        <ele>2327.0085449219</ele>
        <time>2012-09-15T10:02:24Z</time>
      </trkpt>
      <trkpt lat="42.69953" lon="1.3731">
        <ele>2327.9697265625</ele>
        <time>2012-09-15T10:02:29Z</time>
      </trkpt>
      <trkpt lat="42.6995" lon="1.3731">
        <ele>2327.9697265625</ele>
        <time>2012-09-15T10:02:34Z</time>
      </trkpt>
      <trkpt lat="42.69949" lon="1.37311">
        <ele>2330.373046875</ele>
        <time>2012-09-15T10:02:38Z</time>
      </trkpt>
      <trkpt lat="42.69949" lon="1.37311">
        <ele>2333.2570800781</ele>
        <time>2012-09-15T10:02:44Z</time>
      </trkpt>
      <trkpt lat="42.69943" lon="1.37311">
        <ele>2334.69921875</ele>
        <time>2012-09-15T10:02:55Z</time>
      </trkpt>
      <trkpt lat="42.69941" lon="1.3731">
        <ele>2336.6215820312</ele>
        <time>2012-09-15T10:03:00Z</time>
      </trkpt>
      <trkpt lat="42.69937" lon="1.37309">
        <ele>2337.5830078125</ele>
        <time>2012-09-15T10:03:06Z</time>
      </trkpt>
      <trkpt lat="42.69934" lon="1.3731">
        <ele>2338.5444335938</ele>
        <time>2012-09-15T10:03:10Z</time>
      </trkpt>
      <trkpt lat="42.69929" lon="1.37314">
        <ele>2339.986328125</ele>
        <time>2012-09-15T10:03:15Z</time>
      </trkpt>
      <trkpt lat="42.69928" lon="1.37315">
        <ele>2340.466796875</ele>
        <time>2012-09-15T10:03:21Z</time>
      </trkpt>
      <trkpt lat="42.69927" lon="1.37316">
        <ele>2339.5056152344</ele>
        <time>2012-09-15T10:03:30Z</time>
      </trkpt>
      <trkpt lat="42.69924" lon="1.37316">
        <ele>2338.5444335938</ele>
        <time>2012-09-15T10:03:36Z</time>
      </trkpt>
      <trkpt lat="42.69917" lon="1.37317">
        <ele>2337.5830078125</ele>
        <time>2012-09-15T10:03:42Z</time>
      </trkpt>
      <trkpt lat="42.69915" lon="1.37319">
        <ele>2338.5444335938</ele>
        <time>2012-09-15T10:03:46Z</time>
      </trkpt>
      <trkpt lat="42.69912" lon="1.37319">
        <ele>2338.5444335938</ele>
        <time>2012-09-15T10:03:50Z</time>
      </trkpt>
      <trkpt lat="42.69907" lon="1.37321">
        <ele>2338.5444335938</ele>
        <time>2012-09-15T10:03:56Z</time>
      </trkpt>
      <trkpt lat="42.69903" lon="1.37322">
        <ele>2339.5056152344</ele>
        <time>2012-09-15T10:04:01Z</time>
      </trkpt>
      <trkpt lat="42.69902" lon="1.37322">
        <ele>2339.0249023438</ele>
        <time>2012-09-15T10:04:02Z</time>
      </trkpt>
      <trkpt lat="42.69899" lon="1.37321">
        <ele>2341.4282226562</ele>
        <time>2012-09-15T10:04:07Z</time>
      </trkpt>
      <trkpt lat="42.69897" lon="1.37322">
        <ele>2341.4282226562</ele>
        <time>2012-09-15T10:04:10Z</time>
      </trkpt>
      <trkpt lat="42.69895" lon="1.37323">
        <ele>2342.8701171875</ele>
        <time>2012-09-15T10:04:14Z</time>
      </trkpt>
      <trkpt lat="42.69893" lon="1.37326">
        <ele>2342.8701171875</ele>
        <time>2012-09-15T10:04:18Z</time>
      </trkpt>
      <trkpt lat="42.6989" lon="1.37328">
        <ele>2342.3896484375</ele>
        <time>2012-09-15T10:04:22Z</time>
      </trkpt>
      <trkpt lat="42.69887" lon="1.3733">
        <ele>2342.3896484375</ele>
        <time>2012-09-15T10:04:26Z</time>
      </trkpt>
      <trkpt lat="42.69882" lon="1.37335">
        <ele>2342.3896484375</ele>
        <time>2012-09-15T10:04:32Z</time>
      </trkpt>
      <trkpt lat="42.69881" lon="1.37338">
        <ele>2342.3896484375</ele>
        <time>2012-09-15T10:04:35Z</time>
      </trkpt>
      <trkpt lat="42.69876" lon="1.37341">
        <ele>2342.3896484375</ele>
        <time>2012-09-15T10:04:42Z</time>
      </trkpt>
      <trkpt lat="42.69874" lon="1.37342">
        <ele>2344.7927246094</ele>
        <time>2012-09-15T10:04:46Z</time>
      </trkpt>
      <trkpt lat="42.69869" lon="1.37343">
        <ele>2343.8315429688</ele>
        <time>2012-09-15T10:04:52Z</time>
      </trkpt>
      <trkpt lat="42.69864" lon="1.37347">
        <ele>2348.1574707031</ele>
        <time>2012-09-15T10:05:00Z</time>
      </trkpt>
      <trkpt lat="42.69862" lon="1.37347">
        <ele>2350.5607910156</ele>
        <time>2012-09-15T10:05:04Z</time>
      </trkpt>
      <trkpt lat="42.69859" lon="1.3735">
        <ele>2352.9641113281</ele>
        <time>2012-09-15T10:05:13Z</time>
      </trkpt>
      <trkpt lat="42.69856" lon="1.37353">
        <ele>2353.4448242188</ele>
        <time>2012-09-15T10:05:17Z</time>
      </trkpt>
      <trkpt lat="42.69853" lon="1.37355">
        <ele>2353.9255371094</ele>
        <time>2012-09-15T10:05:21Z</time>
      </trkpt>
      <trkpt lat="42.69851" lon="1.37357">
        <ele>2353.4448242188</ele>
        <time>2012-09-15T10:05:25Z</time>
      </trkpt>
      <trkpt lat="42.69846" lon="1.37358">
        <ele>2352.0026855469</ele>
        <time>2012-09-15T10:05:33Z</time>
      </trkpt>
      <trkpt lat="42.69844" lon="1.37359">
        <ele>2351.5222167969</ele>
        <time>2012-09-15T10:05:36Z</time>
      </trkpt>
      <trkpt lat="42.69841" lon="1.37359">
        <ele>2351.0415039062</ele>
        <time>2012-09-15T10:05:40Z</time>
      </trkpt>
      <trkpt lat="42.69837" lon="1.37362">
        <ele>2350.5607910156</ele>
        <time>2012-09-15T10:05:44Z</time>
      </trkpt>
      <trkpt lat="42.69833" lon="1.37363">
        <ele>2349.1188964844</ele>
        <time>2012-09-15T10:05:48Z</time>
      </trkpt>
      <trkpt lat="42.69831" lon="1.37363">
        <ele>2348.1574707031</ele>
        <time>2012-09-15T10:05:52Z</time>
      </trkpt>
      <trkpt lat="42.69827" lon="1.37364">
        <ele>2347.1960449219</ele>
        <time>2012-09-15T10:05:57Z</time>
      </trkpt>
      <trkpt lat="42.69824" lon="1.37365">
        <ele>2347.1960449219</ele>
        <time>2012-09-15T10:06:01Z</time>
      </trkpt>
      <trkpt lat="42.69821" lon="1.37366">
        <ele>2347.6767578125</ele>
        <time>2012-09-15T10:06:05Z</time>
      </trkpt>
      <trkpt lat="42.69818" lon="1.37367">
        <ele>2348.6381835938</ele>
        <time>2012-09-15T10:06:09Z</time>
      </trkpt>
      <trkpt lat="42.69814" lon="1.37368">
        <ele>2347.6767578125</ele>
        <time>2012-09-15T10:06:16Z</time>
      </trkpt>
      <trkpt lat="42.69812" lon="1.37369">
        <ele>2348.1574707031</ele>
        <time>2012-09-15T10:06:20Z</time>
      </trkpt>
      <trkpt lat="42.69808" lon="1.37372">
        <ele>2348.1574707031</ele>
        <time>2012-09-15T10:06:26Z</time>
      </trkpt>
      <trkpt lat="42.69805" lon="1.37372">
        <ele>2346.7153320312</ele>
        <time>2012-09-15T10:06:32Z</time>
      </trkpt>
      <trkpt lat="42.69802" lon="1.37375">
        <ele>2346.2348632812</ele>
        <time>2012-09-15T10:06:36Z</time>
      </trkpt>
      <trkpt lat="42.698" lon="1.37377">
        <ele>2345.7541503906</ele>
        <time>2012-09-15T10:06:41Z</time>
      </trkpt>
      <trkpt lat="42.69798" lon="1.37377">
        <ele>2345.2734375</ele>
        <time>2012-09-15T10:06:46Z</time>
      </trkpt>
      <trkpt lat="42.69793" lon="1.37385">
        <ele>2348.6381835938</ele>
        <time>2012-09-15T10:07:03Z</time>
      </trkpt>
      <trkpt lat="42.6979" lon="1.37385">
        <ele>2347.6767578125</ele>
        <time>2012-09-15T10:07:08Z</time>
      </trkpt>
      <trkpt lat="42.69786" lon="1.37386">
        <ele>2345.7541503906</ele>
        <time>2012-09-15T10:07:14Z</time>
      </trkpt>
      <trkpt lat="42.69781" lon="1.37384">
        <ele>2340.9475097656</ele>
        <time>2012-09-15T10:07:25Z</time>
      </trkpt>
      <trkpt lat="42.69776" lon="1.37383">
        <ele>2339.5056152344</ele>
        <time>2012-09-15T10:07:32Z</time>
      </trkpt>
      <trkpt lat="42.69773" lon="1.37383">
        <ele>2338.5444335938</ele>
        <time>2012-09-15T10:07:36Z</time>
      </trkpt>
      <trkpt lat="42.69771" lon="1.37385">
        <ele>2338.0637207031</ele>
        <time>2012-09-15T10:07:43Z</time>
      </trkpt>
      <trkpt lat="42.69764" lon="1.37387">
        <ele>2339.5056152344</ele>
        <time>2012-09-15T10:07:59Z</time>
      </trkpt>
      <trkpt lat="42.69761" lon="1.37387">
        <ele>2339.0249023438</ele>
        <time>2012-09-15T10:08:04Z</time>
      </trkpt>
      <trkpt lat="42.69759" lon="1.37386">
        <ele>2337.1022949219</ele>
        <time>2012-09-15T10:08:08Z</time>
      </trkpt>
      <trkpt lat="42.69755" lon="1.37383">
        <ele>2335.6604003906</ele>
        <time>2012-09-15T10:08:15Z</time>
      </trkpt>
      <trkpt lat="42.69753" lon="1.37384">
        <ele>2334.2185058594</ele>
        <time>2012-09-15T10:08:18Z</time>
      </trkpt>
      <trkpt lat="42.69749" lon="1.37385">
        <ele>2334.69921875</ele>
        <time>2012-09-15T10:08:23Z</time>
      </trkpt>
      <trkpt lat="42.69747" lon="1.37383">
        <ele>2334.2185058594</ele>
        <time>2012-09-15T10:08:27Z</time>
      </trkpt>
      <trkpt lat="42.69744" lon="1.37381">
        <ele>2332.7763671875</ele>
        <time>2012-09-15T10:08:31Z</time>
      </trkpt>
      <trkpt lat="42.69742" lon="1.37381">
        <ele>2332.2958984375</ele>
        <time>2012-09-15T10:08:36Z</time>
      </trkpt>
      <trkpt lat="42.6974" lon="1.37382">
        <ele>2332.2958984375</ele>
        <time>2012-09-15T10:08:40Z</time>
      </trkpt>
      <trkpt lat="42.69738" lon="1.37382">
        <ele>2332.2958984375</ele>
        <time>2012-09-15T10:09:06Z</time>
      </trkpt>
      <trkpt lat="42.6973" lon="1.37385">
        <ele>2329.4116210938</ele>
        <time>2012-09-15T10:09:21Z</time>
      </trkpt>
      <trkpt lat="42.69728" lon="1.37388">
        <ele>2329.4116210938</ele>
        <time>2012-09-15T10:09:28Z</time>
      </trkpt>
      <trkpt lat="42.69726" lon="1.37387">
        <ele>2329.8923339844</ele>
        <time>2012-09-15T10:09:32Z</time>
      </trkpt>
      <trkpt lat="42.69724" lon="1.37387">
        <ele>2330.373046875</ele>
        <time>2012-09-15T10:09:36Z</time>
      </trkpt>
      <trkpt lat="42.6973" lon="1.3738">
        <ele>2392.8586425781</ele>
        <time>2012-09-15T10:10:34Z</time>
      </trkpt>
      <trkpt lat="42.69714" lon="1.37383">
        <ele>2415.9304199219</ele>
        <time>2012-09-15T10:12:00Z</time>
      </trkpt>
      <trkpt lat="42.69711" lon="1.37384">
        <ele>2418.3337402344</ele>
        <time>2012-09-15T10:12:11Z</time>
      </trkpt>
      <trkpt lat="42.69708" lon="1.37389">
        <ele>2419.7756347656</ele>
        <time>2012-09-15T10:12:25Z</time>
      </trkpt>
      <trkpt lat="42.69707" lon="1.37393">
        <ele>2420.7370605469</ele>
        <time>2012-09-15T10:12:30Z</time>
      </trkpt>
      <trkpt lat="42.69706" lon="1.37395">
        <ele>2424.1015625</ele>
        <time>2012-09-15T10:12:37Z</time>
      </trkpt>
      <trkpt lat="42.69698" lon="1.37395">
        <ele>2427.9467773438</ele>
        <time>2012-09-15T10:12:55Z</time>
      </trkpt>
      <trkpt lat="42.69697" lon="1.37402">
        <ele>2429.3889160156</ele>
        <time>2012-09-15T10:13:05Z</time>
      </trkpt>
      <trkpt lat="42.69693" lon="1.37415">
        <ele>2428.908203125</ele>
        <time>2012-09-15T10:13:30Z</time>
      </trkpt>
      <trkpt lat="42.69691" lon="1.3742">
        <ele>2429.8696289062</ele>
        <time>2012-09-15T10:13:36Z</time>
      </trkpt>
      <trkpt lat="42.69685" lon="1.37425">
        <ele>2431.7922363281</ele>
        <time>2012-09-15T10:13:45Z</time>
      </trkpt>
      <trkpt lat="42.6968" lon="1.37429">
        <ele>2431.7922363281</ele>
        <time>2012-09-15T10:13:51Z</time>
      </trkpt>
      <trkpt lat="42.69678" lon="1.37433">
        <ele>2430.8310546875</ele>
        <time>2012-09-15T10:13:57Z</time>
      </trkpt>
      <trkpt lat="42.69678" lon="1.37436">
        <ele>2432.2729492188</ele>
        <time>2012-09-15T10:14:02Z</time>
      </trkpt>
      <trkpt lat="42.69676" lon="1.37436">
        <ele>2434.6762695312</ele>
        <time>2012-09-15T10:14:08Z</time>
      </trkpt>
      <trkpt lat="42.69671" lon="1.37434">
        <ele>2446.6926269531</ele>
        <time>2012-09-15T10:14:26Z</time>
      </trkpt>
      <trkpt lat="42.69672" lon="1.37433">
        <ele>2447.1733398438</ele>
        <time>2012-09-15T10:14:37Z</time>
      </trkpt>
      <trkpt lat="42.6967" lon="1.37432">
        <ele>2451.0185546875</ele>
        <time>2012-09-15T10:14:52Z</time>
      </trkpt>
      <trkpt lat="42.69664" lon="1.37438">
        <ele>2456.3056640625</ele>
        <time>2012-09-15T10:15:04Z</time>
      </trkpt>
      <trkpt lat="42.69661" lon="1.37443">
        <ele>2456.7863769531</ele>
        <time>2012-09-15T10:15:13Z</time>
      </trkpt>
      <trkpt lat="42.69659" lon="1.37445">
        <ele>2455.8249511719</ele>
        <time>2012-09-15T10:15:18Z</time>
      </trkpt>
      <trkpt lat="42.69658" lon="1.37447">
        <ele>2456.3056640625</ele>
        <time>2012-09-15T10:15:23Z</time>
      </trkpt>
      <trkpt lat="42.69657" lon="1.37448">
        <ele>2456.3056640625</ele>
        <time>2012-09-15T10:15:27Z</time>
      </trkpt>
      <trkpt lat="42.69656" lon="1.37451">
        <ele>2456.3056640625</ele>
        <time>2012-09-15T10:15:54Z</time>
      </trkpt>
      <trkpt lat="42.69654" lon="1.37453">
        <ele>2456.7863769531</ele>
        <time>2012-09-15T10:15:58Z</time>
      </trkpt>
      <trkpt lat="42.69647" lon="1.37459">
        <ele>2460.1511230469</ele>
        <time>2012-09-15T10:16:22Z</time>
      </trkpt>
      <trkpt lat="42.69645" lon="1.37461">
        <ele>2461.1125488281</ele>
        <time>2012-09-15T10:16:29Z</time>
      </trkpt>
      <trkpt lat="42.69643" lon="1.37462">
        <ele>2463.03515625</ele>
        <time>2012-09-15T10:16:37Z</time>
      </trkpt>
      <trkpt lat="42.69637" lon="1.37469">
        <ele>2466.3996582031</ele>
        <time>2012-09-15T10:16:57Z</time>
      </trkpt>
      <trkpt lat="42.69628" lon="1.37464">
        <ele>2475.0512695312</ele>
        <time>2012-09-15T10:17:24Z</time>
      </trkpt>
      <trkpt lat="42.69616" lon="1.37471">
        <ele>2479.8581542969</ele>
        <time>2012-09-15T10:18:00Z</time>
      </trkpt>
      <trkpt lat="42.69612" lon="1.37472">
        <ele>2479.3774414062</ele>
        <time>2012-09-15T10:18:16Z</time>
      </trkpt>
      <trkpt lat="42.69609" lon="1.37471">
        <ele>2480.3388671875</ele>
        <time>2012-09-15T10:18:20Z</time>
      </trkpt>
      <trkpt lat="42.69602" lon="1.37472">
        <ele>2482.2614746094</ele>
        <time>2012-09-15T10:18:37Z</time>
      </trkpt>
      <trkpt lat="42.69601" lon="1.37469">
        <ele>2484.6647949219</ele>
        <time>2012-09-15T10:18:41Z</time>
      </trkpt>
      <trkpt lat="42.69599" lon="1.37468">
        <ele>2485.1452636719</ele>
        <time>2012-09-15T10:18:53Z</time>
      </trkpt>
      <trkpt lat="42.69591" lon="1.37477">
        <ele>2494.2778320312</ele>
        <time>2012-09-15T10:19:51Z</time>
      </trkpt>
      <trkpt lat="42.69589" lon="1.37475">
        <ele>2497.642578125</ele>
        <time>2012-09-15T10:20:02Z</time>
      </trkpt>
      <trkpt lat="42.69585" lon="1.37476">
        <ele>2499.0844726562</ele>
        <time>2012-09-15T10:20:06Z</time>
      </trkpt>
      <trkpt lat="42.69583" lon="1.37476">
        <ele>2498.123046875</ele>
        <time>2012-09-15T10:20:10Z</time>
      </trkpt>
      <trkpt lat="42.69573" lon="1.37486">
        <ele>2508.6977539062</ele>
        <time>2012-09-15T10:21:50Z</time>
      </trkpt>
      <trkpt lat="42.69554" lon="1.37484">
        <ele>2517.830078125</ele>
        <time>2012-09-15T10:22:50Z</time>
      </trkpt>
      <trkpt lat="42.69556" lon="1.37479">
        <ele>2520.7141113281</ele>
        <time>2012-09-15T10:23:07Z</time>
      </trkpt>
      <trkpt lat="42.69556" lon="1.37478">
        <ele>2523.1174316406</ele>
        <time>2012-09-15T10:23:42Z</time>
      </trkpt>
      <trkpt lat="42.69555" lon="1.37476">
        <ele>2524.5595703125</ele>
        <time>2012-09-15T10:23:50Z</time>
      </trkpt>
      <trkpt lat="42.69556" lon="1.37475">
        <ele>2525.0400390625</ele>
        <time>2012-09-15T10:23:54Z</time>
      </trkpt>
      <trkpt lat="42.69554" lon="1.37471">
        <ele>2527.443359375</ele>
        <time>2012-09-15T10:24:01Z</time>
      </trkpt>
      <trkpt lat="42.69556" lon="1.37466">
        <ele>2530.3273925781</ele>
        <time>2012-09-15T10:24:07Z</time>
      </trkpt>
      <trkpt lat="42.69551" lon="1.37463">
        <ele>2530.3273925781</ele>
        <time>2012-09-15T10:24:14Z</time>
      </trkpt>
      <trkpt lat="42.69553" lon="1.37459">
        <ele>2534.1726074219</ele>
        <time>2012-09-15T10:24:20Z</time>
      </trkpt>
      <trkpt lat="42.6955" lon="1.37457">
        <ele>2535.1337890625</ele>
        <time>2012-09-15T10:24:26Z</time>
      </trkpt>
      <trkpt lat="42.69552" lon="1.37455">
        <ele>2538.4985351562</ele>
        <time>2012-09-15T10:24:31Z</time>
      </trkpt>
      <trkpt lat="42.69551" lon="1.37452">
        <ele>2540.9018554688</ele>
        <time>2012-09-15T10:24:37Z</time>
      </trkpt>
      <trkpt lat="42.69551" lon="1.37451">
        <ele>2541.3825683594</ele>
        <time>2012-09-15T10:24:42Z</time>
      </trkpt>
      <trkpt lat="42.6955" lon="1.37448">
        <ele>2541.3825683594</ele>
        <time>2012-09-15T10:24:48Z</time>
      </trkpt>
      <trkpt lat="42.69547" lon="1.37446">
        <ele>2543.7858886719</ele>
        <time>2012-09-15T10:24:55Z</time>
      </trkpt>
      <trkpt lat="42.69547" lon="1.37444">
        <ele>2546.1892089844</ele>
        <time>2012-09-15T10:25:00Z</time>
      </trkpt>
      <trkpt lat="42.69546" lon="1.37442">
        <ele>2547.6311035156</ele>
        <time>2012-09-15T10:25:05Z</time>
      </trkpt>
      <trkpt lat="42.69547" lon="1.37437">
        <ele>2550.5148925781</ele>
        <time>2012-09-15T10:25:13Z</time>
      </trkpt>
      <trkpt lat="42.69547" lon="1.37435">
        <ele>2551.4763183594</ele>
        <time>2012-09-15T10:25:18Z</time>
      </trkpt>
      <trkpt lat="42.69544" lon="1.37433">
        <ele>2551.4763183594</ele>
        <time>2012-09-15T10:25:22Z</time>
      </trkpt>
      <trkpt lat="42.69543" lon="1.3743">
        <ele>2552.9182128906</ele>
        <time>2012-09-15T10:25:28Z</time>
      </trkpt>
      <trkpt lat="42.69544" lon="1.37427">
        <ele>2556.2829589844</ele>
        <time>2012-09-15T10:25:41Z</time>
      </trkpt>
      <trkpt lat="42.69543" lon="1.37425">
        <ele>2556.763671875</ele>
        <time>2012-09-15T10:25:46Z</time>
      </trkpt>
      <trkpt lat="42.69538" lon="1.37425">
        <ele>2554.3601074219</ele>
        <time>2012-09-15T10:25:50Z</time>
      </trkpt>
      <trkpt lat="42.69532" lon="1.37426">
        <ele>2552.9182128906</ele>
        <time>2012-09-15T10:25:55Z</time>
      </trkpt>
      <trkpt lat="42.6953" lon="1.37424">
        <ele>2552.4375</ele>
        <time>2012-09-15T10:25:57Z</time>
      </trkpt>
      <trkpt lat="42.69527" lon="1.37423">
        <ele>2551.9567871094</ele>
        <time>2012-09-15T10:26:03Z</time>
      </trkpt>
      <trkpt lat="42.69525" lon="1.37421">
        <ele>2552.9182128906</ele>
        <time>2012-09-15T10:26:09Z</time>
      </trkpt>
      <trkpt lat="42.69522" lon="1.37419">
        <ele>2552.9182128906</ele>
        <time>2012-09-15T10:26:14Z</time>
      </trkpt>
      <trkpt lat="42.6952" lon="1.37418">
        <ele>2551.9567871094</ele>
        <time>2012-09-15T10:26:21Z</time>
      </trkpt>
      <trkpt lat="42.69518" lon="1.37416">
        <ele>2551.4763183594</ele>
        <time>2012-09-15T10:26:26Z</time>
      </trkpt>
      <trkpt lat="42.69518" lon="1.37413">
        <ele>2552.9182128906</ele>
        <time>2012-09-15T10:26:31Z</time>
      </trkpt>
      <trkpt lat="42.69518" lon="1.37412">
        <ele>2553.3989257812</ele>
        <time>2012-09-15T10:26:36Z</time>
      </trkpt>
      <trkpt lat="42.69516" lon="1.37412">
        <ele>2552.9182128906</ele>
        <time>2012-09-15T10:26:48Z</time>
      </trkpt>
      <trkpt lat="42.69514" lon="1.37409">
        <ele>2554.3601074219</ele>
        <time>2012-09-15T10:27:09Z</time>
      </trkpt>
      <trkpt lat="42.69514" lon="1.37406">
        <ele>2556.2829589844</ele>
        <time>2012-09-15T10:27:15Z</time>
      </trkpt>
      <trkpt lat="42.69513" lon="1.37403">
        <ele>2557.7250976562</ele>
        <time>2012-09-15T10:27:20Z</time>
      </trkpt>
      <trkpt lat="42.69512" lon="1.374">
        <ele>2559.6474609375</ele>
        <time>2012-09-15T10:27:27Z</time>
      </trkpt>
      <trkpt lat="42.69511" lon="1.37397">
        <ele>2561.0895996094</ele>
        <time>2012-09-15T10:27:33Z</time>
      </trkpt>
      <trkpt lat="42.69508" lon="1.37393">
        <ele>2563.4926757812</ele>
        <time>2012-09-15T10:27:40Z</time>
      </trkpt>
      <trkpt lat="42.69508" lon="1.3739">
        <ele>2564.4541015625</ele>
        <time>2012-09-15T10:27:46Z</time>
      </trkpt>
      <trkpt lat="42.69506" lon="1.37387">
        <ele>2565.8959960938</ele>
        <time>2012-09-15T10:27:54Z</time>
      </trkpt>
      <trkpt lat="42.69505" lon="1.37384">
        <ele>2566.3767089844</ele>
        <time>2012-09-15T10:28:16Z</time>
      </trkpt>
      <trkpt lat="42.69503" lon="1.37384">
        <ele>2567.8186035156</ele>
        <time>2012-09-15T10:28:22Z</time>
      </trkpt>
      <trkpt lat="42.69502" lon="1.37385">
        <ele>2568.7800292969</ele>
        <time>2012-09-15T10:28:27Z</time>
      </trkpt>
      <trkpt lat="42.695" lon="1.37385">
        <ele>2569.7412109375</ele>
        <time>2012-09-15T10:28:32Z</time>
      </trkpt>
      <trkpt lat="42.69497" lon="1.37386">
        <ele>2571.1831054688</ele>
        <time>2012-09-15T10:28:38Z</time>
      </trkpt>
      <trkpt lat="42.69495" lon="1.37385">
        <ele>2572.1447753906</ele>
        <time>2012-09-15T10:28:43Z</time>
      </trkpt>
      <trkpt lat="42.69493" lon="1.37383">
        <ele>2572.1447753906</ele>
        <time>2012-09-15T10:28:47Z</time>
      </trkpt>
      <trkpt lat="42.6949" lon="1.3738">
        <ele>2573.1062011719</ele>
        <time>2012-09-15T10:28:52Z</time>
      </trkpt>
      <trkpt lat="42.69489" lon="1.37376">
        <ele>2573.5866699219</ele>
        <time>2012-09-15T10:28:58Z</time>
      </trkpt>
      <trkpt lat="42.69487" lon="1.37372">
        <ele>2575.0285644531</ele>
        <time>2012-09-15T10:29:07Z</time>
      </trkpt>
      <trkpt lat="42.69486" lon="1.37369">
        <ele>2575.9899902344</ele>
        <time>2012-09-15T10:29:12Z</time>
      </trkpt>
      <trkpt lat="42.69486" lon="1.37365">
        <ele>2578.3933105469</ele>
        <time>2012-09-15T10:29:19Z</time>
      </trkpt>
      <trkpt lat="42.69486" lon="1.37363">
        <ele>2579.3544921875</ele>
        <time>2012-09-15T10:29:23Z</time>
      </trkpt>
      <trkpt lat="42.69486" lon="1.3736">
        <ele>2579.8352050781</ele>
        <time>2012-09-15T10:29:29Z</time>
      </trkpt>
      <trkpt lat="42.69486" lon="1.37356">
        <ele>2580.7966308594</ele>
        <time>2012-09-15T10:29:34Z</time>
      </trkpt>
      <trkpt lat="42.69486" lon="1.37354">
        <ele>2581.7578125</ele>
        <time>2012-09-15T10:29:40Z</time>
      </trkpt>
      <trkpt lat="42.69485" lon="1.37353">
        <ele>2582.7189941406</ele>
        <time>2012-09-15T10:29:45Z</time>
      </trkpt>
      <trkpt lat="42.69483" lon="1.37353">
        <ele>2584.1611328125</ele>
        <time>2012-09-15T10:29:51Z</time>
      </trkpt>
      <trkpt lat="42.6948" lon="1.37355">
        <ele>2584.6418457031</ele>
        <time>2012-09-15T10:29:59Z</time>
      </trkpt>
      <trkpt lat="42.69478" lon="1.37353">
        <ele>2585.1223144531</ele>
        <time>2012-09-15T10:30:04Z</time>
      </trkpt>
      <trkpt lat="42.69477" lon="1.37352">
        <ele>2586.5642089844</ele>
        <time>2012-09-15T10:30:09Z</time>
      </trkpt>
      <trkpt lat="42.69477" lon="1.3735">
        <ele>2587.5256347656</ele>
        <time>2012-09-15T10:30:14Z</time>
      </trkpt>
      <trkpt lat="42.69476" lon="1.37348">
        <ele>2588.4873046875</ele>
        <time>2012-09-15T10:30:19Z</time>
      </trkpt>
      <trkpt lat="42.69476" lon="1.37347">
        <ele>2588.9677734375</ele>
        <time>2012-09-15T10:30:24Z</time>
      </trkpt>
      <trkpt lat="42.69476" lon="1.37347">
        <ele>2588.9677734375</ele>
        <time>2012-09-15T10:30:28Z</time>
      </trkpt>
      <trkpt lat="42.69474" lon="1.37343">
        <ele>2592.3325195312</ele>
        <time>2012-09-15T10:39:04Z</time>
      </trkpt>
      <trkpt lat="42.69474" lon="1.37343">
        <ele>2592.3325195312</ele>
        <time>2012-09-15T10:39:05Z</time>
      </trkpt>
      <trkpt lat="42.69474" lon="1.37338">
        <ele>2591.8518066406</ele>
        <time>2012-09-15T10:39:10Z</time>
      </trkpt>
      <trkpt lat="42.69473" lon="1.37332">
        <ele>2592.3325195312</ele>
        <time>2012-09-15T10:39:17Z</time>
      </trkpt>
      <trkpt lat="42.69474" lon="1.37328">
        <ele>2593.2937011719</ele>
        <time>2012-09-15T10:39:24Z</time>
      </trkpt>
      <trkpt lat="42.69476" lon="1.37326">
        <ele>2595.6970214844</ele>
        <time>2012-09-15T10:39:30Z</time>
      </trkpt>
      <trkpt lat="42.69476" lon="1.37325">
        <ele>2596.177734375</ele>
        <time>2012-09-15T10:39:35Z</time>
      </trkpt>
      <trkpt lat="42.69476" lon="1.37321">
        <ele>2596.177734375</ele>
        <time>2012-09-15T10:39:41Z</time>
      </trkpt>
      <trkpt lat="42.69475" lon="1.37319">
        <ele>2595.2163085938</ele>
        <time>2012-09-15T10:39:47Z</time>
      </trkpt>
      <trkpt lat="42.69473" lon="1.37311">
        <ele>2593.2937011719</ele>
        <time>2012-09-15T10:39:55Z</time>
      </trkpt>
      <trkpt lat="42.69471" lon="1.37305">
        <ele>2592.3325195312</ele>
        <time>2012-09-15T10:40:01Z</time>
      </trkpt>
      <trkpt lat="42.6947" lon="1.37297">
        <ele>2592.3325195312</ele>
        <time>2012-09-15T10:40:08Z</time>
      </trkpt>
      <trkpt lat="42.6947" lon="1.3729">
        <ele>2592.8129882812</ele>
        <time>2012-09-15T10:40:13Z</time>
      </trkpt>
      <trkpt lat="42.69471" lon="1.37281">
        <ele>2593.7744140625</ele>
        <time>2012-09-15T10:40:20Z</time>
      </trkpt>
      <trkpt lat="42.69472" lon="1.37278">
        <ele>2593.7744140625</ele>
        <time>2012-09-15T10:40:23Z</time>
      </trkpt>
      <trkpt lat="42.69472" lon="1.37274">
        <ele>2593.7744140625</ele>
        <time>2012-09-15T10:40:27Z</time>
      </trkpt>
      <trkpt lat="42.69473" lon="1.37266">
        <ele>2595.6970214844</ele>
        <time>2012-09-15T10:40:33Z</time>
      </trkpt>
      <trkpt lat="42.69473" lon="1.3726">
        <ele>2597.6196289062</ele>
        <time>2012-09-15T10:40:38Z</time>
      </trkpt>
      <trkpt lat="42.69475" lon="1.37256">
        <ele>2599.5419921875</ele>
        <time>2012-09-15T10:40:44Z</time>
      </trkpt>
      <trkpt lat="42.69478" lon="1.3725">
        <ele>2600.0229492188</ele>
        <time>2012-09-15T10:40:51Z</time>
      </trkpt>
      <trkpt lat="42.69481" lon="1.37243">
        <ele>2601.46484375</ele>
        <time>2012-09-15T10:40:58Z</time>
      </trkpt>
      <trkpt lat="42.69482" lon="1.37236">
        <ele>2602.4262695312</ele>
        <time>2012-09-15T10:41:04Z</time>
      </trkpt>
      <trkpt lat="42.69484" lon="1.3723">
        <ele>2604.3486328125</ele>
        <time>2012-09-15T10:41:10Z</time>
      </trkpt>
      <trkpt lat="42.69486" lon="1.37223">
        <ele>2605.7905273438</ele>
        <time>2012-09-15T10:41:16Z</time>
      </trkpt>
      <trkpt lat="42.69487" lon="1.37218">
        <ele>2606.751953125</ele>
        <time>2012-09-15T10:41:22Z</time>
      </trkpt>
      <trkpt lat="42.69487" lon="1.37212">
        <ele>2607.232421875</ele>
        <time>2012-09-15T10:41:28Z</time>
      </trkpt>
      <trkpt lat="42.69486" lon="1.37207">
        <ele>2607.7133789062</ele>
        <time>2012-09-15T10:41:33Z</time>
      </trkpt>
      <trkpt lat="42.69485" lon="1.37197">
        <ele>2607.232421875</ele>
        <time>2012-09-15T10:41:42Z</time>
      </trkpt>
      <trkpt lat="42.69485" lon="1.37191">
        <ele>2607.7133789062</ele>
        <time>2012-09-15T10:41:47Z</time>
      </trkpt>
      <trkpt lat="42.69486" lon="1.37182">
        <ele>2608.1938476562</ele>
        <time>2012-09-15T10:41:54Z</time>
      </trkpt>
      <trkpt lat="42.69486" lon="1.37172">
        <ele>2608.6748046875</ele>
        <time>2012-09-15T10:42:02Z</time>
      </trkpt>
      <trkpt lat="42.69487" lon="1.37163">
        <ele>2608.6748046875</ele>
        <time>2012-09-15T10:42:09Z</time>
      </trkpt>
      <trkpt lat="42.69487" lon="1.37158">
        <ele>2608.1938476562</ele>
        <time>2012-09-15T10:42:14Z</time>
      </trkpt>
      <trkpt lat="42.69488" lon="1.37151">
        <ele>2607.7133789062</ele>
        <time>2012-09-15T10:42:21Z</time>
      </trkpt>
      <trkpt lat="42.69489" lon="1.37146">
        <ele>2608.1938476562</ele>
        <time>2012-09-15T10:42:26Z</time>
      </trkpt>
      <trkpt lat="42.6949" lon="1.37141">
        <ele>2609.1552734375</ele>
        <time>2012-09-15T10:42:32Z</time>
      </trkpt>
      <trkpt lat="42.69492" lon="1.37134">
        <ele>2608.6748046875</ele>
        <time>2012-09-15T10:42:37Z</time>
      </trkpt>
      <trkpt lat="42.69493" lon="1.37129">
        <ele>2608.6748046875</ele>
        <time>2012-09-15T10:42:43Z</time>
      </trkpt>
      <trkpt lat="42.69494" lon="1.37122">
        <ele>2609.6357421875</ele>
        <time>2012-09-15T10:42:50Z</time>
      </trkpt>
      <trkpt lat="42.69496" lon="1.37116">
        <ele>2610.5971679688</ele>
        <time>2012-09-15T10:42:56Z</time>
      </trkpt>
      <trkpt lat="42.69498" lon="1.37113">
        <ele>2611.55859375</ele>
        <time>2012-09-15T10:43:01Z</time>
      </trkpt>
      <trkpt lat="42.69498" lon="1.37111">
        <ele>2612.5200195312</ele>
        <time>2012-09-15T10:43:05Z</time>
      </trkpt>
      <trkpt lat="42.69501" lon="1.37105">
        <ele>2613.0009765625</ele>
        <time>2012-09-15T10:43:11Z</time>
      </trkpt>
      <trkpt lat="42.69504" lon="1.371">
        <ele>2613.9624023438</ele>
        <time>2012-09-15T10:43:19Z</time>
      </trkpt>
      <trkpt lat="42.69505" lon="1.37094">
        <ele>2615.884765625</ele>
        <time>2012-09-15T10:43:26Z</time>
      </trkpt>
      <trkpt lat="42.69506" lon="1.3709">
        <ele>2618.2880859375</ele>
        <time>2012-09-15T10:43:32Z</time>
      </trkpt>
      <trkpt lat="42.69511" lon="1.37083">
        <ele>2621.171875</ele>
        <time>2012-09-15T10:43:41Z</time>
      </trkpt>
      <trkpt lat="42.69514" lon="1.37077">
        <ele>2622.1333007812</ele>
        <time>2012-09-15T10:43:48Z</time>
      </trkpt>
      <trkpt lat="42.69515" lon="1.37072">
        <ele>2623.5751953125</ele>
        <time>2012-09-15T10:43:55Z</time>
      </trkpt>
      <trkpt lat="42.69515" lon="1.37066">
        <ele>2623.5751953125</ele>
        <time>2012-09-15T10:44:02Z</time>
      </trkpt>
      <trkpt lat="42.69515" lon="1.37063">
        <ele>2624.5366210938</ele>
        <time>2012-09-15T10:44:09Z</time>
      </trkpt>
      <trkpt lat="42.69516" lon="1.37059">
        <ele>2624.5366210938</ele>
        <time>2012-09-15T10:44:14Z</time>
      </trkpt>
      <trkpt lat="42.69516" lon="1.37057">
        <ele>2625.978515625</ele>
        <time>2012-09-15T10:44:19Z</time>
      </trkpt>
      <trkpt lat="42.69516" lon="1.37056">
        <ele>2627.9008789062</ele>
        <time>2012-09-15T10:44:25Z</time>
      </trkpt>
      <trkpt lat="42.69518" lon="1.37056">
        <ele>2629.8237304688</ele>
        <time>2012-09-15T10:44:31Z</time>
      </trkpt>
      <trkpt lat="42.69518" lon="1.37056">
        <ele>2629.8237304688</ele>
        <time>2012-09-15T10:44:37Z</time>
      </trkpt>
      <trkpt lat="42.69521" lon="1.37054">
        <ele>2631.265625</ele>
        <time>2012-09-15T10:44:47Z</time>
      </trkpt>
      <trkpt lat="42.69522" lon="1.3705">
        <ele>2633.1884765625</ele>
        <time>2012-09-15T10:44:53Z</time>
      </trkpt>
      <trkpt lat="42.69524" lon="1.37047">
        <ele>2634.6303710938</ele>
        <time>2012-09-15T10:45:00Z</time>
      </trkpt>
      <trkpt lat="42.69526" lon="1.37046">
        <ele>2636.552734375</ele>
        <time>2012-09-15T10:45:05Z</time>
      </trkpt>
      <trkpt lat="42.69529" lon="1.37044">
        <ele>2638.4755859375</ele>
        <time>2012-09-15T10:45:13Z</time>
      </trkpt>
      <trkpt lat="42.69529" lon="1.37043">
        <ele>2638.9560546875</ele>
        <time>2012-09-15T10:45:21Z</time>
      </trkpt>
      <trkpt lat="42.69531" lon="1.37039">
        <ele>2641.359375</ele>
        <time>2012-09-15T10:45:27Z</time>
      </trkpt>
      <trkpt lat="42.69532" lon="1.37036">
        <ele>2643.2817382812</ele>
        <time>2012-09-15T10:45:33Z</time>
      </trkpt>
      <trkpt lat="42.69533" lon="1.37035">
        <ele>2644.724609375</ele>
        <time>2012-09-15T10:45:40Z</time>
      </trkpt>
      <trkpt lat="42.69533" lon="1.37035">
        <ele>2644.2436523438</ele>
        <time>2012-09-15T10:45:52Z</time>
      </trkpt>
      <trkpt lat="42.69535" lon="1.3703">
        <ele>2645.685546875</ele>
        <time>2012-09-15T10:46:00Z</time>
      </trkpt>
      <trkpt lat="42.69537" lon="1.37027">
        <ele>2647.1279296875</ele>
        <time>2012-09-15T10:46:05Z</time>
      </trkpt>
      <trkpt lat="42.69538" lon="1.37021">
        <ele>2648.5698242188</ele>
        <time>2012-09-15T10:46:12Z</time>
      </trkpt>
      <trkpt lat="42.6954" lon="1.37018">
        <ele>2650.01171875</ele>
        <time>2012-09-15T10:46:18Z</time>
      </trkpt>
      <trkpt lat="42.69542" lon="1.37015">
        <ele>2651.9340820312</ele>
        <time>2012-09-15T10:46:24Z</time>
      </trkpt>
      <trkpt lat="42.69545" lon="1.37015">
        <ele>2653.8569335938</ele>
        <time>2012-09-15T10:46:30Z</time>
      </trkpt>
      <trkpt lat="42.69547" lon="1.37013">
        <ele>2655.298828125</ele>
        <time>2012-09-15T10:46:36Z</time>
      </trkpt>
      <trkpt lat="42.6955" lon="1.37012">
        <ele>2656.7407226562</ele>
        <time>2012-09-15T10:46:42Z</time>
      </trkpt>
      <trkpt lat="42.69551" lon="1.37009">
        <ele>2658.1826171875</ele>
        <time>2012-09-15T10:46:49Z</time>
      </trkpt>
      <trkpt lat="42.69551" lon="1.3701">
        <ele>2657.7021484375</ele>
        <time>2012-09-15T10:46:57Z</time>
      </trkpt>
      <trkpt lat="42.69551" lon="1.37006">
        <ele>2657.7021484375</ele>
        <time>2012-09-15T10:47:06Z</time>
      </trkpt>
      <trkpt lat="42.69552" lon="1.37001">
        <ele>2659.6245117188</ele>
        <time>2012-09-15T10:47:12Z</time>
      </trkpt>
      <trkpt lat="42.69553" lon="1.36996">
        <ele>2661.06640625</ele>
        <time>2012-09-15T10:47:18Z</time>
      </trkpt>
      <trkpt lat="42.69554" lon="1.36991">
        <ele>2662.0278320312</ele>
        <time>2012-09-15T10:47:23Z</time>
      </trkpt>
      <trkpt lat="42.69555" lon="1.36986">
        <ele>2663.9506835938</ele>
        <time>2012-09-15T10:47:29Z</time>
      </trkpt>
      <trkpt lat="42.69556" lon="1.3698">
        <ele>2665.392578125</ele>
        <time>2012-09-15T10:47:36Z</time>
      </trkpt>
      <trkpt lat="42.69557" lon="1.36976">
        <ele>2666.8344726562</ele>
        <time>2012-09-15T10:47:41Z</time>
      </trkpt>
      <trkpt lat="42.69557" lon="1.3697">
        <ele>2668.2763671875</ele>
        <time>2012-09-15T10:47:47Z</time>
      </trkpt>
      <trkpt lat="42.69558" lon="1.36971">
        <ele>2667.7958984375</ele>
        <time>2012-09-15T10:47:58Z</time>
      </trkpt>
      <trkpt lat="42.69558" lon="1.36968">
        <ele>2667.3149414062</ele>
        <time>2012-09-15T10:48:08Z</time>
      </trkpt>
      <trkpt lat="42.69559" lon="1.36961">
        <ele>2668.7568359375</ele>
        <time>2012-09-15T10:48:16Z</time>
      </trkpt>
      <trkpt lat="42.69559" lon="1.36956">
        <ele>2670.19921875</ele>
        <time>2012-09-15T10:48:22Z</time>
      </trkpt>
      <trkpt lat="42.69559" lon="1.36952">
        <ele>2671.16015625</ele>
        <time>2012-09-15T10:48:27Z</time>
      </trkpt>
      <trkpt lat="42.69559" lon="1.36946">
        <ele>2672.6020507812</ele>
        <time>2012-09-15T10:48:33Z</time>
      </trkpt>
      <trkpt lat="42.69559" lon="1.36941">
        <ele>2674.5249023438</ele>
        <time>2012-09-15T10:48:40Z</time>
      </trkpt>
      <trkpt lat="42.69561" lon="1.36935">
        <ele>2675.966796875</ele>
        <time>2012-09-15T10:48:47Z</time>
      </trkpt>
      <trkpt lat="42.69561" lon="1.36932">
        <ele>2676.9287109375</ele>
        <time>2012-09-15T10:48:53Z</time>
      </trkpt>
      <trkpt lat="42.69561" lon="1.36927">
        <ele>2678.3706054688</ele>
        <time>2012-09-15T10:49:04Z</time>
      </trkpt>
      <trkpt lat="42.69561" lon="1.36924">
        <ele>2678.8510742188</ele>
        <time>2012-09-15T10:49:08Z</time>
      </trkpt>
      <trkpt lat="42.69561" lon="1.36923">
        <ele>2678.8510742188</ele>
        <time>2012-09-15T10:49:13Z</time>
      </trkpt>
      <trkpt lat="42.69561" lon="1.36924">
        <ele>2678.8510742188</ele>
        <time>2012-09-15T10:49:26Z</time>
      </trkpt>
      <trkpt lat="42.69562" lon="1.36923">
        <ele>2677.8901367188</ele>
        <time>2012-09-15T10:49:37Z</time>
      </trkpt>
      <trkpt lat="42.69563" lon="1.36919">
        <ele>2678.8510742188</ele>
        <time>2012-09-15T10:49:43Z</time>
      </trkpt>
      <trkpt lat="42.69564" lon="1.36916">
        <ele>2680.7739257812</ele>
        <time>2012-09-15T10:49:48Z</time>
      </trkpt>
      <trkpt lat="42.69563" lon="1.36911">
        <ele>2682.6962890625</ele>
        <time>2012-09-15T10:49:54Z</time>
      </trkpt>
      <trkpt lat="42.69563" lon="1.36906">
        <ele>2683.6577148438</ele>
        <time>2012-09-15T10:50:00Z</time>
      </trkpt>
      <trkpt lat="42.69562" lon="1.369">
        <ele>2684.619140625</ele>
        <time>2012-09-15T10:50:06Z</time>
      </trkpt>
      <trkpt lat="42.69562" lon="1.36897">
        <ele>2687.0224609375</ele>
        <time>2012-09-15T10:50:12Z</time>
      </trkpt>
      <trkpt lat="42.69561" lon="1.36894">
        <ele>2687.5029296875</ele>
        <time>2012-09-15T10:50:17Z</time>
      </trkpt>
      <trkpt lat="42.69561" lon="1.3689">
        <ele>2688.4643554688</ele>
        <time>2012-09-15T10:50:24Z</time>
      </trkpt>
      <trkpt lat="42.69562" lon="1.36888">
        <ele>2688.4643554688</ele>
        <time>2012-09-15T10:50:29Z</time>
      </trkpt>
      <trkpt lat="42.69564" lon="1.36887">
        <ele>2689.90625</ele>
        <time>2012-09-15T10:50:34Z</time>
      </trkpt>
      <trkpt lat="42.69565" lon="1.36887">
        <ele>2691.3481445312</ele>
        <time>2012-09-15T10:50:39Z</time>
      </trkpt>
      <trkpt lat="42.69565" lon="1.36886">
        <ele>2691.8286132812</ele>
        <time>2012-09-15T10:50:44Z</time>
      </trkpt>
      <trkpt lat="42.69565" lon="1.36886">
        <ele>2692.3095703125</ele>
        <time>2012-09-15T10:50:50Z</time>
      </trkpt>
      <trkpt lat="42.69565" lon="1.36883">
        <ele>2692.7900390625</ele>
        <time>2012-09-15T10:50:56Z</time>
      </trkpt>
      <trkpt lat="42.69565" lon="1.36883">
        <ele>2692.3095703125</ele>
        <time>2012-09-15T10:51:04Z</time>
      </trkpt>
      <trkpt lat="42.69566" lon="1.36883">
        <ele>2691.3481445312</ele>
        <time>2012-09-15T10:51:20Z</time>
      </trkpt>
      <trkpt lat="42.69566" lon="1.3688">
        <ele>2692.7900390625</ele>
        <time>2012-09-15T10:51:28Z</time>
      </trkpt>
      <trkpt lat="42.69566" lon="1.36878">
        <ele>2694.2319335938</ele>
        <time>2012-09-15T10:51:34Z</time>
      </trkpt>
      <trkpt lat="42.69567" lon="1.36876">
        <ele>2695.193359375</ele>
        <time>2012-09-15T10:51:39Z</time>
      </trkpt>
      <trkpt lat="42.69567" lon="1.36873">
        <ele>2696.6352539062</ele>
        <time>2012-09-15T10:51:44Z</time>
      </trkpt>
      <trkpt lat="42.69567" lon="1.36868">
        <ele>2697.5966796875</ele>
        <time>2012-09-15T10:51:50Z</time>
      </trkpt>
      <trkpt lat="42.69566" lon="1.36864">
        <ele>2698.5581054688</ele>
        <time>2012-09-15T10:51:55Z</time>
      </trkpt>
      <trkpt lat="42.69567" lon="1.3686">
        <ele>2700</ele>
        <time>2012-09-15T10:52:00Z</time>
      </trkpt>
      <trkpt lat="42.69567" lon="1.36859">
        <ele>2700.48046875</ele>
        <time>2012-09-15T10:52:07Z</time>
      </trkpt>
      <trkpt lat="42.69566" lon="1.36856">
        <ele>2700.9614257812</ele>
        <time>2012-09-15T10:52:14Z</time>
      </trkpt>
      <trkpt lat="42.69565" lon="1.36856">
        <ele>2701.4418945312</ele>
        <time>2012-09-15T10:52:22Z</time>
      </trkpt>
      <trkpt lat="42.69565" lon="1.36856">
        <ele>2701.9223632812</ele>
        <time>2012-09-15T10:52:32Z</time>
      </trkpt>
      <trkpt lat="42.69565" lon="1.36856">
        <ele>2701.9223632812</ele>
        <time>2012-09-15T10:52:43Z</time>
      </trkpt>
      <trkpt lat="42.69564" lon="1.36857">
        <ele>2701.9223632812</ele>
        <time>2012-09-15T10:52:51Z</time>
      </trkpt>
      <trkpt lat="42.69562" lon="1.36855">
        <ele>2700.9614257812</ele>
        <time>2012-09-15T10:52:55Z</time>
      </trkpt>
      <trkpt lat="42.69561" lon="1.36847">
        <ele>2701.4418945312</ele>
        <time>2012-09-15T10:53:01Z</time>
      </trkpt>
      <trkpt lat="42.69562" lon="1.36843">
        <ele>2702.8837890625</ele>
        <time>2012-09-15T10:53:05Z</time>
      </trkpt>
      <trkpt lat="42.69561" lon="1.36836">
        <ele>2703.3642578125</ele>
        <time>2012-09-15T10:53:13Z</time>
      </trkpt>
      <trkpt lat="42.6956" lon="1.36831">
        <ele>2703.3642578125</ele>
        <time>2012-09-15T10:53:19Z</time>
      </trkpt>
      <trkpt lat="42.69558" lon="1.36827">
        <ele>2703.8452148438</ele>
        <time>2012-09-15T10:53:25Z</time>
      </trkpt>
      <trkpt lat="42.69556" lon="1.36824">
        <ele>2703.3642578125</ele>
        <time>2012-09-15T10:53:31Z</time>
      </trkpt>
      <trkpt lat="42.69553" lon="1.36821">
        <ele>2702.8837890625</ele>
        <time>2012-09-15T10:53:38Z</time>
      </trkpt>
      <trkpt lat="42.69551" lon="1.36819">
        <ele>2701.9223632812</ele>
        <time>2012-09-15T10:53:44Z</time>
      </trkpt>
      <trkpt lat="42.6955" lon="1.36818">
        <ele>2701.4418945312</ele>
        <time>2012-09-15T10:53:52Z</time>
      </trkpt>
      <trkpt lat="42.69549" lon="1.36817">
        <ele>2700.9614257812</ele>
        <time>2012-09-15T10:53:57Z</time>
      </trkpt>
      <trkpt lat="42.69549" lon="1.36815">
        <ele>2700</ele>
        <time>2012-09-15T10:54:03Z</time>
      </trkpt>
      <trkpt lat="42.69547" lon="1.36814">
        <ele>2697.5966796875</ele>
        <time>2012-09-15T10:54:13Z</time>
      </trkpt>
      <trkpt lat="42.69546" lon="1.36813">
        <ele>2695.673828125</ele>
        <time>2012-09-15T10:54:19Z</time>
      </trkpt>
      <trkpt lat="42.69544" lon="1.36812">
        <ele>2695.673828125</ele>
        <time>2012-09-15T10:54:24Z</time>
      </trkpt>
      <trkpt lat="42.69543" lon="1.36812">
        <ele>2693.7514648438</ele>
        <time>2012-09-15T10:54:31Z</time>
      </trkpt>
      <trkpt lat="42.6954" lon="1.36809">
        <ele>2692.7900390625</ele>
        <time>2012-09-15T10:54:36Z</time>
      </trkpt>
      <trkpt lat="42.69538" lon="1.36807">
        <ele>2692.7900390625</ele>
        <time>2012-09-15T10:54:42Z</time>
      </trkpt>
      <trkpt lat="42.69536" lon="1.36803">
        <ele>2691.8286132812</ele>
        <time>2012-09-15T10:54:48Z</time>
      </trkpt>
      <trkpt lat="42.69534" lon="1.36795">
        <ele>2691.8286132812</ele>
        <time>2012-09-15T10:54:55Z</time>
      </trkpt>
      <trkpt lat="42.69533" lon="1.36791">
        <ele>2691.8286132812</ele>
        <time>2012-09-15T10:55:00Z</time>
      </trkpt>
      <trkpt lat="42.69531" lon="1.36789">
        <ele>2692.3095703125</ele>
        <time>2012-09-15T10:55:06Z</time>
      </trkpt>
      <trkpt lat="42.69529" lon="1.36786">
        <ele>2692.3095703125</ele>
        <time>2012-09-15T10:55:12Z</time>
      </trkpt>
      <trkpt lat="42.69528" lon="1.36781">
        <ele>2692.7900390625</ele>
        <time>2012-09-15T10:55:17Z</time>
      </trkpt>
      <trkpt lat="42.69526" lon="1.36777">
        <ele>2691.8286132812</ele>
        <time>2012-09-15T10:55:24Z</time>
      </trkpt>
      <trkpt lat="42.69524" lon="1.36774">
        <ele>2690.8676757812</ele>
        <time>2012-09-15T10:55:31Z</time>
      </trkpt>
      <trkpt lat="42.69522" lon="1.3677">
        <ele>2690.8676757812</ele>
        <time>2012-09-15T10:55:36Z</time>
      </trkpt>
      <trkpt lat="42.69521" lon="1.36768">
        <ele>2690.8676757812</ele>
        <time>2012-09-15T10:55:40Z</time>
      </trkpt>
      <trkpt lat="42.69519" lon="1.36765">
        <ele>2690.8676757812</ele>
        <time>2012-09-15T10:55:45Z</time>
      </trkpt>
      <trkpt lat="42.69518" lon="1.36761">
        <ele>2691.3481445312</ele>
        <time>2012-09-15T10:55:50Z</time>
      </trkpt>
      <trkpt lat="42.69515" lon="1.36755">
        <ele>2692.7900390625</ele>
        <time>2012-09-15T10:55:56Z</time>
      </trkpt>
      <trkpt lat="42.69514" lon="1.36747">
        <ele>2693.7514648438</ele>
        <time>2012-09-15T10:56:03Z</time>
      </trkpt>
      <trkpt lat="42.69514" lon="1.36742">
        <ele>2696.1547851562</ele>
        <time>2012-09-15T10:56:09Z</time>
      </trkpt>
      <trkpt lat="42.69514" lon="1.36735">
        <ele>2698.0771484375</ele>
        <time>2012-09-15T10:56:17Z</time>
      </trkpt>
      <trkpt lat="42.69513" lon="1.36731">
        <ele>2698.5581054688</ele>
        <time>2012-09-15T10:56:22Z</time>
      </trkpt>
      <trkpt lat="42.69512" lon="1.36728">
        <ele>2699.0385742188</ele>
        <time>2012-09-15T10:56:28Z</time>
      </trkpt>
      <trkpt lat="42.69512" lon="1.36722">
        <ele>2700</ele>
        <time>2012-09-15T10:56:35Z</time>
      </trkpt>
      <trkpt lat="42.69512" lon="1.36722">
        <ele>2700.48046875</ele>
        <time>2012-09-15T10:56:43Z</time>
      </trkpt>
      <trkpt lat="42.69512" lon="1.36719">
        <ele>2700.48046875</ele>
        <time>2012-09-15T10:56:53Z</time>
      </trkpt>
      <trkpt lat="42.69513" lon="1.36717">
        <ele>2702.4033203125</ele>
        <time>2012-09-15T10:56:58Z</time>
      </trkpt>
      <trkpt lat="42.69513" lon="1.36714">
        <ele>2704.3256835938</ele>
        <time>2012-09-15T10:57:03Z</time>
      </trkpt>
      <trkpt lat="42.69513" lon="1.36709">
        <ele>2706.2485351562</ele>
        <time>2012-09-15T10:57:09Z</time>
      </trkpt>
      <trkpt lat="42.69513" lon="1.36706">
        <ele>2707.6904296875</ele>
        <time>2012-09-15T10:57:15Z</time>
      </trkpt>
      <trkpt lat="42.69511" lon="1.367">
        <ele>2708.65234375</ele>
        <time>2012-09-15T10:57:23Z</time>
      </trkpt>
      <trkpt lat="42.6951" lon="1.36695">
        <ele>2707.6904296875</ele>
        <time>2012-09-15T10:57:29Z</time>
      </trkpt>
      <trkpt lat="42.6951" lon="1.36692">
        <ele>2707.2094726562</ele>
        <time>2012-09-15T10:57:33Z</time>
      </trkpt>
      <trkpt lat="42.69509" lon="1.36687">
        <ele>2707.2094726562</ele>
        <time>2012-09-15T10:57:38Z</time>
      </trkpt>
      <trkpt lat="42.6951" lon="1.3668">
        <ele>2708.1713867188</ele>
        <time>2012-09-15T10:57:44Z</time>
      </trkpt>
      <trkpt lat="42.6951" lon="1.36674">
        <ele>2708.65234375</ele>
        <time>2012-09-15T10:57:50Z</time>
      </trkpt>
      <trkpt lat="42.69511" lon="1.36669">
        <ele>2709.1328125</ele>
        <time>2012-09-15T10:57:56Z</time>
      </trkpt>
      <trkpt lat="42.69511" lon="1.36665">
        <ele>2709.61328125</ele>
        <time>2012-09-15T10:58:01Z</time>
      </trkpt>
      <trkpt lat="42.69512" lon="1.36661">
        <ele>2710.0942382812</ele>
        <time>2012-09-15T10:58:06Z</time>
      </trkpt>
      <trkpt lat="42.69514" lon="1.36659">
        <ele>2711.0551757812</ele>
        <time>2012-09-15T10:58:12Z</time>
      </trkpt>
      <trkpt lat="42.69516" lon="1.36658">
        <ele>2713.4584960938</ele>
        <time>2012-09-15T10:58:17Z</time>
      </trkpt>
      <trkpt lat="42.69516" lon="1.36657">
        <ele>2714.419921875</ele>
        <time>2012-09-15T10:58:20Z</time>
      </trkpt>
      <trkpt lat="42.69518" lon="1.36656">
        <ele>2716.8232421875</ele>
        <time>2012-09-15T10:58:25Z</time>
      </trkpt>
      <trkpt lat="42.69519" lon="1.36656">
        <ele>2716.8232421875</ele>
        <time>2012-09-15T10:58:29Z</time>
      </trkpt>
      <trkpt lat="42.69521" lon="1.36655">
        <ele>2718.7456054688</ele>
        <time>2012-09-15T10:58:36Z</time>
      </trkpt>
      <trkpt lat="42.69522" lon="1.36655">
        <ele>2719.2265625</ele>
        <time>2012-09-15T10:58:45Z</time>
      </trkpt>
      <trkpt lat="42.69522" lon="1.36654">
        <ele>2718.7456054688</ele>
        <time>2012-09-15T10:58:54Z</time>
      </trkpt>
      <trkpt lat="42.69523" lon="1.36654">
        <ele>2718.7456054688</ele>
        <time>2012-09-15T10:59:00Z</time>
      </trkpt>
      <trkpt lat="42.69524" lon="1.36655">
        <ele>2718.7456054688</ele>
        <time>2012-09-15T10:59:06Z</time>
      </trkpt>
      <trkpt lat="42.69523" lon="1.36655">
        <ele>2718.2651367188</ele>
        <time>2012-09-15T10:59:17Z</time>
      </trkpt>
      <trkpt lat="42.69524" lon="1.36655">
        <ele>2717.3037109375</ele>
        <time>2012-09-15T10:59:32Z</time>
      </trkpt>
      <trkpt lat="42.69521" lon="1.36655">
        <ele>2715.3813476562</ele>
        <time>2012-09-15T10:59:39Z</time>
      </trkpt>
      <trkpt lat="42.69521" lon="1.36655">
        <ele>2714.419921875</ele>
        <time>2012-09-15T10:59:47Z</time>
      </trkpt>
      <trkpt lat="42.69519" lon="1.36653">
        <ele>2713.4584960938</ele>
        <time>2012-09-15T10:59:54Z</time>
      </trkpt>
      <trkpt lat="42.69518" lon="1.3665">
        <ele>2712.4970703125</ele>
        <time>2012-09-15T10:59:59Z</time>
      </trkpt>
      <trkpt lat="42.69516" lon="1.36648">
        <ele>2712.0166015625</ele>
        <time>2012-09-15T11:00:06Z</time>
      </trkpt>
      <trkpt lat="42.69516" lon="1.36648">
        <ele>2712.0166015625</ele>
        <time>2012-09-15T11:00:15Z</time>
      </trkpt>
      <trkpt lat="42.69516" lon="1.36647">
        <ele>2712.0166015625</ele>
        <time>2012-09-15T11:00:29Z</time>
      </trkpt>
      <trkpt lat="42.69514" lon="1.36646">
        <ele>2710.5747070312</ele>
        <time>2012-09-15T11:00:34Z</time>
      </trkpt>
      <trkpt lat="42.69512" lon="1.36644">
        <ele>2710.0942382812</ele>
        <time>2012-09-15T11:00:40Z</time>
      </trkpt>
      <trkpt lat="42.6951" lon="1.36639">
        <ele>2708.65234375</ele>
        <time>2012-09-15T11:00:47Z</time>
      </trkpt>
      <trkpt lat="42.69508" lon="1.3664">
        <ele>2707.2094726562</ele>
        <time>2012-09-15T11:00:54Z</time>
      </trkpt>
      <trkpt lat="42.69507" lon="1.36642">
        <ele>2706.2485351562</ele>
        <time>2012-09-15T11:01:01Z</time>
      </trkpt>
      <trkpt lat="42.69506" lon="1.36644">
        <ele>2704.8061523438</ele>
        <time>2012-09-15T11:01:09Z</time>
      </trkpt>
      <trkpt lat="42.69503" lon="1.36646">
        <ele>2702.8837890625</ele>
        <time>2012-09-15T11:01:18Z</time>
      </trkpt>
      <trkpt lat="42.69501" lon="1.36645">
        <ele>2701.4418945312</ele>
        <time>2012-09-15T11:01:25Z</time>
      </trkpt>
      <trkpt lat="42.695" lon="1.36647">
        <ele>2699.0385742188</ele>
        <time>2012-09-15T11:01:31Z</time>
      </trkpt>
      <trkpt lat="42.69499" lon="1.36649">
        <ele>2697.1157226562</ele>
        <time>2012-09-15T11:01:38Z</time>
      </trkpt>
      <trkpt lat="42.69497" lon="1.36647">
        <ele>2694.712890625</ele>
        <time>2012-09-15T11:01:45Z</time>
      </trkpt>
      <trkpt lat="42.69495" lon="1.36646">
        <ele>2693.7514648438</ele>
        <time>2012-09-15T11:01:50Z</time>
      </trkpt>
      <trkpt lat="42.69493" lon="1.36648">
        <ele>2692.3095703125</ele>
        <time>2012-09-15T11:01:56Z</time>
      </trkpt>
      <trkpt lat="42.69493" lon="1.36651">
        <ele>2691.3481445312</ele>
        <time>2012-09-15T11:02:01Z</time>
      </trkpt>
      <trkpt lat="42.69493" lon="1.36657">
        <ele>2691.3481445312</ele>
        <time>2012-09-15T11:02:08Z</time>
      </trkpt>
      <trkpt lat="42.69492" lon="1.36664">
        <ele>2691.3481445312</ele>
        <time>2012-09-15T11:02:16Z</time>
      </trkpt>
      <trkpt lat="42.69491" lon="1.3667">
        <ele>2689.4252929688</ele>
        <time>2012-09-15T11:02:22Z</time>
      </trkpt>
      <trkpt lat="42.69491" lon="1.36676">
        <ele>2687.9833984375</ele>
        <time>2012-09-15T11:02:27Z</time>
      </trkpt>
      <trkpt lat="42.6949" lon="1.3668">
        <ele>2687.5029296875</ele>
        <time>2012-09-15T11:02:31Z</time>
      </trkpt>
      <trkpt lat="42.69489" lon="1.36683">
        <ele>2687.5029296875</ele>
        <time>2012-09-15T11:02:38Z</time>
      </trkpt>
      <trkpt lat="42.69488" lon="1.36685">
        <ele>2687.0224609375</ele>
        <time>2012-09-15T11:02:48Z</time>
      </trkpt>
      <trkpt lat="42.69488" lon="1.36687">
        <ele>2686.0610351562</ele>
        <time>2012-09-15T11:02:55Z</time>
      </trkpt>
      <trkpt lat="42.69487" lon="1.3669">
        <ele>2685.099609375</ele>
        <time>2012-09-15T11:03:00Z</time>
      </trkpt>
      <trkpt lat="42.69485" lon="1.36694">
        <ele>2684.1381835938</ele>
        <time>2012-09-15T11:03:07Z</time>
      </trkpt>
      <trkpt lat="42.69484" lon="1.36693">
        <ele>2683.6577148438</ele>
        <time>2012-09-15T11:03:12Z</time>
      </trkpt>
      <trkpt lat="42.69482" lon="1.3669">
        <ele>2683.1772460938</ele>
        <time>2012-09-15T11:03:18Z</time>
      </trkpt>
      <trkpt lat="42.69482" lon="1.3669">
        <ele>2681.2543945312</ele>
        <time>2012-09-15T11:03:25Z</time>
      </trkpt>
      <trkpt lat="42.69481" lon="1.36687">
        <ele>2681.2543945312</ele>
        <time>2012-09-15T11:03:30Z</time>
      </trkpt>
      <trkpt lat="42.69479" lon="1.36685">
        <ele>2681.2543945312</ele>
        <time>2012-09-15T11:03:35Z</time>
      </trkpt>
      <trkpt lat="42.69478" lon="1.36684">
        <ele>2681.2543945312</ele>
        <time>2012-09-15T11:03:40Z</time>
      </trkpt>
      <trkpt lat="42.69477" lon="1.36686">
        <ele>2680.7739257812</ele>
        <time>2012-09-15T11:03:46Z</time>
      </trkpt>
      <trkpt lat="42.69474" lon="1.36686">
        <ele>2678.8510742188</ele>
        <time>2012-09-15T11:03:52Z</time>
      </trkpt>
      <trkpt lat="42.69473" lon="1.36689">
        <ele>2675.966796875</ele>
        <time>2012-09-15T11:03:59Z</time>
      </trkpt>
      <trkpt lat="42.69471" lon="1.36689">
        <ele>2672.6020507812</ele>
        <time>2012-09-15T11:04:04Z</time>
      </trkpt>
      <trkpt lat="42.6947" lon="1.36689">
        <ele>2669.2377929688</ele>
        <time>2012-09-15T11:04:10Z</time>
      </trkpt>
      <trkpt lat="42.69468" lon="1.36691">
        <ele>2668.7568359375</ele>
        <time>2012-09-15T11:04:21Z</time>
      </trkpt>
      <trkpt lat="42.69466" lon="1.36694">
        <ele>2667.7958984375</ele>
        <time>2012-09-15T11:04:27Z</time>
      </trkpt>
      <trkpt lat="42.69466" lon="1.36695">
        <ele>2664.4311523438</ele>
        <time>2012-09-15T11:04:31Z</time>
      </trkpt>
      <trkpt lat="42.69465" lon="1.36695">
        <ele>2662.0278320312</ele>
        <time>2012-09-15T11:04:43Z</time>
      </trkpt>
      <trkpt lat="42.69463" lon="1.36694">
        <ele>2661.5473632812</ele>
        <time>2012-09-15T11:04:52Z</time>
      </trkpt>
      <trkpt lat="42.6946" lon="1.36698">
        <ele>2662.9892578125</ele>
        <time>2012-09-15T11:05:00Z</time>
      </trkpt>
      <trkpt lat="42.69457" lon="1.36696">
        <ele>2662.0278320312</ele>
        <time>2012-09-15T11:05:06Z</time>
      </trkpt>
      <trkpt lat="42.69456" lon="1.36693">
        <ele>2660.5859375</ele>
        <time>2012-09-15T11:05:12Z</time>
      </trkpt>
      <trkpt lat="42.69455" lon="1.36694">
        <ele>2660.10546875</ele>
        <time>2012-09-15T11:05:20Z</time>
      </trkpt>
      <trkpt lat="42.69453" lon="1.36697">
        <ele>2659.1440429688</ele>
        <time>2012-09-15T11:05:25Z</time>
      </trkpt>
      <trkpt lat="42.69452" lon="1.367">
        <ele>2658.6630859375</ele>
        <time>2012-09-15T11:05:30Z</time>
      </trkpt>
      <trkpt lat="42.69449" lon="1.36708">
        <ele>2657.2211914062</ele>
        <time>2012-09-15T11:05:36Z</time>
      </trkpt>
      <trkpt lat="42.69447" lon="1.3671">
        <ele>2654.818359375</ele>
        <time>2012-09-15T11:05:40Z</time>
      </trkpt>
      <trkpt lat="42.69444" lon="1.36713">
        <ele>2651.9340820312</ele>
        <time>2012-09-15T11:05:45Z</time>
      </trkpt>
      <trkpt lat="42.69443" lon="1.36713">
        <ele>2651.4536132812</ele>
        <time>2012-09-15T11:05:50Z</time>
      </trkpt>
      <trkpt lat="42.69442" lon="1.36717">
        <ele>2649.5307617188</ele>
        <time>2012-09-15T11:05:56Z</time>
      </trkpt>
      <trkpt lat="42.69441" lon="1.36724">
        <ele>2648.0888671875</ele>
        <time>2012-09-15T11:06:03Z</time>
      </trkpt>
      <trkpt lat="42.69443" lon="1.36728">
        <ele>2648.0888671875</ele>
        <time>2012-09-15T11:06:08Z</time>
      </trkpt>
      <trkpt lat="42.69444" lon="1.36734">
        <ele>2647.6083984375</ele>
        <time>2012-09-15T11:06:14Z</time>
      </trkpt>
      <trkpt lat="42.69446" lon="1.3674">
        <ele>2647.1279296875</ele>
        <time>2012-09-15T11:06:20Z</time>
      </trkpt>
      <trkpt lat="42.69447" lon="1.36746">
        <ele>2646.6469726562</ele>
        <time>2012-09-15T11:06:27Z</time>
      </trkpt>
      <trkpt lat="42.69446" lon="1.36748">
        <ele>2645.205078125</ele>
        <time>2012-09-15T11:06:33Z</time>
      </trkpt>
      <trkpt lat="42.69444" lon="1.36747">
        <ele>2644.2436523438</ele>
        <time>2012-09-15T11:06:39Z</time>
      </trkpt>
      <trkpt lat="42.69441" lon="1.36745">
        <ele>2642.8012695312</ele>
        <time>2012-09-15T11:06:44Z</time>
      </trkpt>
      <trkpt lat="42.69441" lon="1.36747">
        <ele>2641.83984375</ele>
        <time>2012-09-15T11:06:50Z</time>
      </trkpt>
      <trkpt lat="42.69442" lon="1.36749">
        <ele>2641.359375</ele>
        <time>2012-09-15T11:06:56Z</time>
      </trkpt>
      <trkpt lat="42.69444" lon="1.36754">
        <ele>2640.87890625</ele>
        <time>2012-09-15T11:07:02Z</time>
      </trkpt>
      <trkpt lat="42.69444" lon="1.36757">
        <ele>2639.4370117188</ele>
        <time>2012-09-15T11:07:08Z</time>
      </trkpt>
      <trkpt lat="42.69446" lon="1.36761">
        <ele>2640.3979492188</ele>
        <time>2012-09-15T11:07:16Z</time>
      </trkpt>
      <trkpt lat="42.69447" lon="1.36766">
        <ele>2639.4370117188</ele>
        <time>2012-09-15T11:07:22Z</time>
      </trkpt>
      <trkpt lat="42.69448" lon="1.36769">
        <ele>2637.5141601562</ele>
        <time>2012-09-15T11:07:27Z</time>
      </trkpt>
      <trkpt lat="42.69448" lon="1.36771">
        <ele>2635.5913085938</ele>
        <time>2012-09-15T11:07:32Z</time>
      </trkpt>
      <trkpt lat="42.6945" lon="1.36776">
        <ele>2634.1494140625</ele>
        <time>2012-09-15T11:07:37Z</time>
      </trkpt>
      <trkpt lat="42.6945" lon="1.36779">
        <ele>2633.1884765625</ele>
        <time>2012-09-15T11:07:43Z</time>
      </trkpt>
      <trkpt lat="42.69453" lon="1.36783">
        <ele>2632.7075195312</ele>
        <time>2012-09-15T11:07:47Z</time>
      </trkpt>
      <trkpt lat="42.69454" lon="1.36791">
        <ele>2631.7465820312</ele>
        <time>2012-09-15T11:07:53Z</time>
      </trkpt>
      <trkpt lat="42.69455" lon="1.36792">
        <ele>2631.265625</ele>
        <time>2012-09-15T11:07:54Z</time>
      </trkpt>
      <trkpt lat="42.69457" lon="1.36801">
        <ele>2630.3041992188</ele>
        <time>2012-09-15T11:08:01Z</time>
      </trkpt>
      <trkpt lat="42.69458" lon="1.36805">
        <ele>2629.8237304688</ele>
        <time>2012-09-15T11:08:06Z</time>
      </trkpt>
      <trkpt lat="42.6946" lon="1.3681">
        <ele>2629.8237304688</ele>
        <time>2012-09-15T11:08:11Z</time>
      </trkpt>
      <trkpt lat="42.69461" lon="1.36816">
        <ele>2629.3432617188</ele>
        <time>2012-09-15T11:08:17Z</time>
      </trkpt>
      <trkpt lat="42.69464" lon="1.36823">
        <ele>2629.3432617188</ele>
        <time>2012-09-15T11:08:23Z</time>
      </trkpt>
      <trkpt lat="42.69468" lon="1.36831">
        <ele>2629.3432617188</ele>
        <time>2012-09-15T11:08:30Z</time>
      </trkpt>
      <trkpt lat="42.69468" lon="1.36834">
        <ele>2628.3818359375</ele>
        <time>2012-09-15T11:08:33Z</time>
      </trkpt>
      <trkpt lat="42.69469" lon="1.36839">
        <ele>2627.9008789062</ele>
        <time>2012-09-15T11:08:37Z</time>
      </trkpt>
      <trkpt lat="42.6947" lon="1.3685">
        <ele>2626.9399414062</ele>
        <time>2012-09-15T11:08:45Z</time>
      </trkpt>
      <trkpt lat="42.69473" lon="1.36854">
        <ele>2625.978515625</ele>
        <time>2012-09-15T11:08:51Z</time>
      </trkpt>
      <trkpt lat="42.69475" lon="1.3686">
        <ele>2625.498046875</ele>
        <time>2012-09-15T11:08:57Z</time>
      </trkpt>
      <trkpt lat="42.69475" lon="1.36864">
        <ele>2625.0170898438</ele>
        <time>2012-09-15T11:09:01Z</time>
      </trkpt>
      <trkpt lat="42.69477" lon="1.36871">
        <ele>2624.5366210938</ele>
        <time>2012-09-15T11:09:08Z</time>
      </trkpt>
      <trkpt lat="42.69476" lon="1.36875">
        <ele>2622.6137695312</ele>
        <time>2012-09-15T11:09:13Z</time>
      </trkpt>
      <trkpt lat="42.69477" lon="1.36881">
        <ele>2621.6528320312</ele>
        <time>2012-09-15T11:09:19Z</time>
      </trkpt>
      <trkpt lat="42.69476" lon="1.36888">
        <ele>2621.171875</ele>
        <time>2012-09-15T11:09:26Z</time>
      </trkpt>
      <trkpt lat="42.69476" lon="1.36895">
        <ele>2619.7299804688</ele>
        <time>2012-09-15T11:09:33Z</time>
      </trkpt>
      <trkpt lat="42.69476" lon="1.36903">
        <ele>2619.7299804688</ele>
        <time>2012-09-15T11:09:38Z</time>
      </trkpt>
      <trkpt lat="42.69477" lon="1.36908">
        <ele>2618.2880859375</ele>
        <time>2012-09-15T11:09:43Z</time>
      </trkpt>
      <trkpt lat="42.69476" lon="1.36911">
        <ele>2616.8461914062</ele>
        <time>2012-09-15T11:09:47Z</time>
      </trkpt>
      <trkpt lat="42.69476" lon="1.36917">
        <ele>2615.884765625</ele>
        <time>2012-09-15T11:09:53Z</time>
      </trkpt>
      <trkpt lat="42.69476" lon="1.36922">
        <ele>2614.9233398438</ele>
        <time>2012-09-15T11:09:58Z</time>
      </trkpt>
      <trkpt lat="42.69479" lon="1.3693">
        <ele>2614.9233398438</ele>
        <time>2012-09-15T11:10:04Z</time>
      </trkpt>
      <trkpt lat="42.69479" lon="1.36936">
        <ele>2613.9624023438</ele>
        <time>2012-09-15T11:10:09Z</time>
      </trkpt>
      <trkpt lat="42.69479" lon="1.36941">
        <ele>2613.4814453125</ele>
        <time>2012-09-15T11:10:14Z</time>
      </trkpt>
      <trkpt lat="42.69479" lon="1.36948">
        <ele>2612.5200195312</ele>
        <time>2012-09-15T11:10:19Z</time>
      </trkpt>
      <trkpt lat="42.69481" lon="1.36953">
        <ele>2612.5200195312</ele>
        <time>2012-09-15T11:10:24Z</time>
      </trkpt>
      <trkpt lat="42.69482" lon="1.36959">
        <ele>2612.5200195312</ele>
        <time>2012-09-15T11:10:30Z</time>
      </trkpt>
      <trkpt lat="42.69483" lon="1.36964">
        <ele>2612.0395507812</ele>
        <time>2012-09-15T11:10:36Z</time>
      </trkpt>
      <trkpt lat="42.69485" lon="1.3697">
        <ele>2611.0776367188</ele>
        <time>2012-09-15T11:10:42Z</time>
      </trkpt>
      <trkpt lat="42.69485" lon="1.36974">
        <ele>2611.0776367188</ele>
        <time>2012-09-15T11:10:47Z</time>
      </trkpt>
      <trkpt lat="42.69485" lon="1.36978">
        <ele>2611.0776367188</ele>
        <time>2012-09-15T11:10:52Z</time>
      </trkpt>
      <trkpt lat="42.69485" lon="1.36987">
        <ele>2611.0776367188</ele>
        <time>2012-09-15T11:10:59Z</time>
      </trkpt>
      <trkpt lat="42.69485" lon="1.36991">
        <ele>2611.0776367188</ele>
        <time>2012-09-15T11:11:02Z</time>
      </trkpt>
      <trkpt lat="42.69485" lon="1.36996">
        <ele>2610.1166992188</ele>
        <time>2012-09-15T11:11:05Z</time>
      </trkpt>
      <trkpt lat="42.69485" lon="1.37003">
        <ele>2609.6357421875</ele>
        <time>2012-09-15T11:11:11Z</time>
      </trkpt>
      <trkpt lat="42.69484" lon="1.3701">
        <ele>2609.1552734375</ele>
        <time>2012-09-15T11:11:18Z</time>
      </trkpt>
      <trkpt lat="42.69484" lon="1.37018">
        <ele>2608.1938476562</ele>
        <time>2012-09-15T11:11:25Z</time>
      </trkpt>
      <trkpt lat="42.69486" lon="1.37026">
        <ele>2606.271484375</ele>
        <time>2012-09-15T11:11:30Z</time>
      </trkpt>
      <trkpt lat="42.69486" lon="1.37033">
        <ele>2605.3100585938</ele>
        <time>2012-09-15T11:11:35Z</time>
      </trkpt>
      <trkpt lat="42.69486" lon="1.37041">
        <ele>2604.3486328125</ele>
        <time>2012-09-15T11:11:42Z</time>
      </trkpt>
      <trkpt lat="42.69486" lon="1.37048">
        <ele>2604.3486328125</ele>
        <time>2012-09-15T11:11:47Z</time>
      </trkpt>
      <trkpt lat="42.69485" lon="1.37055">
        <ele>2603.3872070312</ele>
        <time>2012-09-15T11:11:52Z</time>
      </trkpt>
      <trkpt lat="42.69485" lon="1.37057">
        <ele>2603.3872070312</ele>
        <time>2012-09-15T11:11:54Z</time>
      </trkpt>
      <trkpt lat="42.69485" lon="1.37065">
        <ele>2603.3872070312</ele>
        <time>2012-09-15T11:12:01Z</time>
      </trkpt>
      <trkpt lat="42.69486" lon="1.37075">
        <ele>2603.3872070312</ele>
        <time>2012-09-15T11:12:09Z</time>
      </trkpt>
      <trkpt lat="42.69486" lon="1.37083">
        <ele>2602.9067382812</ele>
        <time>2012-09-15T11:12:14Z</time>
      </trkpt>
      <trkpt lat="42.69486" lon="1.37085">
        <ele>2603.3872070312</ele>
        <time>2012-09-15T11:12:16Z</time>
      </trkpt>
      <trkpt lat="42.69486" lon="1.37089">
        <ele>2603.3872070312</ele>
        <time>2012-09-15T11:12:21Z</time>
      </trkpt>
      <trkpt lat="42.69487" lon="1.37094">
        <ele>2602.4262695312</ele>
        <time>2012-09-15T11:12:26Z</time>
      </trkpt>
      <trkpt lat="42.69488" lon="1.37099">
        <ele>2602.4262695312</ele>
        <time>2012-09-15T11:12:30Z</time>
      </trkpt>
      <trkpt lat="42.69487" lon="1.37107">
        <ele>2601.9453125</ele>
        <time>2012-09-15T11:12:36Z</time>
      </trkpt>
      <trkpt lat="42.69488" lon="1.37114">
        <ele>2601.46484375</ele>
        <time>2012-09-15T11:12:41Z</time>
      </trkpt>
      <trkpt lat="42.69489" lon="1.37122">
        <ele>2600.984375</ele>
        <time>2012-09-15T11:12:47Z</time>
      </trkpt>
      <trkpt lat="42.69489" lon="1.37131">
        <ele>2600.5034179688</ele>
        <time>2012-09-15T11:12:53Z</time>
      </trkpt>
      <trkpt lat="42.6949" lon="1.37142">
        <ele>2599.5419921875</ele>
        <time>2012-09-15T11:13:01Z</time>
      </trkpt>
      <trkpt lat="42.69488" lon="1.37153">
        <ele>2599.5419921875</ele>
        <time>2012-09-15T11:13:08Z</time>
      </trkpt>
      <trkpt lat="42.69487" lon="1.37161">
        <ele>2599.0615234375</ele>
        <time>2012-09-15T11:13:14Z</time>
      </trkpt>
      <trkpt lat="42.69485" lon="1.37165">
        <ele>2597.6196289062</ele>
        <time>2012-09-15T11:13:19Z</time>
      </trkpt>
      <trkpt lat="42.69484" lon="1.37169">
        <ele>2597.138671875</ele>
        <time>2012-09-15T11:13:24Z</time>
      </trkpt>
      <trkpt lat="42.69484" lon="1.37175">
        <ele>2598.1000976562</ele>
        <time>2012-09-15T11:13:29Z</time>
      </trkpt>
      <trkpt lat="42.69484" lon="1.37181">
        <ele>2598.1000976562</ele>
        <time>2012-09-15T11:13:34Z</time>
      </trkpt>
      <trkpt lat="42.69483" lon="1.37187">
        <ele>2598.1000976562</ele>
        <time>2012-09-15T11:13:38Z</time>
      </trkpt>
      <trkpt lat="42.69482" lon="1.37196">
        <ele>2596.658203125</ele>
        <time>2012-09-15T11:13:45Z</time>
      </trkpt>
      <trkpt lat="42.69482" lon="1.37202">
        <ele>2596.177734375</ele>
        <time>2012-09-15T11:13:49Z</time>
      </trkpt>
      <trkpt lat="42.69482" lon="1.37213">
        <ele>2595.6970214844</ele>
        <time>2012-09-15T11:13:57Z</time>
      </trkpt>
      <trkpt lat="42.69481" lon="1.37222">
        <ele>2594.2548828125</ele>
        <time>2012-09-15T11:14:03Z</time>
      </trkpt>
      <trkpt lat="42.69481" lon="1.37228">
        <ele>2594.2548828125</ele>
        <time>2012-09-15T11:14:07Z</time>
      </trkpt>
      <trkpt lat="42.6948" lon="1.3723">
        <ele>2593.7744140625</ele>
        <time>2012-09-15T11:14:09Z</time>
      </trkpt>
      <trkpt lat="42.69478" lon="1.37237">
        <ele>2592.8129882812</ele>
        <time>2012-09-15T11:14:16Z</time>
      </trkpt>
      <trkpt lat="42.69477" lon="1.37244">
        <ele>2590.8903808594</ele>
        <time>2012-09-15T11:14:21Z</time>
      </trkpt>
      <trkpt lat="42.69477" lon="1.37247">
        <ele>2590.4096679688</ele>
        <time>2012-09-15T11:14:23Z</time>
      </trkpt>
      <trkpt lat="42.69477" lon="1.37252">
        <ele>2590.4096679688</ele>
        <time>2012-09-15T11:14:27Z</time>
      </trkpt>
      <trkpt lat="42.69476" lon="1.37258">
        <ele>2591.8518066406</ele>
        <time>2012-09-15T11:14:32Z</time>
      </trkpt>
      <trkpt lat="42.69475" lon="1.37263">
        <ele>2591.37109375</ele>
        <time>2012-09-15T11:14:38Z</time>
      </trkpt>
      <trkpt lat="42.69475" lon="1.37269">
        <ele>2591.37109375</ele>
        <time>2012-09-15T11:14:43Z</time>
      </trkpt>
      <trkpt lat="42.69475" lon="1.37278">
        <ele>2590.4096679688</ele>
        <time>2012-09-15T11:14:49Z</time>
      </trkpt>
      <trkpt lat="42.69474" lon="1.37282">
        <ele>2588.4873046875</ele>
        <time>2012-09-15T11:14:54Z</time>
      </trkpt>
      <trkpt lat="42.69473" lon="1.37286">
        <ele>2587.5256347656</ele>
        <time>2012-09-15T11:15:00Z</time>
      </trkpt>
      <trkpt lat="42.69474" lon="1.37293">
        <ele>2589.4484863281</ele>
        <time>2012-09-15T11:15:08Z</time>
      </trkpt>
      <trkpt lat="42.69475" lon="1.37299">
        <ele>2590.4096679688</ele>
        <time>2012-09-15T11:15:13Z</time>
      </trkpt>
      <trkpt lat="42.69475" lon="1.37305">
        <ele>2589.9291992188</ele>
        <time>2012-09-15T11:15:18Z</time>
      </trkpt>
      <trkpt lat="42.69475" lon="1.37313">
        <ele>2590.4096679688</ele>
        <time>2012-09-15T11:15:25Z</time>
      </trkpt>
      <trkpt lat="42.69474" lon="1.3732">
        <ele>2590.4096679688</ele>
        <time>2012-09-15T11:15:30Z</time>
      </trkpt>
      <trkpt lat="42.69475" lon="1.37326">
        <ele>2590.4096679688</ele>
        <time>2012-09-15T11:15:36Z</time>
      </trkpt>
      <trkpt lat="42.69475" lon="1.37329">
        <ele>2590.4096679688</ele>
        <time>2012-09-15T11:15:40Z</time>
      </trkpt>
      <trkpt lat="42.69476" lon="1.37332">
        <ele>2589.9291992188</ele>
        <time>2012-09-15T11:15:45Z</time>
      </trkpt>
      <trkpt lat="42.69475" lon="1.37337">
        <ele>2590.8903808594</ele>
        <time>2012-09-15T11:15:50Z</time>
      </trkpt>
      <trkpt lat="42.69475" lon="1.37336">
        <ele>2589.9291992188</ele>
        <time>2012-09-15T11:15:58Z</time>
      </trkpt>
      <trkpt lat="42.69476" lon="1.37337">
        <ele>2589.4484863281</ele>
        <time>2012-09-15T11:16:08Z</time>
      </trkpt>
      <trkpt lat="42.69476" lon="1.3734">
        <ele>2589.4484863281</ele>
        <time>2012-09-15T11:16:13Z</time>
      </trkpt>
      <trkpt lat="42.69476" lon="1.37341">
        <ele>2589.9291992188</ele>
        <time>2012-09-15T11:16:17Z</time>
      </trkpt>
      <trkpt lat="42.69475" lon="1.37342">
        <ele>2592.8129882812</ele>
        <time>2012-09-15T11:37:05Z</time>
      </trkpt>
      <trkpt lat="42.69475" lon="1.37343">
        <ele>2592.8129882812</ele>
        <time>2012-09-15T11:37:06Z</time>
      </trkpt>
      <trkpt lat="42.69476" lon="1.37345">
        <ele>2592.3325195312</ele>
        <time>2012-09-15T11:37:09Z</time>
      </trkpt>
      <trkpt lat="42.69477" lon="1.37348">
        <ele>2590.8903808594</ele>
        <time>2012-09-15T11:37:14Z</time>
      </trkpt>
      <trkpt lat="42.69477" lon="1.37349">
        <ele>2589.4484863281</ele>
        <time>2012-09-15T11:37:19Z</time>
      </trkpt>
      <trkpt lat="42.69479" lon="1.37354">
        <ele>2587.044921875</ele>
        <time>2012-09-15T11:37:27Z</time>
      </trkpt>
      <trkpt lat="42.69482" lon="1.37353">
        <ele>2586.5642089844</ele>
        <time>2012-09-15T11:37:32Z</time>
      </trkpt>
      <trkpt lat="42.69485" lon="1.37351">
        <ele>2584.6418457031</ele>
        <time>2012-09-15T11:37:39Z</time>
      </trkpt>
      <trkpt lat="42.69487" lon="1.37355">
        <ele>2582.2385253906</ele>
        <time>2012-09-15T11:37:46Z</time>
      </trkpt>
      <trkpt lat="42.69485" lon="1.37358">
        <ele>2580.3159179688</ele>
        <time>2012-09-15T11:37:51Z</time>
      </trkpt>
      <trkpt lat="42.69485" lon="1.37363">
        <ele>2577.9125976562</ele>
        <time>2012-09-15T11:37:58Z</time>
      </trkpt>
      <trkpt lat="42.69487" lon="1.37371">
        <ele>2574.5480957031</ele>
        <time>2012-09-15T11:38:05Z</time>
      </trkpt>
      <trkpt lat="42.6949" lon="1.37379">
        <ele>2571.6638183594</ele>
        <time>2012-09-15T11:38:12Z</time>
      </trkpt>
      <trkpt lat="42.6949" lon="1.37381">
        <ele>2571.6638183594</ele>
        <time>2012-09-15T11:38:13Z</time>
      </trkpt>
      <trkpt lat="42.69493" lon="1.37384">
        <ele>2571.1831054688</ele>
        <time>2012-09-15T11:38:19Z</time>
      </trkpt>
      <trkpt lat="42.69497" lon="1.37384">
        <ele>2568.7800292969</ele>
        <time>2012-09-15T11:38:26Z</time>
      </trkpt>
      <trkpt lat="42.69501" lon="1.37382">
        <ele>2566.3767089844</ele>
        <time>2012-09-15T11:38:31Z</time>
      </trkpt>
      <trkpt lat="42.69504" lon="1.37383">
        <ele>2564.9348144531</ele>
        <time>2012-09-15T11:38:35Z</time>
      </trkpt>
      <trkpt lat="42.69506" lon="1.37389">
        <ele>2562.5314941406</ele>
        <time>2012-09-15T11:38:41Z</time>
      </trkpt>
      <trkpt lat="42.69508" lon="1.37397">
        <ele>2559.6474609375</ele>
        <time>2012-09-15T11:38:47Z</time>
      </trkpt>
      <trkpt lat="42.69509" lon="1.37401">
        <ele>2557.2443847656</ele>
        <time>2012-09-15T11:38:50Z</time>
      </trkpt>
      <trkpt lat="42.69512" lon="1.37407">
        <ele>2554.8408203125</ele>
        <time>2012-09-15T11:38:55Z</time>
      </trkpt>
      <trkpt lat="42.69514" lon="1.37417">
        <ele>2550.9956054688</ele>
        <time>2012-09-15T11:39:03Z</time>
      </trkpt>
      <trkpt lat="42.69518" lon="1.37422">
        <ele>2547.6311035156</ele>
        <time>2012-09-15T11:39:10Z</time>
      </trkpt>
      <trkpt lat="42.69522" lon="1.37425">
        <ele>2543.7858886719</ele>
        <time>2012-09-15T11:39:16Z</time>
      </trkpt>
      <trkpt lat="42.69526" lon="1.3743">
        <ele>2541.3825683594</ele>
        <time>2012-09-15T11:39:21Z</time>
      </trkpt>
      <trkpt lat="42.69529" lon="1.37437">
        <ele>2538.9790039062</ele>
        <time>2012-09-15T11:39:28Z</time>
      </trkpt>
      <trkpt lat="42.69532" lon="1.37443">
        <ele>2536.0952148438</ele>
        <time>2012-09-15T11:39:36Z</time>
      </trkpt>
      <trkpt lat="42.69535" lon="1.37447">
        <ele>2533.6918945312</ele>
        <time>2012-09-15T11:39:41Z</time>
      </trkpt>
      <trkpt lat="42.6954" lon="1.37453">
        <ele>2530.8081054688</ele>
        <time>2012-09-15T11:39:47Z</time>
      </trkpt>
      <trkpt lat="42.69542" lon="1.37457">
        <ele>2528.4047851562</ele>
        <time>2012-09-15T11:39:52Z</time>
      </trkpt>
      <trkpt lat="42.69545" lon="1.37462">
        <ele>2526.4821777344</ele>
        <time>2012-09-15T11:39:58Z</time>
      </trkpt>
      <trkpt lat="42.69547" lon="1.37467">
        <ele>2524.5595703125</ele>
        <time>2012-09-15T11:40:04Z</time>
      </trkpt>
      <trkpt lat="42.69549" lon="1.37473">
        <ele>2522.1560058594</ele>
        <time>2012-09-15T11:40:11Z</time>
      </trkpt>
      <trkpt lat="42.69551" lon="1.37474">
        <ele>2521.1945800781</ele>
        <time>2012-09-15T11:40:17Z</time>
      </trkpt>
      <trkpt lat="42.69552" lon="1.37477">
        <ele>2519.7526855469</ele>
        <time>2012-09-15T11:40:22Z</time>
      </trkpt>
      <trkpt lat="42.69554" lon="1.37477">
        <ele>2518.3107910156</ele>
        <time>2012-09-15T11:40:30Z</time>
      </trkpt>
      <trkpt lat="42.69556" lon="1.37481">
        <ele>2517.3493652344</ele>
        <time>2012-09-15T11:40:36Z</time>
      </trkpt>
      <trkpt lat="42.69559" lon="1.37484">
        <ele>2515.9074707031</ele>
        <time>2012-09-15T11:40:42Z</time>
      </trkpt>
      <trkpt lat="42.69563" lon="1.37487">
        <ele>2513.5041503906</ele>
        <time>2012-09-15T11:40:48Z</time>
      </trkpt>
      <trkpt lat="42.69566" lon="1.37488">
        <ele>2510.6203613281</ele>
        <time>2012-09-15T11:40:54Z</time>
      </trkpt>
      <trkpt lat="42.69568" lon="1.37485">
        <ele>2508.2170410156</ele>
        <time>2012-09-15T11:40:59Z</time>
      </trkpt>
      <trkpt lat="42.69572" lon="1.37483">
        <ele>2505.8134765625</ele>
        <time>2012-09-15T11:41:05Z</time>
      </trkpt>
      <trkpt lat="42.69574" lon="1.37476">
        <ele>2503.4104003906</ele>
        <time>2012-09-15T11:41:10Z</time>
      </trkpt>
      <trkpt lat="42.69575" lon="1.37474">
        <ele>2502.4489746094</ele>
        <time>2012-09-15T11:41:11Z</time>
      </trkpt>
      <trkpt lat="42.69579" lon="1.37475">
        <ele>2500.0458984375</ele>
        <time>2012-09-15T11:41:16Z</time>
      </trkpt>
      <trkpt lat="42.69582" lon="1.37472">
        <ele>2497.642578125</ele>
        <time>2012-09-15T11:41:21Z</time>
      </trkpt>
      <trkpt lat="42.69587" lon="1.37474">
        <ele>2495.7199707031</ele>
        <time>2012-09-15T11:41:27Z</time>
      </trkpt>
      <trkpt lat="42.69592" lon="1.37475">
        <ele>2494.2778320312</ele>
        <time>2012-09-15T11:41:33Z</time>
      </trkpt>
      <trkpt lat="42.69595" lon="1.37469">
        <ele>2492.8359375</ele>
        <time>2012-09-15T11:41:39Z</time>
      </trkpt>
      <trkpt lat="42.69598" lon="1.37469">
        <ele>2491.3937988281</ele>
        <time>2012-09-15T11:41:43Z</time>
      </trkpt>
      <trkpt lat="42.69601" lon="1.37468">
        <ele>2490.4323730469</ele>
        <time>2012-09-15T11:41:49Z</time>
      </trkpt>
      <trkpt lat="42.69604" lon="1.37469">
        <ele>2488.5100097656</ele>
        <time>2012-09-15T11:41:55Z</time>
      </trkpt>
      <trkpt lat="42.69607" lon="1.37469">
        <ele>2487.0678710938</ele>
        <time>2012-09-15T11:42:01Z</time>
      </trkpt>
      <trkpt lat="42.69612" lon="1.3747">
        <ele>2483.7033691406</ele>
        <time>2012-09-15T11:42:07Z</time>
      </trkpt>
      <trkpt lat="42.69617" lon="1.37472">
        <ele>2481.7807617188</ele>
        <time>2012-09-15T11:42:12Z</time>
      </trkpt>
      <trkpt lat="42.69622" lon="1.37472">
        <ele>2478.8967285156</ele>
        <time>2012-09-15T11:42:19Z</time>
      </trkpt>
      <trkpt lat="42.69622" lon="1.37468">
        <ele>2477.4548339844</ele>
        <time>2012-09-15T11:42:24Z</time>
      </trkpt>
      <trkpt lat="42.69625" lon="1.37464">
        <ele>2475.5319824219</ele>
        <time>2012-09-15T11:42:31Z</time>
      </trkpt>
      <trkpt lat="42.6963" lon="1.37466">
        <ele>2472.6481933594</ele>
        <time>2012-09-15T11:42:37Z</time>
      </trkpt>
      <trkpt lat="42.69634" lon="1.37467">
        <ele>2469.7641601562</ele>
        <time>2012-09-15T11:42:42Z</time>
      </trkpt>
      <trkpt lat="42.69639" lon="1.37467">
        <ele>2466.8803710938</ele>
        <time>2012-09-15T11:42:46Z</time>
      </trkpt>
      <trkpt lat="42.69642" lon="1.37462">
        <ele>2464.4770507812</ele>
        <time>2012-09-15T11:42:51Z</time>
      </trkpt>
      <trkpt lat="42.69646" lon="1.37461">
        <ele>2462.5544433594</ele>
        <time>2012-09-15T11:42:55Z</time>
      </trkpt>
      <trkpt lat="42.6965" lon="1.37459">
        <ele>2459.6701660156</ele>
        <time>2012-09-15T11:43:00Z</time>
      </trkpt>
      <trkpt lat="42.69653" lon="1.37457">
        <ele>2457.2670898438</ele>
        <time>2012-09-15T11:43:05Z</time>
      </trkpt>
      <trkpt lat="42.69656" lon="1.37449">
        <ele>2454.3830566406</ele>
        <time>2012-09-15T11:43:11Z</time>
      </trkpt>
      <trkpt lat="42.69659" lon="1.37447">
        <ele>2452.4604492188</ele>
        <time>2012-09-15T11:43:16Z</time>
      </trkpt>
      <trkpt lat="42.6966" lon="1.37445">
        <ele>2451.0185546875</ele>
        <time>2012-09-15T11:43:20Z</time>
      </trkpt>
      <trkpt lat="42.69664" lon="1.37443">
        <ele>2449.5766601562</ele>
        <time>2012-09-15T11:43:25Z</time>
      </trkpt>
      <trkpt lat="42.69664" lon="1.37441">
        <ele>2448.615234375</ele>
        <time>2012-09-15T11:43:31Z</time>
      </trkpt>
      <trkpt lat="42.69665" lon="1.3744">
        <ele>2451.9797363281</ele>
        <time>2012-09-15T11:43:55Z</time>
      </trkpt>
      <trkpt lat="42.69666" lon="1.37438">
        <ele>2452.9411621094</ele>
        <time>2012-09-15T11:44:01Z</time>
      </trkpt>
      <trkpt lat="42.69669" lon="1.37438">
        <ele>2450.5378417969</ele>
        <time>2012-09-15T11:44:06Z</time>
      </trkpt>
      <trkpt lat="42.69675" lon="1.37441">
        <ele>2448.1345214844</ele>
        <time>2012-09-15T11:44:13Z</time>
      </trkpt>
      <trkpt lat="42.69678" lon="1.37443">
        <ele>2445.2507324219</ele>
        <time>2012-09-15T11:44:19Z</time>
      </trkpt>
      <trkpt lat="42.69682" lon="1.3744">
        <ele>2443.3278808594</ele>
        <time>2012-09-15T11:44:25Z</time>
      </trkpt>
      <trkpt lat="42.69687" lon="1.37434">
        <ele>2440.9245605469</ele>
        <time>2012-09-15T11:44:31Z</time>
      </trkpt>
      <trkpt lat="42.6969" lon="1.37433">
        <ele>2439.001953125</ele>
        <time>2012-09-15T11:44:36Z</time>
      </trkpt>
      <trkpt lat="42.69694" lon="1.37433">
        <ele>2436.5986328125</ele>
        <time>2012-09-15T11:44:42Z</time>
      </trkpt>
      <trkpt lat="42.69698" lon="1.37431">
        <ele>2434.6762695312</ele>
        <time>2012-09-15T11:44:49Z</time>
      </trkpt>
      <trkpt lat="42.69701" lon="1.37432">
        <ele>2432.7534179688</ele>
        <time>2012-09-15T11:44:55Z</time>
      </trkpt>
      <trkpt lat="42.69705" lon="1.37428">
        <ele>2430.8310546875</ele>
        <time>2012-09-15T11:45:01Z</time>
      </trkpt>
      <trkpt lat="42.69711" lon="1.37423">
        <ele>2427.9467773438</ele>
        <time>2012-09-15T11:45:09Z</time>
      </trkpt>
      <trkpt lat="42.69712" lon="1.37418">
        <ele>2426.9855957031</ele>
        <time>2012-09-15T11:45:15Z</time>
      </trkpt>
      <trkpt lat="42.69713" lon="1.37411">
        <ele>2424.5822753906</ele>
        <time>2012-09-15T11:45:22Z</time>
      </trkpt>
      <trkpt lat="42.69712" lon="1.37405">
        <ele>2422.6596679688</ele>
        <time>2012-09-15T11:45:29Z</time>
      </trkpt>
      <trkpt lat="42.69714" lon="1.37406">
        <ele>2421.6982421875</ele>
        <time>2012-09-15T11:45:35Z</time>
      </trkpt>
      <trkpt lat="42.69716" lon="1.37407">
        <ele>2420.7370605469</ele>
        <time>2012-09-15T11:45:40Z</time>
      </trkpt>
      <trkpt lat="42.69719" lon="1.37407">
        <ele>2419.2951660156</ele>
        <time>2012-09-15T11:45:45Z</time>
      </trkpt>
      <trkpt lat="42.69722" lon="1.37411">
        <ele>2418.3337402344</ele>
        <time>2012-09-15T11:45:51Z</time>
      </trkpt>
      <trkpt lat="42.69726" lon="1.37414">
        <ele>2416.8918457031</ele>
        <time>2012-09-15T11:45:58Z</time>
      </trkpt>
      <trkpt lat="42.69729" lon="1.37416">
        <ele>2415.4499511719</ele>
        <time>2012-09-15T11:46:05Z</time>
      </trkpt>
      <trkpt lat="42.69732" lon="1.37417">
        <ele>2414.0078125</ele>
        <time>2012-09-15T11:46:16Z</time>
      </trkpt>
      <trkpt lat="42.69733" lon="1.37418">
        <ele>2413.0466308594</ele>
        <time>2012-09-15T11:46:22Z</time>
      </trkpt>
      <trkpt lat="42.69738" lon="1.37417">
        <ele>2410.1623535156</ele>
        <time>2012-09-15T11:46:30Z</time>
      </trkpt>
      <trkpt lat="42.6974" lon="1.37417">
        <ele>2409.201171875</ele>
        <time>2012-09-15T11:46:34Z</time>
      </trkpt>
      <trkpt lat="42.6974" lon="1.37418">
        <ele>2408.2397460938</ele>
        <time>2012-09-15T11:46:40Z</time>
      </trkpt>
      <trkpt lat="42.69744" lon="1.37416">
        <ele>2407.2785644531</ele>
        <time>2012-09-15T11:46:50Z</time>
      </trkpt>
      <trkpt lat="42.69744" lon="1.37412">
        <ele>2406.7978515625</ele>
        <time>2012-09-15T11:46:57Z</time>
      </trkpt>
      <trkpt lat="42.69746" lon="1.37408">
        <ele>2405.8364257812</ele>
        <time>2012-09-15T11:47:03Z</time>
      </trkpt>
      <trkpt lat="42.69746" lon="1.37404">
        <ele>2404.39453125</ele>
        <time>2012-09-15T11:47:07Z</time>
      </trkpt>
      <trkpt lat="42.69745" lon="1.37396">
        <ele>2402.9526367188</ele>
        <time>2012-09-15T11:47:13Z</time>
      </trkpt>
      <trkpt lat="42.69747" lon="1.3739">
        <ele>2400.5493164062</ele>
        <time>2012-09-15T11:47:19Z</time>
      </trkpt>
      <trkpt lat="42.69748" lon="1.37382">
        <ele>2398.1459960938</ele>
        <time>2012-09-15T11:47:25Z</time>
      </trkpt>
      <trkpt lat="42.69748" lon="1.37376">
        <ele>2396.2236328125</ele>
        <time>2012-09-15T11:47:30Z</time>
      </trkpt>
      <trkpt lat="42.69751" lon="1.37373">
        <ele>2393.8200683594</ele>
        <time>2012-09-15T11:47:35Z</time>
      </trkpt>
      <trkpt lat="42.69756" lon="1.37373">
        <ele>2390.9360351562</ele>
        <time>2012-09-15T11:47:41Z</time>
      </trkpt>
      <trkpt lat="42.69758" lon="1.37369">
        <ele>2388.5329589844</ele>
        <time>2012-09-15T11:47:46Z</time>
      </trkpt>
      <trkpt lat="42.69762" lon="1.37369">
        <ele>2385.1682128906</ele>
        <time>2012-09-15T11:47:52Z</time>
      </trkpt>
      <trkpt lat="42.69766" lon="1.37372">
        <ele>2383.2456054688</ele>
        <time>2012-09-15T11:47:58Z</time>
      </trkpt>
      <trkpt lat="42.69771" lon="1.37373">
        <ele>2381.3229980469</ele>
        <time>2012-09-15T11:48:05Z</time>
      </trkpt>
      <trkpt lat="42.69775" lon="1.37375">
        <ele>2379.4001464844</ele>
        <time>2012-09-15T11:48:10Z</time>
      </trkpt>
      <trkpt lat="42.69777" lon="1.37375">
        <ele>2377.4775390625</ele>
        <time>2012-09-15T11:48:15Z</time>
      </trkpt>
      <trkpt lat="42.6978" lon="1.37376">
        <ele>2375.07421875</ele>
        <time>2012-09-15T11:48:21Z</time>
      </trkpt>
      <trkpt lat="42.69785" lon="1.37375">
        <ele>2373.1518554688</ele>
        <time>2012-09-15T11:48:28Z</time>
      </trkpt>
      <trkpt lat="42.69791" lon="1.37378">
        <ele>2370.2678222656</ele>
        <time>2012-09-15T11:48:36Z</time>
      </trkpt>
      <trkpt lat="42.69793" lon="1.37378">
        <ele>2369.306640625</ele>
        <time>2012-09-15T11:48:42Z</time>
      </trkpt>
      <trkpt lat="42.69798" lon="1.37378">
        <ele>2367.3837890625</ele>
        <time>2012-09-15T11:48:49Z</time>
      </trkpt>
      <trkpt lat="42.69801" lon="1.37378">
        <ele>2365.9418945312</ele>
        <time>2012-09-15T11:48:54Z</time>
      </trkpt>
      <trkpt lat="42.69806" lon="1.37376">
        <ele>2364.0192871094</ele>
        <time>2012-09-15T11:49:01Z</time>
      </trkpt>
      <trkpt lat="42.69812" lon="1.37375">
        <ele>2362.5771484375</ele>
        <time>2012-09-15T11:49:08Z</time>
      </trkpt>
      <trkpt lat="42.69818" lon="1.37372">
        <ele>2360.6545410156</ele>
        <time>2012-09-15T11:49:15Z</time>
      </trkpt>
      <trkpt lat="42.69823" lon="1.3737">
        <ele>2358.2512207031</ele>
        <time>2012-09-15T11:49:22Z</time>
      </trkpt>
      <trkpt lat="42.6983" lon="1.37366">
        <ele>2355.8479003906</ele>
        <time>2012-09-15T11:49:29Z</time>
      </trkpt>
      <trkpt lat="42.69836" lon="1.37364">
        <ele>2352.9641113281</ele>
        <time>2012-09-15T11:49:36Z</time>
      </trkpt>
      <trkpt lat="42.69838" lon="1.37363">
        <ele>2352.4833984375</ele>
        <time>2012-09-15T11:49:38Z</time>
      </trkpt>
      <trkpt lat="42.69846" lon="1.37358">
        <ele>2350.5607910156</ele>
        <time>2012-09-15T11:49:46Z</time>
      </trkpt>
      <trkpt lat="42.69852" lon="1.37355">
        <ele>2349.599609375</ele>
        <time>2012-09-15T11:49:53Z</time>
      </trkpt>
      <trkpt lat="42.69854" lon="1.37354">
        <ele>2349.1188964844</ele>
        <time>2012-09-15T11:49:54Z</time>
      </trkpt>
      <trkpt lat="42.69859" lon="1.37351">
        <ele>2347.1960449219</ele>
        <time>2012-09-15T11:49:59Z</time>
      </trkpt>
      <trkpt lat="42.69868" lon="1.37345">
        <ele>2344.3120117188</ele>
        <time>2012-09-15T11:50:08Z</time>
      </trkpt>
      <trkpt lat="42.69876" lon="1.37338">
        <ele>2342.3896484375</ele>
        <time>2012-09-15T11:50:15Z</time>
      </trkpt>
      <trkpt lat="42.69878" lon="1.37335">
        <ele>2341.9089355469</ele>
        <time>2012-09-15T11:50:18Z</time>
      </trkpt>
      <trkpt lat="42.69881" lon="1.3733">
        <ele>2340.466796875</ele>
        <time>2012-09-15T11:50:23Z</time>
      </trkpt>
      <trkpt lat="42.69882" lon="1.37329">
        <ele>2340.466796875</ele>
        <time>2012-09-15T11:50:24Z</time>
      </trkpt>
      <trkpt lat="42.69888" lon="1.37322">
        <ele>2339.0249023438</ele>
        <time>2012-09-15T11:50:33Z</time>
      </trkpt>
      <trkpt lat="42.69894" lon="1.3732">
        <ele>2336.6215820312</ele>
        <time>2012-09-15T11:50:39Z</time>
      </trkpt>
      <trkpt lat="42.69896" lon="1.37319">
        <ele>2336.1411132812</ele>
        <time>2012-09-15T11:50:40Z</time>
      </trkpt>
      <trkpt lat="42.69904" lon="1.37317">
        <ele>2334.69921875</ele>
        <time>2012-09-15T11:50:48Z</time>
      </trkpt>
      <trkpt lat="42.6991" lon="1.37314">
        <ele>2334.2185058594</ele>
        <time>2012-09-15T11:50:54Z</time>
      </trkpt>
      <trkpt lat="42.6992" lon="1.37311">
        <ele>2334.69921875</ele>
        <time>2012-09-15T11:51:03Z</time>
      </trkpt>
      <trkpt lat="42.69923" lon="1.37309">
        <ele>2335.1796875</ele>
        <time>2012-09-15T11:51:09Z</time>
      </trkpt>
      <trkpt lat="42.69923" lon="1.37308">
        <ele>2336.1411132812</ele>
        <time>2012-09-15T11:51:21Z</time>
      </trkpt>
      <trkpt lat="42.69926" lon="1.37306">
        <ele>2336.1411132812</ele>
        <time>2012-09-15T11:51:26Z</time>
      </trkpt>
      <trkpt lat="42.69927" lon="1.37306">
        <ele>2336.1411132812</ele>
        <time>2012-09-15T11:51:34Z</time>
      </trkpt>
      <trkpt lat="42.69925" lon="1.37303">
        <ele>2335.1796875</ele>
        <time>2012-09-15T11:51:42Z</time>
      </trkpt>
      <trkpt lat="42.69925" lon="1.37294">
        <ele>2332.7763671875</ele>
        <time>2012-09-15T11:51:49Z</time>
      </trkpt>
      <trkpt lat="42.69925" lon="1.37291">
        <ele>2330.8537597656</ele>
        <time>2012-09-15T11:51:53Z</time>
      </trkpt>
      <trkpt lat="42.69925" lon="1.37286">
        <ele>2329.4116210938</ele>
        <time>2012-09-15T11:51:59Z</time>
      </trkpt>
      <trkpt lat="42.69926" lon="1.37281">
        <ele>2327.9697265625</ele>
        <time>2012-09-15T11:52:04Z</time>
      </trkpt>
      <trkpt lat="42.6993" lon="1.37275">
        <ele>2325.56640625</ele>
        <time>2012-09-15T11:52:11Z</time>
      </trkpt>
      <trkpt lat="42.69933" lon="1.37275">
        <ele>2324.1245117188</ele>
        <time>2012-09-15T11:52:16Z</time>
      </trkpt>
      <trkpt lat="42.69939" lon="1.37278">
        <ele>2323.1633300781</ele>
        <time>2012-09-15T11:52:22Z</time>
      </trkpt>
      <trkpt lat="42.69943" lon="1.37279">
        <ele>2321.7211914062</ele>
        <time>2012-09-15T11:52:28Z</time>
      </trkpt>
      <trkpt lat="42.69947" lon="1.3728">
        <ele>2320.7600097656</ele>
        <time>2012-09-15T11:52:33Z</time>
      </trkpt>
      <trkpt lat="42.69954" lon="1.37283">
        <ele>2318.3566894531</ele>
        <time>2012-09-15T11:52:40Z</time>
      </trkpt>
      <trkpt lat="42.69958" lon="1.37286">
        <ele>2315.953125</ele>
        <time>2012-09-15T11:52:46Z</time>
      </trkpt>
      <trkpt lat="42.69965" lon="1.37289">
        <ele>2314.0305175781</ele>
        <time>2012-09-15T11:52:53Z</time>
      </trkpt>
      <trkpt lat="42.6997" lon="1.37292">
        <ele>2313.0693359375</ele>
        <time>2012-09-15T11:52:59Z</time>
      </trkpt>
      <trkpt lat="42.69975" lon="1.37296">
        <ele>2312.1079101562</ele>
        <time>2012-09-15T11:53:05Z</time>
      </trkpt>
      <trkpt lat="42.69982" lon="1.37301">
        <ele>2311.6274414062</ele>
        <time>2012-09-15T11:53:13Z</time>
      </trkpt>
      <trkpt lat="42.69985" lon="1.37303">
        <ele>2310.666015625</ele>
        <time>2012-09-15T11:53:17Z</time>
      </trkpt>
      <trkpt lat="42.69992" lon="1.37308">
        <ele>2310.1853027344</ele>
        <time>2012-09-15T11:53:25Z</time>
      </trkpt>
      <trkpt lat="42.69995" lon="1.37311">
        <ele>2310.1853027344</ele>
        <time>2012-09-15T11:53:31Z</time>
      </trkpt>
      <trkpt lat="42.69999" lon="1.37313">
        <ele>2310.1853027344</ele>
        <time>2012-09-15T11:53:35Z</time>
      </trkpt>
      <trkpt lat="42.70002" lon="1.37315">
        <ele>2309.7045898438</ele>
        <time>2012-09-15T11:53:39Z</time>
      </trkpt>
      <trkpt lat="42.70007" lon="1.37314">
        <ele>2308.7434082031</ele>
        <time>2012-09-15T11:53:44Z</time>
      </trkpt>
      <trkpt lat="42.70015" lon="1.37314">
        <ele>2305.859375</ele>
        <time>2012-09-15T11:53:52Z</time>
      </trkpt>
      <trkpt lat="42.7002" lon="1.37312">
        <ele>2303.9370117188</ele>
        <time>2012-09-15T11:53:59Z</time>
      </trkpt>
      <trkpt lat="42.70023" lon="1.37309">
        <ele>2302.9755859375</ele>
        <time>2012-09-15T11:54:04Z</time>
      </trkpt>
      <trkpt lat="42.70029" lon="1.37303">
        <ele>2300.572265625</ele>
        <time>2012-09-15T11:54:12Z</time>
      </trkpt>
      <trkpt lat="42.70034" lon="1.37299">
        <ele>2300.572265625</ele>
        <time>2012-09-15T11:54:19Z</time>
      </trkpt>
      <trkpt lat="42.70038" lon="1.37295">
        <ele>2300.091796875</ele>
        <time>2012-09-15T11:54:24Z</time>
      </trkpt>
      <trkpt lat="42.70042" lon="1.3729">
        <ele>2300.572265625</ele>
        <time>2012-09-15T11:54:30Z</time>
      </trkpt>
      <trkpt lat="42.70044" lon="1.37285">
        <ele>2300.091796875</ele>
        <time>2012-09-15T11:54:34Z</time>
      </trkpt>
      <trkpt lat="42.7005" lon="1.37281">
        <ele>2297.6882324219</ele>
        <time>2012-09-15T11:54:42Z</time>
      </trkpt>
      <trkpt lat="42.70056" lon="1.37279">
        <ele>2297.2075195312</ele>
        <time>2012-09-15T11:54:48Z</time>
      </trkpt>
      <trkpt lat="42.7006" lon="1.37276">
        <ele>2295.765625</ele>
        <time>2012-09-15T11:54:54Z</time>
      </trkpt>
      <trkpt lat="42.70066" lon="1.37276">
        <ele>2295.765625</ele>
        <time>2012-09-15T11:55:00Z</time>
      </trkpt>
      <trkpt lat="42.70068" lon="1.37276">
        <ele>2295.2849121094</ele>
        <time>2012-09-15T11:55:02Z</time>
      </trkpt>
      <trkpt lat="42.70072" lon="1.37275">
        <ele>2294.8041992188</ele>
        <time>2012-09-15T11:55:05Z</time>
      </trkpt>
      <trkpt lat="42.70082" lon="1.37278">
        <ele>2295.765625</ele>
        <time>2012-09-15T11:55:15Z</time>
      </trkpt>
      <trkpt lat="42.70085" lon="1.37278">
        <ele>2295.765625</ele>
        <time>2012-09-15T11:55:17Z</time>
      </trkpt>
      <trkpt lat="42.7009" lon="1.37275">
        <ele>2295.2849121094</ele>
        <time>2012-09-15T11:55:22Z</time>
      </trkpt>
      <trkpt lat="42.70097" lon="1.37271">
        <ele>2294.3234863281</ele>
        <time>2012-09-15T11:55:29Z</time>
      </trkpt>
      <trkpt lat="42.70102" lon="1.37271">
        <ele>2293.3623046875</ele>
        <time>2012-09-15T11:55:34Z</time>
      </trkpt>
      <trkpt lat="42.70107" lon="1.37272">
        <ele>2293.8430175781</ele>
        <time>2012-09-15T11:55:39Z</time>
      </trkpt>
      <trkpt lat="42.70111" lon="1.37268">
        <ele>2294.3234863281</ele>
        <time>2012-09-15T11:55:45Z</time>
      </trkpt>
      <trkpt lat="42.70117" lon="1.37266">
        <ele>2293.3623046875</ele>
        <time>2012-09-15T11:55:52Z</time>
      </trkpt>
      <trkpt lat="42.70123" lon="1.37263">
        <ele>2292.8815917969</ele>
        <time>2012-09-15T11:55:57Z</time>
      </trkpt>
      <trkpt lat="42.7013" lon="1.37261">
        <ele>2292.8815917969</ele>
        <time>2012-09-15T11:56:06Z</time>
      </trkpt>
      <trkpt lat="42.70135" lon="1.37257">
        <ele>2291.4396972656</ele>
        <time>2012-09-15T11:56:12Z</time>
      </trkpt>
      <trkpt lat="42.70138" lon="1.37256">
        <ele>2290.4782714844</ele>
        <time>2012-09-15T11:56:18Z</time>
      </trkpt>
      <trkpt lat="42.70142" lon="1.37256">
        <ele>2289.9978027344</ele>
        <time>2012-09-15T11:56:23Z</time>
      </trkpt>
      <trkpt lat="42.70147" lon="1.37257">
        <ele>2290.4782714844</ele>
        <time>2012-09-15T11:56:29Z</time>
      </trkpt>
      <trkpt lat="42.70151" lon="1.3726">
        <ele>2290.958984375</ele>
        <time>2012-09-15T11:56:34Z</time>
      </trkpt>
      <trkpt lat="42.70156" lon="1.37261">
        <ele>2291.9204101562</ele>
        <time>2012-09-15T11:56:40Z</time>
      </trkpt>
      <trkpt lat="42.70159" lon="1.37262">
        <ele>2292.8815917969</ele>
        <time>2012-09-15T11:56:45Z</time>
      </trkpt>
      <trkpt lat="42.70162" lon="1.37266">
        <ele>2293.8430175781</ele>
        <time>2012-09-15T11:56:50Z</time>
      </trkpt>
      <trkpt lat="42.70164" lon="1.37269">
        <ele>2295.2849121094</ele>
        <time>2012-09-15T11:56:57Z</time>
      </trkpt>
      <trkpt lat="42.70167" lon="1.37271">
        <ele>2296.2463378906</ele>
        <time>2012-09-15T11:57:02Z</time>
      </trkpt>
      <trkpt lat="42.70171" lon="1.37271">
        <ele>2296.7268066406</ele>
        <time>2012-09-15T11:57:07Z</time>
      </trkpt>
      <trkpt lat="42.70174" lon="1.37274">
        <ele>2297.6882324219</ele>
        <time>2012-09-15T11:57:12Z</time>
      </trkpt>
      <trkpt lat="42.70178" lon="1.37277">
        <ele>2298.1687011719</ele>
        <time>2012-09-15T11:57:18Z</time>
      </trkpt>
      <trkpt lat="42.70182" lon="1.3728">
        <ele>2298.6494140625</ele>
        <time>2012-09-15T11:57:23Z</time>
      </trkpt>
      <trkpt lat="42.70184" lon="1.37284">
        <ele>2299.6108398438</ele>
        <time>2012-09-15T11:57:28Z</time>
      </trkpt>
      <trkpt lat="42.70187" lon="1.37286">
        <ele>2300.572265625</ele>
        <time>2012-09-15T11:57:34Z</time>
      </trkpt>
      <trkpt lat="42.7019" lon="1.37288">
        <ele>2302.4948730469</ele>
        <time>2012-09-15T11:57:39Z</time>
      </trkpt>
      <trkpt lat="42.70197" lon="1.37291">
        <ele>2304.8981933594</ele>
        <time>2012-09-15T11:57:49Z</time>
      </trkpt>
      <trkpt lat="42.70201" lon="1.37292">
        <ele>2305.859375</ele>
        <time>2012-09-15T11:57:55Z</time>
      </trkpt>
      <trkpt lat="42.70206" lon="1.37294">
        <ele>2306.3400878906</ele>
        <time>2012-09-15T11:58:02Z</time>
      </trkpt>
      <trkpt lat="42.70209" lon="1.37296">
        <ele>2306.8208007812</ele>
        <time>2012-09-15T11:58:08Z</time>
      </trkpt>
      <trkpt lat="42.70211" lon="1.37297">
        <ele>2305.37890625</ele>
        <time>2012-09-15T11:58:14Z</time>
      </trkpt>
      <trkpt lat="42.70212" lon="1.373">
        <ele>2305.37890625</ele>
        <time>2012-09-15T11:58:18Z</time>
      </trkpt>
      <trkpt lat="42.7021" lon="1.37305">
        <ele>2305.37890625</ele>
        <time>2012-09-15T11:58:24Z</time>
      </trkpt>
      <trkpt lat="42.70206" lon="1.37307">
        <ele>2305.859375</ele>
        <time>2012-09-15T11:58:30Z</time>
      </trkpt>
      <trkpt lat="42.70205" lon="1.37307">
        <ele>2306.3400878906</ele>
        <time>2012-09-15T11:58:36Z</time>
      </trkpt>
      <trkpt lat="42.70203" lon="1.3731">
        <ele>2306.8208007812</ele>
        <time>2012-09-15T11:58:43Z</time>
      </trkpt>
      <trkpt lat="42.70203" lon="1.37315">
        <ele>2306.8208007812</ele>
        <time>2012-09-15T11:58:47Z</time>
      </trkpt>
      <trkpt lat="42.702" lon="1.37319">
        <ele>2307.7822265625</ele>
        <time>2012-09-15T11:58:53Z</time>
      </trkpt>
      <trkpt lat="42.70198" lon="1.37321">
        <ele>2308.7434082031</ele>
        <time>2012-09-15T11:58:59Z</time>
      </trkpt>
      <trkpt lat="42.70198" lon="1.37322">
        <ele>2308.7434082031</ele>
        <time>2012-09-15T11:59:09Z</time>
      </trkpt>
      <trkpt lat="42.70199" lon="1.37323">
        <ele>2309.2241210938</ele>
        <time>2012-09-15T11:59:17Z</time>
      </trkpt>
      <trkpt lat="42.702" lon="1.37328">
        <ele>2309.7045898438</ele>
        <time>2012-09-15T11:59:23Z</time>
      </trkpt>
      <trkpt lat="42.70199" lon="1.37331">
        <ele>2310.666015625</ele>
        <time>2012-09-15T11:59:28Z</time>
      </trkpt>
      <trkpt lat="42.70199" lon="1.37334">
        <ele>2311.6274414062</ele>
        <time>2012-09-15T11:59:33Z</time>
      </trkpt>
      <trkpt lat="42.702" lon="1.37335">
        <ele>2311.6274414062</ele>
        <time>2012-09-15T11:59:39Z</time>
      </trkpt>
      <trkpt lat="42.702" lon="1.37339">
        <ele>2312.1079101562</ele>
        <time>2012-09-15T11:59:45Z</time>
      </trkpt>
      <trkpt lat="42.702" lon="1.37341">
        <ele>2312.5886230469</ele>
        <time>2012-09-15T11:59:50Z</time>
      </trkpt>
      <trkpt lat="42.70201" lon="1.37344">
        <ele>2313.5498046875</ele>
        <time>2012-09-15T11:59:55Z</time>
      </trkpt>
      <trkpt lat="42.70201" lon="1.3735">
        <ele>2314.9919433594</ele>
        <time>2012-09-15T12:00:02Z</time>
      </trkpt>
      <trkpt lat="42.702" lon="1.37354">
        <ele>2315.47265625</ele>
        <time>2012-09-15T12:00:07Z</time>
      </trkpt>
      <trkpt lat="42.702" lon="1.37358">
        <ele>2315.47265625</ele>
        <time>2012-09-15T12:00:14Z</time>
      </trkpt>
      <trkpt lat="42.70199" lon="1.37364">
        <ele>2315.953125</ele>
        <time>2012-09-15T12:00:21Z</time>
      </trkpt>
      <trkpt lat="42.70198" lon="1.37369">
        <ele>2317.3952636719</ele>
        <time>2012-09-15T12:00:27Z</time>
      </trkpt>
      <trkpt lat="42.70198" lon="1.37373">
        <ele>2317.8759765625</ele>
        <time>2012-09-15T12:00:32Z</time>
      </trkpt>
      <trkpt lat="42.70199" lon="1.37375">
        <ele>2318.8374023438</ele>
        <time>2012-09-15T12:00:38Z</time>
      </trkpt>
      <trkpt lat="42.702" lon="1.37379">
        <ele>2319.7985839844</ele>
        <time>2012-09-15T12:00:43Z</time>
      </trkpt>
      <trkpt lat="42.70202" lon="1.37383">
        <ele>2320.7600097656</ele>
        <time>2012-09-15T12:00:48Z</time>
      </trkpt>
      <trkpt lat="42.70203" lon="1.37392">
        <ele>2321.2404785156</ele>
        <time>2012-09-15T12:00:55Z</time>
      </trkpt>
      <trkpt lat="42.70203" lon="1.37399">
        <ele>2321.7211914062</ele>
        <time>2012-09-15T12:01:00Z</time>
      </trkpt>
      <trkpt lat="42.70203" lon="1.37408">
        <ele>2322.6826171875</ele>
        <time>2012-09-15T12:01:07Z</time>
      </trkpt>
      <trkpt lat="42.70205" lon="1.37412">
        <ele>2324.1245117188</ele>
        <time>2012-09-15T12:01:12Z</time>
      </trkpt>
      <trkpt lat="42.70208" lon="1.3742">
        <ele>2325.0856933594</ele>
        <time>2012-09-15T12:01:19Z</time>
      </trkpt>
      <trkpt lat="42.70211" lon="1.37428">
        <ele>2326.0471191406</ele>
        <time>2012-09-15T12:01:25Z</time>
      </trkpt>
      <trkpt lat="42.70211" lon="1.37429">
        <ele>2325.56640625</ele>
        <time>2012-09-15T12:01:26Z</time>
      </trkpt>
      <trkpt lat="42.70216" lon="1.37434">
        <ele>2327.0085449219</ele>
        <time>2012-09-15T12:01:33Z</time>
      </trkpt>
      <trkpt lat="42.70218" lon="1.37438">
        <ele>2328.9309082031</ele>
        <time>2012-09-15T12:01:40Z</time>
      </trkpt>
      <trkpt lat="42.70217" lon="1.37444">
        <ele>2329.4116210938</ele>
        <time>2012-09-15T12:01:46Z</time>
      </trkpt>
      <trkpt lat="42.70216" lon="1.3745">
        <ele>2329.4116210938</ele>
        <time>2012-09-15T12:01:50Z</time>
      </trkpt>
      <trkpt lat="42.70218" lon="1.37456">
        <ele>2329.8923339844</ele>
        <time>2012-09-15T12:01:56Z</time>
      </trkpt>
      <trkpt lat="42.7022" lon="1.37461">
        <ele>2330.8537597656</ele>
        <time>2012-09-15T12:02:01Z</time>
      </trkpt>
      <trkpt lat="42.70221" lon="1.37465">
        <ele>2330.373046875</ele>
        <time>2012-09-15T12:02:06Z</time>
      </trkpt>
      <trkpt lat="42.70223" lon="1.37468">
        <ele>2330.8537597656</ele>
        <time>2012-09-15T12:02:12Z</time>
      </trkpt>
      <trkpt lat="42.70221" lon="1.3747">
        <ele>2330.373046875</ele>
        <time>2012-09-15T12:02:27Z</time>
      </trkpt>
      <trkpt lat="42.70218" lon="1.37475">
        <ele>2330.373046875</ele>
        <time>2012-09-15T12:02:32Z</time>
      </trkpt>
      <trkpt lat="42.70219" lon="1.37479">
        <ele>2331.8149414062</ele>
        <time>2012-09-15T12:02:37Z</time>
      </trkpt>
      <trkpt lat="42.70218" lon="1.37485">
        <ele>2333.2570800781</ele>
        <time>2012-09-15T12:02:43Z</time>
      </trkpt>
      <trkpt lat="42.70216" lon="1.37488">
        <ele>2334.2185058594</ele>
        <time>2012-09-15T12:02:49Z</time>
      </trkpt>
      <trkpt lat="42.70216" lon="1.37492">
        <ele>2335.1796875</ele>
        <time>2012-09-15T12:02:54Z</time>
      </trkpt>
      <trkpt lat="42.70215" lon="1.37497">
        <ele>2336.6215820312</ele>
        <time>2012-09-15T12:03:00Z</time>
      </trkpt>
      <trkpt lat="42.70215" lon="1.37497">
        <ele>2337.5830078125</ele>
        <time>2012-09-15T12:03:06Z</time>
      </trkpt>
      <trkpt lat="42.70216" lon="1.375">
        <ele>2337.5830078125</ele>
        <time>2012-09-15T12:03:22Z</time>
      </trkpt>
      <trkpt lat="42.70217" lon="1.37507">
        <ele>2338.5444335938</ele>
        <time>2012-09-15T12:03:28Z</time>
      </trkpt>
      <trkpt lat="42.70218" lon="1.37512">
        <ele>2339.0249023438</ele>
        <time>2012-09-15T12:03:34Z</time>
      </trkpt>
      <trkpt lat="42.70219" lon="1.37518">
        <ele>2340.9475097656</ele>
        <time>2012-09-15T12:03:41Z</time>
      </trkpt>
      <trkpt lat="42.70219" lon="1.3752">
        <ele>2341.9089355469</ele>
        <time>2012-09-15T12:03:52Z</time>
      </trkpt>
      <trkpt lat="42.70223" lon="1.37526">
        <ele>2342.8701171875</ele>
        <time>2012-09-15T12:03:58Z</time>
      </trkpt>
      <trkpt lat="42.70224" lon="1.37531">
        <ele>2344.3120117188</ele>
        <time>2012-09-15T12:04:04Z</time>
      </trkpt>
      <trkpt lat="42.70224" lon="1.37537">
        <ele>2347.1960449219</ele>
        <time>2012-09-15T12:04:12Z</time>
      </trkpt>
      <trkpt lat="42.70225" lon="1.37541">
        <ele>2348.1574707031</ele>
        <time>2012-09-15T12:04:17Z</time>
      </trkpt>
      <trkpt lat="42.70225" lon="1.37543">
        <ele>2348.1574707031</ele>
        <time>2012-09-15T12:04:21Z</time>
      </trkpt>
      <trkpt lat="42.70225" lon="1.37545">
        <ele>2348.6381835938</ele>
        <time>2012-09-15T12:04:28Z</time>
      </trkpt>
      <trkpt lat="42.70226" lon="1.37548">
        <ele>2349.1188964844</ele>
        <time>2012-09-15T12:04:34Z</time>
      </trkpt>
      <trkpt lat="42.70226" lon="1.37551">
        <ele>2350.0803222656</ele>
        <time>2012-09-15T12:04:41Z</time>
      </trkpt>
      <trkpt lat="42.70226" lon="1.37553">
        <ele>2350.5607910156</ele>
        <time>2012-09-15T12:04:46Z</time>
      </trkpt>
      <trkpt lat="42.70224" lon="1.37553">
        <ele>2351.5222167969</ele>
        <time>2012-09-15T12:04:50Z</time>
      </trkpt>
      <trkpt lat="42.70221" lon="1.37553">
        <ele>2351.5222167969</ele>
        <time>2012-09-15T12:04:54Z</time>
      </trkpt>
      <trkpt lat="42.70219" lon="1.37553">
        <ele>2352.9641113281</ele>
        <time>2012-09-15T12:04:59Z</time>
      </trkpt>
      <trkpt lat="42.70217" lon="1.37554">
        <ele>2353.4448242188</ele>
        <time>2012-09-15T12:05:05Z</time>
      </trkpt>
      <trkpt lat="42.70218" lon="1.37556">
        <ele>2353.9255371094</ele>
        <time>2012-09-15T12:05:12Z</time>
      </trkpt>
      <trkpt lat="42.7022" lon="1.37559">
        <ele>2354.88671875</ele>
        <time>2012-09-15T12:05:20Z</time>
      </trkpt>
      <trkpt lat="42.70221" lon="1.37561">
        <ele>2355.8479003906</ele>
        <time>2012-09-15T12:05:26Z</time>
      </trkpt>
      <trkpt lat="42.70221" lon="1.37562">
        <ele>2356.8093261719</ele>
        <time>2012-09-15T12:05:32Z</time>
      </trkpt>
      <trkpt lat="42.70222" lon="1.37563">
        <ele>2357.7707519531</ele>
        <time>2012-09-15T12:05:41Z</time>
      </trkpt>
      <trkpt lat="42.70225" lon="1.37566">
        <ele>2357.7707519531</ele>
        <time>2012-09-15T12:05:49Z</time>
      </trkpt>
      <trkpt lat="42.70231" lon="1.37569">
        <ele>2358.2512207031</ele>
        <time>2012-09-15T12:05:56Z</time>
      </trkpt>
      <trkpt lat="42.70232" lon="1.37573">
        <ele>2359.2126464844</ele>
        <time>2012-09-15T12:06:00Z</time>
      </trkpt>
      <trkpt lat="42.70232" lon="1.37575">
        <ele>2360.6545410156</ele>
        <time>2012-09-15T12:06:05Z</time>
      </trkpt>
      <trkpt lat="42.70234" lon="1.37577">
        <ele>2361.6159667969</ele>
        <time>2012-09-15T12:06:11Z</time>
      </trkpt>
      <trkpt lat="42.70234" lon="1.3758">
        <ele>2362.5771484375</ele>
        <time>2012-09-15T12:06:15Z</time>
      </trkpt>
      <trkpt lat="42.70235" lon="1.37582">
        <ele>2363.0578613281</ele>
        <time>2012-09-15T12:06:20Z</time>
      </trkpt>
      <trkpt lat="42.70237" lon="1.37586">
        <ele>2364.5</ele>
        <time>2012-09-15T12:06:26Z</time>
      </trkpt>
      <trkpt lat="42.70238" lon="1.37589">
        <ele>2365.4614257812</ele>
        <time>2012-09-15T12:06:32Z</time>
      </trkpt>
      <trkpt lat="42.70238" lon="1.37591">
        <ele>2365.9418945312</ele>
        <time>2012-09-15T12:06:39Z</time>
      </trkpt>
      <trkpt lat="42.70239" lon="1.37593">
        <ele>2367.8645019531</ele>
        <time>2012-09-15T12:06:45Z</time>
      </trkpt>
      <trkpt lat="42.7024" lon="1.37595">
        <ele>2368.3452148438</ele>
        <time>2012-09-15T12:06:51Z</time>
      </trkpt>
      <trkpt lat="42.70241" lon="1.37598">
        <ele>2368.8259277344</ele>
        <time>2012-09-15T12:06:58Z</time>
      </trkpt>
      <trkpt lat="42.70242" lon="1.376">
        <ele>2369.787109375</ele>
        <time>2012-09-15T12:07:04Z</time>
      </trkpt>
      <trkpt lat="42.70242" lon="1.37603">
        <ele>2370.2678222656</ele>
        <time>2012-09-15T12:07:09Z</time>
      </trkpt>
      <trkpt lat="42.70242" lon="1.37604">
        <ele>2371.2290039062</ele>
        <time>2012-09-15T12:07:17Z</time>
      </trkpt>
      <trkpt lat="42.70241" lon="1.37606">
        <ele>2372.1904296875</ele>
        <time>2012-09-15T12:07:23Z</time>
      </trkpt>
      <trkpt lat="42.7024" lon="1.37607">
        <ele>2372.1904296875</ele>
        <time>2012-09-15T12:07:31Z</time>
      </trkpt>
      <trkpt lat="42.70237" lon="1.37609">
        <ele>2373.1518554688</ele>
        <time>2012-09-15T12:07:36Z</time>
      </trkpt>
      <trkpt lat="42.70237" lon="1.37609">
        <ele>2373.6323242188</ele>
        <time>2012-09-15T12:07:42Z</time>
      </trkpt>
      <trkpt lat="42.70234" lon="1.37609">
        <ele>2375.07421875</ele>
        <time>2012-09-15T12:07:52Z</time>
      </trkpt>
      <trkpt lat="42.70234" lon="1.37609">
        <ele>2376.0356445312</ele>
        <time>2012-09-15T12:07:57Z</time>
      </trkpt>
      <trkpt lat="42.70232" lon="1.37611">
        <ele>2377.4775390625</ele>
        <time>2012-09-15T12:08:04Z</time>
      </trkpt>
      <trkpt lat="42.70229" lon="1.37612">
        <ele>2378.9194335938</ele>
        <time>2012-09-15T12:08:11Z</time>
      </trkpt>
      <trkpt lat="42.70227" lon="1.37612">
        <ele>2379.4001464844</ele>
        <time>2012-09-15T12:08:19Z</time>
      </trkpt>
      <trkpt lat="42.70227" lon="1.37611">
        <ele>2379.880859375</ele>
        <time>2012-09-15T12:08:27Z</time>
      </trkpt>
      <trkpt lat="42.70227" lon="1.37608">
        <ele>2382.2844238281</ele>
        <time>2012-09-15T12:08:35Z</time>
      </trkpt>
      <trkpt lat="42.70226" lon="1.37607">
        <ele>2383.2456054688</ele>
        <time>2012-09-15T12:08:41Z</time>
      </trkpt>
      <trkpt lat="42.70224" lon="1.37607">
        <ele>2383.7263183594</ele>
        <time>2012-09-15T12:08:46Z</time>
      </trkpt>
      <trkpt lat="42.70224" lon="1.37608">
        <ele>2384.20703125</ele>
        <time>2012-09-15T12:08:53Z</time>
      </trkpt>
      <trkpt lat="42.70222" lon="1.37609">
        <ele>2384.20703125</ele>
        <time>2012-09-15T12:08:59Z</time>
      </trkpt>
      <trkpt lat="42.7022" lon="1.3761">
        <ele>2385.6489257812</ele>
        <time>2012-09-15T12:09:05Z</time>
      </trkpt>
      <trkpt lat="42.70218" lon="1.37611">
        <ele>2386.6101074219</ele>
        <time>2012-09-15T12:09:10Z</time>
      </trkpt>
      <trkpt lat="42.70218" lon="1.37611">
        <ele>2387.0908203125</ele>
        <time>2012-09-15T12:09:20Z</time>
      </trkpt>
      <trkpt lat="42.70217" lon="1.37611">
        <ele>2388.0522460938</ele>
        <time>2012-09-15T12:09:25Z</time>
      </trkpt>
      <trkpt lat="42.70214" lon="1.37611">
        <ele>2389.0134277344</ele>
        <time>2012-09-15T12:09:30Z</time>
      </trkpt>
      <trkpt lat="42.70211" lon="1.3761">
        <ele>2390.4553222656</ele>
        <time>2012-09-15T12:09:37Z</time>
      </trkpt>
      <trkpt lat="42.70208" lon="1.3761">
        <ele>2391.8974609375</ele>
        <time>2012-09-15T12:09:44Z</time>
      </trkpt>
      <trkpt lat="42.70208" lon="1.37612">
        <ele>2394.3005371094</ele>
        <time>2012-09-15T12:09:50Z</time>
      </trkpt>
      <trkpt lat="42.70206" lon="1.37612">
        <ele>2394.78125</ele>
        <time>2012-09-15T12:09:56Z</time>
      </trkpt>
      <trkpt lat="42.70204" lon="1.37612">
        <ele>2395.7426757812</ele>
        <time>2012-09-15T12:10:01Z</time>
      </trkpt>
      <trkpt lat="42.70203" lon="1.37612">
        <ele>2397.1848144531</ele>
        <time>2012-09-15T12:10:08Z</time>
      </trkpt>
      <trkpt lat="42.70201" lon="1.37612">
        <ele>2399.107421875</ele>
        <time>2012-09-15T12:10:16Z</time>
      </trkpt>
      <trkpt lat="42.70199" lon="1.37612">
        <ele>2400.5493164062</ele>
        <time>2012-09-15T12:10:24Z</time>
      </trkpt>
      <trkpt lat="42.702" lon="1.37614">
        <ele>2401.9912109375</ele>
        <time>2012-09-15T12:10:29Z</time>
      </trkpt>
      <trkpt lat="42.70202" lon="1.37617">
        <ele>2402.4719238281</ele>
        <time>2012-09-15T12:10:35Z</time>
      </trkpt>
      <trkpt lat="42.70202" lon="1.3762">
        <ele>2403.9140625</ele>
        <time>2012-09-15T12:10:40Z</time>
      </trkpt>
      <trkpt lat="42.70203" lon="1.37622">
        <ele>2405.3559570312</ele>
        <time>2012-09-15T12:10:45Z</time>
      </trkpt>
      <trkpt lat="42.70204" lon="1.37625">
        <ele>2406.7978515625</ele>
        <time>2012-09-15T12:10:52Z</time>
      </trkpt>
      <trkpt lat="42.70202" lon="1.37627">
        <ele>2407.2785644531</ele>
        <time>2012-09-15T12:10:58Z</time>
      </trkpt>
      <trkpt lat="42.702" lon="1.37629">
        <ele>2407.7592773438</ele>
        <time>2012-09-15T12:11:02Z</time>
      </trkpt>
      <trkpt lat="42.70198" lon="1.37632">
        <ele>2408.7204589844</ele>
        <time>2012-09-15T12:11:08Z</time>
      </trkpt>
      <trkpt lat="42.70196" lon="1.37638">
        <ele>2409.681640625</ele>
        <time>2012-09-15T12:11:15Z</time>
      </trkpt>
      <trkpt lat="42.70195" lon="1.37642">
        <ele>2410.1623535156</ele>
        <time>2012-09-15T12:11:22Z</time>
      </trkpt>
      <trkpt lat="42.70193" lon="1.37645">
        <ele>2410.6430664062</ele>
        <time>2012-09-15T12:11:28Z</time>
      </trkpt>
      <trkpt lat="42.70192" lon="1.37646">
        <ele>2411.6044921875</ele>
        <time>2012-09-15T12:11:33Z</time>
      </trkpt>
      <trkpt lat="42.7019" lon="1.37648">
        <ele>2412.5659179688</ele>
        <time>2012-09-15T12:11:37Z</time>
      </trkpt>
      <trkpt lat="42.70189" lon="1.3765">
        <ele>2414.4885253906</ele>
        <time>2012-09-15T12:11:43Z</time>
      </trkpt>
      <trkpt lat="42.70188" lon="1.37652">
        <ele>2414.9692382812</ele>
        <time>2012-09-15T12:11:50Z</time>
      </trkpt>
      <trkpt lat="42.70188" lon="1.37654">
        <ele>2416.4111328125</ele>
        <time>2012-09-15T12:11:56Z</time>
      </trkpt>
      <trkpt lat="42.70187" lon="1.37658">
        <ele>2417.3723144531</ele>
        <time>2012-09-15T12:12:02Z</time>
      </trkpt>
      <trkpt lat="42.70187" lon="1.37661">
        <ele>2418.3337402344</ele>
        <time>2012-09-15T12:12:07Z</time>
      </trkpt>
      <trkpt lat="42.70187" lon="1.37662">
        <ele>2419.7756347656</ele>
        <time>2012-09-15T12:12:14Z</time>
      </trkpt>
      <trkpt lat="42.70186" lon="1.37665">
        <ele>2421.2175292969</ele>
        <time>2012-09-15T12:12:19Z</time>
      </trkpt>
      <trkpt lat="42.70185" lon="1.37667">
        <ele>2422.1789550781</ele>
        <time>2012-09-15T12:12:23Z</time>
      </trkpt>
      <trkpt lat="42.70185" lon="1.37669">
        <ele>2422.6596679688</ele>
        <time>2012-09-15T12:12:27Z</time>
      </trkpt>
      <trkpt lat="42.70184" lon="1.37672">
        <ele>2423.1403808594</ele>
        <time>2012-09-15T12:12:32Z</time>
      </trkpt>
      <trkpt lat="42.70184" lon="1.37673">
        <ele>2423.6208496094</ele>
        <time>2012-09-15T12:12:39Z</time>
      </trkpt>
      <trkpt lat="42.70183" lon="1.37674">
        <ele>2424.5822753906</ele>
        <time>2012-09-15T12:12:58Z</time>
      </trkpt>
      <trkpt lat="42.70184" lon="1.37679">
        <ele>2425.0627441406</ele>
        <time>2012-09-15T12:13:12Z</time>
      </trkpt>
      <trkpt lat="42.70184" lon="1.37683">
        <ele>2425.5434570312</ele>
        <time>2012-09-15T12:13:15Z</time>
      </trkpt>
      <trkpt lat="42.70187" lon="1.37695">
        <ele>2425.0627441406</ele>
        <time>2012-09-15T12:13:23Z</time>
      </trkpt>
      <trkpt lat="42.70188" lon="1.37704">
        <ele>2426.5048828125</ele>
        <time>2012-09-15T12:13:29Z</time>
      </trkpt>
      <trkpt lat="42.70189" lon="1.37711">
        <ele>2427.9467773438</ele>
        <time>2012-09-15T12:13:36Z</time>
      </trkpt>
      <trkpt lat="42.7019" lon="1.37719">
        <ele>2427.9467773438</ele>
        <time>2012-09-15T12:13:43Z</time>
      </trkpt>
      <trkpt lat="42.70193" lon="1.37727">
        <ele>2428.908203125</ele>
        <time>2012-09-15T12:13:51Z</time>
      </trkpt>
      <trkpt lat="42.70197" lon="1.37734">
        <ele>2427.9467773438</ele>
        <time>2012-09-15T12:13:58Z</time>
      </trkpt>
      <trkpt lat="42.70197" lon="1.3774">
        <ele>2429.3889160156</ele>
        <time>2012-09-15T12:14:04Z</time>
      </trkpt>
      <trkpt lat="42.70198" lon="1.37744">
        <ele>2430.8310546875</ele>
        <time>2012-09-15T12:14:10Z</time>
      </trkpt>
      <trkpt lat="42.70198" lon="1.37751">
        <ele>2433.71484375</ele>
        <time>2012-09-15T12:14:18Z</time>
      </trkpt>
      <trkpt lat="42.70198" lon="1.37754">
        <ele>2435.1567382812</ele>
        <time>2012-09-15T12:14:24Z</time>
      </trkpt>
      <trkpt lat="42.70196" lon="1.37757">
        <ele>2436.1181640625</ele>
        <time>2012-09-15T12:14:30Z</time>
      </trkpt>
      <trkpt lat="42.70194" lon="1.37759">
        <ele>2437.0793457031</ele>
        <time>2012-09-15T12:14:37Z</time>
      </trkpt>
      <trkpt lat="42.70193" lon="1.3776">
        <ele>2438.0407714844</ele>
        <time>2012-09-15T12:14:43Z</time>
      </trkpt>
      <trkpt lat="42.70191" lon="1.37763">
        <ele>2438.521484375</ele>
        <time>2012-09-15T12:14:48Z</time>
      </trkpt>
      <trkpt lat="42.7019" lon="1.37768">
        <ele>2438.521484375</ele>
        <time>2012-09-15T12:14:54Z</time>
      </trkpt>
      <trkpt lat="42.70189" lon="1.37775">
        <ele>2439.4826660156</ele>
        <time>2012-09-15T12:15:01Z</time>
      </trkpt>
      <trkpt lat="42.70188" lon="1.3778">
        <ele>2440.4438476562</ele>
        <time>2012-09-15T12:15:07Z</time>
      </trkpt>
      <trkpt lat="42.70188" lon="1.37785">
        <ele>2440.9245605469</ele>
        <time>2012-09-15T12:15:14Z</time>
      </trkpt>
      <trkpt lat="42.70188" lon="1.3779">
        <ele>2442.8471679688</ele>
        <time>2012-09-15T12:15:21Z</time>
      </trkpt>
      <trkpt lat="42.70187" lon="1.37795">
        <ele>2443.80859375</ele>
        <time>2012-09-15T12:15:28Z</time>
      </trkpt>
      <trkpt lat="42.70188" lon="1.37803">
        <ele>2444.2893066406</ele>
        <time>2012-09-15T12:15:36Z</time>
      </trkpt>
      <trkpt lat="42.70191" lon="1.37808">
        <ele>2444.2893066406</ele>
        <time>2012-09-15T12:15:42Z</time>
      </trkpt>
      <trkpt lat="42.70193" lon="1.37814">
        <ele>2444.7700195312</ele>
        <time>2012-09-15T12:15:49Z</time>
      </trkpt>
      <trkpt lat="42.70193" lon="1.37818">
        <ele>2445.2507324219</ele>
        <time>2012-09-15T12:15:55Z</time>
      </trkpt>
      <trkpt lat="42.70193" lon="1.37821">
        <ele>2445.7314453125</ele>
        <time>2012-09-15T12:16:00Z</time>
      </trkpt>
      <trkpt lat="42.70194" lon="1.37825">
        <ele>2447.1733398438</ele>
        <time>2012-09-15T12:16:06Z</time>
      </trkpt>
      <trkpt lat="42.70195" lon="1.37832">
        <ele>2447.6540527344</ele>
        <time>2012-09-15T12:16:14Z</time>
      </trkpt>
      <trkpt lat="42.70194" lon="1.37836">
        <ele>2448.1345214844</ele>
        <time>2012-09-15T12:16:19Z</time>
      </trkpt>
      <trkpt lat="42.70194" lon="1.3784">
        <ele>2449.0959472656</ele>
        <time>2012-09-15T12:16:25Z</time>
      </trkpt>
      <trkpt lat="42.70193" lon="1.37844">
        <ele>2451.0185546875</ele>
        <time>2012-09-15T12:16:32Z</time>
      </trkpt>
      <trkpt lat="42.70192" lon="1.37846">
        <ele>2451.9797363281</ele>
        <time>2012-09-15T12:16:39Z</time>
      </trkpt>
      <trkpt lat="42.70192" lon="1.37847">
        <ele>2452.4604492188</ele>
        <time>2012-09-15T12:16:49Z</time>
      </trkpt>
      <trkpt lat="42.70192" lon="1.37847">
        <ele>2452.4604492188</ele>
        <time>2012-09-15T12:16:58Z</time>
      </trkpt>
      <trkpt lat="42.70192" lon="1.37851">
        <ele>2451.0185546875</ele>
        <time>2012-09-15T12:17:05Z</time>
      </trkpt>
      <trkpt lat="42.7019" lon="1.37852">
        <ele>2450.0573730469</ele>
        <time>2012-09-15T12:17:11Z</time>
      </trkpt>
      <trkpt lat="42.7019" lon="1.37854">
        <ele>2447.1733398438</ele>
        <time>2012-09-15T12:17:21Z</time>
      </trkpt>
      <trkpt lat="42.70188" lon="1.37855">
        <ele>2445.7314453125</ele>
        <time>2012-09-15T12:17:28Z</time>
      </trkpt>
      <trkpt lat="42.70188" lon="1.37857">
        <ele>2444.2893066406</ele>
        <time>2012-09-15T12:17:34Z</time>
      </trkpt>
      <trkpt lat="42.70187" lon="1.37859">
        <ele>2442.3666992188</ele>
        <time>2012-09-15T12:17:40Z</time>
      </trkpt>
      <trkpt lat="42.70186" lon="1.37862">
        <ele>2440.4438476562</ele>
        <time>2012-09-15T12:17:46Z</time>
      </trkpt>
      <trkpt lat="42.70181" lon="1.37863">
        <ele>2437.0793457031</ele>
        <time>2012-09-15T12:17:53Z</time>
      </trkpt>
      <trkpt lat="42.70177" lon="1.37862">
        <ele>2435.1567382812</ele>
        <time>2012-09-15T12:17:59Z</time>
      </trkpt>
      <trkpt lat="42.70173" lon="1.37862">
        <ele>2433.71484375</ele>
        <time>2012-09-15T12:18:06Z</time>
      </trkpt>
      <trkpt lat="42.70168" lon="1.37861">
        <ele>2432.2729492188</ele>
        <time>2012-09-15T12:18:13Z</time>
      </trkpt>
      <trkpt lat="42.70166" lon="1.37863">
        <ele>2430.8310546875</ele>
        <time>2012-09-15T12:18:21Z</time>
      </trkpt>
      <trkpt lat="42.70164" lon="1.37863">
        <ele>2428.908203125</ele>
        <time>2012-09-15T12:18:26Z</time>
      </trkpt>
      <trkpt lat="42.70162" lon="1.37865">
        <ele>2427.4660644531</ele>
        <time>2012-09-15T12:18:32Z</time>
      </trkpt>
      <trkpt lat="42.70161" lon="1.37868">
        <ele>2425.0627441406</ele>
        <time>2012-09-15T12:18:38Z</time>
      </trkpt>
      <trkpt lat="42.7016" lon="1.37873">
        <ele>2421.2175292969</ele>
        <time>2012-09-15T12:18:43Z</time>
      </trkpt>
      <trkpt lat="42.70158" lon="1.37878">
        <ele>2417.3723144531</ele>
        <time>2012-09-15T12:18:47Z</time>
      </trkpt>
      <trkpt lat="42.70155" lon="1.37883">
        <ele>2414.0078125</ele>
        <time>2012-09-15T12:18:53Z</time>
      </trkpt>
      <trkpt lat="42.70155" lon="1.37884">
        <ele>2413.0466308594</ele>
        <time>2012-09-15T12:18:58Z</time>
      </trkpt>
      <trkpt lat="42.70156" lon="1.37884">
        <ele>2413.0466308594</ele>
        <time>2012-09-15T12:19:06Z</time>
      </trkpt>
      <trkpt lat="42.70156" lon="1.37885">
        <ele>2412.5659179688</ele>
        <time>2012-09-15T12:19:07Z</time>
      </trkpt>
      <trkpt lat="42.7016" lon="1.37895">
        <ele>2410.6430664062</ele>
        <time>2012-09-15T12:19:14Z</time>
      </trkpt>
      <trkpt lat="42.7016" lon="1.37896">
        <ele>2410.1623535156</ele>
        <time>2012-09-15T12:19:15Z</time>
      </trkpt>
      <trkpt lat="42.7016" lon="1.37901">
        <ele>2408.7204589844</ele>
        <time>2012-09-15T12:19:19Z</time>
      </trkpt>
      <trkpt lat="42.7016" lon="1.37905">
        <ele>2406.7978515625</ele>
        <time>2012-09-15T12:19:22Z</time>
      </trkpt>
      <trkpt lat="42.70156" lon="1.37911">
        <ele>2402.4719238281</ele>
        <time>2012-09-15T12:19:28Z</time>
      </trkpt>
      <trkpt lat="42.70156" lon="1.37915">
        <ele>2403.4333496094</ele>
        <time>2012-09-15T12:19:34Z</time>
      </trkpt>
      <trkpt lat="42.70156" lon="1.37917">
        <ele>2402.9526367188</ele>
        <time>2012-09-15T12:19:35Z</time>
      </trkpt>
      <trkpt lat="42.70151" lon="1.37923">
        <ele>2399.107421875</ele>
        <time>2012-09-15T12:19:41Z</time>
      </trkpt>
      <trkpt lat="42.70152" lon="1.37923">
        <ele>2399.107421875</ele>
        <time>2012-09-15T12:19:46Z</time>
      </trkpt>
      <trkpt lat="42.70154" lon="1.37929">
        <ele>2396.2236328125</ele>
        <time>2012-09-15T12:19:52Z</time>
      </trkpt>
      <trkpt lat="42.70153" lon="1.37935">
        <ele>2393.3393554688</ele>
        <time>2012-09-15T12:19:57Z</time>
      </trkpt>
      <trkpt lat="42.70152" lon="1.37938">
        <ele>2390.4553222656</ele>
        <time>2012-09-15T12:20:02Z</time>
      </trkpt>
      <trkpt lat="42.70148" lon="1.3794">
        <ele>2388.0522460938</ele>
        <time>2012-09-15T12:20:07Z</time>
      </trkpt>
      <trkpt lat="42.70148" lon="1.37941">
        <ele>2387.0908203125</ele>
        <time>2012-09-15T12:20:09Z</time>
      </trkpt>
      <trkpt lat="42.70146" lon="1.37946">
        <ele>2383.2456054688</ele>
        <time>2012-09-15T12:20:15Z</time>
      </trkpt>
      <trkpt lat="42.70145" lon="1.3795">
        <ele>2381.3229980469</ele>
        <time>2012-09-15T12:20:19Z</time>
      </trkpt>
      <trkpt lat="42.70142" lon="1.37956">
        <ele>2378.4389648438</ele>
        <time>2012-09-15T12:20:25Z</time>
      </trkpt>
      <trkpt lat="42.70141" lon="1.37958">
        <ele>2377.4775390625</ele>
        <time>2012-09-15T12:20:29Z</time>
      </trkpt>
      <trkpt lat="42.70142" lon="1.37962">
        <ele>2376.0356445312</ele>
        <time>2012-09-15T12:20:33Z</time>
      </trkpt>
      <trkpt lat="42.70139" lon="1.37966">
        <ele>2373.6323242188</ele>
        <time>2012-09-15T12:20:37Z</time>
      </trkpt>
      <trkpt lat="42.70136" lon="1.37971">
        <ele>2370.7485351562</ele>
        <time>2012-09-15T12:20:42Z</time>
      </trkpt>
      <trkpt lat="42.70132" lon="1.37973">
        <ele>2367.8645019531</ele>
        <time>2012-09-15T12:20:48Z</time>
      </trkpt>
      <trkpt lat="42.70131" lon="1.37977">
        <ele>2365.4614257812</ele>
        <time>2012-09-15T12:20:53Z</time>
      </trkpt>
      <trkpt lat="42.7013" lon="1.37979">
        <ele>2364.0192871094</ele>
        <time>2012-09-15T12:20:58Z</time>
      </trkpt>
      <trkpt lat="42.70128" lon="1.37981">
        <ele>2362.5771484375</ele>
        <time>2012-09-15T12:21:02Z</time>
      </trkpt>
      <trkpt lat="42.70126" lon="1.37985">
        <ele>2359.6931152344</ele>
        <time>2012-09-15T12:21:07Z</time>
      </trkpt>
      <trkpt lat="42.70125" lon="1.37986">
        <ele>2358.2512207031</ele>
        <time>2012-09-15T12:21:15Z</time>
      </trkpt>
      <trkpt lat="42.70124" lon="1.3799">
        <ele>2356.3286132812</ele>
        <time>2012-09-15T12:21:24Z</time>
      </trkpt>
      <trkpt lat="42.70123" lon="1.37991">
        <ele>2355.8479003906</ele>
        <time>2012-09-15T12:21:31Z</time>
      </trkpt>
      <trkpt lat="42.70123" lon="1.37995">
        <ele>2354.88671875</ele>
        <time>2012-09-15T12:21:38Z</time>
      </trkpt>
      <trkpt lat="42.70124" lon="1.37991">
        <ele>2354.4060058594</ele>
        <time>2012-09-15T12:21:57Z</time>
      </trkpt>
      <trkpt lat="42.70124" lon="1.37991">
        <ele>2354.4060058594</ele>
        <time>2012-09-15T12:22:00Z</time>
      </trkpt>
    </trkseg>
  </trk>
  <trk>
    <name><![CDATA[Rando-course]]></name>
    <trkseg>
      <trkpt lat="42.70124" lon="1.37989">
        <ele>2353.4448242188</ele>
        <time>2012-09-15T12:22:11Z</time>
      </trkpt>
      <trkpt lat="42.70124" lon="1.37992">
        <ele>2352.4833984375</ele>
        <time>2012-09-15T12:22:18Z</time>
      </trkpt>
      <trkpt lat="42.70123" lon="1.37998">
        <ele>2352.4833984375</ele>
        <time>2012-09-15T12:22:24Z</time>
      </trkpt>
      <trkpt lat="42.70122" lon="1.38004">
        <ele>2352.0026855469</ele>
        <time>2012-09-15T12:22:31Z</time>
      </trkpt>
      <trkpt lat="42.70122" lon="1.38012">
        <ele>2351.0415039062</ele>
        <time>2012-09-15T12:22:38Z</time>
      </trkpt>
      <trkpt lat="42.70123" lon="1.38018">
        <ele>2350.0803222656</ele>
        <time>2012-09-15T12:22:45Z</time>
      </trkpt>
      <trkpt lat="42.70126" lon="1.38024">
        <ele>2348.6381835938</ele>
        <time>2012-09-15T12:22:52Z</time>
      </trkpt>
      <trkpt lat="42.70129" lon="1.38029">
        <ele>2346.7153320312</ele>
        <time>2012-09-15T12:22:58Z</time>
      </trkpt>
      <trkpt lat="42.70132" lon="1.38033">
        <ele>2346.2348632812</ele>
        <time>2012-09-15T12:23:04Z</time>
      </trkpt>
      <trkpt lat="42.70133" lon="1.38036">
        <ele>2346.2348632812</ele>
        <time>2012-09-15T12:23:06Z</time>
      </trkpt>
      <trkpt lat="42.70134" lon="1.38051">
        <ele>2341.9089355469</ele>
        <time>2012-09-15T12:23:13Z</time>
      </trkpt>
      <trkpt lat="42.70135" lon="1.38055">
        <ele>2339.986328125</ele>
        <time>2012-09-15T12:23:18Z</time>
      </trkpt>
      <trkpt lat="42.70136" lon="1.38056">
        <ele>2339.986328125</ele>
        <time>2012-09-15T12:23:19Z</time>
      </trkpt>
      <trkpt lat="42.70139" lon="1.38061">
        <ele>2338.5444335938</ele>
        <time>2012-09-15T12:23:23Z</time>
      </trkpt>
      <trkpt lat="42.7014" lon="1.38067">
        <ele>2338.5444335938</ele>
        <time>2012-09-15T12:23:27Z</time>
      </trkpt>
      <trkpt lat="42.70142" lon="1.38079">
        <ele>2339.0249023438</ele>
        <time>2012-09-15T12:23:35Z</time>
      </trkpt>
      <trkpt lat="42.70143" lon="1.3808">
        <ele>2338.5444335938</ele>
        <time>2012-09-15T12:23:36Z</time>
      </trkpt>
      <trkpt lat="42.70149" lon="1.38085">
        <ele>2338.0637207031</ele>
        <time>2012-09-15T12:23:43Z</time>
      </trkpt>
      <trkpt lat="42.70152" lon="1.38092">
        <ele>2337.1022949219</ele>
        <time>2012-09-15T12:23:49Z</time>
      </trkpt>
      <trkpt lat="42.70154" lon="1.38103">
        <ele>2335.1796875</ele>
        <time>2012-09-15T12:23:56Z</time>
      </trkpt>
      <trkpt lat="42.70155" lon="1.38106">
        <ele>2334.69921875</ele>
        <time>2012-09-15T12:23:59Z</time>
      </trkpt>
      <trkpt lat="42.70156" lon="1.38109">
        <ele>2334.2185058594</ele>
        <time>2012-09-15T12:24:01Z</time>
      </trkpt>
      <trkpt lat="42.70157" lon="1.38114">
        <ele>2332.7763671875</ele>
        <time>2012-09-15T12:24:05Z</time>
      </trkpt>
      <trkpt lat="42.70158" lon="1.3812">
        <ele>2331.3342285156</ele>
        <time>2012-09-15T12:24:09Z</time>
      </trkpt>
      <trkpt lat="42.70163" lon="1.38131">
        <ele>2329.4116210938</ele>
        <time>2012-09-15T12:24:17Z</time>
      </trkpt>
      <trkpt lat="42.70167" lon="1.38141">
        <ele>2328.4504394531</ele>
        <time>2012-09-15T12:24:23Z</time>
      </trkpt>
      <trkpt lat="42.70168" lon="1.38153">
        <ele>2327.0085449219</ele>
        <time>2012-09-15T12:24:30Z</time>
      </trkpt>
      <trkpt lat="42.7017" lon="1.38163">
        <ele>2325.0856933594</ele>
        <time>2012-09-15T12:24:36Z</time>
      </trkpt>
      <trkpt lat="42.70171" lon="1.38167">
        <ele>2323.6437988281</ele>
        <time>2012-09-15T12:24:39Z</time>
      </trkpt>
      <trkpt lat="42.70175" lon="1.38175">
        <ele>2321.2404785156</ele>
        <time>2012-09-15T12:24:48Z</time>
      </trkpt>
      <trkpt lat="42.70176" lon="1.38179">
        <ele>2319.7985839844</ele>
        <time>2012-09-15T12:24:53Z</time>
      </trkpt>
      <trkpt lat="42.70177" lon="1.38183">
        <ele>2318.3566894531</ele>
        <time>2012-09-15T12:24:58Z</time>
      </trkpt>
      <trkpt lat="42.70179" lon="1.38184">
        <ele>2318.8374023438</ele>
        <time>2012-09-15T12:25:03Z</time>
      </trkpt>
      <trkpt lat="42.70181" lon="1.38188">
        <ele>2317.3952636719</ele>
        <time>2012-09-15T12:25:09Z</time>
      </trkpt>
      <trkpt lat="42.70183" lon="1.38192">
        <ele>2315.953125</ele>
        <time>2012-09-15T12:25:15Z</time>
      </trkpt>
      <trkpt lat="42.70185" lon="1.38194">
        <ele>2314.9919433594</ele>
        <time>2012-09-15T12:25:20Z</time>
      </trkpt>
      <trkpt lat="42.70184" lon="1.38195">
        <ele>2314.0305175781</ele>
        <time>2012-09-15T12:25:32Z</time>
      </trkpt>
      <trkpt lat="42.70183" lon="1.38197">
        <ele>2312.1079101562</ele>
        <time>2012-09-15T12:25:41Z</time>
      </trkpt>
      <trkpt lat="42.70181" lon="1.38196">
        <ele>2311.6274414062</ele>
        <time>2012-09-15T12:25:48Z</time>
      </trkpt>
      <trkpt lat="42.70179" lon="1.38197">
        <ele>2310.666015625</ele>
        <time>2012-09-15T12:25:56Z</time>
      </trkpt>
      <trkpt lat="42.7018" lon="1.382">
        <ele>2309.7045898438</ele>
        <time>2012-09-15T12:26:01Z</time>
      </trkpt>
      <trkpt lat="42.70182" lon="1.38205">
        <ele>2308.2626953125</ele>
        <time>2012-09-15T12:26:07Z</time>
      </trkpt>
      <trkpt lat="42.70182" lon="1.38209">
        <ele>2307.3015136719</ele>
        <time>2012-09-15T12:26:14Z</time>
      </trkpt>
      <trkpt lat="42.70181" lon="1.38214">
        <ele>2307.7822265625</ele>
        <time>2012-09-15T12:26:19Z</time>
      </trkpt>
      <trkpt lat="42.70181" lon="1.38219">
        <ele>2307.7822265625</ele>
        <time>2012-09-15T12:26:24Z</time>
      </trkpt>
      <trkpt lat="42.70177" lon="1.38223">
        <ele>2307.3015136719</ele>
        <time>2012-09-15T12:26:30Z</time>
      </trkpt>
      <trkpt lat="42.70176" lon="1.38227">
        <ele>2307.3015136719</ele>
        <time>2012-09-15T12:26:35Z</time>
      </trkpt>
      <trkpt lat="42.70176" lon="1.38231">
        <ele>2307.3015136719</ele>
        <time>2012-09-15T12:26:39Z</time>
      </trkpt>
      <trkpt lat="42.70174" lon="1.38235">
        <ele>2306.8208007812</ele>
        <time>2012-09-15T12:26:44Z</time>
      </trkpt>
      <trkpt lat="42.70173" lon="1.38239">
        <ele>2307.3015136719</ele>
        <time>2012-09-15T12:26:49Z</time>
      </trkpt>
      <trkpt lat="42.70171" lon="1.38243">
        <ele>2307.7822265625</ele>
        <time>2012-09-15T12:26:54Z</time>
      </trkpt>
      <trkpt lat="42.70171" lon="1.38244">
        <ele>2307.7822265625</ele>
        <time>2012-09-15T12:27:00Z</time>
      </trkpt>
      <trkpt lat="42.70171" lon="1.38244">
        <ele>2307.3015136719</ele>
        <time>2012-09-15T12:27:07Z</time>
      </trkpt>
      <trkpt lat="42.70171" lon="1.38248">
        <ele>2306.8208007812</ele>
        <time>2012-09-15T12:27:13Z</time>
      </trkpt>
      <trkpt lat="42.7017" lon="1.3825">
        <ele>2307.3015136719</ele>
        <time>2012-09-15T12:27:24Z</time>
      </trkpt>
      <trkpt lat="42.70169" lon="1.38251">
        <ele>2307.3015136719</ele>
        <time>2012-09-15T12:27:32Z</time>
      </trkpt>
      <trkpt lat="42.70169" lon="1.38252">
        <ele>2307.3015136719</ele>
        <time>2012-09-15T12:27:45Z</time>
      </trkpt>
      <trkpt lat="42.70166" lon="1.38253">
        <ele>2306.3400878906</ele>
        <time>2012-09-15T12:27:52Z</time>
      </trkpt>
      <trkpt lat="42.70164" lon="1.38255">
        <ele>2305.37890625</ele>
        <time>2012-09-15T12:27:58Z</time>
      </trkpt>
      <trkpt lat="42.70161" lon="1.38255">
        <ele>2304.8981933594</ele>
        <time>2012-09-15T12:28:04Z</time>
      </trkpt>
      <trkpt lat="42.70161" lon="1.38256">
        <ele>2305.37890625</ele>
        <time>2012-09-15T12:28:09Z</time>
      </trkpt>
      <trkpt lat="42.70165" lon="1.38258">
        <ele>2304.8981933594</ele>
        <time>2012-09-15T12:28:15Z</time>
      </trkpt>
      <trkpt lat="42.70168" lon="1.38262">
        <ele>2305.37890625</ele>
        <time>2012-09-15T12:28:20Z</time>
      </trkpt>
      <trkpt lat="42.70171" lon="1.38267">
        <ele>2306.8208007812</ele>
        <time>2012-09-15T12:28:26Z</time>
      </trkpt>
      <trkpt lat="42.70169" lon="1.38271">
        <ele>2308.2626953125</ele>
        <time>2012-09-15T12:28:33Z</time>
      </trkpt>
      <trkpt lat="42.70168" lon="1.38274">
        <ele>2309.2241210938</ele>
        <time>2012-09-15T12:28:40Z</time>
      </trkpt>
      <trkpt lat="42.70169" lon="1.38274">
        <ele>2308.7434082031</ele>
        <time>2012-09-15T12:28:48Z</time>
      </trkpt>
      <trkpt lat="42.70174" lon="1.38271">
        <ele>2306.3400878906</ele>
        <time>2012-09-15T12:28:57Z</time>
      </trkpt>
      <trkpt lat="42.7018" lon="1.38268">
        <ele>2304.4174804688</ele>
        <time>2012-09-15T12:29:05Z</time>
      </trkpt>
      <trkpt lat="42.70184" lon="1.38267">
        <ele>2303.4562988281</ele>
        <time>2012-09-15T12:29:11Z</time>
      </trkpt>
      <trkpt lat="42.7019" lon="1.38266">
        <ele>2302.4948730469</ele>
        <time>2012-09-15T12:29:19Z</time>
      </trkpt>
      <trkpt lat="42.70193" lon="1.38267">
        <ele>2301.5336914062</ele>
        <time>2012-09-15T12:29:25Z</time>
      </trkpt>
      <trkpt lat="42.70198" lon="1.38264">
        <ele>2298.6494140625</ele>
        <time>2012-09-15T12:29:32Z</time>
      </trkpt>
      <trkpt lat="42.702" lon="1.38266">
        <ele>2296.7268066406</ele>
        <time>2012-09-15T12:29:39Z</time>
      </trkpt>
      <trkpt lat="42.70201" lon="1.38267">
        <ele>2295.765625</ele>
        <time>2012-09-15T12:29:45Z</time>
      </trkpt>
      <trkpt lat="42.70203" lon="1.38266">
        <ele>2295.2849121094</ele>
        <time>2012-09-15T12:29:49Z</time>
      </trkpt>
      <trkpt lat="42.70205" lon="1.38266">
        <ele>2293.8430175781</ele>
        <time>2012-09-15T12:29:56Z</time>
      </trkpt>
      <trkpt lat="42.70208" lon="1.38268">
        <ele>2291.9204101562</ele>
        <time>2012-09-15T12:30:02Z</time>
      </trkpt>
      <trkpt lat="42.70208" lon="1.38272">
        <ele>2289.5170898438</ele>
        <time>2012-09-15T12:30:08Z</time>
      </trkpt>
      <trkpt lat="42.70208" lon="1.38279">
        <ele>2289.0363769531</ele>
        <time>2012-09-15T12:30:13Z</time>
      </trkpt>
      <trkpt lat="42.70206" lon="1.38285">
        <ele>2288.5559082031</ele>
        <time>2012-09-15T12:30:20Z</time>
      </trkpt>
      <trkpt lat="42.70207" lon="1.38291">
        <ele>2287.1137695312</ele>
        <time>2012-09-15T12:30:25Z</time>
      </trkpt>
      <trkpt lat="42.70208" lon="1.38297">
        <ele>2286.1525878906</ele>
        <time>2012-09-15T12:30:30Z</time>
      </trkpt>
      <trkpt lat="42.70209" lon="1.38305">
        <ele>2286.6330566406</ele>
        <time>2012-09-15T12:30:36Z</time>
      </trkpt>
      <trkpt lat="42.70212" lon="1.38313">
        <ele>2286.6330566406</ele>
        <time>2012-09-15T12:30:43Z</time>
      </trkpt>
      <trkpt lat="42.70216" lon="1.3832">
        <ele>2287.1137695312</ele>
        <time>2012-09-15T12:30:49Z</time>
      </trkpt>
      <trkpt lat="42.70217" lon="1.38321">
        <ele>2287.1137695312</ele>
        <time>2012-09-15T12:30:56Z</time>
      </trkpt>
      <trkpt lat="42.70221" lon="1.38327">
        <ele>2287.1137695312</ele>
        <time>2012-09-15T12:31:02Z</time>
      </trkpt>
      <trkpt lat="42.70227" lon="1.38329">
        <ele>2286.1525878906</ele>
        <time>2012-09-15T12:31:09Z</time>
      </trkpt>
      <trkpt lat="42.70232" lon="1.38333">
        <ele>2284.2299804688</ele>
        <time>2012-09-15T12:31:15Z</time>
      </trkpt>
      <trkpt lat="42.7023" lon="1.3834">
        <ele>2282.7875976562</ele>
        <time>2012-09-15T12:31:21Z</time>
      </trkpt>
      <trkpt lat="42.70227" lon="1.38345">
        <ele>2281.345703125</ele>
        <time>2012-09-15T12:31:28Z</time>
      </trkpt>
      <trkpt lat="42.70226" lon="1.3835">
        <ele>2278.9423828125</ele>
        <time>2012-09-15T12:31:34Z</time>
      </trkpt>
      <trkpt lat="42.70226" lon="1.38355">
        <ele>2277.5004882812</ele>
        <time>2012-09-15T12:31:39Z</time>
      </trkpt>
      <trkpt lat="42.70222" lon="1.3836">
        <ele>2275.5778808594</ele>
        <time>2012-09-15T12:31:44Z</time>
      </trkpt>
      <trkpt lat="42.70217" lon="1.38366">
        <ele>2274.1359863281</ele>
        <time>2012-09-15T12:31:51Z</time>
      </trkpt>
      <trkpt lat="42.70215" lon="1.38375">
        <ele>2272.6940917969</ele>
        <time>2012-09-15T12:31:59Z</time>
      </trkpt>
      <trkpt lat="42.70215" lon="1.38384">
        <ele>2270.2907714844</ele>
        <time>2012-09-15T12:32:06Z</time>
      </trkpt>
      <trkpt lat="42.70211" lon="1.38394">
        <ele>2267.8872070312</ele>
        <time>2012-09-15T12:32:12Z</time>
      </trkpt>
      <trkpt lat="42.70204" lon="1.38407">
        <ele>2266.4453125</ele>
        <time>2012-09-15T12:32:19Z</time>
      </trkpt>
      <trkpt lat="42.70203" lon="1.38408">
        <ele>2266.4453125</ele>
        <time>2012-09-15T12:32:20Z</time>
      </trkpt>
      <trkpt lat="42.70203" lon="1.38411">
        <ele>2266.4453125</ele>
        <time>2012-09-15T12:32:28Z</time>
      </trkpt>
      <trkpt lat="42.70199" lon="1.38415">
        <ele>2265.4841308594</ele>
        <time>2012-09-15T12:32:34Z</time>
      </trkpt>
      <trkpt lat="42.70194" lon="1.38421">
        <ele>2263.5612792969</ele>
        <time>2012-09-15T12:32:39Z</time>
      </trkpt>
      <trkpt lat="42.70187" lon="1.38426">
        <ele>2261.6389160156</ele>
        <time>2012-09-15T12:32:43Z</time>
      </trkpt>
      <trkpt lat="42.70182" lon="1.38428">
        <ele>2260.6774902344</ele>
        <time>2012-09-15T12:32:46Z</time>
      </trkpt>
      <trkpt lat="42.70173" lon="1.38426">
        <ele>2260.6774902344</ele>
        <time>2012-09-15T12:32:53Z</time>
      </trkpt>
      <trkpt lat="42.7016" lon="1.38421">
        <ele>2260.1967773438</ele>
        <time>2012-09-15T12:33:00Z</time>
      </trkpt>
      <trkpt lat="42.70152" lon="1.38418">
        <ele>2260.1967773438</ele>
        <time>2012-09-15T12:33:06Z</time>
      </trkpt>
      <trkpt lat="42.70151" lon="1.38418">
        <ele>2260.6774902344</ele>
        <time>2012-09-15T12:33:08Z</time>
      </trkpt>
      <trkpt lat="42.70145" lon="1.38413">
        <ele>2260.1967773438</ele>
        <time>2012-09-15T12:33:15Z</time>
      </trkpt>
      <trkpt lat="42.7014" lon="1.38412">
        <ele>2259.2355957031</ele>
        <time>2012-09-15T12:33:20Z</time>
      </trkpt>
      <trkpt lat="42.70135" lon="1.3841">
        <ele>2258.7548828125</ele>
        <time>2012-09-15T12:33:25Z</time>
      </trkpt>
      <trkpt lat="42.70129" lon="1.38408">
        <ele>2258.2741699219</ele>
        <time>2012-09-15T12:33:31Z</time>
      </trkpt>
      <trkpt lat="42.70126" lon="1.38406">
        <ele>2257.7937011719</ele>
        <time>2012-09-15T12:33:34Z</time>
      </trkpt>
      <trkpt lat="42.7012" lon="1.38403">
        <ele>2257.3129882812</ele>
        <time>2012-09-15T12:33:40Z</time>
      </trkpt>
      <trkpt lat="42.70113" lon="1.38401">
        <ele>2256.3515625</ele>
        <time>2012-09-15T12:33:47Z</time>
      </trkpt>
      <trkpt lat="42.70106" lon="1.38403">
        <ele>2255.3903808594</ele>
        <time>2012-09-15T12:33:52Z</time>
      </trkpt>
      <trkpt lat="42.70102" lon="1.3841">
        <ele>2254.4289550781</ele>
        <time>2012-09-15T12:33:59Z</time>
      </trkpt>
      <trkpt lat="42.70102" lon="1.38417">
        <ele>2253.4677734375</ele>
        <time>2012-09-15T12:34:06Z</time>
      </trkpt>
      <trkpt lat="42.70098" lon="1.3842">
        <ele>2251.544921875</ele>
        <time>2012-09-15T12:34:12Z</time>
      </trkpt>
      <trkpt lat="42.70097" lon="1.38421">
        <ele>2250.5834960938</ele>
        <time>2012-09-15T12:34:17Z</time>
      </trkpt>
      <trkpt lat="42.70097" lon="1.38421">
        <ele>2251.544921875</ele>
        <time>2012-09-15T12:34:29Z</time>
      </trkpt>
      <trkpt lat="42.70095" lon="1.38421">
        <ele>2248.1801757812</ele>
        <time>2012-09-15T12:34:47Z</time>
      </trkpt>
      <trkpt lat="42.7009" lon="1.38423">
        <ele>2245.2963867188</ele>
        <time>2012-09-15T12:34:54Z</time>
      </trkpt>
      <trkpt lat="42.70091" lon="1.38428">
        <ele>2243.8544921875</ele>
        <time>2012-09-15T12:35:01Z</time>
      </trkpt>
      <trkpt lat="42.70092" lon="1.38436">
        <ele>2240.4897460938</ele>
        <time>2012-09-15T12:35:09Z</time>
      </trkpt>
      <trkpt lat="42.70094" lon="1.38442">
        <ele>2238.0866699219</ele>
        <time>2012-09-15T12:35:15Z</time>
      </trkpt>
      <trkpt lat="42.70095" lon="1.3845">
        <ele>2235.6831054688</ele>
        <time>2012-09-15T12:35:22Z</time>
      </trkpt>
      <trkpt lat="42.70095" lon="1.38458">
        <ele>2233.2797851562</ele>
        <time>2012-09-15T12:35:28Z</time>
      </trkpt>
      <trkpt lat="42.70094" lon="1.38462">
        <ele>2231.837890625</ele>
        <time>2012-09-15T12:35:33Z</time>
      </trkpt>
      <trkpt lat="42.70097" lon="1.38471">
        <ele>2229.4345703125</ele>
        <time>2012-09-15T12:35:40Z</time>
      </trkpt>
      <trkpt lat="42.701" lon="1.38477">
        <ele>2227.0314941406</ele>
        <time>2012-09-15T12:35:46Z</time>
      </trkpt>
      <trkpt lat="42.70103" lon="1.38484">
        <ele>2225.1086425781</ele>
        <time>2012-09-15T12:35:53Z</time>
      </trkpt>
      <trkpt lat="42.70106" lon="1.38492">
        <ele>2222.2248535156</ele>
        <time>2012-09-15T12:35:59Z</time>
      </trkpt>
      <trkpt lat="42.70107" lon="1.38496">
        <ele>2220.7829589844</ele>
        <time>2012-09-15T12:36:02Z</time>
      </trkpt>
      <trkpt lat="42.7011" lon="1.38503">
        <ele>2218.3793945312</ele>
        <time>2012-09-15T12:36:08Z</time>
      </trkpt>
      <trkpt lat="42.70112" lon="1.38507">
        <ele>2217.41796875</ele>
        <time>2012-09-15T12:36:12Z</time>
      </trkpt>
      <trkpt lat="42.70115" lon="1.38519">
        <ele>2215.0148925781</ele>
        <time>2012-09-15T12:36:21Z</time>
      </trkpt>
      <trkpt lat="42.70118" lon="1.38525">
        <ele>2213.0922851562</ele>
        <time>2012-09-15T12:36:27Z</time>
      </trkpt>
      <trkpt lat="42.7012" lon="1.38534">
        <ele>2210.6889648438</ele>
        <time>2012-09-15T12:36:35Z</time>
      </trkpt>
      <trkpt lat="42.70123" lon="1.38541">
        <ele>2208.7663574219</ele>
        <time>2012-09-15T12:36:41Z</time>
      </trkpt>
      <trkpt lat="42.70123" lon="1.38547">
        <ele>2207.3244628906</ele>
        <time>2012-09-15T12:36:45Z</time>
      </trkpt>
      <trkpt lat="42.70125" lon="1.38556">
        <ele>2204.9211425781</ele>
        <time>2012-09-15T12:36:52Z</time>
      </trkpt>
      <trkpt lat="42.70122" lon="1.38563">
        <ele>2202.9982910156</ele>
        <time>2012-09-15T12:36:58Z</time>
      </trkpt>
      <trkpt lat="42.70121" lon="1.38571">
        <ele>2202.0368652344</ele>
        <time>2012-09-15T12:37:05Z</time>
      </trkpt>
      <trkpt lat="42.70118" lon="1.38574">
        <ele>2200.1145019531</ele>
        <time>2012-09-15T12:37:11Z</time>
      </trkpt>
      <trkpt lat="42.70115" lon="1.38576">
        <ele>2198.1916503906</ele>
        <time>2012-09-15T12:37:16Z</time>
      </trkpt>
      <trkpt lat="42.70114" lon="1.38576">
        <ele>2197.23046875</ele>
        <time>2012-09-15T12:37:26Z</time>
      </trkpt>
      <trkpt lat="42.70113" lon="1.38578">
        <ele>2196.2692871094</ele>
        <time>2012-09-15T12:37:36Z</time>
      </trkpt>
      <trkpt lat="42.7011" lon="1.38578">
        <ele>2195.7885742188</ele>
        <time>2012-09-15T12:37:41Z</time>
      </trkpt>
      <trkpt lat="42.70104" lon="1.38579">
        <ele>2192.9045410156</ele>
        <time>2012-09-15T12:37:49Z</time>
      </trkpt>
      <trkpt lat="42.70098" lon="1.38582">
        <ele>2190.0207519531</ele>
        <time>2012-09-15T12:37:55Z</time>
      </trkpt>
      <trkpt lat="42.70095" lon="1.38584">
        <ele>2188.5788574219</ele>
        <time>2012-09-15T12:38:01Z</time>
      </trkpt>
      <trkpt lat="42.70094" lon="1.38586">
        <ele>2186.6557617188</ele>
        <time>2012-09-15T12:38:07Z</time>
      </trkpt>
      <trkpt lat="42.70094" lon="1.38591">
        <ele>2184.7333984375</ele>
        <time>2012-09-15T12:38:13Z</time>
      </trkpt>
      <trkpt lat="42.70091" lon="1.38593">
        <ele>2183.2912597656</ele>
        <time>2012-09-15T12:38:18Z</time>
      </trkpt>
      <trkpt lat="42.7009" lon="1.38597">
        <ele>2182.330078125</ele>
        <time>2012-09-15T12:38:23Z</time>
      </trkpt>
      <trkpt lat="42.70086" lon="1.38596">
        <ele>2180.8881835938</ele>
        <time>2012-09-15T12:38:27Z</time>
      </trkpt>
      <trkpt lat="42.70082" lon="1.38595">
        <ele>2179.4460449219</ele>
        <time>2012-09-15T12:38:32Z</time>
      </trkpt>
      <trkpt lat="42.70077" lon="1.38596">
        <ele>2178.0041503906</ele>
        <time>2012-09-15T12:38:38Z</time>
      </trkpt>
      <trkpt lat="42.70073" lon="1.38599">
        <ele>2177.04296875</ele>
        <time>2012-09-15T12:38:45Z</time>
      </trkpt>
      <trkpt lat="42.70073" lon="1.38605">
        <ele>2175.6008300781</ele>
        <time>2012-09-15T12:38:51Z</time>
      </trkpt>
      <trkpt lat="42.70067" lon="1.38609">
        <ele>2173.6782226562</ele>
        <time>2012-09-15T12:38:57Z</time>
      </trkpt>
      <trkpt lat="42.70061" lon="1.38615">
        <ele>2171.7553710938</ele>
        <time>2012-09-15T12:39:04Z</time>
      </trkpt>
      <trkpt lat="42.70061" lon="1.38622">
        <ele>2169.8327636719</ele>
        <time>2012-09-15T12:39:10Z</time>
      </trkpt>
      <trkpt lat="42.7006" lon="1.38628">
        <ele>2167.91015625</ele>
        <time>2012-09-15T12:39:17Z</time>
      </trkpt>
      <trkpt lat="42.70057" lon="1.38626">
        <ele>2166.9489746094</ele>
        <time>2012-09-15T12:39:22Z</time>
      </trkpt>
      <trkpt lat="42.70055" lon="1.38627">
        <ele>2165.9875488281</ele>
        <time>2012-09-15T12:39:26Z</time>
      </trkpt>
      <trkpt lat="42.70054" lon="1.38627">
        <ele>2165.9875488281</ele>
        <time>2012-09-15T12:39:27Z</time>
      </trkpt>
      <trkpt lat="42.7005" lon="1.38631">
        <ele>2163.5842285156</ele>
        <time>2012-09-15T12:39:33Z</time>
      </trkpt>
      <trkpt lat="42.70046" lon="1.38638">
        <ele>2161.1811523438</ele>
        <time>2012-09-15T12:39:39Z</time>
      </trkpt>
      <trkpt lat="42.70042" lon="1.38642">
        <ele>2159.2585449219</ele>
        <time>2012-09-15T12:39:45Z</time>
      </trkpt>
      <trkpt lat="42.70042" lon="1.38643">
        <ele>2158.2971191406</ele>
        <time>2012-09-15T12:39:53Z</time>
      </trkpt>
      <trkpt lat="42.70041" lon="1.38646">
        <ele>2157.3359375</ele>
        <time>2012-09-15T12:40:00Z</time>
      </trkpt>
      <trkpt lat="42.70037" lon="1.38649">
        <ele>2155.4130859375</ele>
        <time>2012-09-15T12:40:06Z</time>
      </trkpt>
      <trkpt lat="42.70033" lon="1.38653">
        <ele>2153.009765625</ele>
        <time>2012-09-15T12:40:12Z</time>
      </trkpt>
      <trkpt lat="42.70028" lon="1.38654">
        <ele>2150.1259765625</ele>
        <time>2012-09-15T12:40:18Z</time>
      </trkpt>
      <trkpt lat="42.70022" lon="1.38655">
        <ele>2148.203125</ele>
        <time>2012-09-15T12:40:23Z</time>
      </trkpt>
      <trkpt lat="42.70021" lon="1.38655">
        <ele>2147.72265625</ele>
        <time>2012-09-15T12:40:24Z</time>
      </trkpt>
      <trkpt lat="42.70016" lon="1.38656">
        <ele>2146.2807617188</ele>
        <time>2012-09-15T12:40:30Z</time>
      </trkpt>
      <trkpt lat="42.70012" lon="1.38658">
        <ele>2145.3193359375</ele>
        <time>2012-09-15T12:40:36Z</time>
      </trkpt>
      <trkpt lat="42.70008" lon="1.38662">
        <ele>2143.8774414062</ele>
        <time>2012-09-15T12:40:44Z</time>
      </trkpt>
      <trkpt lat="42.70008" lon="1.38672">
        <ele>2142.916015625</ele>
        <time>2012-09-15T12:40:52Z</time>
      </trkpt>
      <trkpt lat="42.70009" lon="1.38678">
        <ele>2141.9548339844</ele>
        <time>2012-09-15T12:40:56Z</time>
      </trkpt>
      <trkpt lat="42.70011" lon="1.3869">
        <ele>2140.9934082031</ele>
        <time>2012-09-15T12:41:03Z</time>
      </trkpt>
      <trkpt lat="42.7001" lon="1.38692">
        <ele>2140.5126953125</ele>
        <time>2012-09-15T12:41:05Z</time>
      </trkpt>
      <trkpt lat="42.70005" lon="1.38697">
        <ele>2137.1479492188</ele>
        <time>2012-09-15T12:41:13Z</time>
      </trkpt>
      <trkpt lat="42.70003" lon="1.38703">
        <ele>2135.7060546875</ele>
        <time>2012-09-15T12:41:18Z</time>
      </trkpt>
      <trkpt lat="42.70001" lon="1.38706">
        <ele>2133.7834472656</ele>
        <time>2012-09-15T12:41:23Z</time>
      </trkpt>
      <trkpt lat="42.69998" lon="1.38707">
        <ele>2132.3415527344</ele>
        <time>2012-09-15T12:41:29Z</time>
      </trkpt>
      <trkpt lat="42.69996" lon="1.3871">
        <ele>2130.8996582031</ele>
        <time>2012-09-15T12:41:34Z</time>
      </trkpt>
      <trkpt lat="42.69994" lon="1.38712">
        <ele>2128.9768066406</ele>
        <time>2012-09-15T12:41:39Z</time>
      </trkpt>
      <trkpt lat="42.6999" lon="1.38714">
        <ele>2127.5349121094</ele>
        <time>2012-09-15T12:41:43Z</time>
      </trkpt>
      <trkpt lat="42.69986" lon="1.38719">
        <ele>2125.1315917969</ele>
        <time>2012-09-15T12:41:50Z</time>
      </trkpt>
      <trkpt lat="42.69983" lon="1.38721">
        <ele>2123.689453125</ele>
        <time>2012-09-15T12:41:54Z</time>
      </trkpt>
      <trkpt lat="42.69979" lon="1.38719">
        <ele>2122.2475585938</ele>
        <time>2012-09-15T12:41:59Z</time>
      </trkpt>
      <trkpt lat="42.69977" lon="1.38722">
        <ele>2121.2861328125</ele>
        <time>2012-09-15T12:42:04Z</time>
      </trkpt>
      <trkpt lat="42.69972" lon="1.38724">
        <ele>2119.3637695312</ele>
        <time>2012-09-15T12:42:09Z</time>
      </trkpt>
      <trkpt lat="42.69968" lon="1.38724">
        <ele>2118.40234375</ele>
        <time>2012-09-15T12:42:12Z</time>
      </trkpt>
      <trkpt lat="42.69965" lon="1.38723">
        <ele>2117.9216308594</ele>
        <time>2012-09-15T12:42:15Z</time>
      </trkpt>
      <trkpt lat="42.6996" lon="1.38723">
        <ele>2116.4797363281</ele>
        <time>2012-09-15T12:42:22Z</time>
      </trkpt>
      <trkpt lat="42.69961" lon="1.3873">
        <ele>2115.0378417969</ele>
        <time>2012-09-15T12:42:28Z</time>
      </trkpt>
      <trkpt lat="42.69958" lon="1.38732">
        <ele>2113.595703125</ele>
        <time>2012-09-15T12:42:33Z</time>
      </trkpt>
      <trkpt lat="42.69955" lon="1.38731">
        <ele>2112.6345214844</ele>
        <time>2012-09-15T12:42:38Z</time>
      </trkpt>
      <trkpt lat="42.69954" lon="1.38728">
        <ele>2111.6733398438</ele>
        <time>2012-09-15T12:42:44Z</time>
      </trkpt>
      <trkpt lat="42.6995" lon="1.38729">
        <ele>2109.2700195312</ele>
        <time>2012-09-15T12:42:51Z</time>
      </trkpt>
      <trkpt lat="42.69946" lon="1.38726">
        <ele>2108.30859375</ele>
        <time>2012-09-15T12:42:56Z</time>
      </trkpt>
      <trkpt lat="42.69943" lon="1.38726">
        <ele>2107.8278808594</ele>
        <time>2012-09-15T12:43:00Z</time>
      </trkpt>
      <trkpt lat="42.69936" lon="1.38721">
        <ele>2108.30859375</ele>
        <time>2012-09-15T12:43:06Z</time>
      </trkpt>
      <trkpt lat="42.69931" lon="1.38719">
        <ele>2108.30859375</ele>
        <time>2012-09-15T12:43:10Z</time>
      </trkpt>
      <trkpt lat="42.69928" lon="1.3872">
        <ele>2108.30859375</ele>
        <time>2012-09-15T12:43:12Z</time>
      </trkpt>
      <trkpt lat="42.69922" lon="1.38719">
        <ele>2107.3471679688</ele>
        <time>2012-09-15T12:43:18Z</time>
      </trkpt>
      <trkpt lat="42.69918" lon="1.38722">
        <ele>2105.9050292969</ele>
        <time>2012-09-15T12:43:24Z</time>
      </trkpt>
      <trkpt lat="42.69917" lon="1.38727">
        <ele>2103.9826660156</ele>
        <time>2012-09-15T12:43:29Z</time>
      </trkpt>
      <trkpt lat="42.69915" lon="1.3873">
        <ele>2102.0598144531</ele>
        <time>2012-09-15T12:43:33Z</time>
      </trkpt>
      <trkpt lat="42.69913" lon="1.38738">
        <ele>2099.1760253906</ele>
        <time>2012-09-15T12:43:40Z</time>
      </trkpt>
      <trkpt lat="42.6991" lon="1.38743">
        <ele>2098.2145996094</ele>
        <time>2012-09-15T12:43:46Z</time>
      </trkpt>
      <trkpt lat="42.69908" lon="1.38746">
        <ele>2095.8115234375</ele>
        <time>2012-09-15T12:43:52Z</time>
      </trkpt>
      <trkpt lat="42.69904" lon="1.38741">
        <ele>2095.3308105469</ele>
        <time>2012-09-15T12:43:58Z</time>
      </trkpt>
      <trkpt lat="42.699" lon="1.38739">
        <ele>2093.408203125</ele>
        <time>2012-09-15T12:44:04Z</time>
      </trkpt>
      <trkpt lat="42.69894" lon="1.38736">
        <ele>2091.9660644531</ele>
        <time>2012-09-15T12:44:10Z</time>
      </trkpt>
      <trkpt lat="42.69889" lon="1.38734">
        <ele>2091.4853515625</ele>
        <time>2012-09-15T12:44:17Z</time>
      </trkpt>
      <trkpt lat="42.69889" lon="1.38734">
        <ele>2091.9660644531</ele>
        <time>2012-09-15T12:44:24Z</time>
      </trkpt>
      <trkpt lat="42.69891" lon="1.38741">
        <ele>2090.5239257812</ele>
        <time>2012-09-15T12:44:31Z</time>
      </trkpt>
      <trkpt lat="42.69889" lon="1.38744">
        <ele>2089.08203125</ele>
        <time>2012-09-15T12:44:36Z</time>
      </trkpt>
      <trkpt lat="42.69888" lon="1.38747">
        <ele>2087.6401367188</ele>
        <time>2012-09-15T12:44:41Z</time>
      </trkpt>
      <trkpt lat="42.69889" lon="1.38754">
        <ele>2085.2368164062</ele>
        <time>2012-09-15T12:44:47Z</time>
      </trkpt>
      <trkpt lat="42.69889" lon="1.38759">
        <ele>2084.2756347656</ele>
        <time>2012-09-15T12:44:52Z</time>
      </trkpt>
      <trkpt lat="42.69884" lon="1.38762">
        <ele>2082.3530273438</ele>
        <time>2012-09-15T12:44:58Z</time>
      </trkpt>
      <trkpt lat="42.6988" lon="1.38763">
        <ele>2080.9111328125</ele>
        <time>2012-09-15T12:45:02Z</time>
      </trkpt>
      <trkpt lat="42.69874" lon="1.38761">
        <ele>2081.3916015625</ele>
        <time>2012-09-15T12:45:08Z</time>
      </trkpt>
      <trkpt lat="42.69869" lon="1.38759">
        <ele>2081.8723144531</ele>
        <time>2012-09-15T12:45:13Z</time>
      </trkpt>
      <trkpt lat="42.69864" lon="1.38761">
        <ele>2081.3916015625</ele>
        <time>2012-09-15T12:45:19Z</time>
      </trkpt>
      <trkpt lat="42.69862" lon="1.38761">
        <ele>2081.3916015625</ele>
        <time>2012-09-15T12:45:25Z</time>
      </trkpt>
      <trkpt lat="42.6986" lon="1.38761">
        <ele>2084.2756347656</ele>
        <time>2012-09-15T12:45:37Z</time>
      </trkpt>
      <trkpt lat="42.69859" lon="1.38761">
        <ele>2084.2756347656</ele>
        <time>2012-09-15T12:45:42Z</time>
      </trkpt>
      <trkpt lat="42.69855" lon="1.38758">
        <ele>2084.2756347656</ele>
        <time>2012-09-15T12:45:49Z</time>
      </trkpt>
      <trkpt lat="42.69849" lon="1.38761">
        <ele>2083.3142089844</ele>
        <time>2012-09-15T12:45:58Z</time>
      </trkpt>
      <trkpt lat="42.69847" lon="1.38762">
        <ele>2081.3916015625</ele>
        <time>2012-09-15T12:46:04Z</time>
      </trkpt>
      <trkpt lat="42.69843" lon="1.38768">
        <ele>2083.3142089844</ele>
        <time>2012-09-15T12:46:11Z</time>
      </trkpt>
      <trkpt lat="42.6984" lon="1.38768">
        <ele>2083.3142089844</ele>
        <time>2012-09-15T12:46:18Z</time>
      </trkpt>
      <trkpt lat="42.69839" lon="1.3877">
        <ele>2083.794921875</ele>
        <time>2012-09-15T12:46:27Z</time>
      </trkpt>
      <trkpt lat="42.69834" lon="1.38775">
        <ele>2081.3916015625</ele>
        <time>2012-09-15T12:46:34Z</time>
      </trkpt>
      <trkpt lat="42.69831" lon="1.38775">
        <ele>2080.4304199219</ele>
        <time>2012-09-15T12:46:39Z</time>
      </trkpt>
      <trkpt lat="42.69828" lon="1.38771">
        <ele>2080.4304199219</ele>
        <time>2012-09-15T12:46:46Z</time>
      </trkpt>
      <trkpt lat="42.69825" lon="1.38768">
        <ele>2080.4304199219</ele>
        <time>2012-09-15T12:46:52Z</time>
      </trkpt>
      <trkpt lat="42.69824" lon="1.38764">
        <ele>2081.3916015625</ele>
        <time>2012-09-15T12:46:58Z</time>
      </trkpt>
      <trkpt lat="42.69821" lon="1.38759">
        <ele>2081.8723144531</ele>
        <time>2012-09-15T12:47:04Z</time>
      </trkpt>
      <trkpt lat="42.69817" lon="1.38755">
        <ele>2081.8723144531</ele>
        <time>2012-09-15T12:47:10Z</time>
      </trkpt>
      <trkpt lat="42.69817" lon="1.38755">
        <ele>2081.8723144531</ele>
        <time>2012-09-15T12:47:11Z</time>
      </trkpt>
      <trkpt lat="42.69812" lon="1.3875">
        <ele>2081.8723144531</ele>
        <time>2012-09-15T12:47:16Z</time>
      </trkpt>
      <trkpt lat="42.6981" lon="1.3875">
        <ele>2082.3530273438</ele>
        <time>2012-09-15T12:47:18Z</time>
      </trkpt>
      <trkpt lat="42.69805" lon="1.3875">
        <ele>2081.3916015625</ele>
        <time>2012-09-15T12:47:23Z</time>
      </trkpt>
      <trkpt lat="42.69798" lon="1.3875">
        <ele>2079.4689941406</ele>
        <time>2012-09-15T12:47:30Z</time>
      </trkpt>
      <trkpt lat="42.69793" lon="1.38756">
        <ele>2078.5078125</ele>
        <time>2012-09-15T12:47:36Z</time>
      </trkpt>
      <trkpt lat="42.69788" lon="1.38762">
        <ele>2078.5078125</ele>
        <time>2012-09-15T12:47:43Z</time>
      </trkpt>
      <trkpt lat="42.69786" lon="1.38763">
        <ele>2078.0270996094</ele>
        <time>2012-09-15T12:47:45Z</time>
      </trkpt>
      <trkpt lat="42.6978" lon="1.38772">
        <ele>2077.5463867188</ele>
        <time>2012-09-15T12:47:53Z</time>
      </trkpt>
      <trkpt lat="42.69778" lon="1.38775">
        <ele>2077.0659179688</ele>
        <time>2012-09-15T12:47:56Z</time>
      </trkpt>
      <trkpt lat="42.69773" lon="1.38781">
        <ele>2076.5852050781</ele>
        <time>2012-09-15T12:48:02Z</time>
      </trkpt>
      <trkpt lat="42.69766" lon="1.38787">
        <ele>2075.1428222656</ele>
        <time>2012-09-15T12:48:10Z</time>
      </trkpt>
      <trkpt lat="42.69762" lon="1.38789">
        <ele>2076.1044921875</ele>
        <time>2012-09-15T12:48:14Z</time>
      </trkpt>
      <trkpt lat="42.6976" lon="1.38796">
        <ele>2077.0659179688</ele>
        <time>2012-09-15T12:48:20Z</time>
      </trkpt>
      <trkpt lat="42.69759" lon="1.38801">
        <ele>2076.5852050781</ele>
        <time>2012-09-15T12:48:24Z</time>
      </trkpt>
      <trkpt lat="42.69757" lon="1.38809">
        <ele>2077.5463867188</ele>
        <time>2012-09-15T12:48:30Z</time>
      </trkpt>
      <trkpt lat="42.69757" lon="1.38814">
        <ele>2079.4689941406</ele>
        <time>2012-09-15T12:48:34Z</time>
      </trkpt>
      <trkpt lat="42.69757" lon="1.38821">
        <ele>2080.9111328125</ele>
        <time>2012-09-15T12:48:40Z</time>
      </trkpt>
      <trkpt lat="42.69759" lon="1.38828">
        <ele>2082.3530273438</ele>
        <time>2012-09-15T12:48:46Z</time>
      </trkpt>
      <trkpt lat="42.69759" lon="1.38832">
        <ele>2083.3142089844</ele>
        <time>2012-09-15T12:48:51Z</time>
      </trkpt>
      <trkpt lat="42.69761" lon="1.38836">
        <ele>2081.3916015625</ele>
        <time>2012-09-15T12:49:04Z</time>
      </trkpt>
      <trkpt lat="42.69762" lon="1.38842">
        <ele>2082.3530273438</ele>
        <time>2012-09-15T12:49:11Z</time>
      </trkpt>
      <trkpt lat="42.69762" lon="1.38844">
        <ele>2082.8334960938</ele>
        <time>2012-09-15T12:49:15Z</time>
      </trkpt>
      <trkpt lat="42.6976" lon="1.38846">
        <ele>2082.3530273438</ele>
        <time>2012-09-15T12:49:18Z</time>
      </trkpt>
      <trkpt lat="42.69759" lon="1.38855">
        <ele>2081.8723144531</ele>
        <time>2012-09-15T12:49:25Z</time>
      </trkpt>
      <trkpt lat="42.69758" lon="1.3886">
        <ele>2081.3916015625</ele>
        <time>2012-09-15T12:49:28Z</time>
      </trkpt>
      <trkpt lat="42.69753" lon="1.38865">
        <ele>2079.9497070312</ele>
        <time>2012-09-15T12:49:34Z</time>
      </trkpt>
      <trkpt lat="42.6975" lon="1.38873">
        <ele>2079.4689941406</ele>
        <time>2012-09-15T12:49:40Z</time>
      </trkpt>
      <trkpt lat="42.69749" lon="1.38877">
        <ele>2079.4689941406</ele>
        <time>2012-09-15T12:49:43Z</time>
      </trkpt>
      <trkpt lat="42.69742" lon="1.38888">
        <ele>2081.3916015625</ele>
        <time>2012-09-15T12:49:53Z</time>
      </trkpt>
      <trkpt lat="42.69737" lon="1.38893">
        <ele>2082.8334960938</ele>
        <time>2012-09-15T12:50:00Z</time>
      </trkpt>
      <trkpt lat="42.69733" lon="1.38898">
        <ele>2083.794921875</ele>
        <time>2012-09-15T12:50:06Z</time>
      </trkpt>
      <trkpt lat="42.69728" lon="1.38902">
        <ele>2083.794921875</ele>
        <time>2012-09-15T12:50:11Z</time>
      </trkpt>
      <trkpt lat="42.69721" lon="1.38901">
        <ele>2083.794921875</ele>
        <time>2012-09-15T12:50:18Z</time>
      </trkpt>
      <trkpt lat="42.69715" lon="1.38902">
        <ele>2084.2756347656</ele>
        <time>2012-09-15T12:50:25Z</time>
      </trkpt>
      <trkpt lat="42.69709" lon="1.38904">
        <ele>2084.2756347656</ele>
        <time>2012-09-15T12:50:31Z</time>
      </trkpt>
      <trkpt lat="42.69701" lon="1.38903">
        <ele>2084.2756347656</ele>
        <time>2012-09-15T12:50:40Z</time>
      </trkpt>
      <trkpt lat="42.69693" lon="1.38906">
        <ele>2081.8723144531</ele>
        <time>2012-09-15T12:50:48Z</time>
      </trkpt>
      <trkpt lat="42.69686" lon="1.38907">
        <ele>2079.4689941406</ele>
        <time>2012-09-15T12:50:54Z</time>
      </trkpt>
      <trkpt lat="42.69678" lon="1.38906">
        <ele>2079.4689941406</ele>
        <time>2012-09-15T12:51:01Z</time>
      </trkpt>
      <trkpt lat="42.69677" lon="1.38906">
        <ele>2079.9497070312</ele>
        <time>2012-09-15T12:51:02Z</time>
      </trkpt>
      <trkpt lat="42.69673" lon="1.38906">
        <ele>2080.9111328125</ele>
        <time>2012-09-15T12:51:09Z</time>
      </trkpt>
      <trkpt lat="42.6967" lon="1.38908">
        <ele>2081.3916015625</ele>
        <time>2012-09-15T12:51:14Z</time>
      </trkpt>
      <trkpt lat="42.69667" lon="1.38907">
        <ele>2082.3530273438</ele>
        <time>2012-09-15T12:51:19Z</time>
      </trkpt>
      <trkpt lat="42.69663" lon="1.38908">
        <ele>2082.3530273438</ele>
        <time>2012-09-15T12:51:25Z</time>
      </trkpt>
      <trkpt lat="42.69661" lon="1.38911">
        <ele>2082.8334960938</ele>
        <time>2012-09-15T12:51:31Z</time>
      </trkpt>
      <trkpt lat="42.69658" lon="1.38916">
        <ele>2082.3530273438</ele>
        <time>2012-09-15T12:51:37Z</time>
      </trkpt>
      <trkpt lat="42.69655" lon="1.3892">
        <ele>2082.3530273438</ele>
        <time>2012-09-15T12:51:42Z</time>
      </trkpt>
      <trkpt lat="42.69655" lon="1.38921">
        <ele>2082.3530273438</ele>
        <time>2012-09-15T12:51:47Z</time>
      </trkpt>
      <trkpt lat="42.69653" lon="1.38922">
        <ele>2082.8334960938</ele>
        <time>2012-09-15T12:51:52Z</time>
      </trkpt>
      <trkpt lat="42.69651" lon="1.38923">
        <ele>2082.8334960938</ele>
        <time>2012-09-15T12:51:58Z</time>
      </trkpt>
      <trkpt lat="42.69648" lon="1.38922">
        <ele>2083.3142089844</ele>
        <time>2012-09-15T12:52:03Z</time>
      </trkpt>
      <trkpt lat="42.69643" lon="1.38924">
        <ele>2083.794921875</ele>
        <time>2012-09-15T12:52:10Z</time>
      </trkpt>
      <trkpt lat="42.69642" lon="1.38925">
        <ele>2083.794921875</ele>
        <time>2012-09-15T12:52:14Z</time>
      </trkpt>
      <trkpt lat="42.69638" lon="1.3893">
        <ele>2085.2368164062</ele>
        <time>2012-09-15T12:52:20Z</time>
      </trkpt>
      <trkpt lat="42.69635" lon="1.38933">
        <ele>2086.6787109375</ele>
        <time>2012-09-15T12:52:25Z</time>
      </trkpt>
      <trkpt lat="42.69631" lon="1.38938">
        <ele>2087.1594238281</ele>
        <time>2012-09-15T12:52:32Z</time>
      </trkpt>
      <trkpt lat="42.69627" lon="1.38943">
        <ele>2087.1594238281</ele>
        <time>2012-09-15T12:52:38Z</time>
      </trkpt>
      <trkpt lat="42.69622" lon="1.38948">
        <ele>2087.6401367188</ele>
        <time>2012-09-15T12:52:45Z</time>
      </trkpt>
      <trkpt lat="42.69617" lon="1.3895">
        <ele>2088.6015625</ele>
        <time>2012-09-15T12:52:50Z</time>
      </trkpt>
      <trkpt lat="42.69614" lon="1.38952">
        <ele>2089.5627441406</ele>
        <time>2012-09-15T12:52:55Z</time>
      </trkpt>
      <trkpt lat="42.69611" lon="1.38955">
        <ele>2091.0046386719</ele>
        <time>2012-09-15T12:53:01Z</time>
      </trkpt>
      <trkpt lat="42.69607" lon="1.38958">
        <ele>2091.9660644531</ele>
        <time>2012-09-15T12:53:07Z</time>
      </trkpt>
      <trkpt lat="42.69603" lon="1.38962">
        <ele>2092.9274902344</ele>
        <time>2012-09-15T12:53:13Z</time>
      </trkpt>
      <trkpt lat="42.696" lon="1.38964">
        <ele>2093.8889160156</ele>
        <time>2012-09-15T12:53:19Z</time>
      </trkpt>
      <trkpt lat="42.69599" lon="1.38963">
        <ele>2093.8889160156</ele>
        <time>2012-09-15T12:53:27Z</time>
      </trkpt>
      <trkpt lat="42.69599" lon="1.38964">
        <ele>2093.408203125</ele>
        <time>2012-09-15T12:53:35Z</time>
      </trkpt>
      <trkpt lat="42.696" lon="1.38965">
        <ele>2092.4470214844</ele>
        <time>2012-09-15T12:53:54Z</time>
      </trkpt>
      <trkpt lat="42.69598" lon="1.38965">
        <ele>2093.408203125</ele>
        <time>2012-09-15T12:54:37Z</time>
      </trkpt>
      <trkpt lat="42.69596" lon="1.38966">
        <ele>2093.8889160156</ele>
        <time>2012-09-15T12:54:42Z</time>
      </trkpt>
      <trkpt lat="42.69591" lon="1.38967">
        <ele>2094.3693847656</ele>
        <time>2012-09-15T12:54:48Z</time>
      </trkpt>
      <trkpt lat="42.69589" lon="1.38966">
        <ele>2095.3308105469</ele>
        <time>2012-09-15T12:54:52Z</time>
      </trkpt>
      <trkpt lat="42.69584" lon="1.38969">
        <ele>2096.2922363281</ele>
        <time>2012-09-15T12:54:59Z</time>
      </trkpt>
      <trkpt lat="42.69579" lon="1.38971">
        <ele>2096.7727050781</ele>
        <time>2012-09-15T12:55:06Z</time>
      </trkpt>
      <trkpt lat="42.69575" lon="1.38972">
        <ele>2098.6953125</ele>
        <time>2012-09-15T12:55:13Z</time>
      </trkpt>
      <trkpt lat="42.69571" lon="1.38973">
        <ele>2100.1374511719</ele>
        <time>2012-09-15T12:55:20Z</time>
      </trkpt>
      <trkpt lat="42.69567" lon="1.38977">
        <ele>2101.0986328125</ele>
        <time>2012-09-15T12:55:27Z</time>
      </trkpt>
      <trkpt lat="42.69562" lon="1.3898">
        <ele>2102.0598144531</ele>
        <time>2012-09-15T12:55:35Z</time>
      </trkpt>
      <trkpt lat="42.69558" lon="1.38983">
        <ele>2103.9826660156</ele>
        <time>2012-09-15T12:55:41Z</time>
      </trkpt>
      <trkpt lat="42.69551" lon="1.38986">
        <ele>2105.9050292969</ele>
        <time>2012-09-15T12:55:49Z</time>
      </trkpt>
      <trkpt lat="42.69546" lon="1.38988">
        <ele>2106.8664550781</ele>
        <time>2012-09-15T12:55:55Z</time>
      </trkpt>
      <trkpt lat="42.69543" lon="1.38989">
        <ele>2107.8278808594</ele>
        <time>2012-09-15T12:56:00Z</time>
      </trkpt>
      <trkpt lat="42.69539" lon="1.3899">
        <ele>2108.30859375</ele>
        <time>2012-09-15T12:56:05Z</time>
      </trkpt>
      <trkpt lat="42.69534" lon="1.38993">
        <ele>2108.7893066406</ele>
        <time>2012-09-15T12:56:12Z</time>
      </trkpt>
      <trkpt lat="42.69531" lon="1.38994">
        <ele>2109.7504882812</ele>
        <time>2012-09-15T12:56:17Z</time>
      </trkpt>
      <trkpt lat="42.69526" lon="1.38994">
        <ele>2110.2312011719</ele>
        <time>2012-09-15T12:56:24Z</time>
      </trkpt>
      <trkpt lat="42.69523" lon="1.38994">
        <ele>2110.7119140625</ele>
        <time>2012-09-15T12:56:30Z</time>
      </trkpt>
      <trkpt lat="42.6952" lon="1.38994">
        <ele>2112.1538085938</ele>
        <time>2012-09-15T12:56:36Z</time>
      </trkpt>
      <trkpt lat="42.69518" lon="1.38994">
        <ele>2113.115234375</ele>
        <time>2012-09-15T12:56:41Z</time>
      </trkpt>
      <trkpt lat="42.69514" lon="1.38994">
        <ele>2114.5571289062</ele>
        <time>2012-09-15T12:56:47Z</time>
      </trkpt>
      <trkpt lat="42.69512" lon="1.38995">
        <ele>2115.0378417969</ele>
        <time>2012-09-15T12:56:52Z</time>
      </trkpt>
      <trkpt lat="42.69509" lon="1.39002">
        <ele>2115.9990234375</ele>
        <time>2012-09-15T12:56:59Z</time>
      </trkpt>
      <trkpt lat="42.69505" lon="1.39001">
        <ele>2115.9990234375</ele>
        <time>2012-09-15T12:57:06Z</time>
      </trkpt>
      <trkpt lat="42.69502" lon="1.39001">
        <ele>2117.4409179688</ele>
        <time>2012-09-15T12:57:12Z</time>
      </trkpt>
      <trkpt lat="42.69501" lon="1.39004">
        <ele>2118.8830566406</ele>
        <time>2012-09-15T12:57:17Z</time>
      </trkpt>
      <trkpt lat="42.69499" lon="1.39008">
        <ele>2119.3637695312</ele>
        <time>2012-09-15T12:57:23Z</time>
      </trkpt>
      <trkpt lat="42.69495" lon="1.39017">
        <ele>2118.8830566406</ele>
        <time>2012-09-15T12:57:30Z</time>
      </trkpt>
      <trkpt lat="42.69494" lon="1.39018">
        <ele>2118.8830566406</ele>
        <time>2012-09-15T12:57:31Z</time>
      </trkpt>
      <trkpt lat="42.69487" lon="1.39025">
        <ele>2119.8442382812</ele>
        <time>2012-09-15T12:57:39Z</time>
      </trkpt>
      <trkpt lat="42.69485" lon="1.39026">
        <ele>2119.8442382812</ele>
        <time>2012-09-15T12:57:41Z</time>
      </trkpt>
      <trkpt lat="42.69481" lon="1.39031">
        <ele>2119.3637695312</ele>
        <time>2012-09-15T12:57:47Z</time>
      </trkpt>
      <trkpt lat="42.6948" lon="1.39032">
        <ele>2119.8442382812</ele>
        <time>2012-09-15T12:57:48Z</time>
      </trkpt>
      <trkpt lat="42.69476" lon="1.39033">
        <ele>2120.8056640625</ele>
        <time>2012-09-15T12:57:54Z</time>
      </trkpt>
      <trkpt lat="42.69472" lon="1.39037">
        <ele>2120.8056640625</ele>
        <time>2012-09-15T12:58:00Z</time>
      </trkpt>
      <trkpt lat="42.69469" lon="1.39043">
        <ele>2119.8442382812</ele>
        <time>2012-09-15T12:58:06Z</time>
      </trkpt>
      <trkpt lat="42.69464" lon="1.3905">
        <ele>2119.3637695312</ele>
        <time>2012-09-15T12:58:13Z</time>
      </trkpt>
      <trkpt lat="42.69464" lon="1.3905">
        <ele>2119.3637695312</ele>
        <time>2012-09-15T12:58:14Z</time>
      </trkpt>
      <trkpt lat="42.69459" lon="1.39057">
        <ele>2119.8442382812</ele>
        <time>2012-09-15T12:58:21Z</time>
      </trkpt>
      <trkpt lat="42.69454" lon="1.39062">
        <ele>2121.2861328125</ele>
        <time>2012-09-15T12:58:28Z</time>
      </trkpt>
      <trkpt lat="42.69448" lon="1.39069">
        <ele>2124.1704101562</ele>
        <time>2012-09-15T12:58:37Z</time>
      </trkpt>
      <trkpt lat="42.69442" lon="1.39074">
        <ele>2125.6123046875</ele>
        <time>2012-09-15T12:58:46Z</time>
      </trkpt>
      <trkpt lat="42.69439" lon="1.39079">
        <ele>2127.0544433594</ele>
        <time>2012-09-15T12:58:52Z</time>
      </trkpt>
      <trkpt lat="42.69437" lon="1.39081">
        <ele>2127.5349121094</ele>
        <time>2012-09-15T12:58:56Z</time>
      </trkpt>
      <trkpt lat="42.69434" lon="1.39083">
        <ele>2127.0544433594</ele>
        <time>2012-09-15T12:59:01Z</time>
      </trkpt>
      <trkpt lat="42.69431" lon="1.39084">
        <ele>2127.0544433594</ele>
        <time>2012-09-15T12:59:05Z</time>
      </trkpt>
      <trkpt lat="42.69427" lon="1.39089">
        <ele>2126.5737304688</ele>
        <time>2012-09-15T12:59:11Z</time>
      </trkpt>
      <trkpt lat="42.69421" lon="1.39094">
        <ele>2126.0930175781</ele>
        <time>2012-09-15T12:59:18Z</time>
      </trkpt>
      <trkpt lat="42.69416" lon="1.39099">
        <ele>2126.0930175781</ele>
        <time>2012-09-15T12:59:24Z</time>
      </trkpt>
      <trkpt lat="42.69411" lon="1.39104">
        <ele>2125.6123046875</ele>
        <time>2012-09-15T12:59:31Z</time>
      </trkpt>
      <trkpt lat="42.69405" lon="1.39111">
        <ele>2125.1315917969</ele>
        <time>2012-09-15T12:59:40Z</time>
      </trkpt>
      <trkpt lat="42.69401" lon="1.39113">
        <ele>2125.6123046875</ele>
        <time>2012-09-15T12:59:44Z</time>
      </trkpt>
      <trkpt lat="42.69396" lon="1.39114">
        <ele>2126.5737304688</ele>
        <time>2012-09-15T12:59:50Z</time>
      </trkpt>
      <trkpt lat="42.6939" lon="1.39117">
        <ele>2128.015625</ele>
        <time>2012-09-15T12:59:56Z</time>
      </trkpt>
      <trkpt lat="42.69386" lon="1.3912">
        <ele>2129.9382324219</ele>
        <time>2012-09-15T13:00:01Z</time>
      </trkpt>
      <trkpt lat="42.69382" lon="1.39122">
        <ele>2129.9382324219</ele>
        <time>2012-09-15T13:00:07Z</time>
      </trkpt>
      <trkpt lat="42.69377" lon="1.39125">
        <ele>2130.4189453125</ele>
        <time>2012-09-15T13:00:12Z</time>
      </trkpt>
      <trkpt lat="42.69375" lon="1.39133">
        <ele>2130.8996582031</ele>
        <time>2012-09-15T13:00:19Z</time>
      </trkpt>
      <trkpt lat="42.69375" lon="1.39136">
        <ele>2130.4189453125</ele>
        <time>2012-09-15T13:00:21Z</time>
      </trkpt>
      <trkpt lat="42.69372" lon="1.39146">
        <ele>2130.8996582031</ele>
        <time>2012-09-15T13:00:28Z</time>
      </trkpt>
      <trkpt lat="42.69368" lon="1.39153">
        <ele>2130.8996582031</ele>
        <time>2012-09-15T13:00:35Z</time>
      </trkpt>
      <trkpt lat="42.69364" lon="1.39156">
        <ele>2130.4189453125</ele>
        <time>2012-09-15T13:00:41Z</time>
      </trkpt>
      <trkpt lat="42.6936" lon="1.39154">
        <ele>2130.4189453125</ele>
        <time>2012-09-15T13:00:46Z</time>
      </trkpt>
      <trkpt lat="42.69357" lon="1.39147">
        <ele>2130.8996582031</ele>
        <time>2012-09-15T13:00:53Z</time>
      </trkpt>
      <trkpt lat="42.69355" lon="1.39144">
        <ele>2131.8608398438</ele>
        <time>2012-09-15T13:00:57Z</time>
      </trkpt>
      <trkpt lat="42.6935" lon="1.39146">
        <ele>2132.8220214844</ele>
        <time>2012-09-15T13:01:03Z</time>
      </trkpt>
      <trkpt lat="42.69347" lon="1.39145">
        <ele>2133.7834472656</ele>
        <time>2012-09-15T13:01:08Z</time>
      </trkpt>
      <trkpt lat="42.69345" lon="1.39147">
        <ele>2133.7834472656</ele>
        <time>2012-09-15T13:01:13Z</time>
      </trkpt>
      <trkpt lat="42.69342" lon="1.3915">
        <ele>2133.7834472656</ele>
        <time>2012-09-15T13:01:19Z</time>
      </trkpt>
      <trkpt lat="42.69338" lon="1.39155">
        <ele>2133.302734375</ele>
        <time>2012-09-15T13:01:26Z</time>
      </trkpt>
      <trkpt lat="42.69334" lon="1.39162">
        <ele>2133.302734375</ele>
        <time>2012-09-15T13:01:33Z</time>
      </trkpt>
      <trkpt lat="42.69333" lon="1.39168">
        <ele>2133.7834472656</ele>
        <time>2012-09-15T13:01:38Z</time>
      </trkpt>
      <trkpt lat="42.69328" lon="1.39173">
        <ele>2134.7448730469</ele>
        <time>2012-09-15T13:01:44Z</time>
      </trkpt>
      <trkpt lat="42.69324" lon="1.3918">
        <ele>2134.7448730469</ele>
        <time>2012-09-15T13:01:51Z</time>
      </trkpt>
      <trkpt lat="42.6932" lon="1.39186">
        <ele>2133.302734375</ele>
        <time>2012-09-15T13:01:57Z</time>
      </trkpt>
      <trkpt lat="42.69314" lon="1.39191">
        <ele>2132.3415527344</ele>
        <time>2012-09-15T13:02:03Z</time>
      </trkpt>
      <trkpt lat="42.6931" lon="1.39195">
        <ele>2131.8608398438</ele>
        <time>2012-09-15T13:02:09Z</time>
      </trkpt>
      <trkpt lat="42.69304" lon="1.39206">
        <ele>2130.4189453125</ele>
        <time>2012-09-15T13:02:17Z</time>
      </trkpt>
      <trkpt lat="42.69302" lon="1.39215">
        <ele>2130.4189453125</ele>
        <time>2012-09-15T13:02:23Z</time>
      </trkpt>
      <trkpt lat="42.69297" lon="1.39225">
        <ele>2129.4575195312</ele>
        <time>2012-09-15T13:02:30Z</time>
      </trkpt>
      <trkpt lat="42.69295" lon="1.39229">
        <ele>2128.015625</ele>
        <time>2012-09-15T13:02:35Z</time>
      </trkpt>
      <trkpt lat="42.6929" lon="1.39231">
        <ele>2128.4963378906</ele>
        <time>2012-09-15T13:02:42Z</time>
      </trkpt>
      <trkpt lat="42.69288" lon="1.39233">
        <ele>2129.4575195312</ele>
        <time>2012-09-15T13:02:47Z</time>
      </trkpt>
      <trkpt lat="42.69287" lon="1.39231">
        <ele>2130.4189453125</ele>
        <time>2012-09-15T13:02:51Z</time>
      </trkpt>
      <trkpt lat="42.69285" lon="1.3923">
        <ele>2131.8608398438</ele>
        <time>2012-09-15T13:02:56Z</time>
      </trkpt>
      <trkpt lat="42.69281" lon="1.39228">
        <ele>2133.302734375</ele>
        <time>2012-09-15T13:03:03Z</time>
      </trkpt>
      <trkpt lat="42.69279" lon="1.39228">
        <ele>2134.7448730469</ele>
        <time>2012-09-15T13:03:09Z</time>
      </trkpt>
      <trkpt lat="42.69279" lon="1.39227">
        <ele>2135.7060546875</ele>
        <time>2012-09-15T13:03:13Z</time>
      </trkpt>
      <trkpt lat="42.69272" lon="1.39228">
        <ele>2135.7060546875</ele>
        <time>2012-09-15T13:04:37Z</time>
      </trkpt>
      <trkpt lat="42.69254" lon="1.39229">
        <ele>2128.4963378906</ele>
        <time>2012-09-15T13:04:50Z</time>
      </trkpt>
      <trkpt lat="42.69255" lon="1.39229">
        <ele>2128.9768066406</ele>
        <time>2012-09-15T13:05:07Z</time>
      </trkpt>
      <trkpt lat="42.69255" lon="1.39228">
        <ele>2128.9768066406</ele>
        <time>2012-09-15T13:05:10Z</time>
      </trkpt>
      <trkpt lat="42.69258" lon="1.39231">
        <ele>2130.4189453125</ele>
        <time>2012-09-15T13:05:20Z</time>
      </trkpt>
      <trkpt lat="42.69257" lon="1.39232">
        <ele>2131.8608398438</ele>
        <time>2012-09-15T13:05:25Z</time>
      </trkpt>
      <trkpt lat="42.69261" lon="1.39228">
        <ele>2135.7060546875</ele>
        <time>2012-09-15T13:05:30Z</time>
      </trkpt>
      <trkpt lat="42.69263" lon="1.39228">
        <ele>2140.5126953125</ele>
        <time>2012-09-15T13:05:36Z</time>
      </trkpt>
      <trkpt lat="42.69266" lon="1.39229">
        <ele>2145.8000488281</ele>
        <time>2012-09-15T13:05:48Z</time>
      </trkpt>
      <trkpt lat="42.69267" lon="1.39228">
        <ele>2147.72265625</ele>
        <time>2012-09-15T13:06:02Z</time>
      </trkpt>
      <trkpt lat="42.69264" lon="1.39228">
        <ele>2148.6838378906</ele>
        <time>2012-09-15T13:06:08Z</time>
      </trkpt>
      <trkpt lat="42.69262" lon="1.39229">
        <ele>2149.6452636719</ele>
        <time>2012-09-15T13:06:14Z</time>
      </trkpt>
      <trkpt lat="42.69261" lon="1.39227">
        <ele>2150.6064453125</ele>
        <time>2012-09-15T13:06:18Z</time>
      </trkpt>
      <trkpt lat="42.6926" lon="1.39224">
        <ele>2151.5678710938</ele>
        <time>2012-09-15T13:06:23Z</time>
      </trkpt>
      <trkpt lat="42.69258" lon="1.39224">
        <ele>2152.5290527344</ele>
        <time>2012-09-15T13:06:28Z</time>
      </trkpt>
      <trkpt lat="42.69256" lon="1.39223">
        <ele>2153.4904785156</ele>
        <time>2012-09-15T13:06:34Z</time>
      </trkpt>
      <trkpt lat="42.69255" lon="1.39223">
        <ele>2153.9711914062</ele>
        <time>2012-09-15T13:06:35Z</time>
      </trkpt>
      <trkpt lat="42.69252" lon="1.39224">
        <ele>2154.4516601562</ele>
        <time>2012-09-15T13:06:41Z</time>
      </trkpt>
      <trkpt lat="42.69252" lon="1.39222">
        <ele>2155.8935546875</ele>
        <time>2012-09-15T13:06:46Z</time>
      </trkpt>
      <trkpt lat="42.69252" lon="1.39221">
        <ele>2155.8935546875</ele>
        <time>2012-09-15T13:06:51Z</time>
      </trkpt>
      <trkpt lat="42.6925" lon="1.39222">
        <ele>2156.8552246094</ele>
        <time>2012-09-15T13:07:03Z</time>
      </trkpt>
      <trkpt lat="42.69249" lon="1.3922">
        <ele>2157.3359375</ele>
        <time>2012-09-15T13:07:09Z</time>
      </trkpt>
      <trkpt lat="42.69248" lon="1.39218">
        <ele>2158.2971191406</ele>
        <time>2012-09-15T13:07:15Z</time>
      </trkpt>
      <trkpt lat="42.69245" lon="1.39217">
        <ele>2158.2971191406</ele>
        <time>2012-09-15T13:07:20Z</time>
      </trkpt>
      <trkpt lat="42.69243" lon="1.39216">
        <ele>2159.2585449219</ele>
        <time>2012-09-15T13:07:25Z</time>
      </trkpt>
      <trkpt lat="42.69243" lon="1.39215">
        <ele>2160.2197265625</ele>
        <time>2012-09-15T13:07:28Z</time>
      </trkpt>
      <trkpt lat="42.6924" lon="1.39215">
        <ele>2161.1811523438</ele>
        <time>2012-09-15T13:07:32Z</time>
      </trkpt>
      <trkpt lat="42.69237" lon="1.39215">
        <ele>2161.6618652344</ele>
        <time>2012-09-15T13:07:39Z</time>
      </trkpt>
      <trkpt lat="42.69234" lon="1.39216">
        <ele>2162.623046875</ele>
        <time>2012-09-15T13:07:44Z</time>
      </trkpt>
      <trkpt lat="42.69233" lon="1.39215">
        <ele>2163.5842285156</ele>
        <time>2012-09-15T13:07:49Z</time>
      </trkpt>
      <trkpt lat="42.69232" lon="1.39211">
        <ele>2164.0649414062</ele>
        <time>2012-09-15T13:07:55Z</time>
      </trkpt>
      <trkpt lat="42.69231" lon="1.39209">
        <ele>2164.5456542969</ele>
        <time>2012-09-15T13:08:00Z</time>
      </trkpt>
      <trkpt lat="42.69233" lon="1.3921">
        <ele>2165.9875488281</ele>
        <time>2012-09-15T13:08:17Z</time>
      </trkpt>
      <trkpt lat="42.69232" lon="1.39208">
        <ele>2165.5070800781</ele>
        <time>2012-09-15T13:08:32Z</time>
      </trkpt>
      <trkpt lat="42.69228" lon="1.39208">
        <ele>2166.9489746094</ele>
        <time>2012-09-15T13:08:45Z</time>
      </trkpt>
      <trkpt lat="42.69226" lon="1.39207">
        <ele>2168.3908691406</ele>
        <time>2012-09-15T13:08:50Z</time>
      </trkpt>
      <trkpt lat="42.69224" lon="1.39206">
        <ele>2169.8327636719</ele>
        <time>2012-09-15T13:08:56Z</time>
      </trkpt>
      <trkpt lat="42.69223" lon="1.39204">
        <ele>2171.2746582031</ele>
        <time>2012-09-15T13:09:02Z</time>
      </trkpt>
      <trkpt lat="42.69221" lon="1.39203">
        <ele>2172.236328125</ele>
        <time>2012-09-15T13:09:08Z</time>
      </trkpt>
      <trkpt lat="42.6922" lon="1.392">
        <ele>2172.7170410156</ele>
        <time>2012-09-15T13:09:13Z</time>
      </trkpt>
      <trkpt lat="42.69218" lon="1.392">
        <ele>2174.1589355469</ele>
        <time>2012-09-15T13:09:20Z</time>
      </trkpt>
      <trkpt lat="42.69217" lon="1.39199">
        <ele>2175.1201171875</ele>
        <time>2012-09-15T13:09:25Z</time>
      </trkpt>
      <trkpt lat="42.69216" lon="1.39199">
        <ele>2176.0815429688</ele>
        <time>2012-09-15T13:09:32Z</time>
      </trkpt>
      <trkpt lat="42.69215" lon="1.392">
        <ele>2177.04296875</ele>
        <time>2012-09-15T13:09:38Z</time>
      </trkpt>
      <trkpt lat="42.69213" lon="1.39198">
        <ele>2178.0041503906</ele>
        <time>2012-09-15T13:09:43Z</time>
      </trkpt>
      <trkpt lat="42.69212" lon="1.39199">
        <ele>2179.4460449219</ele>
        <time>2012-09-15T13:09:49Z</time>
      </trkpt>
      <trkpt lat="42.69211" lon="1.39201">
        <ele>2180.4074707031</ele>
        <time>2012-09-15T13:09:54Z</time>
      </trkpt>
      <trkpt lat="42.69209" lon="1.39202">
        <ele>2180.8881835938</ele>
        <time>2012-09-15T13:09:58Z</time>
      </trkpt>
      <trkpt lat="42.69209" lon="1.39202">
        <ele>2180.8881835938</ele>
        <time>2012-09-15T13:10:11Z</time>
      </trkpt>
      <trkpt lat="42.69207" lon="1.39202">
        <ele>2181.3686523438</ele>
        <time>2012-09-15T13:10:17Z</time>
      </trkpt>
      <trkpt lat="42.69204" lon="1.392">
        <ele>2182.330078125</ele>
        <time>2012-09-15T13:10:23Z</time>
      </trkpt>
      <trkpt lat="42.69202" lon="1.39199">
        <ele>2183.2912597656</ele>
        <time>2012-09-15T13:10:28Z</time>
      </trkpt>
      <trkpt lat="42.69201" lon="1.39198">
        <ele>2183.7719726562</ele>
        <time>2012-09-15T13:10:34Z</time>
      </trkpt>
      <trkpt lat="42.69201" lon="1.39196">
        <ele>2184.7333984375</ele>
        <time>2012-09-15T13:10:42Z</time>
      </trkpt>
      <trkpt lat="42.69202" lon="1.39193">
        <ele>2185.6945800781</ele>
        <time>2012-09-15T13:10:54Z</time>
      </trkpt>
      <trkpt lat="42.69202" lon="1.3919">
        <ele>2186.1752929688</ele>
        <time>2012-09-15T13:11:00Z</time>
      </trkpt>
      <trkpt lat="42.69201" lon="1.39188">
        <ele>2188.0981445312</ele>
        <time>2012-09-15T13:11:07Z</time>
      </trkpt>
      <trkpt lat="42.69201" lon="1.39185">
        <ele>2189.5400390625</ele>
        <time>2012-09-15T13:11:13Z</time>
      </trkpt>
      <trkpt lat="42.69201" lon="1.39184">
        <ele>2190.0207519531</ele>
        <time>2012-09-15T13:11:17Z</time>
      </trkpt>
      <trkpt lat="42.69199" lon="1.39184">
        <ele>2191.4626464844</ele>
        <time>2012-09-15T13:11:22Z</time>
      </trkpt>
      <trkpt lat="42.69198" lon="1.39184">
        <ele>2191.943359375</ele>
        <time>2012-09-15T13:11:28Z</time>
      </trkpt>
      <trkpt lat="42.69196" lon="1.39186">
        <ele>2192.9045410156</ele>
        <time>2012-09-15T13:12:00Z</time>
      </trkpt>
      <trkpt lat="42.69193" lon="1.39185">
        <ele>2193.8659667969</ele>
        <time>2012-09-15T13:12:05Z</time>
      </trkpt>
      <trkpt lat="42.69192" lon="1.39183">
        <ele>2195.3078613281</ele>
        <time>2012-09-15T13:12:12Z</time>
      </trkpt>
      <trkpt lat="42.69191" lon="1.39181">
        <ele>2196.2692871094</ele>
        <time>2012-09-15T13:12:17Z</time>
      </trkpt>
      <trkpt lat="42.69188" lon="1.39181">
        <ele>2197.23046875</ele>
        <time>2012-09-15T13:12:22Z</time>
      </trkpt>
      <trkpt lat="42.69186" lon="1.39179">
        <ele>2198.1916503906</ele>
        <time>2012-09-15T13:12:28Z</time>
      </trkpt>
      <trkpt lat="42.69185" lon="1.39177">
        <ele>2199.6337890625</ele>
        <time>2012-09-15T13:12:34Z</time>
      </trkpt>
      <trkpt lat="42.69186" lon="1.39175">
        <ele>2200.1145019531</ele>
        <time>2012-09-15T13:12:38Z</time>
      </trkpt>
      <trkpt lat="42.69185" lon="1.39173">
        <ele>2201.5563964844</ele>
        <time>2012-09-15T13:12:45Z</time>
      </trkpt>
      <trkpt lat="42.69184" lon="1.39171">
        <ele>2202.0368652344</ele>
        <time>2012-09-15T13:12:51Z</time>
      </trkpt>
      <trkpt lat="42.69183" lon="1.3917">
        <ele>2203.4790039062</ele>
        <time>2012-09-15T13:12:58Z</time>
      </trkpt>
      <trkpt lat="42.69181" lon="1.39169">
        <ele>2205.4018554688</ele>
        <time>2012-09-15T13:13:10Z</time>
      </trkpt>
      <trkpt lat="42.6918" lon="1.39168">
        <ele>2205.4018554688</ele>
        <time>2012-09-15T13:13:17Z</time>
      </trkpt>
      <trkpt lat="42.69177" lon="1.3917">
        <ele>2205.8823242188</ele>
        <time>2012-09-15T13:13:24Z</time>
      </trkpt>
      <trkpt lat="42.69175" lon="1.39172">
        <ele>2206.84375</ele>
        <time>2012-09-15T13:13:31Z</time>
      </trkpt>
      <trkpt lat="42.69172" lon="1.39174">
        <ele>2208.7663574219</ele>
        <time>2012-09-15T13:13:40Z</time>
      </trkpt>
      <trkpt lat="42.6917" lon="1.39174">
        <ele>2209.2470703125</ele>
        <time>2012-09-15T13:13:45Z</time>
      </trkpt>
      <trkpt lat="42.69167" lon="1.39174">
        <ele>2210.2082519531</ele>
        <time>2012-09-15T13:13:51Z</time>
      </trkpt>
      <trkpt lat="42.69167" lon="1.39174">
        <ele>2210.6889648438</ele>
        <time>2012-09-15T13:13:53Z</time>
      </trkpt>
      <trkpt lat="42.69164" lon="1.39176">
        <ele>2212.6115722656</ele>
        <time>2012-09-15T13:13:58Z</time>
      </trkpt>
      <trkpt lat="42.69163" lon="1.39178">
        <ele>2214.0534667969</ele>
        <time>2012-09-15T13:14:03Z</time>
      </trkpt>
      <trkpt lat="42.69161" lon="1.39179">
        <ele>2214.5341796875</ele>
        <time>2012-09-15T13:14:10Z</time>
      </trkpt>
      <trkpt lat="42.69159" lon="1.39181">
        <ele>2215.0148925781</ele>
        <time>2012-09-15T13:14:16Z</time>
      </trkpt>
      <trkpt lat="42.69157" lon="1.39183">
        <ele>2216.9375</ele>
        <time>2012-09-15T13:14:22Z</time>
      </trkpt>
      <trkpt lat="42.69155" lon="1.39183">
        <ele>2217.41796875</ele>
        <time>2012-09-15T13:14:28Z</time>
      </trkpt>
      <trkpt lat="42.69153" lon="1.39184">
        <ele>2218.3793945312</ele>
        <time>2012-09-15T13:14:39Z</time>
      </trkpt>
      <trkpt lat="42.69151" lon="1.39186">
        <ele>2217.41796875</ele>
        <time>2012-09-15T13:14:55Z</time>
      </trkpt>
      <trkpt lat="42.69149" lon="1.39187">
        <ele>2218.8601074219</ele>
        <time>2012-09-15T13:15:00Z</time>
      </trkpt>
      <trkpt lat="42.69148" lon="1.39187">
        <ele>2219.8212890625</ele>
        <time>2012-09-15T13:15:06Z</time>
      </trkpt>
      <trkpt lat="42.69147" lon="1.3919">
        <ele>2220.7829589844</ele>
        <time>2012-09-15T13:15:11Z</time>
      </trkpt>
      <trkpt lat="42.69146" lon="1.39192">
        <ele>2221.2634277344</ele>
        <time>2012-09-15T13:15:16Z</time>
      </trkpt>
      <trkpt lat="42.69145" lon="1.39195">
        <ele>2222.2248535156</ele>
        <time>2012-09-15T13:15:21Z</time>
      </trkpt>
      <trkpt lat="42.69144" lon="1.39199">
        <ele>2224.6281738281</ele>
        <time>2012-09-15T13:15:26Z</time>
      </trkpt>
      <trkpt lat="42.69142" lon="1.39202">
        <ele>2225.1086425781</ele>
        <time>2012-09-15T13:15:31Z</time>
      </trkpt>
      <trkpt lat="42.69138" lon="1.3921">
        <ele>2226.0700683594</ele>
        <time>2012-09-15T13:15:39Z</time>
      </trkpt>
      <trkpt lat="42.69136" lon="1.3922">
        <ele>2227.5119628906</ele>
        <time>2012-09-15T13:15:47Z</time>
      </trkpt>
      <trkpt lat="42.69135" lon="1.3923">
        <ele>2227.9926757812</ele>
        <time>2012-09-15T13:15:55Z</time>
      </trkpt>
      <trkpt lat="42.69132" lon="1.39238">
        <ele>2228.4733886719</ele>
        <time>2012-09-15T13:16:01Z</time>
      </trkpt>
      <trkpt lat="42.69131" lon="1.39242">
        <ele>2228.9538574219</ele>
        <time>2012-09-15T13:16:06Z</time>
      </trkpt>
      <trkpt lat="42.69128" lon="1.39246">
        <ele>2230.3959960938</ele>
        <time>2012-09-15T13:16:12Z</time>
      </trkpt>
      <trkpt lat="42.69126" lon="1.39248">
        <ele>2230.8767089844</ele>
        <time>2012-09-15T13:16:18Z</time>
      </trkpt>
      <trkpt lat="42.69125" lon="1.39251">
        <ele>2230.8767089844</ele>
        <time>2012-09-15T13:16:22Z</time>
      </trkpt>
      <trkpt lat="42.69126" lon="1.39256">
        <ele>2231.837890625</ele>
        <time>2012-09-15T13:16:28Z</time>
      </trkpt>
      <trkpt lat="42.69131" lon="1.39258">
        <ele>2234.7219238281</ele>
        <time>2012-09-15T13:16:44Z</time>
      </trkpt>
      <trkpt lat="42.69133" lon="1.39263">
        <ele>2237.1252441406</ele>
        <time>2012-09-15T13:16:54Z</time>
      </trkpt>
      <trkpt lat="42.69133" lon="1.39267">
        <ele>2236.64453125</ele>
        <time>2012-09-15T13:16:59Z</time>
      </trkpt>
      <trkpt lat="42.69135" lon="1.39269">
        <ele>2236.64453125</ele>
        <time>2012-09-15T13:17:04Z</time>
      </trkpt>
      <trkpt lat="42.69136" lon="1.39274">
        <ele>2237.6059570312</ele>
        <time>2012-09-15T13:17:10Z</time>
      </trkpt>
      <trkpt lat="42.69133" lon="1.39278">
        <ele>2237.6059570312</ele>
        <time>2012-09-15T13:17:16Z</time>
      </trkpt>
      <trkpt lat="42.69131" lon="1.39281">
        <ele>2237.6059570312</ele>
        <time>2012-09-15T13:17:20Z</time>
      </trkpt>
      <trkpt lat="42.6913" lon="1.39286">
        <ele>2238.0866699219</ele>
        <time>2012-09-15T13:17:27Z</time>
      </trkpt>
      <trkpt lat="42.69129" lon="1.39291">
        <ele>2238.0866699219</ele>
        <time>2012-09-15T13:17:35Z</time>
      </trkpt>
      <trkpt lat="42.69128" lon="1.39298">
        <ele>2238.0866699219</ele>
        <time>2012-09-15T13:17:41Z</time>
      </trkpt>
      <trkpt lat="42.69125" lon="1.39304">
        <ele>2238.0866699219</ele>
        <time>2012-09-15T13:17:46Z</time>
      </trkpt>
      <trkpt lat="42.69125" lon="1.39311">
        <ele>2237.6059570312</ele>
        <time>2012-09-15T13:17:52Z</time>
      </trkpt>
      <trkpt lat="42.69124" lon="1.39317">
        <ele>2237.6059570312</ele>
        <time>2012-09-15T13:17:57Z</time>
      </trkpt>
      <trkpt lat="42.69124" lon="1.39322">
        <ele>2238.0866699219</ele>
        <time>2012-09-15T13:18:01Z</time>
      </trkpt>
      <trkpt lat="42.69126" lon="1.39334">
        <ele>2239.0478515625</ele>
        <time>2012-09-15T13:18:10Z</time>
      </trkpt>
      <trkpt lat="42.69127" lon="1.39342">
        <ele>2239.0478515625</ele>
        <time>2012-09-15T13:18:16Z</time>
      </trkpt>
      <trkpt lat="42.69129" lon="1.39348">
        <ele>2238.5673828125</ele>
        <time>2012-09-15T13:18:21Z</time>
      </trkpt>
      <trkpt lat="42.6913" lon="1.39356">
        <ele>2238.5673828125</ele>
        <time>2012-09-15T13:18:27Z</time>
      </trkpt>
      <trkpt lat="42.69133" lon="1.39364">
        <ele>2238.5673828125</ele>
        <time>2012-09-15T13:18:33Z</time>
      </trkpt>
      <trkpt lat="42.69132" lon="1.39372">
        <ele>2240.0092773438</ele>
        <time>2012-09-15T13:18:39Z</time>
      </trkpt>
      <trkpt lat="42.6913" lon="1.3938">
        <ele>2240.9704589844</ele>
        <time>2012-09-15T13:18:46Z</time>
      </trkpt>
      <trkpt lat="42.69127" lon="1.39387">
        <ele>2240.0092773438</ele>
        <time>2012-09-15T13:18:53Z</time>
      </trkpt>
      <trkpt lat="42.69125" lon="1.39388">
        <ele>2240.0092773438</ele>
        <time>2012-09-15T13:18:58Z</time>
      </trkpt>
      <trkpt lat="42.69126" lon="1.39386">
        <ele>2240.4897460938</ele>
        <time>2012-09-15T13:19:05Z</time>
      </trkpt>
      <trkpt lat="42.69127" lon="1.39378">
        <ele>2240.4897460938</ele>
        <time>2012-09-15T13:19:11Z</time>
      </trkpt>
      <trkpt lat="42.6913" lon="1.39371">
        <ele>2240.4897460938</ele>
        <time>2012-09-15T13:19:18Z</time>
      </trkpt>
      <trkpt lat="42.6913" lon="1.39363">
        <ele>2239.5285644531</ele>
        <time>2012-09-15T13:19:24Z</time>
      </trkpt>
      <trkpt lat="42.69128" lon="1.39357">
        <ele>2239.0478515625</ele>
        <time>2012-09-15T13:19:30Z</time>
      </trkpt>
      <trkpt lat="42.69126" lon="1.39347">
        <ele>2240.0092773438</ele>
        <time>2012-09-15T13:19:38Z</time>
      </trkpt>
      <trkpt lat="42.69124" lon="1.39341">
        <ele>2240.4897460938</ele>
        <time>2012-09-15T13:19:44Z</time>
      </trkpt>
      <trkpt lat="42.69122" lon="1.39334">
        <ele>2241.451171875</ele>
        <time>2012-09-15T13:19:50Z</time>
      </trkpt>
      <trkpt lat="42.69121" lon="1.39327">
        <ele>2240.9704589844</ele>
        <time>2012-09-15T13:19:57Z</time>
      </trkpt>
      <trkpt lat="42.69121" lon="1.3932">
        <ele>2240.4897460938</ele>
        <time>2012-09-15T13:20:02Z</time>
      </trkpt>
      <trkpt lat="42.69121" lon="1.39312">
        <ele>2240.0092773438</ele>
        <time>2012-09-15T13:20:09Z</time>
      </trkpt>
      <trkpt lat="42.69121" lon="1.39308">
        <ele>2239.5285644531</ele>
        <time>2012-09-15T13:20:14Z</time>
      </trkpt>
      <trkpt lat="42.69123" lon="1.39301">
        <ele>2240.4897460938</ele>
        <time>2012-09-15T13:20:20Z</time>
      </trkpt>
      <trkpt lat="42.69125" lon="1.39295">
        <ele>2240.9704589844</ele>
        <time>2012-09-15T13:20:25Z</time>
      </trkpt>
      <trkpt lat="42.69127" lon="1.39289">
        <ele>2240.4897460938</ele>
        <time>2012-09-15T13:20:31Z</time>
      </trkpt>
      <trkpt lat="42.69127" lon="1.39283">
        <ele>2240.0092773438</ele>
        <time>2012-09-15T13:20:39Z</time>
      </trkpt>
      <trkpt lat="42.69123" lon="1.39282">
        <ele>2240.9704589844</ele>
        <time>2012-09-15T13:20:44Z</time>
      </trkpt>
      <trkpt lat="42.69121" lon="1.3928">
        <ele>2241.9318847656</ele>
        <time>2012-09-15T13:20:48Z</time>
      </trkpt>
      <trkpt lat="42.69119" lon="1.39278">
        <ele>2242.8930664062</ele>
        <time>2012-09-15T13:20:54Z</time>
      </trkpt>
      <trkpt lat="42.69116" lon="1.39275">
        <ele>2243.8544921875</ele>
        <time>2012-09-15T13:21:00Z</time>
      </trkpt>
      <trkpt lat="42.69113" lon="1.39272">
        <ele>2244.8156738281</ele>
        <time>2012-09-15T13:21:07Z</time>
      </trkpt>
      <trkpt lat="42.69111" lon="1.39271">
        <ele>2245.7770996094</ele>
        <time>2012-09-15T13:21:11Z</time>
      </trkpt>
      <trkpt lat="42.69107" lon="1.39267">
        <ele>2246.73828125</ele>
        <time>2012-09-15T13:21:18Z</time>
      </trkpt>
      <trkpt lat="42.69102" lon="1.39262">
        <ele>2247.2189941406</ele>
        <time>2012-09-15T13:21:26Z</time>
      </trkpt>
      <trkpt lat="42.69099" lon="1.39259">
        <ele>2248.1801757812</ele>
        <time>2012-09-15T13:21:31Z</time>
      </trkpt>
      <trkpt lat="42.69098" lon="1.39256">
        <ele>2249.1416015625</ele>
        <time>2012-09-15T13:21:37Z</time>
      </trkpt>
      <trkpt lat="42.69095" lon="1.39254">
        <ele>2249.6223144531</ele>
        <time>2012-09-15T13:21:42Z</time>
      </trkpt>
      <trkpt lat="42.69093" lon="1.3925">
        <ele>2250.5834960938</ele>
        <time>2012-09-15T13:21:48Z</time>
      </trkpt>
      <trkpt lat="42.69091" lon="1.39249">
        <ele>2251.0642089844</ele>
        <time>2012-09-15T13:21:54Z</time>
      </trkpt>
      <trkpt lat="42.6909" lon="1.39247">
        <ele>2251.544921875</ele>
        <time>2012-09-15T13:22:00Z</time>
      </trkpt>
      <trkpt lat="42.69088" lon="1.39246">
        <ele>2250.1030273438</ele>
        <time>2012-09-15T13:22:26Z</time>
      </trkpt>
      <trkpt lat="42.69084" lon="1.39242">
        <ele>2251.544921875</ele>
        <time>2012-09-15T13:22:33Z</time>
      </trkpt>
      <trkpt lat="42.69081" lon="1.39237">
        <ele>2252.0256347656</ele>
        <time>2012-09-15T13:22:39Z</time>
      </trkpt>
      <trkpt lat="42.6908" lon="1.39235">
        <ele>2252.9870605469</ele>
        <time>2012-09-15T13:22:43Z</time>
      </trkpt>
      <trkpt lat="42.69078" lon="1.39232">
        <ele>2253.9484863281</ele>
        <time>2012-09-15T13:22:48Z</time>
      </trkpt>
      <trkpt lat="42.69077" lon="1.39227">
        <ele>2254.9096679688</ele>
        <time>2012-09-15T13:22:54Z</time>
      </trkpt>
      <trkpt lat="42.69076" lon="1.39223">
        <ele>2256.3515625</ele>
        <time>2012-09-15T13:23:00Z</time>
      </trkpt>
      <trkpt lat="42.69074" lon="1.39218">
        <ele>2257.7937011719</ele>
        <time>2012-09-15T13:23:06Z</time>
      </trkpt>
      <trkpt lat="42.69073" lon="1.39215">
        <ele>2258.7548828125</ele>
        <time>2012-09-15T13:23:13Z</time>
      </trkpt>
      <trkpt lat="42.69071" lon="1.39213">
        <ele>2260.1967773438</ele>
        <time>2012-09-15T13:23:18Z</time>
      </trkpt>
      <trkpt lat="42.6907" lon="1.3921">
        <ele>2261.158203125</ele>
        <time>2012-09-15T13:23:25Z</time>
      </trkpt>
      <trkpt lat="42.6907" lon="1.3921">
        <ele>2261.6389160156</ele>
        <time>2012-09-15T13:23:35Z</time>
      </trkpt>
      <trkpt lat="42.6907" lon="1.3921">
        <ele>2263.0808105469</ele>
        <time>2012-09-15T13:23:49Z</time>
      </trkpt>
      <trkpt lat="42.69068" lon="1.39207">
        <ele>2263.5612792969</ele>
        <time>2012-09-15T13:24:02Z</time>
      </trkpt>
      <trkpt lat="42.69065" lon="1.39203">
        <ele>2265.4841308594</ele>
        <time>2012-09-15T13:24:08Z</time>
      </trkpt>
      <trkpt lat="42.69064" lon="1.39201">
        <ele>2266.4453125</ele>
        <time>2012-09-15T13:24:14Z</time>
      </trkpt>
      <trkpt lat="42.69061" lon="1.39199">
        <ele>2267.4064941406</ele>
        <time>2012-09-15T13:24:20Z</time>
      </trkpt>
      <trkpt lat="42.69059" lon="1.39197">
        <ele>2268.8488769531</ele>
        <time>2012-09-15T13:24:25Z</time>
      </trkpt>
      <trkpt lat="42.69058" lon="1.39195">
        <ele>2269.8100585938</ele>
        <time>2012-09-15T13:24:30Z</time>
      </trkpt>
      <trkpt lat="42.69056" lon="1.39194">
        <ele>2270.771484375</ele>
        <time>2012-09-15T13:24:35Z</time>
      </trkpt>
      <trkpt lat="42.69055" lon="1.39195">
        <ele>2271.251953125</ele>
        <time>2012-09-15T13:24:44Z</time>
      </trkpt>
      <trkpt lat="42.69053" lon="1.39197">
        <ele>2272.6940917969</ele>
        <time>2012-09-15T13:24:49Z</time>
      </trkpt>
      <trkpt lat="42.69051" lon="1.39199">
        <ele>2273.1748046875</ele>
        <time>2012-09-15T13:24:55Z</time>
      </trkpt>
      <trkpt lat="42.6905" lon="1.39199">
        <ele>2273.6552734375</ele>
        <time>2012-09-15T13:25:00Z</time>
      </trkpt>
      <trkpt lat="42.69048" lon="1.39201">
        <ele>2274.6166992188</ele>
        <time>2012-09-15T13:25:24Z</time>
      </trkpt>
      <trkpt lat="42.69046" lon="1.39201">
        <ele>2275.5778808594</ele>
        <time>2012-09-15T13:25:29Z</time>
      </trkpt>
      <trkpt lat="42.69044" lon="1.39202">
        <ele>2277.0200195312</ele>
        <time>2012-09-15T13:25:35Z</time>
      </trkpt>
      <trkpt lat="42.69042" lon="1.39203">
        <ele>2277.9812011719</ele>
        <time>2012-09-15T13:25:39Z</time>
      </trkpt>
      <trkpt lat="42.6904" lon="1.39202">
        <ele>2278.9423828125</ele>
        <time>2012-09-15T13:25:44Z</time>
      </trkpt>
      <trkpt lat="42.69039" lon="1.39205">
        <ele>2279.9038085938</ele>
        <time>2012-09-15T13:25:50Z</time>
      </trkpt>
      <trkpt lat="42.69036" lon="1.39205">
        <ele>2281.345703125</ele>
        <time>2012-09-15T13:25:56Z</time>
      </trkpt>
      <trkpt lat="42.69035" lon="1.39206">
        <ele>2281.8264160156</ele>
        <time>2012-09-15T13:26:03Z</time>
      </trkpt>
      <trkpt lat="42.69034" lon="1.39209">
        <ele>2283.2683105469</ele>
        <time>2012-09-15T13:26:21Z</time>
      </trkpt>
      <trkpt lat="42.69031" lon="1.39211">
        <ele>2284.2299804688</ele>
        <time>2012-09-15T13:26:28Z</time>
      </trkpt>
      <trkpt lat="42.69029" lon="1.39211">
        <ele>2285.671875</ele>
        <time>2012-09-15T13:26:33Z</time>
      </trkpt>
      <trkpt lat="42.69028" lon="1.39213">
        <ele>2286.1525878906</ele>
        <time>2012-09-15T13:26:39Z</time>
      </trkpt>
      <trkpt lat="42.69026" lon="1.39218">
        <ele>2287.5944824219</ele>
        <time>2012-09-15T13:26:46Z</time>
      </trkpt>
      <trkpt lat="42.69025" lon="1.3922">
        <ele>2288.0751953125</ele>
        <time>2012-09-15T13:26:51Z</time>
      </trkpt>
      <trkpt lat="42.69024" lon="1.39222">
        <ele>2289.0363769531</ele>
        <time>2012-09-15T13:26:55Z</time>
      </trkpt>
      <trkpt lat="42.69022" lon="1.39222">
        <ele>2289.5170898438</ele>
        <time>2012-09-15T13:27:00Z</time>
      </trkpt>
      <trkpt lat="42.6902" lon="1.39224">
        <ele>2289.9978027344</ele>
        <time>2012-09-15T13:27:05Z</time>
      </trkpt>
      <trkpt lat="42.69018" lon="1.39224">
        <ele>2291.4396972656</ele>
        <time>2012-09-15T13:27:12Z</time>
      </trkpt>
      <trkpt lat="42.69017" lon="1.39226">
        <ele>2292.8815917969</ele>
        <time>2012-09-15T13:27:19Z</time>
      </trkpt>
      <trkpt lat="42.69014" lon="1.39226">
        <ele>2292.4011230469</ele>
        <time>2012-09-15T13:27:48Z</time>
      </trkpt>
      <trkpt lat="42.69011" lon="1.39224">
        <ele>2294.3234863281</ele>
        <time>2012-09-15T13:27:53Z</time>
      </trkpt>
      <trkpt lat="42.69011" lon="1.3922">
        <ele>2295.765625</ele>
        <time>2012-09-15T13:28:00Z</time>
      </trkpt>
      <trkpt lat="42.69007" lon="1.39222">
        <ele>2297.6882324219</ele>
        <time>2012-09-15T13:28:07Z</time>
      </trkpt>
      <trkpt lat="42.69003" lon="1.39223">
        <ele>2298.6494140625</ele>
        <time>2012-09-15T13:28:13Z</time>
      </trkpt>
      <trkpt lat="42.68999" lon="1.39229">
        <ele>2299.6108398438</ele>
        <time>2012-09-15T13:28:20Z</time>
      </trkpt>
      <trkpt lat="42.68994" lon="1.39233">
        <ele>2300.572265625</ele>
        <time>2012-09-15T13:28:27Z</time>
      </trkpt>
      <trkpt lat="42.6899" lon="1.39236">
        <ele>2302.4948730469</ele>
        <time>2012-09-15T13:28:34Z</time>
      </trkpt>
      <trkpt lat="42.68988" lon="1.39238">
        <ele>2302.4948730469</ele>
        <time>2012-09-15T13:28:38Z</time>
      </trkpt>
      <trkpt lat="42.68984" lon="1.39243">
        <ele>2302.9755859375</ele>
        <time>2012-09-15T13:28:44Z</time>
      </trkpt>
      <trkpt lat="42.6898" lon="1.39249">
        <ele>2303.4562988281</ele>
        <time>2012-09-15T13:28:51Z</time>
      </trkpt>
      <trkpt lat="42.68977" lon="1.39256">
        <ele>2304.8981933594</ele>
        <time>2012-09-15T13:28:58Z</time>
      </trkpt>
      <trkpt lat="42.68973" lon="1.39261">
        <ele>2306.3400878906</ele>
        <time>2012-09-15T13:29:05Z</time>
      </trkpt>
      <trkpt lat="42.6897" lon="1.39266">
        <ele>2307.3015136719</ele>
        <time>2012-09-15T13:29:11Z</time>
      </trkpt>
      <trkpt lat="42.68969" lon="1.39268">
        <ele>2308.7434082031</ele>
        <time>2012-09-15T13:29:16Z</time>
      </trkpt>
      <trkpt lat="42.68967" lon="1.3927">
        <ele>2309.2241210938</ele>
        <time>2012-09-15T13:29:21Z</time>
      </trkpt>
      <trkpt lat="42.68963" lon="1.39273">
        <ele>2309.7045898438</ele>
        <time>2012-09-15T13:29:27Z</time>
      </trkpt>
      <trkpt lat="42.6896" lon="1.39274">
        <ele>2310.666015625</ele>
        <time>2012-09-15T13:29:32Z</time>
      </trkpt>
      <trkpt lat="42.68956" lon="1.39273">
        <ele>2311.1467285156</ele>
        <time>2012-09-15T13:29:38Z</time>
      </trkpt>
      <trkpt lat="42.68955" lon="1.39273">
        <ele>2312.1079101562</ele>
        <time>2012-09-15T13:29:45Z</time>
      </trkpt>
      <trkpt lat="42.6895" lon="1.39273">
        <ele>2313.0693359375</ele>
        <time>2012-09-15T13:29:52Z</time>
      </trkpt>
      <trkpt lat="42.68943" lon="1.39274">
        <ele>2313.0693359375</ele>
        <time>2012-09-15T13:30:01Z</time>
      </trkpt>
      <trkpt lat="42.68938" lon="1.39275">
        <ele>2311.6274414062</ele>
        <time>2012-09-15T13:30:08Z</time>
      </trkpt>
      <trkpt lat="42.68934" lon="1.39276">
        <ele>2312.1079101562</ele>
        <time>2012-09-15T13:30:13Z</time>
      </trkpt>
      <trkpt lat="42.68932" lon="1.3928">
        <ele>2313.0693359375</ele>
        <time>2012-09-15T13:30:19Z</time>
      </trkpt>
      <trkpt lat="42.6893" lon="1.39288">
        <ele>2312.5886230469</ele>
        <time>2012-09-15T13:30:27Z</time>
      </trkpt>
      <trkpt lat="42.68929" lon="1.39293">
        <ele>2310.1853027344</ele>
        <time>2012-09-15T13:30:35Z</time>
      </trkpt>
      <trkpt lat="42.68924" lon="1.39296">
        <ele>2308.7434082031</ele>
        <time>2012-09-15T13:30:41Z</time>
      </trkpt>
      <trkpt lat="42.68918" lon="1.39299">
        <ele>2308.2626953125</ele>
        <time>2012-09-15T13:30:48Z</time>
      </trkpt>
      <trkpt lat="42.68916" lon="1.393">
        <ele>2307.3015136719</ele>
        <time>2012-09-15T13:30:53Z</time>
      </trkpt>
      <trkpt lat="42.68914" lon="1.39301">
        <ele>2305.859375</ele>
        <time>2012-09-15T13:31:01Z</time>
      </trkpt>
      <trkpt lat="42.68911" lon="1.39305">
        <ele>2302.9755859375</ele>
        <time>2012-09-15T13:31:08Z</time>
      </trkpt>
      <trkpt lat="42.68907" lon="1.3931">
        <ele>2301.5336914062</ele>
        <time>2012-09-15T13:31:12Z</time>
      </trkpt>
      <trkpt lat="42.68904" lon="1.39314">
        <ele>2300.091796875</ele>
        <time>2012-09-15T13:31:16Z</time>
      </trkpt>
      <trkpt lat="42.68899" lon="1.3932">
        <ele>2298.1687011719</ele>
        <time>2012-09-15T13:31:24Z</time>
      </trkpt>
      <trkpt lat="42.68894" lon="1.3932">
        <ele>2296.2463378906</ele>
        <time>2012-09-15T13:31:30Z</time>
      </trkpt>
      <trkpt lat="42.68892" lon="1.39323">
        <ele>2295.2849121094</ele>
        <time>2012-09-15T13:31:34Z</time>
      </trkpt>
      <trkpt lat="42.68885" lon="1.39323">
        <ele>2294.3234863281</ele>
        <time>2012-09-15T13:31:40Z</time>
      </trkpt>
      <trkpt lat="42.68882" lon="1.39325">
        <ele>2293.8430175781</ele>
        <time>2012-09-15T13:31:44Z</time>
      </trkpt>
      <trkpt lat="42.68881" lon="1.39326">
        <ele>2293.3623046875</ele>
        <time>2012-09-15T13:31:45Z</time>
      </trkpt>
      <trkpt lat="42.68877" lon="1.3933">
        <ele>2293.8430175781</ele>
        <time>2012-09-15T13:31:51Z</time>
      </trkpt>
      <trkpt lat="42.68875" lon="1.39332">
        <ele>2297.2075195312</ele>
        <time>2012-09-15T13:32:01Z</time>
      </trkpt>
      <trkpt lat="42.68873" lon="1.39333">
        <ele>2297.2075195312</ele>
        <time>2012-09-15T13:32:06Z</time>
      </trkpt>
      <trkpt lat="42.68871" lon="1.39335">
        <ele>2296.2463378906</ele>
        <time>2012-09-15T13:32:10Z</time>
      </trkpt>
      <trkpt lat="42.68869" lon="1.39339">
        <ele>2294.8041992188</ele>
        <time>2012-09-15T13:32:15Z</time>
      </trkpt>
      <trkpt lat="42.68866" lon="1.39342">
        <ele>2293.3623046875</ele>
        <time>2012-09-15T13:32:20Z</time>
      </trkpt>
      <trkpt lat="42.68863" lon="1.39345">
        <ele>2292.4011230469</ele>
        <time>2012-09-15T13:32:24Z</time>
      </trkpt>
      <trkpt lat="42.6886" lon="1.39349">
        <ele>2289.9978027344</ele>
        <time>2012-09-15T13:32:29Z</time>
      </trkpt>
      <trkpt lat="42.68856" lon="1.39351">
        <ele>2288.0751953125</ele>
        <time>2012-09-15T13:32:35Z</time>
      </trkpt>
      <trkpt lat="42.68854" lon="1.39355">
        <ele>2285.671875</ele>
        <time>2012-09-15T13:32:41Z</time>
      </trkpt>
      <trkpt lat="42.68854" lon="1.39359">
        <ele>2283.2683105469</ele>
        <time>2012-09-15T13:32:45Z</time>
      </trkpt>
      <trkpt lat="42.68851" lon="1.39362">
        <ele>2280.865234375</ele>
        <time>2012-09-15T13:32:51Z</time>
      </trkpt>
      <trkpt lat="42.68849" lon="1.39365">
        <ele>2279.9038085938</ele>
        <time>2012-09-15T13:32:55Z</time>
      </trkpt>
      <trkpt lat="42.6885" lon="1.39368">
        <ele>2277.9812011719</ele>
        <time>2012-09-15T13:33:00Z</time>
      </trkpt>
      <trkpt lat="42.68848" lon="1.3937">
        <ele>2276.5393066406</ele>
        <time>2012-09-15T13:33:05Z</time>
      </trkpt>
      <trkpt lat="42.68847" lon="1.39371">
        <ele>2274.1359863281</ele>
        <time>2012-09-15T13:33:09Z</time>
      </trkpt>
      <trkpt lat="42.68844" lon="1.39374">
        <ele>2271.7326660156</ele>
        <time>2012-09-15T13:33:14Z</time>
      </trkpt>
      <trkpt lat="42.68841" lon="1.39375">
        <ele>2270.771484375</ele>
        <time>2012-09-15T13:33:18Z</time>
      </trkpt>
      <trkpt lat="42.6884" lon="1.39379">
        <ele>2270.2907714844</ele>
        <time>2012-09-15T13:33:23Z</time>
      </trkpt>
      <trkpt lat="42.68842" lon="1.39383">
        <ele>2268.3681640625</ele>
        <time>2012-09-15T13:33:28Z</time>
      </trkpt>
      <trkpt lat="42.68843" lon="1.39386">
        <ele>2267.8872070312</ele>
        <time>2012-09-15T13:33:32Z</time>
      </trkpt>
      <trkpt lat="42.68844" lon="1.3939">
        <ele>2265.9645996094</ele>
        <time>2012-09-15T13:33:36Z</time>
      </trkpt>
      <trkpt lat="42.68846" lon="1.39396">
        <ele>2263.5612792969</ele>
        <time>2012-09-15T13:33:41Z</time>
      </trkpt>
      <trkpt lat="42.68844" lon="1.39401">
        <ele>2260.6774902344</ele>
        <time>2012-09-15T13:33:46Z</time>
      </trkpt>
      <trkpt lat="42.68846" lon="1.39405">
        <ele>2259.2355957031</ele>
        <time>2012-09-15T13:33:51Z</time>
      </trkpt>
      <trkpt lat="42.68845" lon="1.39409">
        <ele>2260.1967773438</ele>
        <time>2012-09-15T13:33:56Z</time>
      </trkpt>
      <trkpt lat="42.68848" lon="1.39413">
        <ele>2260.1967773438</ele>
        <time>2012-09-15T13:34:00Z</time>
      </trkpt>
      <trkpt lat="42.68849" lon="1.39417">
        <ele>2258.7548828125</ele>
        <time>2012-09-15T13:34:04Z</time>
      </trkpt>
      <trkpt lat="42.6885" lon="1.3942">
        <ele>2258.2741699219</ele>
        <time>2012-09-15T13:34:08Z</time>
      </trkpt>
      <trkpt lat="42.68854" lon="1.39422">
        <ele>2256.8322753906</ele>
        <time>2012-09-15T13:34:13Z</time>
      </trkpt>
      <trkpt lat="42.68855" lon="1.39427">
        <ele>2257.3129882812</ele>
        <time>2012-09-15T13:34:18Z</time>
      </trkpt>
      <trkpt lat="42.68854" lon="1.39431">
        <ele>2257.3129882812</ele>
        <time>2012-09-15T13:34:22Z</time>
      </trkpt>
      <trkpt lat="42.68849" lon="1.39431">
        <ele>2257.3129882812</ele>
        <time>2012-09-15T13:34:28Z</time>
      </trkpt>
      <trkpt lat="42.68848" lon="1.39434">
        <ele>2256.8322753906</ele>
        <time>2012-09-15T13:34:33Z</time>
      </trkpt>
      <trkpt lat="42.68849" lon="1.39439">
        <ele>2255.8708496094</ele>
        <time>2012-09-15T13:34:38Z</time>
      </trkpt>
      <trkpt lat="42.6885" lon="1.39441">
        <ele>2253.9484863281</ele>
        <time>2012-09-15T13:34:49Z</time>
      </trkpt>
      <trkpt lat="42.68853" lon="1.39446">
        <ele>2253.4677734375</ele>
        <time>2012-09-15T13:34:58Z</time>
      </trkpt>
      <trkpt lat="42.68856" lon="1.39443">
        <ele>2255.3903808594</ele>
        <time>2012-09-15T13:35:03Z</time>
      </trkpt>
      <trkpt lat="42.68859" lon="1.3944">
        <ele>2258.2741699219</ele>
        <time>2012-09-15T13:35:09Z</time>
      </trkpt>
      <trkpt lat="42.68864" lon="1.39441">
        <ele>2260.6774902344</ele>
        <time>2012-09-15T13:35:15Z</time>
      </trkpt>
      <trkpt lat="42.68869" lon="1.39442">
        <ele>2263.0808105469</ele>
        <time>2012-09-15T13:35:23Z</time>
      </trkpt>
      <trkpt lat="42.68875" lon="1.39444">
        <ele>2265.0034179688</ele>
        <time>2012-09-15T13:35:32Z</time>
      </trkpt>
      <trkpt lat="42.68879" lon="1.39446">
        <ele>2265.9645996094</ele>
        <time>2012-09-15T13:35:38Z</time>
      </trkpt>
      <trkpt lat="42.68884" lon="1.39449">
        <ele>2265.9645996094</ele>
        <time>2012-09-15T13:35:45Z</time>
      </trkpt>
      <trkpt lat="42.68886" lon="1.3945">
        <ele>2266.4453125</ele>
        <time>2012-09-15T13:35:50Z</time>
      </trkpt>
      <trkpt lat="42.68889" lon="1.39452">
        <ele>2266.9260253906</ele>
        <time>2012-09-15T13:35:56Z</time>
      </trkpt>
      <trkpt lat="42.68892" lon="1.39452">
        <ele>2267.8872070312</ele>
        <time>2012-09-15T13:36:02Z</time>
      </trkpt>
      <trkpt lat="42.68895" lon="1.39452">
        <ele>2267.8872070312</ele>
        <time>2012-09-15T13:36:06Z</time>
      </trkpt>
      <trkpt lat="42.68901" lon="1.39453">
        <ele>2267.4064941406</ele>
        <time>2012-09-15T13:36:13Z</time>
      </trkpt>
      <trkpt lat="42.68907" lon="1.39458">
        <ele>2268.3681640625</ele>
        <time>2012-09-15T13:36:20Z</time>
      </trkpt>
      <trkpt lat="42.68911" lon="1.39461">
        <ele>2268.3681640625</ele>
        <time>2012-09-15T13:36:27Z</time>
      </trkpt>
      <trkpt lat="42.68914" lon="1.39461">
        <ele>2269.8100585938</ele>
        <time>2012-09-15T13:36:34Z</time>
      </trkpt>
      <trkpt lat="42.6892" lon="1.39461">
        <ele>2272.6940917969</ele>
        <time>2012-09-15T13:36:50Z</time>
      </trkpt>
      <trkpt lat="42.68916" lon="1.39449">
        <ele>2284.7106933594</ele>
        <time>2012-09-15T13:36:57Z</time>
      </trkpt>
      <trkpt lat="42.68916" lon="1.39442">
        <ele>2293.8430175781</ele>
        <time>2012-09-15T13:37:17Z</time>
      </trkpt>
      <trkpt lat="42.68917" lon="1.39441">
        <ele>2296.7268066406</ele>
        <time>2012-09-15T13:37:27Z</time>
      </trkpt>
      <trkpt lat="42.68916" lon="1.3944">
        <ele>2296.2463378906</ele>
        <time>2012-09-15T13:37:35Z</time>
      </trkpt>
      <trkpt lat="42.68918" lon="1.39441">
        <ele>2296.2463378906</ele>
        <time>2012-09-15T13:37:43Z</time>
      </trkpt>
      <trkpt lat="42.68922" lon="1.39452">
        <ele>2281.345703125</ele>
        <time>2012-09-15T13:38:26Z</time>
      </trkpt>
      <trkpt lat="42.68923" lon="1.39457">
        <ele>2284.2299804688</ele>
        <time>2012-09-15T13:39:18Z</time>
      </trkpt>
      <trkpt lat="42.68927" lon="1.39464">
        <ele>2284.7106933594</ele>
        <time>2012-09-15T13:39:22Z</time>
      </trkpt>
      <trkpt lat="42.6893" lon="1.39465">
        <ele>2283.2683105469</ele>
        <time>2012-09-15T13:39:54Z</time>
      </trkpt>
      <trkpt lat="42.68925" lon="1.39459">
        <ele>2276.05859375</ele>
        <time>2012-09-15T13:40:00Z</time>
      </trkpt>
      <trkpt lat="42.68916" lon="1.39447">
        <ele>2273.1748046875</ele>
        <time>2012-09-15T13:40:13Z</time>
      </trkpt>
      <trkpt lat="42.68916" lon="1.39446">
        <ele>2273.1748046875</ele>
        <time>2012-09-15T13:40:20Z</time>
      </trkpt>
      <trkpt lat="42.68923" lon="1.39457">
        <ele>2274.6166992188</ele>
        <time>2012-09-15T13:40:25Z</time>
      </trkpt>
      <trkpt lat="42.6893" lon="1.39465">
        <ele>2273.1748046875</ele>
        <time>2012-09-15T13:40:31Z</time>
      </trkpt>
      <trkpt lat="42.68885" lon="1.39365">
        <ele>2369.306640625</ele>
        <time>2012-09-15T13:44:05Z</time>
      </trkpt>
      <trkpt lat="42.689" lon="1.39395">
        <ele>2344.7927246094</ele>
        <time>2012-09-15T13:44:07Z</time>
      </trkpt>
      <trkpt lat="42.68908" lon="1.39413">
        <ele>2329.4116210938</ele>
        <time>2012-09-15T13:44:09Z</time>
      </trkpt>
      <trkpt lat="42.68921" lon="1.39441">
        <ele>2300.572265625</ele>
        <time>2012-09-15T13:44:15Z</time>
      </trkpt>
      <trkpt lat="42.68928" lon="1.39455">
        <ele>2289.9978027344</ele>
        <time>2012-09-15T13:44:25Z</time>
      </trkpt>
      <trkpt lat="42.68932" lon="1.39458">
        <ele>2283.7490234375</ele>
        <time>2012-09-15T13:44:31Z</time>
      </trkpt>
      <trkpt lat="42.68936" lon="1.39462">
        <ele>2284.2299804688</ele>
        <time>2012-09-15T13:44:38Z</time>
      </trkpt>
      <trkpt lat="42.6894" lon="1.39461">
        <ele>2289.0363769531</ele>
        <time>2012-09-15T13:44:44Z</time>
      </trkpt>
      <trkpt lat="42.68941" lon="1.39463">
        <ele>2288.0751953125</ele>
        <time>2012-09-15T13:44:49Z</time>
      </trkpt>
      <trkpt lat="42.68946" lon="1.39463">
        <ele>2287.1137695312</ele>
        <time>2012-09-15T13:44:54Z</time>
      </trkpt>
      <trkpt lat="42.68952" lon="1.39463">
        <ele>2289.5170898438</ele>
        <time>2012-09-15T13:44:58Z</time>
      </trkpt>
      <trkpt lat="42.68959" lon="1.39467">
        <ele>2288.5559082031</ele>
        <time>2012-09-15T13:45:05Z</time>
      </trkpt>
      <trkpt lat="42.68958" lon="1.39469">
        <ele>2283.2683105469</ele>
        <time>2012-09-15T13:45:12Z</time>
      </trkpt>
      <trkpt lat="42.68961" lon="1.3947">
        <ele>2282.3071289062</ele>
        <time>2012-09-15T13:45:20Z</time>
      </trkpt>
      <trkpt lat="42.68967" lon="1.39474">
        <ele>2279.9038085938</ele>
        <time>2012-09-15T13:45:27Z</time>
      </trkpt>
      <trkpt lat="42.68972" lon="1.39479">
        <ele>2277.5004882812</ele>
        <time>2012-09-15T13:45:35Z</time>
      </trkpt>
      <trkpt lat="42.68978" lon="1.39483">
        <ele>2277.0200195312</ele>
        <time>2012-09-15T13:45:42Z</time>
      </trkpt>
      <trkpt lat="42.68984" lon="1.39483">
        <ele>2276.05859375</ele>
        <time>2012-09-15T13:45:48Z</time>
      </trkpt>
      <trkpt lat="42.68992" lon="1.39487">
        <ele>2277.0200195312</ele>
        <time>2012-09-15T13:45:56Z</time>
      </trkpt>
      <trkpt lat="42.68997" lon="1.39493">
        <ele>2275.0971679688</ele>
        <time>2012-09-15T13:46:03Z</time>
      </trkpt>
      <trkpt lat="42.69" lon="1.395">
        <ele>2272.6940917969</ele>
        <time>2012-09-15T13:46:10Z</time>
      </trkpt>
      <trkpt lat="42.69001" lon="1.39503">
        <ele>2272.2133789062</ele>
        <time>2012-09-15T13:46:15Z</time>
      </trkpt>
      <trkpt lat="42.69003" lon="1.39507">
        <ele>2272.6940917969</ele>
        <time>2012-09-15T13:46:21Z</time>
      </trkpt>
      <trkpt lat="42.69005" lon="1.39509">
        <ele>2273.1748046875</ele>
        <time>2012-09-15T13:46:26Z</time>
      </trkpt>
      <trkpt lat="42.69006" lon="1.39512">
        <ele>2274.1359863281</ele>
        <time>2012-09-15T13:46:32Z</time>
      </trkpt>
      <trkpt lat="42.69008" lon="1.39517">
        <ele>2275.0971679688</ele>
        <time>2012-09-15T13:46:38Z</time>
      </trkpt>
      <trkpt lat="42.69012" lon="1.39519">
        <ele>2274.6166992188</ele>
        <time>2012-09-15T13:46:44Z</time>
      </trkpt>
      <trkpt lat="42.69016" lon="1.39519">
        <ele>2272.2133789062</ele>
        <time>2012-09-15T13:46:49Z</time>
      </trkpt>
      <trkpt lat="42.69018" lon="1.39516">
        <ele>2270.2907714844</ele>
        <time>2012-09-15T13:46:55Z</time>
      </trkpt>
      <trkpt lat="42.69018" lon="1.3951">
        <ele>2270.2907714844</ele>
        <time>2012-09-15T13:47:01Z</time>
      </trkpt>
      <trkpt lat="42.69021" lon="1.39506">
        <ele>2268.3681640625</ele>
        <time>2012-09-15T13:47:06Z</time>
      </trkpt>
      <trkpt lat="42.69024" lon="1.39502">
        <ele>2265.9645996094</ele>
        <time>2012-09-15T13:47:11Z</time>
      </trkpt>
      <trkpt lat="42.69029" lon="1.39501">
        <ele>2263.0808105469</ele>
        <time>2012-09-15T13:47:17Z</time>
      </trkpt>
      <trkpt lat="42.69032" lon="1.39504">
        <ele>2262.1193847656</ele>
        <time>2012-09-15T13:47:21Z</time>
      </trkpt>
      <trkpt lat="42.69033" lon="1.39506">
        <ele>2261.6389160156</ele>
        <time>2012-09-15T13:47:25Z</time>
      </trkpt>
      <trkpt lat="42.69035" lon="1.39509">
        <ele>2260.6774902344</ele>
        <time>2012-09-15T13:47:29Z</time>
      </trkpt>
      <trkpt lat="42.69038" lon="1.3951">
        <ele>2260.1967773438</ele>
        <time>2012-09-15T13:47:33Z</time>
      </trkpt>
      <trkpt lat="42.69043" lon="1.39511">
        <ele>2258.7548828125</ele>
        <time>2012-09-15T13:47:39Z</time>
      </trkpt>
      <trkpt lat="42.69048" lon="1.39508">
        <ele>2257.7937011719</ele>
        <time>2012-09-15T13:47:46Z</time>
      </trkpt>
      <trkpt lat="42.69049" lon="1.39504">
        <ele>2257.7937011719</ele>
        <time>2012-09-15T13:47:49Z</time>
      </trkpt>
      <trkpt lat="42.69049" lon="1.39497">
        <ele>2257.7937011719</ele>
        <time>2012-09-15T13:47:55Z</time>
      </trkpt>
      <trkpt lat="42.69052" lon="1.39491">
        <ele>2257.7937011719</ele>
        <time>2012-09-15T13:48:01Z</time>
      </trkpt>
      <trkpt lat="42.69053" lon="1.39488">
        <ele>2256.8322753906</ele>
        <time>2012-09-15T13:48:05Z</time>
      </trkpt>
      <trkpt lat="42.69057" lon="1.39487">
        <ele>2254.9096679688</ele>
        <time>2012-09-15T13:48:10Z</time>
      </trkpt>
      <trkpt lat="42.69061" lon="1.39493">
        <ele>2254.9096679688</ele>
        <time>2012-09-15T13:48:15Z</time>
      </trkpt>
      <trkpt lat="42.69066" lon="1.39498">
        <ele>2253.4677734375</ele>
        <time>2012-09-15T13:48:22Z</time>
      </trkpt>
      <trkpt lat="42.69072" lon="1.39505">
        <ele>2252.0256347656</ele>
        <time>2012-09-15T13:48:29Z</time>
      </trkpt>
      <trkpt lat="42.69074" lon="1.39507">
        <ele>2250.5834960938</ele>
        <time>2012-09-15T13:48:35Z</time>
      </trkpt>
      <trkpt lat="42.69075" lon="1.39511">
        <ele>2249.6223144531</ele>
        <time>2012-09-15T13:48:40Z</time>
      </trkpt>
      <trkpt lat="42.69076" lon="1.39513">
        <ele>2248.1801757812</ele>
        <time>2012-09-15T13:48:47Z</time>
      </trkpt>
      <trkpt lat="42.6908" lon="1.39516">
        <ele>2247.6997070312</ele>
        <time>2012-09-15T13:48:53Z</time>
      </trkpt>
      <trkpt lat="42.69085" lon="1.39517">
        <ele>2245.2963867188</ele>
        <time>2012-09-15T13:48:59Z</time>
      </trkpt>
      <trkpt lat="42.69089" lon="1.39515">
        <ele>2244.3349609375</ele>
        <time>2012-09-15T13:49:04Z</time>
      </trkpt>
      <trkpt lat="42.69091" lon="1.3952">
        <ele>2243.8544921875</ele>
        <time>2012-09-15T13:49:08Z</time>
      </trkpt>
      <trkpt lat="42.69097" lon="1.39523">
        <ele>2242.4125976562</ele>
        <time>2012-09-15T13:49:15Z</time>
      </trkpt>
      <trkpt lat="42.69101" lon="1.39519">
        <ele>2241.9318847656</ele>
        <time>2012-09-15T13:49:21Z</time>
      </trkpt>
      <trkpt lat="42.69104" lon="1.3952">
        <ele>2243.3737792969</ele>
        <time>2012-09-15T13:49:26Z</time>
      </trkpt>
      <trkpt lat="42.69108" lon="1.39527">
        <ele>2242.8930664062</ele>
        <time>2012-09-15T13:49:32Z</time>
      </trkpt>
      <trkpt lat="42.6911" lon="1.39534">
        <ele>2241.9318847656</ele>
        <time>2012-09-15T13:49:37Z</time>
      </trkpt>
      <trkpt lat="42.69113" lon="1.39539">
        <ele>2241.451171875</ele>
        <time>2012-09-15T13:49:42Z</time>
      </trkpt>
      <trkpt lat="42.69122" lon="1.39545">
        <ele>2240.9704589844</ele>
        <time>2012-09-15T13:49:50Z</time>
      </trkpt>
      <trkpt lat="42.69128" lon="1.39553">
        <ele>2240.4897460938</ele>
        <time>2012-09-15T13:49:57Z</time>
      </trkpt>
      <trkpt lat="42.69131" lon="1.39559">
        <ele>2239.0478515625</ele>
        <time>2012-09-15T13:50:02Z</time>
      </trkpt>
      <trkpt lat="42.69131" lon="1.39559">
        <ele>2238.5673828125</ele>
        <time>2012-09-15T13:50:03Z</time>
      </trkpt>
      <trkpt lat="42.69132" lon="1.39562">
        <ele>2238.0866699219</ele>
        <time>2012-09-15T13:50:06Z</time>
      </trkpt>
      <trkpt lat="42.69131" lon="1.39573">
        <ele>2234.2412109375</ele>
        <time>2012-09-15T13:50:13Z</time>
      </trkpt>
      <trkpt lat="42.69132" lon="1.39578">
        <ele>2233.7604980469</ele>
        <time>2012-09-15T13:50:17Z</time>
      </trkpt>
      <trkpt lat="42.69135" lon="1.39588">
        <ele>2233.7604980469</ele>
        <time>2012-09-15T13:50:24Z</time>
      </trkpt>
      <trkpt lat="42.69136" lon="1.39597">
        <ele>2233.2797851562</ele>
        <time>2012-09-15T13:50:31Z</time>
      </trkpt>
      <trkpt lat="42.69136" lon="1.39599">
        <ele>2233.7604980469</ele>
        <time>2012-09-15T13:50:32Z</time>
      </trkpt>
      <trkpt lat="42.6913" lon="1.39605">
        <ele>2233.7604980469</ele>
        <time>2012-09-15T13:50:40Z</time>
      </trkpt>
      <trkpt lat="42.6913" lon="1.39613">
        <ele>2233.7604980469</ele>
        <time>2012-09-15T13:50:47Z</time>
      </trkpt>
      <trkpt lat="42.69129" lon="1.39622">
        <ele>2234.2412109375</ele>
        <time>2012-09-15T13:50:56Z</time>
      </trkpt>
      <trkpt lat="42.69125" lon="1.3963">
        <ele>2234.7219238281</ele>
        <time>2012-09-15T13:51:05Z</time>
      </trkpt>
      <trkpt lat="42.69123" lon="1.39636">
        <ele>2237.1252441406</ele>
        <time>2012-09-15T13:51:12Z</time>
      </trkpt>
      <trkpt lat="42.69122" lon="1.39643">
        <ele>2240.0092773438</ele>
        <time>2012-09-15T13:51:19Z</time>
      </trkpt>
      <trkpt lat="42.69122" lon="1.39653">
        <ele>2240.0092773438</ele>
        <time>2012-09-15T13:51:28Z</time>
      </trkpt>
      <trkpt lat="42.6912" lon="1.39658">
        <ele>2239.0478515625</ele>
        <time>2012-09-15T13:51:34Z</time>
      </trkpt>
      <trkpt lat="42.69119" lon="1.3966">
        <ele>2238.5673828125</ele>
        <time>2012-09-15T13:51:40Z</time>
      </trkpt>
      <trkpt lat="42.6912" lon="1.39659">
        <ele>2238.5673828125</ele>
        <time>2012-09-15T13:51:51Z</time>
      </trkpt>
      <trkpt lat="42.69122" lon="1.39662">
        <ele>2239.0478515625</ele>
        <time>2012-09-15T13:51:57Z</time>
      </trkpt>
      <trkpt lat="42.69122" lon="1.39661">
        <ele>2238.0866699219</ele>
        <time>2012-09-15T13:52:02Z</time>
      </trkpt>
      <trkpt lat="42.69119" lon="1.39661">
        <ele>2240.4897460938</ele>
        <time>2012-09-15T13:52:13Z</time>
      </trkpt>
      <trkpt lat="42.69119" lon="1.39661">
        <ele>2237.6059570312</ele>
        <time>2012-09-15T13:52:18Z</time>
      </trkpt>
      <trkpt lat="42.69119" lon="1.39661">
        <ele>2235.6831054688</ele>
        <time>2012-09-15T13:52:24Z</time>
      </trkpt>
      <trkpt lat="42.69122" lon="1.39661">
        <ele>2230.3959960938</ele>
        <time>2012-09-15T13:52:33Z</time>
      </trkpt>
      <trkpt lat="42.69122" lon="1.3966">
        <ele>2228.9538574219</ele>
        <time>2012-09-15T13:52:41Z</time>
      </trkpt>
      <trkpt lat="42.69123" lon="1.39659">
        <ele>2229.4345703125</ele>
        <time>2012-09-15T13:52:48Z</time>
      </trkpt>
      <trkpt lat="42.69122" lon="1.3966">
        <ele>2233.2797851562</ele>
        <time>2012-09-15T13:53:15Z</time>
      </trkpt>
      <trkpt lat="42.69122" lon="1.3966">
        <ele>2233.2797851562</ele>
        <time>2012-09-15T13:53:23Z</time>
      </trkpt>
      <trkpt lat="42.69122" lon="1.3966">
        <ele>2234.2412109375</ele>
        <time>2012-09-15T13:53:39Z</time>
      </trkpt>
      <trkpt lat="42.69124" lon="1.3966">
        <ele>2244.3349609375</ele>
        <time>2012-09-15T13:53:52Z</time>
      </trkpt>
      <trkpt lat="42.69118" lon="1.39659">
        <ele>2239.0478515625</ele>
        <time>2012-09-15T13:54:03Z</time>
      </trkpt>
      <trkpt lat="42.69136" lon="1.39716">
        <ele>2244.3349609375</ele>
        <time>2012-09-15T14:17:50Z</time>
      </trkpt>
      <trkpt lat="42.69136" lon="1.39716">
        <ele>2243.8544921875</ele>
        <time>2012-09-15T14:17:51Z</time>
      </trkpt>
      <trkpt lat="42.69136" lon="1.39721">
        <ele>2243.8544921875</ele>
        <time>2012-09-15T14:17:55Z</time>
      </trkpt>
      <trkpt lat="42.69136" lon="1.39729">
        <ele>2244.8156738281</ele>
        <time>2012-09-15T14:18:01Z</time>
      </trkpt>
      <trkpt lat="42.69136" lon="1.39738">
        <ele>2245.7770996094</ele>
        <time>2012-09-15T14:18:09Z</time>
      </trkpt>
      <trkpt lat="42.69135" lon="1.39744">
        <ele>2246.2578125</ele>
        <time>2012-09-15T14:18:15Z</time>
      </trkpt>
      <trkpt lat="42.69135" lon="1.39747">
        <ele>2246.2578125</ele>
        <time>2012-09-15T14:18:20Z</time>
      </trkpt>
      <trkpt lat="42.69134" lon="1.39749">
        <ele>2245.2963867188</ele>
        <time>2012-09-15T14:18:27Z</time>
      </trkpt>
      <trkpt lat="42.69134" lon="1.39754">
        <ele>2245.2963867188</ele>
        <time>2012-09-15T14:18:31Z</time>
      </trkpt>
      <trkpt lat="42.69131" lon="1.39758">
        <ele>2244.3349609375</ele>
        <time>2012-09-15T14:18:36Z</time>
      </trkpt>
      <trkpt lat="42.69129" lon="1.39765">
        <ele>2244.3349609375</ele>
        <time>2012-09-15T14:18:40Z</time>
      </trkpt>
      <trkpt lat="42.69129" lon="1.39776">
        <ele>2241.9318847656</ele>
        <time>2012-09-15T14:18:46Z</time>
      </trkpt>
      <trkpt lat="42.69127" lon="1.39783">
        <ele>2240.4897460938</ele>
        <time>2012-09-15T14:18:50Z</time>
      </trkpt>
      <trkpt lat="42.69127" lon="1.3979">
        <ele>2238.0866699219</ele>
        <time>2012-09-15T14:18:57Z</time>
      </trkpt>
      <trkpt lat="42.69127" lon="1.39794">
        <ele>2237.6059570312</ele>
        <time>2012-09-15T14:18:59Z</time>
      </trkpt>
      <trkpt lat="42.69129" lon="1.39798">
        <ele>2235.6831054688</ele>
        <time>2012-09-15T14:19:02Z</time>
      </trkpt>
      <trkpt lat="42.6913" lon="1.39808">
        <ele>2234.2412109375</ele>
        <time>2012-09-15T14:19:08Z</time>
      </trkpt>
      <trkpt lat="42.6913" lon="1.39809">
        <ele>2233.7604980469</ele>
        <time>2012-09-15T14:19:09Z</time>
      </trkpt>
      <trkpt lat="42.69132" lon="1.39815">
        <ele>2231.3571777344</ele>
        <time>2012-09-15T14:19:17Z</time>
      </trkpt>
      <trkpt lat="42.69136" lon="1.3982">
        <ele>2229.9152832031</ele>
        <time>2012-09-15T14:19:24Z</time>
      </trkpt>
      <trkpt lat="42.69139" lon="1.39827">
        <ele>2228.4733886719</ele>
        <time>2012-09-15T14:19:30Z</time>
      </trkpt>
      <trkpt lat="42.69141" lon="1.39832">
        <ele>2227.0314941406</ele>
        <time>2012-09-15T14:19:35Z</time>
      </trkpt>
      <trkpt lat="42.69143" lon="1.39839">
        <ele>2225.5893554688</ele>
        <time>2012-09-15T14:19:40Z</time>
      </trkpt>
      <trkpt lat="42.69144" lon="1.39845">
        <ele>2223.6667480469</ele>
        <time>2012-09-15T14:19:45Z</time>
      </trkpt>
      <trkpt lat="42.69148" lon="1.39853">
        <ele>2221.2634277344</ele>
        <time>2012-09-15T14:19:51Z</time>
      </trkpt>
      <trkpt lat="42.6915" lon="1.39858">
        <ele>2219.3408203125</ele>
        <time>2012-09-15T14:19:55Z</time>
      </trkpt>
      <trkpt lat="42.69151" lon="1.39866">
        <ele>2218.3793945312</ele>
        <time>2012-09-15T14:20:00Z</time>
      </trkpt>
      <trkpt lat="42.69151" lon="1.39868">
        <ele>2218.3793945312</ele>
        <time>2012-09-15T14:20:01Z</time>
      </trkpt>
      <trkpt lat="42.6915" lon="1.39873">
        <ele>2217.41796875</ele>
        <time>2012-09-15T14:20:04Z</time>
      </trkpt>
      <trkpt lat="42.69149" lon="1.39882">
        <ele>2216.9375</ele>
        <time>2012-09-15T14:20:10Z</time>
      </trkpt>
      <trkpt lat="42.69149" lon="1.39883">
        <ele>2216.9375</ele>
        <time>2012-09-15T14:20:11Z</time>
      </trkpt>
      <trkpt lat="42.6915" lon="1.39888">
        <ele>2215.4956054688</ele>
        <time>2012-09-15T14:20:16Z</time>
      </trkpt>
      <trkpt lat="42.69149" lon="1.39896">
        <ele>2213.5727539062</ele>
        <time>2012-09-15T14:20:22Z</time>
      </trkpt>
      <trkpt lat="42.69151" lon="1.39908">
        <ele>2211.650390625</ele>
        <time>2012-09-15T14:20:26Z</time>
      </trkpt>
      <trkpt lat="42.6915" lon="1.39921">
        <ele>2209.2470703125</ele>
        <time>2012-09-15T14:20:31Z</time>
      </trkpt>
      <trkpt lat="42.69149" lon="1.39923">
        <ele>2208.7663574219</ele>
        <time>2012-09-15T14:20:32Z</time>
      </trkpt>
      <trkpt lat="42.69151" lon="1.39932">
        <ele>2207.3244628906</ele>
        <time>2012-09-15T14:20:37Z</time>
      </trkpt>
      <trkpt lat="42.69149" lon="1.39942">
        <ele>2205.4018554688</ele>
        <time>2012-09-15T14:20:40Z</time>
      </trkpt>
      <trkpt lat="42.69147" lon="1.3995">
        <ele>2203.9597167969</ele>
        <time>2012-09-15T14:20:42Z</time>
      </trkpt>
      <trkpt lat="42.69145" lon="1.39965">
        <ele>2201.5563964844</ele>
        <time>2012-09-15T14:20:47Z</time>
      </trkpt>
      <trkpt lat="42.69142" lon="1.39976">
        <ele>2200.5949707031</ele>
        <time>2012-09-15T14:20:53Z</time>
      </trkpt>
      <trkpt lat="42.69141" lon="1.39977">
        <ele>2200.5949707031</ele>
        <time>2012-09-15T14:20:54Z</time>
      </trkpt>
      <trkpt lat="42.69141" lon="1.3999">
        <ele>2198.6723632812</ele>
        <time>2012-09-15T14:21:01Z</time>
      </trkpt>
      <trkpt lat="42.69143" lon="1.4">
        <ele>2197.23046875</ele>
        <time>2012-09-15T14:21:06Z</time>
      </trkpt>
      <trkpt lat="42.69143" lon="1.40001">
        <ele>2196.7497558594</ele>
        <time>2012-09-15T14:21:08Z</time>
      </trkpt>
      <trkpt lat="42.69149" lon="1.39999">
        <ele>2194.8271484375</ele>
        <time>2012-09-15T14:21:15Z</time>
      </trkpt>
      <trkpt lat="42.69152" lon="1.4">
        <ele>2193.8659667969</ele>
        <time>2012-09-15T14:21:23Z</time>
      </trkpt>
      <trkpt lat="42.69153" lon="1.40006">
        <ele>2191.4626464844</ele>
        <time>2012-09-15T14:21:28Z</time>
      </trkpt>
      <trkpt lat="42.69152" lon="1.40011">
        <ele>2189.5400390625</ele>
        <time>2012-09-15T14:21:31Z</time>
      </trkpt>
      <trkpt lat="42.6915" lon="1.4002">
        <ele>2185.6945800781</ele>
        <time>2012-09-15T14:21:37Z</time>
      </trkpt>
      <trkpt lat="42.6915" lon="1.40024">
        <ele>2184.7333984375</ele>
        <time>2012-09-15T14:21:39Z</time>
      </trkpt>
      <trkpt lat="42.69152" lon="1.40031">
        <ele>2183.2912597656</ele>
        <time>2012-09-15T14:21:44Z</time>
      </trkpt>
      <trkpt lat="42.69156" lon="1.40031">
        <ele>2181.3686523438</ele>
        <time>2012-09-15T14:21:49Z</time>
      </trkpt>
      <trkpt lat="42.69161" lon="1.4003">
        <ele>2179.9267578125</ele>
        <time>2012-09-15T14:21:54Z</time>
      </trkpt>
      <trkpt lat="42.69163" lon="1.40033">
        <ele>2178.4848632812</ele>
        <time>2012-09-15T14:21:58Z</time>
      </trkpt>
      <trkpt lat="42.69165" lon="1.40039">
        <ele>2176.5622558594</ele>
        <time>2012-09-15T14:22:04Z</time>
      </trkpt>
      <trkpt lat="42.69168" lon="1.40041">
        <ele>2174.6396484375</ele>
        <time>2012-09-15T14:22:09Z</time>
      </trkpt>
      <trkpt lat="42.69172" lon="1.40039">
        <ele>2172.7170410156</ele>
        <time>2012-09-15T14:22:15Z</time>
      </trkpt>
      <trkpt lat="42.69172" lon="1.40046">
        <ele>2170.7941894531</ele>
        <time>2012-09-15T14:22:21Z</time>
      </trkpt>
      <trkpt lat="42.69172" lon="1.40055">
        <ele>2169.8327636719</ele>
        <time>2012-09-15T14:22:28Z</time>
      </trkpt>
      <trkpt lat="42.69171" lon="1.40062">
        <ele>2168.8715820312</ele>
        <time>2012-09-15T14:22:34Z</time>
      </trkpt>
      <trkpt lat="42.69172" lon="1.40065">
        <ele>2167.4294433594</ele>
        <time>2012-09-15T14:22:39Z</time>
      </trkpt>
      <trkpt lat="42.69175" lon="1.40072">
        <ele>2165.0263671875</ele>
        <time>2012-09-15T14:22:45Z</time>
      </trkpt>
      <trkpt lat="42.69178" lon="1.40078">
        <ele>2163.5842285156</ele>
        <time>2012-09-15T14:22:50Z</time>
      </trkpt>
      <trkpt lat="42.69181" lon="1.4008">
        <ele>2163.1037597656</ele>
        <time>2012-09-15T14:22:53Z</time>
      </trkpt>
      <trkpt lat="42.69186" lon="1.4009">
        <ele>2161.6618652344</ele>
        <time>2012-09-15T14:22:58Z</time>
      </trkpt>
      <trkpt lat="42.69188" lon="1.40097">
        <ele>2160.7004394531</ele>
        <time>2012-09-15T14:23:02Z</time>
      </trkpt>
      <trkpt lat="42.69191" lon="1.40103">
        <ele>2158.7778320312</ele>
        <time>2012-09-15T14:23:07Z</time>
      </trkpt>
      <trkpt lat="42.69193" lon="1.40109">
        <ele>2156.3745117188</ele>
        <time>2012-09-15T14:23:12Z</time>
      </trkpt>
      <trkpt lat="42.69194" lon="1.40121">
        <ele>2153.4904785156</ele>
        <time>2012-09-15T14:23:19Z</time>
      </trkpt>
      <trkpt lat="42.69196" lon="1.40129">
        <ele>2151.5678710938</ele>
        <time>2012-09-15T14:23:27Z</time>
      </trkpt>
      <trkpt lat="42.69199" lon="1.40136">
        <ele>2149.6452636719</ele>
        <time>2012-09-15T14:23:33Z</time>
      </trkpt>
      <trkpt lat="42.69202" lon="1.4014">
        <ele>2147.2419433594</ele>
        <time>2012-09-15T14:23:38Z</time>
      </trkpt>
      <trkpt lat="42.69207" lon="1.40147">
        <ele>2143.8774414062</ele>
        <time>2012-09-15T14:23:43Z</time>
      </trkpt>
      <trkpt lat="42.6921" lon="1.40155">
        <ele>2141.9548339844</ele>
        <time>2012-09-15T14:23:48Z</time>
      </trkpt>
      <trkpt lat="42.69212" lon="1.40164">
        <ele>2140.0322265625</ele>
        <time>2012-09-15T14:23:54Z</time>
      </trkpt>
      <trkpt lat="42.69214" lon="1.40169">
        <ele>2138.5900878906</ele>
        <time>2012-09-15T14:23:59Z</time>
      </trkpt>
      <trkpt lat="42.6922" lon="1.40174">
        <ele>2134.7448730469</ele>
        <time>2012-09-15T14:24:06Z</time>
      </trkpt>
      <trkpt lat="42.6922" lon="1.40175">
        <ele>2133.7834472656</ele>
        <time>2012-09-15T14:24:07Z</time>
      </trkpt>
      <trkpt lat="42.69223" lon="1.40182">
        <ele>2131.3801269531</ele>
        <time>2012-09-15T14:24:12Z</time>
      </trkpt>
      <trkpt lat="42.69228" lon="1.40193">
        <ele>2128.4963378906</ele>
        <time>2012-09-15T14:24:19Z</time>
      </trkpt>
      <trkpt lat="42.69234" lon="1.40202">
        <ele>2126.5737304688</ele>
        <time>2012-09-15T14:24:26Z</time>
      </trkpt>
      <trkpt lat="42.69237" lon="1.40206">
        <ele>2125.6123046875</ele>
        <time>2012-09-15T14:24:32Z</time>
      </trkpt>
      <trkpt lat="42.69239" lon="1.40208">
        <ele>2125.1315917969</ele>
        <time>2012-09-15T14:24:40Z</time>
      </trkpt>
      <trkpt lat="42.69238" lon="1.40204">
        <ele>2124.6511230469</ele>
        <time>2012-09-15T14:24:43Z</time>
      </trkpt>
      <trkpt lat="42.69237" lon="1.40196">
        <ele>2124.1704101562</ele>
        <time>2012-09-15T14:24:51Z</time>
      </trkpt>
      <trkpt lat="42.69238" lon="1.40193">
        <ele>2122.7282714844</ele>
        <time>2012-09-15T14:25:02Z</time>
      </trkpt>
      <trkpt lat="42.69238" lon="1.40193">
        <ele>2122.2475585938</ele>
        <time>2012-09-15T14:25:11Z</time>
      </trkpt>
      <trkpt lat="42.69241" lon="1.40198">
        <ele>2121.2861328125</ele>
        <time>2012-09-15T14:25:18Z</time>
      </trkpt>
      <trkpt lat="42.69241" lon="1.40199">
        <ele>2120.8056640625</ele>
        <time>2012-09-15T14:25:19Z</time>
      </trkpt>
      <trkpt lat="42.69244" lon="1.40204">
        <ele>2119.8442382812</ele>
        <time>2012-09-15T14:25:23Z</time>
      </trkpt>
      <trkpt lat="42.69249" lon="1.4021">
        <ele>2117.9216308594</ele>
        <time>2012-09-15T14:25:30Z</time>
      </trkpt>
      <trkpt lat="42.69253" lon="1.40215">
        <ele>2115.5185546875</ele>
        <time>2012-09-15T14:25:36Z</time>
      </trkpt>
      <trkpt lat="42.69257" lon="1.40218">
        <ele>2113.115234375</ele>
        <time>2012-09-15T14:25:41Z</time>
      </trkpt>
      <trkpt lat="42.69259" lon="1.4022">
        <ele>2112.1538085938</ele>
        <time>2012-09-15T14:25:43Z</time>
      </trkpt>
      <trkpt lat="42.69266" lon="1.40228">
        <ele>2109.2700195312</ele>
        <time>2012-09-15T14:25:49Z</time>
      </trkpt>
      <trkpt lat="42.69271" lon="1.40233">
        <ele>2109.2700195312</ele>
        <time>2012-09-15T14:25:53Z</time>
      </trkpt>
      <trkpt lat="42.69273" lon="1.40237">
        <ele>2109.7504882812</ele>
        <time>2012-09-15T14:25:57Z</time>
      </trkpt>
      <trkpt lat="42.69277" lon="1.4024">
        <ele>2108.7893066406</ele>
        <time>2012-09-15T14:26:01Z</time>
      </trkpt>
      <trkpt lat="42.69282" lon="1.40252">
        <ele>2107.8278808594</ele>
        <time>2012-09-15T14:26:06Z</time>
      </trkpt>
      <trkpt lat="42.69279" lon="1.40265">
        <ele>2105.9050292969</ele>
        <time>2012-09-15T14:26:11Z</time>
      </trkpt>
      <trkpt lat="42.69277" lon="1.40268">
        <ele>2104.9438476562</ele>
        <time>2012-09-15T14:26:12Z</time>
      </trkpt>
      <trkpt lat="42.69273" lon="1.40276">
        <ele>2103.0212402344</ele>
        <time>2012-09-15T14:26:18Z</time>
      </trkpt>
      <trkpt lat="42.69278" lon="1.40277">
        <ele>2099.6567382812</ele>
        <time>2012-09-15T14:26:24Z</time>
      </trkpt>
      <trkpt lat="42.69284" lon="1.40277">
        <ele>2096.7727050781</ele>
        <time>2012-09-15T14:26:29Z</time>
      </trkpt>
      <trkpt lat="42.69286" lon="1.40281">
        <ele>2094.8500976562</ele>
        <time>2012-09-15T14:26:33Z</time>
      </trkpt>
      <trkpt lat="42.69297" lon="1.40281">
        <ele>2090.0434570312</ele>
        <time>2012-09-15T14:26:40Z</time>
      </trkpt>
      <trkpt lat="42.69304" lon="1.40283">
        <ele>2087.6401367188</ele>
        <time>2012-09-15T14:26:44Z</time>
      </trkpt>
      <trkpt lat="42.69305" lon="1.40284">
        <ele>2087.1594238281</ele>
        <time>2012-09-15T14:26:45Z</time>
      </trkpt>
      <trkpt lat="42.69307" lon="1.40287">
        <ele>2083.794921875</ele>
        <time>2012-09-15T14:26:51Z</time>
      </trkpt>
      <trkpt lat="42.6931" lon="1.4029">
        <ele>2082.3530273438</ele>
        <time>2012-09-15T14:26:55Z</time>
      </trkpt>
      <trkpt lat="42.69314" lon="1.40299">
        <ele>2079.9497070312</ele>
        <time>2012-09-15T14:26:59Z</time>
      </trkpt>
      <trkpt lat="42.69316" lon="1.40307">
        <ele>2078.98828125</ele>
        <time>2012-09-15T14:27:03Z</time>
      </trkpt>
      <trkpt lat="42.69316" lon="1.40317">
        <ele>2078.0270996094</ele>
        <time>2012-09-15T14:27:07Z</time>
      </trkpt>
      <trkpt lat="42.69318" lon="1.40325">
        <ele>2077.0659179688</ele>
        <time>2012-09-15T14:27:12Z</time>
      </trkpt>
      <trkpt lat="42.69319" lon="1.40332">
        <ele>2075.6235351562</ele>
        <time>2012-09-15T14:27:18Z</time>
      </trkpt>
      <trkpt lat="42.69321" lon="1.40339">
        <ele>2072.7397460938</ele>
        <time>2012-09-15T14:27:24Z</time>
      </trkpt>
      <trkpt lat="42.69323" lon="1.40342">
        <ele>2072.7397460938</ele>
        <time>2012-09-15T14:27:25Z</time>
      </trkpt>
      <trkpt lat="42.69325" lon="1.40354">
        <ele>2069.8557128906</ele>
        <time>2012-09-15T14:27:31Z</time>
      </trkpt>
      <trkpt lat="42.69325" lon="1.40358">
        <ele>2069.3752441406</ele>
        <time>2012-09-15T14:27:34Z</time>
      </trkpt>
      <trkpt lat="42.69326" lon="1.40361">
        <ele>2068.4138183594</ele>
        <time>2012-09-15T14:27:36Z</time>
      </trkpt>
      <trkpt lat="42.69325" lon="1.40364">
        <ele>2068.89453125</ele>
        <time>2012-09-15T14:27:38Z</time>
      </trkpt>
      <trkpt lat="42.69327" lon="1.40375">
        <ele>2066.9719238281</ele>
        <time>2012-09-15T14:27:45Z</time>
      </trkpt>
      <trkpt lat="42.69328" lon="1.40384">
        <ele>2065.0493164062</ele>
        <time>2012-09-15T14:27:51Z</time>
      </trkpt>
      <trkpt lat="42.69332" lon="1.4039">
        <ele>2063.6071777344</ele>
        <time>2012-09-15T14:27:58Z</time>
      </trkpt>
      <trkpt lat="42.69337" lon="1.40393">
        <ele>2062.1652832031</ele>
        <time>2012-09-15T14:28:03Z</time>
      </trkpt>
      <trkpt lat="42.6934" lon="1.40396">
        <ele>2061.2041015625</ele>
        <time>2012-09-15T14:28:08Z</time>
      </trkpt>
      <trkpt lat="42.69341" lon="1.404">
        <ele>2060.7233886719</ele>
        <time>2012-09-15T14:28:11Z</time>
      </trkpt>
      <trkpt lat="42.69344" lon="1.40412">
        <ele>2057.8393554688</ele>
        <time>2012-09-15T14:28:22Z</time>
      </trkpt>
      <trkpt lat="42.69347" lon="1.40418">
        <ele>2055.9165039062</ele>
        <time>2012-09-15T14:28:29Z</time>
      </trkpt>
      <trkpt lat="42.69349" lon="1.40423">
        <ele>2054.474609375</ele>
        <time>2012-09-15T14:28:35Z</time>
      </trkpt>
      <trkpt lat="42.69353" lon="1.40427">
        <ele>2053.0327148438</ele>
        <time>2012-09-15T14:28:42Z</time>
      </trkpt>
      <trkpt lat="42.69356" lon="1.40432">
        <ele>2050.6293945312</ele>
        <time>2012-09-15T14:28:48Z</time>
      </trkpt>
      <trkpt lat="42.69359" lon="1.40437">
        <ele>2049.1875</ele>
        <time>2012-09-15T14:28:53Z</time>
      </trkpt>
      <trkpt lat="42.69364" lon="1.40443">
        <ele>2048.7067871094</ele>
        <time>2012-09-15T14:29:00Z</time>
      </trkpt>
      <trkpt lat="42.69369" lon="1.40446">
        <ele>2047.7456054688</ele>
        <time>2012-09-15T14:29:07Z</time>
      </trkpt>
      <trkpt lat="42.6937" lon="1.40447">
        <ele>2047.7456054688</ele>
        <time>2012-09-15T14:29:13Z</time>
      </trkpt>
      <trkpt lat="42.69373" lon="1.40451">
        <ele>2046.7841796875</ele>
        <time>2012-09-15T14:29:28Z</time>
      </trkpt>
      <trkpt lat="42.69377" lon="1.40459">
        <ele>2046.3037109375</ele>
        <time>2012-09-15T14:29:34Z</time>
      </trkpt>
      <trkpt lat="42.69381" lon="1.40465">
        <ele>2047.2648925781</ele>
        <time>2012-09-15T14:29:41Z</time>
      </trkpt>
      <trkpt lat="42.69383" lon="1.40472">
        <ele>2047.2648925781</ele>
        <time>2012-09-15T14:29:45Z</time>
      </trkpt>
      <trkpt lat="42.6939" lon="1.4048">
        <ele>2047.2648925781</ele>
        <time>2012-09-15T14:29:53Z</time>
      </trkpt>
      <trkpt lat="42.69396" lon="1.40484">
        <ele>2047.2648925781</ele>
        <time>2012-09-15T14:29:59Z</time>
      </trkpt>
      <trkpt lat="42.69403" lon="1.40491">
        <ele>2048.2260742188</ele>
        <time>2012-09-15T14:30:07Z</time>
      </trkpt>
      <trkpt lat="42.69404" lon="1.40494">
        <ele>2047.7456054688</ele>
        <time>2012-09-15T14:30:09Z</time>
      </trkpt>
      <trkpt lat="42.6941" lon="1.40499">
        <ele>2048.2260742188</ele>
        <time>2012-09-15T14:30:14Z</time>
      </trkpt>
      <trkpt lat="42.6942" lon="1.40508">
        <ele>2048.2260742188</ele>
        <time>2012-09-15T14:30:24Z</time>
      </trkpt>
      <trkpt lat="42.69429" lon="1.40514">
        <ele>2048.2260742188</ele>
        <time>2012-09-15T14:30:32Z</time>
      </trkpt>
      <trkpt lat="42.69437" lon="1.4052">
        <ele>2045.8229980469</ele>
        <time>2012-09-15T14:30:38Z</time>
      </trkpt>
      <trkpt lat="42.69445" lon="1.40521">
        <ele>2042.9387207031</ele>
        <time>2012-09-15T14:30:44Z</time>
      </trkpt>
      <trkpt lat="42.69452" lon="1.40523">
        <ele>2041.0161132812</ele>
        <time>2012-09-15T14:30:49Z</time>
      </trkpt>
      <trkpt lat="42.69458" lon="1.40526">
        <ele>2039.0935058594</ele>
        <time>2012-09-15T14:30:54Z</time>
      </trkpt>
      <trkpt lat="42.69465" lon="1.4053">
        <ele>2037.1708984375</ele>
        <time>2012-09-15T14:31:00Z</time>
      </trkpt>
      <trkpt lat="42.69466" lon="1.40531">
        <ele>2036.6901855469</ele>
        <time>2012-09-15T14:31:01Z</time>
      </trkpt>
      <trkpt lat="42.69471" lon="1.40534">
        <ele>2034.7678222656</ele>
        <time>2012-09-15T14:31:06Z</time>
      </trkpt>
      <trkpt lat="42.69474" lon="1.40534">
        <ele>2032.3645019531</ele>
        <time>2012-09-15T14:31:11Z</time>
      </trkpt>
      <trkpt lat="42.69479" lon="1.40537">
        <ele>2030.9226074219</ele>
        <time>2012-09-15T14:31:16Z</time>
      </trkpt>
      <trkpt lat="42.69485" lon="1.40537">
        <ele>2027.5576171875</ele>
        <time>2012-09-15T14:31:22Z</time>
      </trkpt>
      <trkpt lat="42.69492" lon="1.40538">
        <ele>2024.673828125</ele>
        <time>2012-09-15T14:31:27Z</time>
      </trkpt>
      <trkpt lat="42.69497" lon="1.40539">
        <ele>2024.1931152344</ele>
        <time>2012-09-15T14:31:31Z</time>
      </trkpt>
      <trkpt lat="42.69503" lon="1.40539">
        <ele>2022.2705078125</ele>
        <time>2012-09-15T14:31:36Z</time>
      </trkpt>
      <trkpt lat="42.6951" lon="1.40544">
        <ele>2018.9060058594</ele>
        <time>2012-09-15T14:31:43Z</time>
      </trkpt>
      <trkpt lat="42.69515" lon="1.40545">
        <ele>2016.5026855469</ele>
        <time>2012-09-15T14:31:48Z</time>
      </trkpt>
      <trkpt lat="42.69519" lon="1.40543">
        <ele>2014.0993652344</ele>
        <time>2012-09-15T14:31:52Z</time>
      </trkpt>
      <trkpt lat="42.69524" lon="1.40544">
        <ele>2012.6574707031</ele>
        <time>2012-09-15T14:31:56Z</time>
      </trkpt>
      <trkpt lat="42.69527" lon="1.40541">
        <ele>2010.7346191406</ele>
        <time>2012-09-15T14:32:01Z</time>
      </trkpt>
      <trkpt lat="42.69531" lon="1.40544">
        <ele>2008.3312988281</ele>
        <time>2012-09-15T14:32:06Z</time>
      </trkpt>
      <trkpt lat="42.69534" lon="1.40546">
        <ele>2007.3701171875</ele>
        <time>2012-09-15T14:32:09Z</time>
      </trkpt>
      <trkpt lat="42.69536" lon="1.40546">
        <ele>2006.4086914062</ele>
        <time>2012-09-15T14:32:11Z</time>
      </trkpt>
      <trkpt lat="42.6954" lon="1.40544">
        <ele>2004.0056152344</ele>
        <time>2012-09-15T14:32:15Z</time>
      </trkpt>
      <trkpt lat="42.69546" lon="1.40547">
        <ele>2001.6022949219</ele>
        <time>2012-09-15T14:32:21Z</time>
      </trkpt>
      <trkpt lat="42.69549" lon="1.40549">
        <ele>2000.1604003906</ele>
        <time>2012-09-15T14:32:25Z</time>
      </trkpt>
      <trkpt lat="42.69553" lon="1.40551">
        <ele>1998.2375488281</ele>
        <time>2012-09-15T14:32:31Z</time>
      </trkpt>
      <trkpt lat="42.69555" lon="1.40554">
        <ele>1996.3151855469</ele>
        <time>2012-09-15T14:32:35Z</time>
      </trkpt>
      <trkpt lat="42.6956" lon="1.40551">
        <ele>1994.3920898438</ele>
        <time>2012-09-15T14:32:41Z</time>
      </trkpt>
      <trkpt lat="42.69563" lon="1.40551">
        <ele>1992.9501953125</ele>
        <time>2012-09-15T14:32:45Z</time>
      </trkpt>
      <trkpt lat="42.69567" lon="1.40545">
        <ele>1991.5083007812</ele>
        <time>2012-09-15T14:32:51Z</time>
      </trkpt>
      <trkpt lat="42.6957" lon="1.40538">
        <ele>1990.06640625</ele>
        <time>2012-09-15T14:32:57Z</time>
      </trkpt>
      <trkpt lat="42.69574" lon="1.40537">
        <ele>1987.6630859375</ele>
        <time>2012-09-15T14:33:03Z</time>
      </trkpt>
      <trkpt lat="42.69577" lon="1.40538">
        <ele>1986.7016601562</ele>
        <time>2012-09-15T14:33:08Z</time>
      </trkpt>
      <trkpt lat="42.69577" lon="1.40538">
        <ele>1986.2211914062</ele>
        <time>2012-09-15T14:33:15Z</time>
      </trkpt>
      <trkpt lat="42.69579" lon="1.40539">
        <ele>1985.7404785156</ele>
        <time>2012-09-15T14:33:22Z</time>
      </trkpt>
      <trkpt lat="42.6958" lon="1.40539">
        <ele>1984.779296875</ele>
        <time>2012-09-15T14:33:28Z</time>
      </trkpt>
      <trkpt lat="42.69584" lon="1.40544">
        <ele>1983.8178710938</ele>
        <time>2012-09-15T14:33:35Z</time>
      </trkpt>
      <trkpt lat="42.69585" lon="1.40548">
        <ele>1983.3371582031</ele>
        <time>2012-09-15T14:33:41Z</time>
      </trkpt>
      <trkpt lat="42.69586" lon="1.40547">
        <ele>1982.8564453125</ele>
        <time>2012-09-15T14:33:46Z</time>
      </trkpt>
      <trkpt lat="42.69588" lon="1.40543">
        <ele>1981.8952636719</ele>
        <time>2012-09-15T14:33:52Z</time>
      </trkpt>
      <trkpt lat="42.69591" lon="1.40547">
        <ele>1980.9340820312</ele>
        <time>2012-09-15T14:33:58Z</time>
      </trkpt>
      <trkpt lat="42.69592" lon="1.4055">
        <ele>1980.4533691406</ele>
        <time>2012-09-15T14:34:03Z</time>
      </trkpt>
      <trkpt lat="42.69594" lon="1.40553">
        <ele>1979.0109863281</ele>
        <time>2012-09-15T14:34:09Z</time>
      </trkpt>
      <trkpt lat="42.69596" lon="1.40552">
        <ele>1977.5690917969</ele>
        <time>2012-09-15T14:34:15Z</time>
      </trkpt>
      <trkpt lat="42.69595" lon="1.40546">
        <ele>1976.6079101562</ele>
        <time>2012-09-15T14:34:19Z</time>
      </trkpt>
      <trkpt lat="42.69598" lon="1.40542">
        <ele>1974.2045898438</ele>
        <time>2012-09-15T14:34:25Z</time>
      </trkpt>
      <trkpt lat="42.69599" lon="1.40541">
        <ele>1973.2434082031</ele>
        <time>2012-09-15T14:34:29Z</time>
      </trkpt>
      <trkpt lat="42.69601" lon="1.40533">
        <ele>1970.359375</ele>
        <time>2012-09-15T14:34:36Z</time>
      </trkpt>
      <trkpt lat="42.69604" lon="1.40534">
        <ele>1968.4367675781</ele>
        <time>2012-09-15T14:34:41Z</time>
      </trkpt>
      <trkpt lat="42.69607" lon="1.40533">
        <ele>1967.4753417969</ele>
        <time>2012-09-15T14:34:46Z</time>
      </trkpt>
      <trkpt lat="42.69609" lon="1.40539">
        <ele>1965.072265625</ele>
        <time>2012-09-15T14:34:53Z</time>
      </trkpt>
      <trkpt lat="42.69612" lon="1.4054">
        <ele>1964.1108398438</ele>
        <time>2012-09-15T14:34:57Z</time>
      </trkpt>
      <trkpt lat="42.69616" lon="1.40542">
        <ele>1961.7075195312</ele>
        <time>2012-09-15T14:35:03Z</time>
      </trkpt>
      <trkpt lat="42.6962" lon="1.40544">
        <ele>1960.74609375</ele>
        <time>2012-09-15T14:35:07Z</time>
      </trkpt>
      <trkpt lat="42.69624" lon="1.40548">
        <ele>1957.8623046875</ele>
        <time>2012-09-15T14:35:13Z</time>
      </trkpt>
      <trkpt lat="42.69628" lon="1.40551">
        <ele>1955.939453125</ele>
        <time>2012-09-15T14:35:18Z</time>
      </trkpt>
      <trkpt lat="42.69631" lon="1.40554">
        <ele>1953.5363769531</ele>
        <time>2012-09-15T14:35:24Z</time>
      </trkpt>
      <trkpt lat="42.69636" lon="1.40559">
        <ele>1952.0942382812</ele>
        <time>2012-09-15T14:35:30Z</time>
      </trkpt>
      <trkpt lat="42.6964" lon="1.40564">
        <ele>1949.6911621094</ele>
        <time>2012-09-15T14:35:37Z</time>
      </trkpt>
      <trkpt lat="42.69643" lon="1.4057">
        <ele>1948.2490234375</ele>
        <time>2012-09-15T14:35:43Z</time>
      </trkpt>
      <trkpt lat="42.69641" lon="1.40577">
        <ele>1947.7683105469</ele>
        <time>2012-09-15T14:35:49Z</time>
      </trkpt>
      <trkpt lat="42.69638" lon="1.40582">
        <ele>1947.7683105469</ele>
        <time>2012-09-15T14:35:55Z</time>
      </trkpt>
      <trkpt lat="42.69637" lon="1.40586">
        <ele>1946.3264160156</ele>
        <time>2012-09-15T14:35:59Z</time>
      </trkpt>
      <trkpt lat="42.69635" lon="1.40593">
        <ele>1944.8842773438</ele>
        <time>2012-09-15T14:36:04Z</time>
      </trkpt>
      <trkpt lat="42.69632" lon="1.40595">
        <ele>1944.4035644531</ele>
        <time>2012-09-15T14:36:07Z</time>
      </trkpt>
      <trkpt lat="42.69629" lon="1.40603">
        <ele>1944.8842773438</ele>
        <time>2012-09-15T14:36:14Z</time>
      </trkpt>
      <trkpt lat="42.69628" lon="1.40611">
        <ele>1947.2875976562</ele>
        <time>2012-09-15T14:36:20Z</time>
      </trkpt>
      <trkpt lat="42.69628" lon="1.4062">
        <ele>1948.7297363281</ele>
        <time>2012-09-15T14:36:27Z</time>
      </trkpt>
      <trkpt lat="42.69629" lon="1.40628">
        <ele>1949.2104492188</ele>
        <time>2012-09-15T14:36:32Z</time>
      </trkpt>
      <trkpt lat="42.69629" lon="1.40633">
        <ele>1949.2104492188</ele>
        <time>2012-09-15T14:36:36Z</time>
      </trkpt>
      <trkpt lat="42.69628" lon="1.40636">
        <ele>1949.6911621094</ele>
        <time>2012-09-15T14:36:38Z</time>
      </trkpt>
      <trkpt lat="42.69629" lon="1.40645">
        <ele>1950.171875</ele>
        <time>2012-09-15T14:36:45Z</time>
      </trkpt>
      <trkpt lat="42.69631" lon="1.4065">
        <ele>1950.65234375</ele>
        <time>2012-09-15T14:36:49Z</time>
      </trkpt>
      <trkpt lat="42.69632" lon="1.40652">
        <ele>1951.1330566406</ele>
        <time>2012-09-15T14:36:51Z</time>
      </trkpt>
      <trkpt lat="42.69633" lon="1.40659">
        <ele>1949.2104492188</ele>
        <time>2012-09-15T14:36:59Z</time>
      </trkpt>
      <trkpt lat="42.69634" lon="1.40659">
        <ele>1948.2490234375</ele>
        <time>2012-09-15T14:37:04Z</time>
      </trkpt>
      <trkpt lat="42.69634" lon="1.40659">
        <ele>1949.6911621094</ele>
        <time>2012-09-15T14:37:12Z</time>
      </trkpt>
      <trkpt lat="42.69634" lon="1.40659">
        <ele>1951.1330566406</ele>
        <time>2012-09-15T14:37:22Z</time>
      </trkpt>
      <trkpt lat="42.69635" lon="1.40659">
        <ele>1949.6911621094</ele>
        <time>2012-09-15T14:37:42Z</time>
      </trkpt>
      <trkpt lat="42.69634" lon="1.40659">
        <ele>1950.171875</ele>
        <time>2012-09-15T14:37:49Z</time>
      </trkpt>
      <trkpt lat="42.69633" lon="1.4066">
        <ele>1951.6137695312</ele>
        <time>2012-09-15T14:37:59Z</time>
      </trkpt>
      <trkpt lat="42.69632" lon="1.40659">
        <ele>1950.65234375</ele>
        <time>2012-09-15T14:38:20Z</time>
      </trkpt>
      <trkpt lat="42.69633" lon="1.4066">
        <ele>1951.6137695312</ele>
        <time>2012-09-15T14:38:31Z</time>
      </trkpt>
      <trkpt lat="42.69634" lon="1.40658">
        <ele>1950.65234375</ele>
        <time>2012-09-15T14:38:50Z</time>
      </trkpt>
      <trkpt lat="42.69636" lon="1.40657">
        <ele>1951.1330566406</ele>
        <time>2012-09-15T14:38:57Z</time>
      </trkpt>
      <trkpt lat="42.69636" lon="1.40657">
        <ele>1950.65234375</ele>
        <time>2012-09-15T14:39:04Z</time>
      </trkpt>
      <trkpt lat="42.69635" lon="1.40654">
        <ele>1950.65234375</ele>
        <time>2012-09-15T14:39:28Z</time>
      </trkpt>
      <trkpt lat="42.69634" lon="1.40653">
        <ele>1948.7297363281</ele>
        <time>2012-09-15T14:39:47Z</time>
      </trkpt>
      <trkpt lat="42.69635" lon="1.40653">
        <ele>1948.7297363281</ele>
        <time>2012-09-15T14:40:00Z</time>
      </trkpt>
      <trkpt lat="42.69636" lon="1.40654">
        <ele>1949.2104492188</ele>
        <time>2012-09-15T14:40:03Z</time>
      </trkpt>
      <trkpt lat="42.69638" lon="1.40656">
        <ele>1951.6137695312</ele>
        <time>2012-09-15T14:40:11Z</time>
      </trkpt>
      <trkpt lat="42.69638" lon="1.40657">
        <ele>1950.65234375</ele>
        <time>2012-09-15T14:40:19Z</time>
      </trkpt>
      <trkpt lat="42.69638" lon="1.40659">
        <ele>1951.1330566406</ele>
        <time>2012-09-15T14:40:44Z</time>
      </trkpt>
      <trkpt lat="42.69637" lon="1.40662">
        <ele>1950.171875</ele>
        <time>2012-09-15T14:41:01Z</time>
      </trkpt>
      <trkpt lat="42.69637" lon="1.40662">
        <ele>1949.6911621094</ele>
        <time>2012-09-15T14:41:08Z</time>
      </trkpt>
      <trkpt lat="42.69637" lon="1.4066">
        <ele>1950.65234375</ele>
        <time>2012-09-15T14:41:16Z</time>
      </trkpt>
      <trkpt lat="42.69638" lon="1.4066">
        <ele>1950.65234375</ele>
        <time>2012-09-15T14:41:21Z</time>
      </trkpt>
      <trkpt lat="42.69639" lon="1.40662">
        <ele>1951.1330566406</ele>
        <time>2012-09-15T14:41:45Z</time>
      </trkpt>
      <trkpt lat="42.69638" lon="1.40663">
        <ele>1949.6911621094</ele>
        <time>2012-09-15T14:41:55Z</time>
      </trkpt>
      <trkpt lat="42.69637" lon="1.40666">
        <ele>1950.65234375</ele>
        <time>2012-09-15T14:42:47Z</time>
      </trkpt>
      <trkpt lat="42.69637" lon="1.40667">
        <ele>1952.0942382812</ele>
        <time>2012-09-15T14:42:58Z</time>
      </trkpt>
      <trkpt lat="42.69642" lon="1.40667">
        <ele>1951.1330566406</ele>
        <time>2012-09-15T14:43:02Z</time>
      </trkpt>
      <trkpt lat="42.69644" lon="1.40667">
        <ele>1950.65234375</ele>
        <time>2012-09-15T14:43:04Z</time>
      </trkpt>
      <trkpt lat="42.69648" lon="1.40669">
        <ele>1950.65234375</ele>
        <time>2012-09-15T14:43:09Z</time>
      </trkpt>
      <trkpt lat="42.69651" lon="1.4067">
        <ele>1950.65234375</ele>
        <time>2012-09-15T14:43:12Z</time>
      </trkpt>
      <trkpt lat="42.69659" lon="1.40679">
        <ele>1950.65234375</ele>
        <time>2012-09-15T14:43:20Z</time>
      </trkpt>
      <trkpt lat="42.69665" lon="1.40683">
        <ele>1950.65234375</ele>
        <time>2012-09-15T14:43:24Z</time>
      </trkpt>
      <trkpt lat="42.69671" lon="1.40688">
        <ele>1950.65234375</ele>
        <time>2012-09-15T14:43:30Z</time>
      </trkpt>
      <trkpt lat="42.69672" lon="1.40689">
        <ele>1950.65234375</ele>
        <time>2012-09-15T14:43:31Z</time>
      </trkpt>
      <trkpt lat="42.69677" lon="1.40695">
        <ele>1950.65234375</ele>
        <time>2012-09-15T14:43:36Z</time>
      </trkpt>
      <trkpt lat="42.69682" lon="1.407">
        <ele>1951.6137695312</ele>
        <time>2012-09-15T14:43:42Z</time>
      </trkpt>
      <trkpt lat="42.69689" lon="1.40713">
        <ele>1953.0556640625</ele>
        <time>2012-09-15T14:43:51Z</time>
      </trkpt>
      <trkpt lat="42.69692" lon="1.40724">
        <ele>1954.0170898438</ele>
        <time>2012-09-15T14:43:58Z</time>
      </trkpt>
      <trkpt lat="42.69694" lon="1.40733">
        <ele>1955.458984375</ele>
        <time>2012-09-15T14:44:03Z</time>
      </trkpt>
      <trkpt lat="42.69693" lon="1.40744">
        <ele>1956.4201660156</ele>
        <time>2012-09-15T14:44:09Z</time>
      </trkpt>
      <trkpt lat="42.69694" lon="1.40745">
        <ele>1956.4201660156</ele>
        <time>2012-09-15T14:44:10Z</time>
      </trkpt>
      <trkpt lat="42.69696" lon="1.40759">
        <ele>1955.458984375</ele>
        <time>2012-09-15T14:44:17Z</time>
      </trkpt>
      <trkpt lat="42.69699" lon="1.40767">
        <ele>1954.9782714844</ele>
        <time>2012-09-15T14:44:23Z</time>
      </trkpt>
      <trkpt lat="42.697" lon="1.4077">
        <ele>1954.4975585938</ele>
        <time>2012-09-15T14:44:25Z</time>
      </trkpt>
      <trkpt lat="42.69706" lon="1.40784">
        <ele>1953.5363769531</ele>
        <time>2012-09-15T14:44:33Z</time>
      </trkpt>
      <trkpt lat="42.69711" lon="1.40792">
        <ele>1953.0556640625</ele>
        <time>2012-09-15T14:44:39Z</time>
      </trkpt>
      <trkpt lat="42.69717" lon="1.40799">
        <ele>1951.6137695312</ele>
        <time>2012-09-15T14:44:46Z</time>
      </trkpt>
      <trkpt lat="42.69719" lon="1.40802">
        <ele>1951.1330566406</ele>
        <time>2012-09-15T14:44:49Z</time>
      </trkpt>
      <trkpt lat="42.69724" lon="1.40802">
        <ele>1948.7297363281</ele>
        <time>2012-09-15T14:44:56Z</time>
      </trkpt>
      <trkpt lat="42.6973" lon="1.408">
        <ele>1946.3264160156</ele>
        <time>2012-09-15T14:45:02Z</time>
      </trkpt>
      <trkpt lat="42.69736" lon="1.40801">
        <ele>1943.4423828125</ele>
        <time>2012-09-15T14:45:08Z</time>
      </trkpt>
      <trkpt lat="42.69737" lon="1.40802">
        <ele>1943.4423828125</ele>
        <time>2012-09-15T14:45:09Z</time>
      </trkpt>
      <trkpt lat="42.69743" lon="1.40805">
        <ele>1940.5583496094</ele>
        <time>2012-09-15T14:45:16Z</time>
      </trkpt>
      <trkpt lat="42.69748" lon="1.40808">
        <ele>1937.6745605469</ele>
        <time>2012-09-15T14:45:23Z</time>
      </trkpt>
      <trkpt lat="42.69754" lon="1.4081">
        <ele>1935.751953125</ele>
        <time>2012-09-15T14:45:29Z</time>
      </trkpt>
      <trkpt lat="42.69759" lon="1.4081">
        <ele>1934.3100585938</ele>
        <time>2012-09-15T14:45:34Z</time>
      </trkpt>
      <trkpt lat="42.69762" lon="1.40811">
        <ele>1932.8679199219</ele>
        <time>2012-09-15T14:45:37Z</time>
      </trkpt>
      <trkpt lat="42.6977" lon="1.40812">
        <ele>1929.5031738281</ele>
        <time>2012-09-15T14:45:44Z</time>
      </trkpt>
      <trkpt lat="42.69778" lon="1.40813">
        <ele>1926.138671875</ele>
        <time>2012-09-15T14:45:50Z</time>
      </trkpt>
      <trkpt lat="42.69785" lon="1.4081">
        <ele>1922.7741699219</ele>
        <time>2012-09-15T14:45:57Z</time>
      </trkpt>
      <trkpt lat="42.69787" lon="1.40809">
        <ele>1921.8127441406</ele>
        <time>2012-09-15T14:45:59Z</time>
      </trkpt>
      <trkpt lat="42.69791" lon="1.40807">
        <ele>1919.8901367188</ele>
        <time>2012-09-15T14:46:03Z</time>
      </trkpt>
      <trkpt lat="42.69798" lon="1.40804">
        <ele>1917.0063476562</ele>
        <time>2012-09-15T14:46:09Z</time>
      </trkpt>
      <trkpt lat="42.69801" lon="1.40803">
        <ele>1916.044921875</ele>
        <time>2012-09-15T14:46:11Z</time>
      </trkpt>
      <trkpt lat="42.69808" lon="1.408">
        <ele>1913.1608886719</ele>
        <time>2012-09-15T14:46:18Z</time>
      </trkpt>
      <trkpt lat="42.6981" lon="1.40799">
        <ele>1912.1994628906</ele>
        <time>2012-09-15T14:46:20Z</time>
      </trkpt>
      <trkpt lat="42.69814" lon="1.40796">
        <ele>1909.7961425781</ele>
        <time>2012-09-15T14:46:27Z</time>
      </trkpt>
      <trkpt lat="42.69817" lon="1.4079">
        <ele>1907.3930664062</ele>
        <time>2012-09-15T14:46:33Z</time>
      </trkpt>
      <trkpt lat="42.69819" lon="1.40785">
        <ele>1904.9897460938</ele>
        <time>2012-09-15T14:46:38Z</time>
      </trkpt>
      <trkpt lat="42.69822" lon="1.40785">
        <ele>1903.0671386719</ele>
        <time>2012-09-15T14:46:43Z</time>
      </trkpt>
      <trkpt lat="42.69824" lon="1.40781">
        <ele>1901.6252441406</ele>
        <time>2012-09-15T14:46:48Z</time>
      </trkpt>
      <trkpt lat="42.69828" lon="1.40782">
        <ele>1899.7023925781</ele>
        <time>2012-09-15T14:46:54Z</time>
      </trkpt>
      <trkpt lat="42.6983" lon="1.4078">
        <ele>1898.7409667969</ele>
        <time>2012-09-15T14:46:58Z</time>
      </trkpt>
      <trkpt lat="42.69834" lon="1.40778">
        <ele>1896.818359375</ele>
        <time>2012-09-15T14:47:03Z</time>
      </trkpt>
      <trkpt lat="42.69838" lon="1.40778">
        <ele>1894.4150390625</ele>
        <time>2012-09-15T14:47:08Z</time>
      </trkpt>
      <trkpt lat="42.69841" lon="1.40777">
        <ele>1892.4926757812</ele>
        <time>2012-09-15T14:47:13Z</time>
      </trkpt>
      <trkpt lat="42.69844" lon="1.40777">
        <ele>1890.5698242188</ele>
        <time>2012-09-15T14:47:18Z</time>
      </trkpt>
      <trkpt lat="42.69846" lon="1.40776">
        <ele>1888.6474609375</ele>
        <time>2012-09-15T14:47:23Z</time>
      </trkpt>
      <trkpt lat="42.69849" lon="1.40775">
        <ele>1886.724609375</ele>
        <time>2012-09-15T14:47:28Z</time>
      </trkpt>
      <trkpt lat="42.6985" lon="1.40774">
        <ele>1886.244140625</ele>
        <time>2012-09-15T14:47:30Z</time>
      </trkpt>
      <trkpt lat="42.69853" lon="1.4077">
        <ele>1884.3215332031</ele>
        <time>2012-09-15T14:47:35Z</time>
      </trkpt>
      <trkpt lat="42.69858" lon="1.40769">
        <ele>1882.8791503906</ele>
        <time>2012-09-15T14:47:41Z</time>
      </trkpt>
      <trkpt lat="42.69861" lon="1.40767">
        <ele>1880.9567871094</ele>
        <time>2012-09-15T14:47:46Z</time>
      </trkpt>
      <trkpt lat="42.69866" lon="1.40767">
        <ele>1878.5534667969</ele>
        <time>2012-09-15T14:47:51Z</time>
      </trkpt>
      <trkpt lat="42.6987" lon="1.40767">
        <ele>1876.630859375</ele>
        <time>2012-09-15T14:47:57Z</time>
      </trkpt>
      <trkpt lat="42.69875" lon="1.40768">
        <ele>1874.7082519531</ele>
        <time>2012-09-15T14:48:02Z</time>
      </trkpt>
      <trkpt lat="42.69878" lon="1.4077">
        <ele>1873.2663574219</ele>
        <time>2012-09-15T14:48:08Z</time>
      </trkpt>
      <trkpt lat="42.69882" lon="1.4077">
        <ele>1870.8630371094</ele>
        <time>2012-09-15T14:48:14Z</time>
      </trkpt>
      <trkpt lat="42.69885" lon="1.40772">
        <ele>1868.4597167969</ele>
        <time>2012-09-15T14:48:20Z</time>
      </trkpt>
      <trkpt lat="42.69887" lon="1.4077">
        <ele>1867.498046875</ele>
        <time>2012-09-15T14:48:25Z</time>
      </trkpt>
      <trkpt lat="42.69889" lon="1.40768">
        <ele>1865.5756835938</ele>
        <time>2012-09-15T14:48:30Z</time>
      </trkpt>
      <trkpt lat="42.69892" lon="1.4077">
        <ele>1863.6528320312</ele>
        <time>2012-09-15T14:48:37Z</time>
      </trkpt>
      <trkpt lat="42.69894" lon="1.40767">
        <ele>1861.73046875</ele>
        <time>2012-09-15T14:48:42Z</time>
      </trkpt>
      <trkpt lat="42.69897" lon="1.40767">
        <ele>1860.2883300781</ele>
        <time>2012-09-15T14:48:47Z</time>
      </trkpt>
      <trkpt lat="42.69899" lon="1.40766">
        <ele>1858.8464355469</ele>
        <time>2012-09-15T14:48:52Z</time>
      </trkpt>
      <trkpt lat="42.69902" lon="1.40763">
        <ele>1856.923828125</ele>
        <time>2012-09-15T14:48:57Z</time>
      </trkpt>
      <trkpt lat="42.69908" lon="1.40758">
        <ele>1854.0400390625</ele>
        <time>2012-09-15T14:49:04Z</time>
      </trkpt>
      <trkpt lat="42.6991" lon="1.40754">
        <ele>1853.0786132812</ele>
        <time>2012-09-15T14:49:09Z</time>
      </trkpt>
      <trkpt lat="42.69915" lon="1.4075">
        <ele>1851.1557617188</ele>
        <time>2012-09-15T14:49:15Z</time>
      </trkpt>
      <trkpt lat="42.69921" lon="1.40746">
        <ele>1848.7524414062</ele>
        <time>2012-09-15T14:49:22Z</time>
      </trkpt>
      <trkpt lat="42.69925" lon="1.40744">
        <ele>1847.310546875</ele>
        <time>2012-09-15T14:49:27Z</time>
      </trkpt>
      <trkpt lat="42.69932" lon="1.40742">
        <ele>1845.8686523438</ele>
        <time>2012-09-15T14:49:34Z</time>
      </trkpt>
      <trkpt lat="42.69936" lon="1.40739">
        <ele>1844.4265136719</ele>
        <time>2012-09-15T14:49:39Z</time>
      </trkpt>
      <trkpt lat="42.69943" lon="1.40736">
        <ele>1842.9846191406</ele>
        <time>2012-09-15T14:49:46Z</time>
      </trkpt>
      <trkpt lat="42.69949" lon="1.40735">
        <ele>1840.5812988281</ele>
        <time>2012-09-15T14:49:53Z</time>
      </trkpt>
      <trkpt lat="42.6995" lon="1.40733">
        <ele>1840.5812988281</ele>
        <time>2012-09-15T14:49:54Z</time>
      </trkpt>
      <trkpt lat="42.69955" lon="1.4073">
        <ele>1838.6589355469</ele>
        <time>2012-09-15T14:50:00Z</time>
      </trkpt>
      <trkpt lat="42.6996" lon="1.40727">
        <ele>1836.7360839844</ele>
        <time>2012-09-15T14:50:06Z</time>
      </trkpt>
      <trkpt lat="42.69963" lon="1.40726">
        <ele>1835.7746582031</ele>
        <time>2012-09-15T14:50:08Z</time>
      </trkpt>
      <trkpt lat="42.69968" lon="1.40724">
        <ele>1834.3327636719</ele>
        <time>2012-09-15T14:50:13Z</time>
      </trkpt>
      <trkpt lat="42.6997" lon="1.40718">
        <ele>1832.41015625</ele>
        <time>2012-09-15T14:50:19Z</time>
      </trkpt>
      <trkpt lat="42.69974" lon="1.40714">
        <ele>1830.9682617188</ele>
        <time>2012-09-15T14:50:24Z</time>
      </trkpt>
      <trkpt lat="42.69978" lon="1.40714">
        <ele>1830.0068359375</ele>
        <time>2012-09-15T14:50:29Z</time>
      </trkpt>
      <trkpt lat="42.69979" lon="1.40713">
        <ele>1830.0068359375</ele>
        <time>2012-09-15T14:50:30Z</time>
      </trkpt>
      <trkpt lat="42.69986" lon="1.40709">
        <ele>1829.5261230469</ele>
        <time>2012-09-15T14:50:36Z</time>
      </trkpt>
      <trkpt lat="42.6999" lon="1.40705">
        <ele>1828.0842285156</ele>
        <time>2012-09-15T14:50:41Z</time>
      </trkpt>
      <trkpt lat="42.69992" lon="1.40702">
        <ele>1827.603515625</ele>
        <time>2012-09-15T14:50:44Z</time>
      </trkpt>
      <trkpt lat="42.69996" lon="1.40697">
        <ele>1826.1616210938</ele>
        <time>2012-09-15T14:50:51Z</time>
      </trkpt>
      <trkpt lat="42.7" lon="1.40693">
        <ele>1824.2390136719</ele>
        <time>2012-09-15T14:50:57Z</time>
      </trkpt>
      <trkpt lat="42.70004" lon="1.4069">
        <ele>1822.7971191406</ele>
        <time>2012-09-15T14:51:02Z</time>
      </trkpt>
      <trkpt lat="42.70006" lon="1.40685">
        <ele>1821.3549804688</ele>
        <time>2012-09-15T14:51:07Z</time>
      </trkpt>
      <trkpt lat="42.70012" lon="1.40682">
        <ele>1819.9128417969</ele>
        <time>2012-09-15T14:51:13Z</time>
      </trkpt>
      <trkpt lat="42.70013" lon="1.40681">
        <ele>1819.4323730469</ele>
        <time>2012-09-15T14:51:14Z</time>
      </trkpt>
      <trkpt lat="42.70019" lon="1.40677">
        <ele>1817.990234375</ele>
        <time>2012-09-15T14:51:21Z</time>
      </trkpt>
      <trkpt lat="42.70024" lon="1.40674">
        <ele>1816.0676269531</ele>
        <time>2012-09-15T14:51:27Z</time>
      </trkpt>
      <trkpt lat="42.70029" lon="1.40671">
        <ele>1814.1450195312</ele>
        <time>2012-09-15T14:51:33Z</time>
      </trkpt>
      <trkpt lat="42.70029" lon="1.40667">
        <ele>1812.2224121094</ele>
        <time>2012-09-15T14:51:39Z</time>
      </trkpt>
      <trkpt lat="42.70031" lon="1.40663">
        <ele>1809.8190917969</ele>
        <time>2012-09-15T14:51:44Z</time>
      </trkpt>
      <trkpt lat="42.70033" lon="1.40659">
        <ele>1808.3771972656</ele>
        <time>2012-09-15T14:51:49Z</time>
      </trkpt>
      <trkpt lat="42.70035" lon="1.40656">
        <ele>1806.4545898438</ele>
        <time>2012-09-15T14:51:55Z</time>
      </trkpt>
      <trkpt lat="42.70034" lon="1.40647">
        <ele>1804.5319824219</ele>
        <time>2012-09-15T14:52:01Z</time>
      </trkpt>
      <trkpt lat="42.70034" lon="1.40645">
        <ele>1804.0515136719</ele>
        <time>2012-09-15T14:52:02Z</time>
      </trkpt>
      <trkpt lat="42.70034" lon="1.40638">
        <ele>1801.1672363281</ele>
        <time>2012-09-15T14:52:08Z</time>
      </trkpt>
      <trkpt lat="42.70034" lon="1.40633">
        <ele>1799.2446289062</ele>
        <time>2012-09-15T14:52:12Z</time>
      </trkpt>
      <trkpt lat="42.70033" lon="1.40627">
        <ele>1797.802734375</ele>
        <time>2012-09-15T14:52:17Z</time>
      </trkpt>
      <trkpt lat="42.70033" lon="1.40623">
        <ele>1796.3608398438</ele>
        <time>2012-09-15T14:52:22Z</time>
      </trkpt>
      <trkpt lat="42.70035" lon="1.4062">
        <ele>1794.4379882812</ele>
        <time>2012-09-15T14:52:27Z</time>
      </trkpt>
      <trkpt lat="42.70033" lon="1.40613">
        <ele>1792.515625</ele>
        <time>2012-09-15T14:52:32Z</time>
      </trkpt>
      <trkpt lat="42.70032" lon="1.4061">
        <ele>1792.0349121094</ele>
        <time>2012-09-15T14:52:33Z</time>
      </trkpt>
      <trkpt lat="42.70028" lon="1.40603">
        <ele>1791.0734863281</ele>
        <time>2012-09-15T14:52:38Z</time>
      </trkpt>
      <trkpt lat="42.70031" lon="1.406">
        <ele>1789.6315917969</ele>
        <time>2012-09-15T14:52:42Z</time>
      </trkpt>
      <trkpt lat="42.70031" lon="1.406">
        <ele>1789.1508789062</ele>
        <time>2012-09-15T14:52:43Z</time>
      </trkpt>
      <trkpt lat="42.70036" lon="1.406">
        <ele>1787.7087402344</ele>
        <time>2012-09-15T14:52:48Z</time>
      </trkpt>
      <trkpt lat="42.70043" lon="1.40599">
        <ele>1784.3442382812</ele>
        <time>2012-09-15T14:52:55Z</time>
      </trkpt>
      <trkpt lat="42.70049" lon="1.40601">
        <ele>1781.4602050781</ele>
        <time>2012-09-15T14:53:01Z</time>
      </trkpt>
      <trkpt lat="42.7005" lon="1.40601">
        <ele>1780.9797363281</ele>
        <time>2012-09-15T14:53:02Z</time>
      </trkpt>
      <trkpt lat="42.70057" lon="1.40605">
        <ele>1779.0568847656</ele>
        <time>2012-09-15T14:53:08Z</time>
      </trkpt>
      <trkpt lat="42.7006" lon="1.40608">
        <ele>1777.6149902344</ele>
        <time>2012-09-15T14:53:12Z</time>
      </trkpt>
      <trkpt lat="42.70066" lon="1.40616">
        <ele>1775.6923828125</ele>
        <time>2012-09-15T14:53:19Z</time>
      </trkpt>
      <trkpt lat="42.70066" lon="1.40618">
        <ele>1775.6923828125</ele>
        <time>2012-09-15T14:53:21Z</time>
      </trkpt>
      <trkpt lat="42.70072" lon="1.40621">
        <ele>1773.7697753906</ele>
        <time>2012-09-15T14:53:28Z</time>
      </trkpt>
      <trkpt lat="42.70076" lon="1.40625">
        <ele>1771.8469238281</ele>
        <time>2012-09-15T14:53:32Z</time>
      </trkpt>
      <trkpt lat="42.70082" lon="1.40631">
        <ele>1770.4050292969</ele>
        <time>2012-09-15T14:53:36Z</time>
      </trkpt>
      <trkpt lat="42.7009" lon="1.40638">
        <ele>1767.5209960938</ele>
        <time>2012-09-15T14:53:43Z</time>
      </trkpt>
      <trkpt lat="42.70094" lon="1.40641">
        <ele>1766.0791015625</ele>
        <time>2012-09-15T14:53:50Z</time>
      </trkpt>
      <trkpt lat="42.70098" lon="1.40639">
        <ele>1764.1564941406</ele>
        <time>2012-09-15T14:53:55Z</time>
      </trkpt>
      <trkpt lat="42.70103" lon="1.40645">
        <ele>1761.7534179688</ele>
        <time>2012-09-15T14:54:00Z</time>
      </trkpt>
      <trkpt lat="42.70106" lon="1.40651">
        <ele>1760.7919921875</ele>
        <time>2012-09-15T14:54:06Z</time>
      </trkpt>
      <trkpt lat="42.70111" lon="1.40652">
        <ele>1758.8693847656</ele>
        <time>2012-09-15T14:54:13Z</time>
      </trkpt>
      <trkpt lat="42.70116" lon="1.40658">
        <ele>1756.4660644531</ele>
        <time>2012-09-15T14:54:18Z</time>
      </trkpt>
      <trkpt lat="42.70121" lon="1.4066">
        <ele>1753.58203125</ele>
        <time>2012-09-15T14:54:23Z</time>
      </trkpt>
      <trkpt lat="42.70127" lon="1.40662">
        <ele>1751.1787109375</ele>
        <time>2012-09-15T14:54:29Z</time>
      </trkpt>
      <trkpt lat="42.70129" lon="1.40663">
        <ele>1750.6979980469</ele>
        <time>2012-09-15T14:54:33Z</time>
      </trkpt>
      <trkpt lat="42.70133" lon="1.4066">
        <ele>1749.2561035156</ele>
        <time>2012-09-15T14:54:39Z</time>
      </trkpt>
      <trkpt lat="42.70135" lon="1.40655">
        <ele>1747.8142089844</ele>
        <time>2012-09-15T14:54:44Z</time>
      </trkpt>
      <trkpt lat="42.70137" lon="1.40653">
        <ele>1746.3723144531</ele>
        <time>2012-09-15T14:54:49Z</time>
      </trkpt>
      <trkpt lat="42.7014" lon="1.40655">
        <ele>1744.9301757812</ele>
        <time>2012-09-15T14:54:53Z</time>
      </trkpt>
      <trkpt lat="42.70143" lon="1.40652">
        <ele>1743.48828125</ele>
        <time>2012-09-15T14:54:58Z</time>
      </trkpt>
      <trkpt lat="42.70144" lon="1.40649">
        <ele>1742.0463867188</ele>
        <time>2012-09-15T14:55:02Z</time>
      </trkpt>
      <trkpt lat="42.70147" lon="1.40649">
        <ele>1740.6042480469</ele>
        <time>2012-09-15T14:55:07Z</time>
      </trkpt>
      <trkpt lat="42.70153" lon="1.40649">
        <ele>1737.7202148438</ele>
        <time>2012-09-15T14:55:13Z</time>
      </trkpt>
      <trkpt lat="42.70156" lon="1.40651">
        <ele>1735.7976074219</ele>
        <time>2012-09-15T14:55:19Z</time>
      </trkpt>
      <trkpt lat="42.70161" lon="1.40655">
        <ele>1734.3557128906</ele>
        <time>2012-09-15T14:55:24Z</time>
      </trkpt>
      <trkpt lat="42.70164" lon="1.40658">
        <ele>1732.9135742188</ele>
        <time>2012-09-15T14:55:30Z</time>
      </trkpt>
      <trkpt lat="42.70165" lon="1.40652">
        <ele>1731.9523925781</ele>
        <time>2012-09-15T14:55:35Z</time>
      </trkpt>
      <trkpt lat="42.70168" lon="1.40654">
        <ele>1730.9912109375</ele>
        <time>2012-09-15T14:55:39Z</time>
      </trkpt>
      <trkpt lat="42.70173" lon="1.40657">
        <ele>1729.5490722656</ele>
        <time>2012-09-15T14:55:45Z</time>
      </trkpt>
      <trkpt lat="42.70176" lon="1.40658">
        <ele>1727.6264648438</ele>
        <time>2012-09-15T14:55:48Z</time>
      </trkpt>
      <trkpt lat="42.70185" lon="1.40657">
        <ele>1724.7426757812</ele>
        <time>2012-09-15T14:55:54Z</time>
      </trkpt>
      <trkpt lat="42.70192" lon="1.40657">
        <ele>1720.8972167969</ele>
        <time>2012-09-15T14:55:59Z</time>
      </trkpt>
      <trkpt lat="42.70197" lon="1.40657">
        <ele>1718.0131835938</ele>
        <time>2012-09-15T14:56:03Z</time>
      </trkpt>
      <trkpt lat="42.70206" lon="1.40656">
        <ele>1717.0520019531</ele>
        <time>2012-09-15T14:56:08Z</time>
      </trkpt>
      <trkpt lat="42.70211" lon="1.40654">
        <ele>1716.5712890625</ele>
        <time>2012-09-15T14:56:12Z</time>
      </trkpt>
      <trkpt lat="42.70213" lon="1.4065">
        <ele>1716.0905761719</ele>
        <time>2012-09-15T14:56:15Z</time>
      </trkpt>
      <trkpt lat="42.70216" lon="1.40648">
        <ele>1715.1293945312</ele>
        <time>2012-09-15T14:56:17Z</time>
      </trkpt>
      <trkpt lat="42.70223" lon="1.40645">
        <ele>1714.16796875</ele>
        <time>2012-09-15T14:56:22Z</time>
      </trkpt>
      <trkpt lat="42.70226" lon="1.4064">
        <ele>1713.6872558594</ele>
        <time>2012-09-15T14:56:26Z</time>
      </trkpt>
      <trkpt lat="42.70226" lon="1.40636">
        <ele>1712.7260742188</ele>
        <time>2012-09-15T14:56:28Z</time>
      </trkpt>
      <trkpt lat="42.7023" lon="1.40633">
        <ele>1710.3227539062</ele>
        <time>2012-09-15T14:56:32Z</time>
      </trkpt>
      <trkpt lat="42.70229" lon="1.40624">
        <ele>1706.9580078125</ele>
        <time>2012-09-15T14:56:38Z</time>
      </trkpt>
      <trkpt lat="42.70232" lon="1.40616">
        <ele>1704.07421875</ele>
        <time>2012-09-15T14:56:45Z</time>
      </trkpt>
      <trkpt lat="42.70231" lon="1.40608">
        <ele>1701.6708984375</ele>
        <time>2012-09-15T14:56:51Z</time>
      </trkpt>
      <trkpt lat="42.70235" lon="1.40602">
        <ele>1699.7482910156</ele>
        <time>2012-09-15T14:56:56Z</time>
      </trkpt>
      <trkpt lat="42.70235" lon="1.40593">
        <ele>1697.3449707031</ele>
        <time>2012-09-15T14:57:01Z</time>
      </trkpt>
      <trkpt lat="42.70236" lon="1.40586">
        <ele>1695.4223632812</ele>
        <time>2012-09-15T14:57:07Z</time>
      </trkpt>
      <trkpt lat="42.70236" lon="1.40584">
        <ele>1694.9416503906</ele>
        <time>2012-09-15T14:57:08Z</time>
      </trkpt>
      <trkpt lat="42.70235" lon="1.40575">
        <ele>1694.4609375</ele>
        <time>2012-09-15T14:57:14Z</time>
      </trkpt>
      <trkpt lat="42.70237" lon="1.40573">
        <ele>1693.4997558594</ele>
        <time>2012-09-15T14:57:17Z</time>
      </trkpt>
      <trkpt lat="42.7024" lon="1.40568">
        <ele>1691.0961914062</ele>
        <time>2012-09-15T14:57:24Z</time>
      </trkpt>
      <trkpt lat="42.7024" lon="1.40561">
        <ele>1688.6931152344</ele>
        <time>2012-09-15T14:57:30Z</time>
      </trkpt>
      <trkpt lat="42.70243" lon="1.40563">
        <ele>1687.2509765625</ele>
        <time>2012-09-15T14:57:35Z</time>
      </trkpt>
      <trkpt lat="42.70247" lon="1.40566">
        <ele>1686.2897949219</ele>
        <time>2012-09-15T14:57:40Z</time>
      </trkpt>
      <trkpt lat="42.7025" lon="1.40568">
        <ele>1684.3671875</ele>
        <time>2012-09-15T14:57:46Z</time>
      </trkpt>
      <trkpt lat="42.7025" lon="1.40568">
        <ele>1682.9250488281</ele>
        <time>2012-09-15T14:57:50Z</time>
      </trkpt>
      <trkpt lat="42.70252" lon="1.40569">
        <ele>1682.4445800781</ele>
        <time>2012-09-15T14:58:04Z</time>
      </trkpt>
      <trkpt lat="42.70256" lon="1.40573">
        <ele>1681.0026855469</ele>
        <time>2012-09-15T14:58:10Z</time>
      </trkpt>
      <trkpt lat="42.70258" lon="1.40575">
        <ele>1680.0412597656</ele>
        <time>2012-09-15T14:58:17Z</time>
      </trkpt>
      <trkpt lat="42.70259" lon="1.40575">
        <ele>1678.1186523438</ele>
        <time>2012-09-15T14:58:24Z</time>
      </trkpt>
      <trkpt lat="42.70264" lon="1.40583">
        <ele>1676.6767578125</ele>
        <time>2012-09-15T14:58:32Z</time>
      </trkpt>
      <trkpt lat="42.70267" lon="1.40584">
        <ele>1676.1960449219</ele>
        <time>2012-09-15T14:58:35Z</time>
      </trkpt>
      <trkpt lat="42.70273" lon="1.40585">
        <ele>1676.1960449219</ele>
        <time>2012-09-15T14:58:42Z</time>
      </trkpt>
      <trkpt lat="42.70276" lon="1.40582">
        <ele>1676.1960449219</ele>
        <time>2012-09-15T14:58:48Z</time>
      </trkpt>
      <trkpt lat="42.7028" lon="1.40582">
        <ele>1675.7150878906</ele>
        <time>2012-09-15T14:58:53Z</time>
      </trkpt>
      <trkpt lat="42.70286" lon="1.40583">
        <ele>1674.75390625</ele>
        <time>2012-09-15T14:58:59Z</time>
      </trkpt>
      <trkpt lat="42.70292" lon="1.40585">
        <ele>1673.7924804688</ele>
        <time>2012-09-15T14:59:05Z</time>
      </trkpt>
      <trkpt lat="42.70293" lon="1.40585">
        <ele>1673.7924804688</ele>
        <time>2012-09-15T14:59:06Z</time>
      </trkpt>
      <trkpt lat="42.70297" lon="1.40582">
        <ele>1674.2731933594</ele>
        <time>2012-09-15T14:59:11Z</time>
      </trkpt>
      <trkpt lat="42.70302" lon="1.40584">
        <ele>1672.8312988281</ele>
        <time>2012-09-15T14:59:17Z</time>
      </trkpt>
      <trkpt lat="42.70306" lon="1.40584">
        <ele>1670.9086914062</ele>
        <time>2012-09-15T14:59:23Z</time>
      </trkpt>
      <trkpt lat="42.70312" lon="1.40582">
        <ele>1670.4279785156</ele>
        <time>2012-09-15T14:59:29Z</time>
      </trkpt>
      <trkpt lat="42.70317" lon="1.40581">
        <ele>1668.9860839844</ele>
        <time>2012-09-15T14:59:36Z</time>
      </trkpt>
      <trkpt lat="42.7032" lon="1.4058">
        <ele>1667.5439453125</ele>
        <time>2012-09-15T14:59:40Z</time>
      </trkpt>
      <trkpt lat="42.70325" lon="1.40581">
        <ele>1665.6215820312</ele>
        <time>2012-09-15T14:59:46Z</time>
      </trkpt>
      <trkpt lat="42.70331" lon="1.40584">
        <ele>1663.6987304688</ele>
        <time>2012-09-15T14:59:52Z</time>
      </trkpt>
      <trkpt lat="42.70333" lon="1.40584">
        <ele>1663.6987304688</ele>
        <time>2012-09-15T14:59:54Z</time>
      </trkpt>
      <trkpt lat="42.70339" lon="1.40584">
        <ele>1661.2956542969</ele>
        <time>2012-09-15T15:00:00Z</time>
      </trkpt>
      <trkpt lat="42.70343" lon="1.40586">
        <ele>1660.8149414062</ele>
        <time>2012-09-15T15:00:05Z</time>
      </trkpt>
      <trkpt lat="42.70348" lon="1.40588">
        <ele>1658.8920898438</ele>
        <time>2012-09-15T15:00:09Z</time>
      </trkpt>
      <trkpt lat="42.70351" lon="1.40591">
        <ele>1656.9694824219</ele>
        <time>2012-09-15T15:00:14Z</time>
      </trkpt>
      <trkpt lat="42.70359" lon="1.40596">
        <ele>1654.5661621094</ele>
        <time>2012-09-15T15:00:19Z</time>
      </trkpt>
      <trkpt lat="42.70369" lon="1.40606">
        <ele>1651.6823730469</ele>
        <time>2012-09-15T15:00:26Z</time>
      </trkpt>
      <trkpt lat="42.70371" lon="1.40608">
        <ele>1651.6823730469</ele>
        <time>2012-09-15T15:00:27Z</time>
      </trkpt>
      <trkpt lat="42.70378" lon="1.40611">
        <ele>1648.3176269531</ele>
        <time>2012-09-15T15:00:32Z</time>
      </trkpt>
      <trkpt lat="42.70384" lon="1.40612">
        <ele>1646.3952636719</ele>
        <time>2012-09-15T15:00:36Z</time>
      </trkpt>
      <trkpt lat="42.7039" lon="1.40612">
        <ele>1643.5109863281</ele>
        <time>2012-09-15T15:00:40Z</time>
      </trkpt>
      <trkpt lat="42.70394" lon="1.40614">
        <ele>1642.0690917969</ele>
        <time>2012-09-15T15:00:43Z</time>
      </trkpt>
      <trkpt lat="42.70395" lon="1.40619">
        <ele>1640.626953125</ele>
        <time>2012-09-15T15:00:48Z</time>
      </trkpt>
      <trkpt lat="42.70398" lon="1.40622">
        <ele>1638.2238769531</ele>
        <time>2012-09-15T15:00:52Z</time>
      </trkpt>
      <trkpt lat="42.70403" lon="1.40626">
        <ele>1635.8205566406</ele>
        <time>2012-09-15T15:00:59Z</time>
      </trkpt>
      <trkpt lat="42.70405" lon="1.40632">
        <ele>1632.4560546875</ele>
        <time>2012-09-15T15:01:04Z</time>
      </trkpt>
      <trkpt lat="42.7041" lon="1.40636">
        <ele>1629.0913085938</ele>
        <time>2012-09-15T15:01:10Z</time>
      </trkpt>
      <trkpt lat="42.70412" lon="1.40636">
        <ele>1628.1301269531</ele>
        <time>2012-09-15T15:01:12Z</time>
      </trkpt>
      <trkpt lat="42.70419" lon="1.40635">
        <ele>1626.2072753906</ele>
        <time>2012-09-15T15:01:17Z</time>
      </trkpt>
      <trkpt lat="42.70424" lon="1.40637">
        <ele>1624.7653808594</ele>
        <time>2012-09-15T15:01:22Z</time>
      </trkpt>
      <trkpt lat="42.70427" lon="1.40641">
        <ele>1623.8039550781</ele>
        <time>2012-09-15T15:01:25Z</time>
      </trkpt>
      <trkpt lat="42.70428" lon="1.40648">
        <ele>1620.9201660156</ele>
        <time>2012-09-15T15:01:30Z</time>
      </trkpt>
      <trkpt lat="42.70432" lon="1.40655">
        <ele>1618.5168457031</ele>
        <time>2012-09-15T15:01:36Z</time>
      </trkpt>
      <trkpt lat="42.70434" lon="1.40657">
        <ele>1616.5942382812</ele>
        <time>2012-09-15T15:01:40Z</time>
      </trkpt>
      <trkpt lat="42.70438" lon="1.40653">
        <ele>1613.2297363281</ele>
        <time>2012-09-15T15:01:45Z</time>
      </trkpt>
      <trkpt lat="42.70441" lon="1.40654">
        <ele>1611.3068847656</ele>
        <time>2012-09-15T15:01:50Z</time>
      </trkpt>
      <trkpt lat="42.70445" lon="1.40653">
        <ele>1609.8647460938</ele>
        <time>2012-09-15T15:01:57Z</time>
      </trkpt>
      <trkpt lat="42.70446" lon="1.40657">
        <ele>1608.4228515625</ele>
        <time>2012-09-15T15:02:01Z</time>
      </trkpt>
      <trkpt lat="42.70447" lon="1.40658">
        <ele>1606.5002441406</ele>
        <time>2012-09-15T15:02:06Z</time>
      </trkpt>
      <trkpt lat="42.70451" lon="1.40655">
        <ele>1605.5390625</ele>
        <time>2012-09-15T15:02:12Z</time>
      </trkpt>
      <trkpt lat="42.70455" lon="1.40651">
        <ele>1603.6164550781</ele>
        <time>2012-09-15T15:02:18Z</time>
      </trkpt>
      <trkpt lat="42.70459" lon="1.40644">
        <ele>1602.6550292969</ele>
        <time>2012-09-15T15:02:24Z</time>
      </trkpt>
      <trkpt lat="42.70461" lon="1.40639">
        <ele>1601.6938476562</ele>
        <time>2012-09-15T15:02:28Z</time>
      </trkpt>
      <trkpt lat="42.70467" lon="1.40633">
        <ele>1599.2905273438</ele>
        <time>2012-09-15T15:02:35Z</time>
      </trkpt>
      <trkpt lat="42.70471" lon="1.40641">
        <ele>1595.92578125</ele>
        <time>2012-09-15T15:02:40Z</time>
      </trkpt>
      <trkpt lat="42.70472" lon="1.40644">
        <ele>1594.4836425781</ele>
        <time>2012-09-15T15:02:42Z</time>
      </trkpt>
      <trkpt lat="42.70475" lon="1.40652">
        <ele>1591.5998535156</ele>
        <time>2012-09-15T15:02:49Z</time>
      </trkpt>
      <trkpt lat="42.70479" lon="1.40651">
        <ele>1589.6772460938</ele>
        <time>2012-09-15T15:02:54Z</time>
      </trkpt>
      <trkpt lat="42.70484" lon="1.40649">
        <ele>1588.7160644531</ele>
        <time>2012-09-15T15:03:00Z</time>
      </trkpt>
      <trkpt lat="42.70488" lon="1.40647">
        <ele>1588.2353515625</ele>
        <time>2012-09-15T15:03:06Z</time>
      </trkpt>
      <trkpt lat="42.70493" lon="1.40649">
        <ele>1585.83203125</ele>
        <time>2012-09-15T15:03:12Z</time>
      </trkpt>
      <trkpt lat="42.70494" lon="1.40657">
        <ele>1582.4675292969</ele>
        <time>2012-09-15T15:03:18Z</time>
      </trkpt>
      <trkpt lat="42.70496" lon="1.40666">
        <ele>1579.1025390625</ele>
        <time>2012-09-15T15:03:25Z</time>
      </trkpt>
      <trkpt lat="42.70499" lon="1.40668">
        <ele>1577.6606445312</ele>
        <time>2012-09-15T15:03:30Z</time>
      </trkpt>
      <trkpt lat="42.70503" lon="1.40665">
        <ele>1576.6994628906</ele>
        <time>2012-09-15T15:03:34Z</time>
      </trkpt>
      <trkpt lat="42.70507" lon="1.40661">
        <ele>1574.7768554688</ele>
        <time>2012-09-15T15:03:39Z</time>
      </trkpt>
      <trkpt lat="42.70512" lon="1.40661">
        <ele>1572.8542480469</ele>
        <time>2012-09-15T15:03:46Z</time>
      </trkpt>
      <trkpt lat="42.70514" lon="1.40656">
        <ele>1571.8928222656</ele>
        <time>2012-09-15T15:03:52Z</time>
      </trkpt>
      <trkpt lat="42.70515" lon="1.40653">
        <ele>1570.931640625</ele>
        <time>2012-09-15T15:03:57Z</time>
      </trkpt>
      <trkpt lat="42.70518" lon="1.40655">
        <ele>1569.0090332031</ele>
        <time>2012-09-15T15:04:01Z</time>
      </trkpt>
      <trkpt lat="42.7052" lon="1.40662">
        <ele>1567.5668945312</ele>
        <time>2012-09-15T15:04:07Z</time>
      </trkpt>
      <trkpt lat="42.7052" lon="1.40667">
        <ele>1565.1638183594</ele>
        <time>2012-09-15T15:04:12Z</time>
      </trkpt>
      <trkpt lat="42.70521" lon="1.40671">
        <ele>1563.7214355469</ele>
        <time>2012-09-15T15:04:16Z</time>
      </trkpt>
      <trkpt lat="42.70523" lon="1.40678">
        <ele>1560.8376464844</ele>
        <time>2012-09-15T15:04:22Z</time>
      </trkpt>
      <trkpt lat="42.70523" lon="1.40681">
        <ele>1560.3569335938</ele>
        <time>2012-09-15T15:04:26Z</time>
      </trkpt>
      <trkpt lat="42.70527" lon="1.40683">
        <ele>1559.8762207031</ele>
        <time>2012-09-15T15:04:31Z</time>
      </trkpt>
      <trkpt lat="42.70531" lon="1.40687">
        <ele>1556.9924316406</ele>
        <time>2012-09-15T15:04:37Z</time>
      </trkpt>
      <trkpt lat="42.70533" lon="1.4069">
        <ele>1554.5891113281</ele>
        <time>2012-09-15T15:04:43Z</time>
      </trkpt>
      <trkpt lat="42.70535" lon="1.40696">
        <ele>1554.5891113281</ele>
        <time>2012-09-15T15:04:50Z</time>
      </trkpt>
      <trkpt lat="42.70537" lon="1.40703">
        <ele>1552.1857910156</ele>
        <time>2012-09-15T15:04:56Z</time>
      </trkpt>
      <trkpt lat="42.70537" lon="1.40706">
        <ele>1550.2634277344</ele>
        <time>2012-09-15T15:04:59Z</time>
      </trkpt>
      <trkpt lat="42.70539" lon="1.40714">
        <ele>1548.8212890625</ele>
        <time>2012-09-15T15:05:04Z</time>
      </trkpt>
      <trkpt lat="42.70539" lon="1.40723">
        <ele>1548.8212890625</ele>
        <time>2012-09-15T15:05:09Z</time>
      </trkpt>
      <trkpt lat="42.70541" lon="1.40735">
        <ele>1548.3405761719</ele>
        <time>2012-09-15T15:05:13Z</time>
      </trkpt>
      <trkpt lat="42.70543" lon="1.40737">
        <ele>1548.3405761719</ele>
        <time>2012-09-15T15:05:18Z</time>
      </trkpt>
      <trkpt lat="42.70546" lon="1.40734">
        <ele>1545.9372558594</ele>
        <time>2012-09-15T15:05:23Z</time>
      </trkpt>
      <trkpt lat="42.70549" lon="1.40729">
        <ele>1544.4951171875</ele>
        <time>2012-09-15T15:05:28Z</time>
      </trkpt>
      <trkpt lat="42.70554" lon="1.40731">
        <ele>1543.5339355469</ele>
        <time>2012-09-15T15:05:34Z</time>
      </trkpt>
      <trkpt lat="42.70555" lon="1.40738">
        <ele>1542.5727539062</ele>
        <time>2012-09-15T15:05:37Z</time>
      </trkpt>
      <trkpt lat="42.70557" lon="1.40743">
        <ele>1541.1306152344</ele>
        <time>2012-09-15T15:05:40Z</time>
      </trkpt>
      <trkpt lat="42.70559" lon="1.40748">
        <ele>1536.8046875</ele>
        <time>2012-09-15T15:05:47Z</time>
      </trkpt>
      <trkpt lat="42.7056" lon="1.40752">
        <ele>1535.8435058594</ele>
        <time>2012-09-15T15:05:50Z</time>
      </trkpt>
      <trkpt lat="42.70562" lon="1.40755">
        <ele>1532.4790039062</ele>
        <time>2012-09-15T15:05:54Z</time>
      </trkpt>
      <trkpt lat="42.70563" lon="1.40761">
        <ele>1531.0368652344</ele>
        <time>2012-09-15T15:05:59Z</time>
      </trkpt>
      <trkpt lat="42.70564" lon="1.40771">
        <ele>1531.5173339844</ele>
        <time>2012-09-15T15:06:05Z</time>
      </trkpt>
      <trkpt lat="42.70564" lon="1.40772">
        <ele>1531.0368652344</ele>
        <time>2012-09-15T15:06:06Z</time>
      </trkpt>
      <trkpt lat="42.70566" lon="1.40777">
        <ele>1529.5947265625</ele>
        <time>2012-09-15T15:06:10Z</time>
      </trkpt>
      <trkpt lat="42.70567" lon="1.40783">
        <ele>1526.7109375</ele>
        <time>2012-09-15T15:06:14Z</time>
      </trkpt>
      <trkpt lat="42.70567" lon="1.40793">
        <ele>1526.7109375</ele>
        <time>2012-09-15T15:06:20Z</time>
      </trkpt>
      <trkpt lat="42.70569" lon="1.40799">
        <ele>1525.2687988281</ele>
        <time>2012-09-15T15:06:25Z</time>
      </trkpt>
      <trkpt lat="42.70572" lon="1.40802">
        <ele>1525.7495117188</ele>
        <time>2012-09-15T15:06:28Z</time>
      </trkpt>
      <trkpt lat="42.70575" lon="1.40807">
        <ele>1524.7883300781</ele>
        <time>2012-09-15T15:06:34Z</time>
      </trkpt>
      <trkpt lat="42.70576" lon="1.40811">
        <ele>1522.3850097656</ele>
        <time>2012-09-15T15:06:40Z</time>
      </trkpt>
      <trkpt lat="42.70582" lon="1.40812">
        <ele>1519.0205078125</ele>
        <time>2012-09-15T15:06:47Z</time>
      </trkpt>
      <trkpt lat="42.70585" lon="1.40809">
        <ele>1520.9431152344</ele>
        <time>2012-09-15T15:06:52Z</time>
      </trkpt>
      <trkpt lat="42.70586" lon="1.40804">
        <ele>1520.4624023438</ele>
        <time>2012-09-15T15:06:57Z</time>
      </trkpt>
      <trkpt lat="42.70586" lon="1.40803">
        <ele>1520.4624023438</ele>
        <time>2012-09-15T15:06:58Z</time>
      </trkpt>
      <trkpt lat="42.70588" lon="1.40799">
        <ele>1518.5397949219</ele>
        <time>2012-09-15T15:07:03Z</time>
      </trkpt>
      <trkpt lat="42.7059" lon="1.40794">
        <ele>1515.1750488281</ele>
        <time>2012-09-15T15:07:08Z</time>
      </trkpt>
      <trkpt lat="42.70592" lon="1.40791">
        <ele>1511.810546875</ele>
        <time>2012-09-15T15:07:12Z</time>
      </trkpt>
      <trkpt lat="42.70601" lon="1.40788">
        <ele>1508.9265136719</ele>
        <time>2012-09-15T15:07:22Z</time>
      </trkpt>
      <trkpt lat="42.70602" lon="1.40788">
        <ele>1508.9265136719</ele>
        <time>2012-09-15T15:07:23Z</time>
      </trkpt>
      <trkpt lat="42.70608" lon="1.40788">
        <ele>1508.9265136719</ele>
        <time>2012-09-15T15:07:28Z</time>
      </trkpt>
      <trkpt lat="42.70614" lon="1.40788">
        <ele>1506.0424804688</ele>
        <time>2012-09-15T15:07:36Z</time>
      </trkpt>
      <trkpt lat="42.70618" lon="1.40791">
        <ele>1504.1201171875</ele>
        <time>2012-09-15T15:07:40Z</time>
      </trkpt>
      <trkpt lat="42.7062" lon="1.40792">
        <ele>1503.1586914062</ele>
        <time>2012-09-15T15:07:42Z</time>
      </trkpt>
      <trkpt lat="42.70621" lon="1.40795">
        <ele>1502.6779785156</ele>
        <time>2012-09-15T15:07:44Z</time>
      </trkpt>
      <trkpt lat="42.70625" lon="1.40799">
        <ele>1499.3132324219</ele>
        <time>2012-09-15T15:07:52Z</time>
      </trkpt>
      <trkpt lat="42.70627" lon="1.40802">
        <ele>1497.390625</ele>
        <time>2012-09-15T15:07:57Z</time>
      </trkpt>
      <trkpt lat="42.7063" lon="1.40802">
        <ele>1495.4680175781</ele>
        <time>2012-09-15T15:08:03Z</time>
      </trkpt>
      <trkpt lat="42.70635" lon="1.40808">
        <ele>1492.5842285156</ele>
        <time>2012-09-15T15:08:09Z</time>
      </trkpt>
      <trkpt lat="42.70636" lon="1.40811">
        <ele>1490.1809082031</ele>
        <time>2012-09-15T15:08:12Z</time>
      </trkpt>
      <trkpt lat="42.70641" lon="1.4082">
        <ele>1487.296875</ele>
        <time>2012-09-15T15:08:19Z</time>
      </trkpt>
      <trkpt lat="42.70644" lon="1.40826">
        <ele>1485.3742675781</ele>
        <time>2012-09-15T15:08:25Z</time>
      </trkpt>
      <trkpt lat="42.70645" lon="1.4083">
        <ele>1484.4130859375</ele>
        <time>2012-09-15T15:08:29Z</time>
      </trkpt>
      <trkpt lat="42.70646" lon="1.40838">
        <ele>1484.4130859375</ele>
        <time>2012-09-15T15:08:34Z</time>
      </trkpt>
      <trkpt lat="42.70647" lon="1.40842">
        <ele>1483.4514160156</ele>
        <time>2012-09-15T15:08:38Z</time>
      </trkpt>
      <trkpt lat="42.70651" lon="1.40849">
        <ele>1482.490234375</ele>
        <time>2012-09-15T15:08:43Z</time>
      </trkpt>
      <trkpt lat="42.70652" lon="1.40858">
        <ele>1481.5288085938</ele>
        <time>2012-09-15T15:08:50Z</time>
      </trkpt>
      <trkpt lat="42.70653" lon="1.40865">
        <ele>1479.6062011719</ele>
        <time>2012-09-15T15:08:55Z</time>
      </trkpt>
      <trkpt lat="42.70653" lon="1.40872">
        <ele>1479.6062011719</ele>
        <time>2012-09-15T15:09:00Z</time>
      </trkpt>
      <trkpt lat="42.70652" lon="1.40879">
        <ele>1479.6062011719</ele>
        <time>2012-09-15T15:09:06Z</time>
      </trkpt>
      <trkpt lat="42.70652" lon="1.40887">
        <ele>1480.5676269531</ele>
        <time>2012-09-15T15:09:11Z</time>
      </trkpt>
      <trkpt lat="42.70654" lon="1.40896">
        <ele>1481.5288085938</ele>
        <time>2012-09-15T15:09:16Z</time>
      </trkpt>
      <trkpt lat="42.70655" lon="1.40898">
        <ele>1481.5288085938</ele>
        <time>2012-09-15T15:09:17Z</time>
      </trkpt>
      <trkpt lat="42.70655" lon="1.40908">
        <ele>1481.5288085938</ele>
        <time>2012-09-15T15:09:23Z</time>
      </trkpt>
      <trkpt lat="42.70654" lon="1.40913">
        <ele>1482.970703125</ele>
        <time>2012-09-15T15:09:26Z</time>
      </trkpt>
      <trkpt lat="42.70653" lon="1.4092">
        <ele>1483.4514160156</ele>
        <time>2012-09-15T15:09:31Z</time>
      </trkpt>
      <trkpt lat="42.70652" lon="1.40929">
        <ele>1482.490234375</ele>
        <time>2012-09-15T15:09:37Z</time>
      </trkpt>
      <trkpt lat="42.70652" lon="1.40935">
        <ele>1482.0095214844</ele>
        <time>2012-09-15T15:09:42Z</time>
      </trkpt>
      <trkpt lat="42.70651" lon="1.40945">
        <ele>1481.0483398438</ele>
        <time>2012-09-15T15:09:48Z</time>
      </trkpt>
      <trkpt lat="42.70651" lon="1.40947">
        <ele>1479.6062011719</ele>
        <time>2012-09-15T15:09:50Z</time>
      </trkpt>
      <trkpt lat="42.7065" lon="1.40955">
        <ele>1475.2802734375</ele>
        <time>2012-09-15T15:09:57Z</time>
      </trkpt>
      <trkpt lat="42.7065" lon="1.40961">
        <ele>1471.9157714844</ele>
        <time>2012-09-15T15:10:02Z</time>
      </trkpt>
      <trkpt lat="42.7065" lon="1.40968">
        <ele>1472.396484375</ele>
        <time>2012-09-15T15:10:07Z</time>
      </trkpt>
      <trkpt lat="42.70653" lon="1.40981">
        <ele>1472.8771972656</ele>
        <time>2012-09-15T15:10:13Z</time>
      </trkpt>
      <trkpt lat="42.70654" lon="1.40991">
        <ele>1470.9545898438</ele>
        <time>2012-09-15T15:10:17Z</time>
      </trkpt>
      <trkpt lat="42.70655" lon="1.41">
        <ele>1468.0705566406</ele>
        <time>2012-09-15T15:10:21Z</time>
      </trkpt>
      <trkpt lat="42.70654" lon="1.4101">
        <ele>1467.5895996094</ele>
        <time>2012-09-15T15:10:26Z</time>
      </trkpt>
      <trkpt lat="42.70656" lon="1.41018">
        <ele>1466.6284179688</ele>
        <time>2012-09-15T15:10:31Z</time>
      </trkpt>
      <trkpt lat="42.70656" lon="1.41021">
        <ele>1465.6672363281</ele>
        <time>2012-09-15T15:10:33Z</time>
      </trkpt>
      <trkpt lat="42.70656" lon="1.41029">
        <ele>1463.2639160156</ele>
        <time>2012-09-15T15:10:39Z</time>
      </trkpt>
      <trkpt lat="42.70658" lon="1.41038">
        <ele>1463.2639160156</ele>
        <time>2012-09-15T15:10:45Z</time>
      </trkpt>
      <trkpt lat="42.70659" lon="1.41046">
        <ele>1463.7443847656</ele>
        <time>2012-09-15T15:10:51Z</time>
      </trkpt>
      <trkpt lat="42.7066" lon="1.41046">
        <ele>1463.7443847656</ele>
        <time>2012-09-15T15:10:53Z</time>
      </trkpt>
      <trkpt lat="42.7066" lon="1.4104">
        <ele>1460.3798828125</ele>
        <time>2012-09-15T15:10:57Z</time>
      </trkpt>
      <trkpt lat="42.70665" lon="1.41036">
        <ele>1460.3798828125</ele>
        <time>2012-09-15T15:11:03Z</time>
      </trkpt>
      <trkpt lat="42.70665" lon="1.41035">
        <ele>1459.4187011719</ele>
        <time>2012-09-15T15:11:04Z</time>
      </trkpt>
      <trkpt lat="42.70665" lon="1.41027">
        <ele>1456.0539550781</ele>
        <time>2012-09-15T15:11:09Z</time>
      </trkpt>
      <trkpt lat="42.70666" lon="1.41023">
        <ele>1455.0927734375</ele>
        <time>2012-09-15T15:11:14Z</time>
      </trkpt>
      <trkpt lat="42.70668" lon="1.41023">
        <ele>1454.6120605469</ele>
        <time>2012-09-15T15:11:17Z</time>
      </trkpt>
      <trkpt lat="42.70671" lon="1.41024">
        <ele>1454.6120605469</ele>
        <time>2012-09-15T15:11:18Z</time>
      </trkpt>
      <trkpt lat="42.70675" lon="1.4103">
        <ele>1453.1701660156</ele>
        <time>2012-09-15T15:11:22Z</time>
      </trkpt>
      <trkpt lat="42.70676" lon="1.41033">
        <ele>1453.1701660156</ele>
        <time>2012-09-15T15:11:24Z</time>
      </trkpt>
      <trkpt lat="42.70679" lon="1.41041">
        <ele>1452.2087402344</ele>
        <time>2012-09-15T15:11:29Z</time>
      </trkpt>
      <trkpt lat="42.70682" lon="1.41046">
        <ele>1451.2473144531</ele>
        <time>2012-09-15T15:11:32Z</time>
      </trkpt>
      <trkpt lat="42.70683" lon="1.41054">
        <ele>1449.8054199219</ele>
        <time>2012-09-15T15:11:37Z</time>
      </trkpt>
      <trkpt lat="42.70684" lon="1.4106">
        <ele>1447.4020996094</ele>
        <time>2012-09-15T15:11:42Z</time>
      </trkpt>
      <trkpt lat="42.70685" lon="1.41061">
        <ele>1446.9213867188</ele>
        <time>2012-09-15T15:11:43Z</time>
      </trkpt>
      <trkpt lat="42.70686" lon="1.41067">
        <ele>1444.5180664062</ele>
        <time>2012-09-15T15:11:48Z</time>
      </trkpt>
      <trkpt lat="42.70687" lon="1.41075">
        <ele>1442.595703125</ele>
        <time>2012-09-15T15:11:52Z</time>
      </trkpt>
      <trkpt lat="42.70687" lon="1.41078">
        <ele>1441.6342773438</ele>
        <time>2012-09-15T15:11:54Z</time>
      </trkpt>
      <trkpt lat="42.70692" lon="1.41085">
        <ele>1439.7116699219</ele>
        <time>2012-09-15T15:11:59Z</time>
      </trkpt>
      <trkpt lat="42.70692" lon="1.41093">
        <ele>1439.2309570312</ele>
        <time>2012-09-15T15:12:03Z</time>
      </trkpt>
      <trkpt lat="42.70692" lon="1.411">
        <ele>1438.7504882812</ele>
        <time>2012-09-15T15:12:08Z</time>
      </trkpt>
      <trkpt lat="42.70694" lon="1.41106">
        <ele>1436.8276367188</ele>
        <time>2012-09-15T15:12:13Z</time>
      </trkpt>
      <trkpt lat="42.70695" lon="1.41114">
        <ele>1431.5402832031</ele>
        <time>2012-09-15T15:12:20Z</time>
      </trkpt>
      <trkpt lat="42.70697" lon="1.41121">
        <ele>1430.5791015625</ele>
        <time>2012-09-15T15:12:24Z</time>
      </trkpt>
      <trkpt lat="42.707" lon="1.4113">
        <ele>1431.0598144531</ele>
        <time>2012-09-15T15:12:29Z</time>
      </trkpt>
      <trkpt lat="42.70702" lon="1.41136">
        <ele>1430.0983886719</ele>
        <time>2012-09-15T15:12:33Z</time>
      </trkpt>
      <trkpt lat="42.70703" lon="1.4114">
        <ele>1430.5791015625</ele>
        <time>2012-09-15T15:12:35Z</time>
      </trkpt>
      <trkpt lat="42.70703" lon="1.41151">
        <ele>1426.2531738281</ele>
        <time>2012-09-15T15:12:43Z</time>
      </trkpt>
      <trkpt lat="42.70703" lon="1.41157">
        <ele>1424.8112792969</ele>
        <time>2012-09-15T15:12:47Z</time>
      </trkpt>
      <trkpt lat="42.70703" lon="1.41162">
        <ele>1427.2145996094</ele>
        <time>2012-09-15T15:12:50Z</time>
      </trkpt>
      <trkpt lat="42.707" lon="1.41171">
        <ele>1425.2917480469</ele>
        <time>2012-09-15T15:12:54Z</time>
      </trkpt>
      <trkpt lat="42.707" lon="1.41176">
        <ele>1423.8498535156</ele>
        <time>2012-09-15T15:12:58Z</time>
      </trkpt>
      <trkpt lat="42.707" lon="1.41183">
        <ele>1421.9272460938</ele>
        <time>2012-09-15T15:13:03Z</time>
      </trkpt>
      <trkpt lat="42.70701" lon="1.41187">
        <ele>1420.9660644531</ele>
        <time>2012-09-15T15:13:07Z</time>
      </trkpt>
      <trkpt lat="42.707" lon="1.41195">
        <ele>1420.0046386719</ele>
        <time>2012-09-15T15:13:12Z</time>
      </trkpt>
      <trkpt lat="42.70696" lon="1.41203">
        <ele>1415.6787109375</ele>
        <time>2012-09-15T15:13:19Z</time>
      </trkpt>
      <trkpt lat="42.70695" lon="1.41211">
        <ele>1416.1591796875</ele>
        <time>2012-09-15T15:13:24Z</time>
      </trkpt>
      <trkpt lat="42.70695" lon="1.4122">
        <ele>1418.0817871094</ele>
        <time>2012-09-15T15:13:28Z</time>
      </trkpt>
      <trkpt lat="42.70694" lon="1.41224">
        <ele>1419.0432128906</ele>
        <time>2012-09-15T15:13:30Z</time>
      </trkpt>
      <trkpt lat="42.70691" lon="1.41233">
        <ele>1417.6010742188</ele>
        <time>2012-09-15T15:13:35Z</time>
      </trkpt>
      <trkpt lat="42.7069" lon="1.41241">
        <ele>1419.0432128906</ele>
        <time>2012-09-15T15:13:40Z</time>
      </trkpt>
      <trkpt lat="42.70687" lon="1.41247">
        <ele>1418.5625</ele>
        <time>2012-09-15T15:13:44Z</time>
      </trkpt>
      <trkpt lat="42.70688" lon="1.41254">
        <ele>1416.1591796875</ele>
        <time>2012-09-15T15:13:49Z</time>
      </trkpt>
      <trkpt lat="42.70685" lon="1.41264">
        <ele>1413.275390625</ele>
        <time>2012-09-15T15:13:55Z</time>
      </trkpt>
      <trkpt lat="42.70685" lon="1.41278">
        <ele>1409.4301757812</ele>
        <time>2012-09-15T15:14:00Z</time>
      </trkpt>
      <trkpt lat="42.70684" lon="1.41289">
        <ele>1409.4301757812</ele>
        <time>2012-09-15T15:14:03Z</time>
      </trkpt>
      <trkpt lat="42.70682" lon="1.41294">
        <ele>1410.3913574219</ele>
        <time>2012-09-15T15:14:06Z</time>
      </trkpt>
      <trkpt lat="42.70682" lon="1.41304">
        <ele>1414.7172851562</ele>
        <time>2012-09-15T15:14:12Z</time>
      </trkpt>
      <trkpt lat="42.70684" lon="1.41307">
        <ele>1413.755859375</ele>
        <time>2012-09-15T15:14:15Z</time>
      </trkpt>
      <trkpt lat="42.70686" lon="1.41313">
        <ele>1411.8334960938</ele>
        <time>2012-09-15T15:14:20Z</time>
      </trkpt>
      <trkpt lat="42.70685" lon="1.41322">
        <ele>1408.46875</ele>
        <time>2012-09-15T15:14:26Z</time>
      </trkpt>
      <trkpt lat="42.70685" lon="1.41324">
        <ele>1408.46875</ele>
        <time>2012-09-15T15:14:27Z</time>
      </trkpt>
      <trkpt lat="42.70687" lon="1.41334">
        <ele>1407.98828125</ele>
        <time>2012-09-15T15:14:32Z</time>
      </trkpt>
      <trkpt lat="42.70684" lon="1.41345">
        <ele>1408.9494628906</ele>
        <time>2012-09-15T15:14:36Z</time>
      </trkpt>
      <trkpt lat="42.70684" lon="1.41349">
        <ele>1407.5075683594</ele>
        <time>2012-09-15T15:14:38Z</time>
      </trkpt>
      <trkpt lat="42.70683" lon="1.41359">
        <ele>1407.0268554688</ele>
        <time>2012-09-15T15:14:42Z</time>
      </trkpt>
      <trkpt lat="42.70681" lon="1.41366">
        <ele>1404.6235351562</ele>
        <time>2012-09-15T15:14:47Z</time>
      </trkpt>
      <trkpt lat="42.70679" lon="1.4137">
        <ele>1403.1813964844</ele>
        <time>2012-09-15T15:14:50Z</time>
      </trkpt>
      <trkpt lat="42.70679" lon="1.41376">
        <ele>1404.1430664062</ele>
        <time>2012-09-15T15:14:53Z</time>
      </trkpt>
      <trkpt lat="42.70678" lon="1.41387">
        <ele>1398.85546875</ele>
        <time>2012-09-15T15:15:00Z</time>
      </trkpt>
      <trkpt lat="42.7068" lon="1.41391">
        <ele>1395.9716796875</ele>
        <time>2012-09-15T15:15:03Z</time>
      </trkpt>
      <trkpt lat="42.70677" lon="1.41398">
        <ele>1395.0102539062</ele>
        <time>2012-09-15T15:15:07Z</time>
      </trkpt>
      <trkpt lat="42.70676" lon="1.41409">
        <ele>1399.8168945312</ele>
        <time>2012-09-15T15:15:14Z</time>
      </trkpt>
      <trkpt lat="42.70676" lon="1.41418">
        <ele>1402.7006835938</ele>
        <time>2012-09-15T15:15:21Z</time>
      </trkpt>
      <trkpt lat="42.70676" lon="1.41426">
        <ele>1401.7395019531</ele>
        <time>2012-09-15T15:15:26Z</time>
      </trkpt>
      <trkpt lat="42.70676" lon="1.41428">
        <ele>1401.7395019531</ele>
        <time>2012-09-15T15:15:27Z</time>
      </trkpt>
      <trkpt lat="42.70675" lon="1.41435">
        <ele>1402.7006835938</ele>
        <time>2012-09-15T15:15:33Z</time>
      </trkpt>
      <trkpt lat="42.70674" lon="1.41438">
        <ele>1401.7395019531</ele>
        <time>2012-09-15T15:15:35Z</time>
      </trkpt>
      <trkpt lat="42.70676" lon="1.41451">
        <ele>1399.3361816406</ele>
        <time>2012-09-15T15:15:40Z</time>
      </trkpt>
      <trkpt lat="42.70676" lon="1.41457">
        <ele>1398.85546875</ele>
        <time>2012-09-15T15:15:43Z</time>
      </trkpt>
      <trkpt lat="42.70676" lon="1.41464">
        <ele>1399.8168945312</ele>
        <time>2012-09-15T15:15:48Z</time>
      </trkpt>
      <trkpt lat="42.70677" lon="1.41476">
        <ele>1400.7780761719</ele>
        <time>2012-09-15T15:15:55Z</time>
      </trkpt>
      <trkpt lat="42.70678" lon="1.4148">
        <ele>1400.2976074219</ele>
        <time>2012-09-15T15:15:59Z</time>
      </trkpt>
      <trkpt lat="42.70679" lon="1.41483">
        <ele>1397.8942871094</ele>
        <time>2012-09-15T15:16:02Z</time>
      </trkpt>
      <trkpt lat="42.70679" lon="1.41493">
        <ele>1395.4909667969</ele>
        <time>2012-09-15T15:16:08Z</time>
      </trkpt>
      <trkpt lat="42.70679" lon="1.41494">
        <ele>1395.4909667969</ele>
        <time>2012-09-15T15:16:09Z</time>
      </trkpt>
      <trkpt lat="42.70678" lon="1.41504">
        <ele>1394.5295410156</ele>
        <time>2012-09-15T15:16:16Z</time>
      </trkpt>
      <trkpt lat="42.70676" lon="1.41509">
        <ele>1395.0102539062</ele>
        <time>2012-09-15T15:16:20Z</time>
      </trkpt>
      <trkpt lat="42.70675" lon="1.41517">
        <ele>1395.4909667969</ele>
        <time>2012-09-15T15:16:25Z</time>
      </trkpt>
      <trkpt lat="42.70669" lon="1.41519">
        <ele>1395.0102539062</ele>
        <time>2012-09-15T15:16:31Z</time>
      </trkpt>
      <trkpt lat="42.70666" lon="1.4152">
        <ele>1395.4909667969</ele>
        <time>2012-09-15T15:16:34Z</time>
      </trkpt>
      <trkpt lat="42.70664" lon="1.41519">
        <ele>1395.4909667969</ele>
        <time>2012-09-15T15:16:36Z</time>
      </trkpt>
      <trkpt lat="42.70661" lon="1.41521">
        <ele>1393.0876464844</ele>
        <time>2012-09-15T15:16:42Z</time>
      </trkpt>
      <trkpt lat="42.7066" lon="1.41525">
        <ele>1390.6843261719</ele>
        <time>2012-09-15T15:16:47Z</time>
      </trkpt>
      <trkpt lat="42.70662" lon="1.41531">
        <ele>1388.28125</ele>
        <time>2012-09-15T15:16:53Z</time>
      </trkpt>
      <trkpt lat="42.70659" lon="1.41536">
        <ele>1385.3969726562</ele>
        <time>2012-09-15T15:16:58Z</time>
      </trkpt>
      <trkpt lat="42.70656" lon="1.4154">
        <ele>1383.955078125</ele>
        <time>2012-09-15T15:17:04Z</time>
      </trkpt>
      <trkpt lat="42.70658" lon="1.41545">
        <ele>1381.5517578125</ele>
        <time>2012-09-15T15:17:09Z</time>
      </trkpt>
      <trkpt lat="42.70659" lon="1.41552">
        <ele>1379.6291503906</ele>
        <time>2012-09-15T15:17:15Z</time>
      </trkpt>
      <trkpt lat="42.7066" lon="1.41554">
        <ele>1379.1484375</ele>
        <time>2012-09-15T15:17:17Z</time>
      </trkpt>
      <trkpt lat="42.70662" lon="1.4156">
        <ele>1378.1872558594</ele>
        <time>2012-09-15T15:17:22Z</time>
      </trkpt>
      <trkpt lat="42.70663" lon="1.4157">
        <ele>1376.7453613281</ele>
        <time>2012-09-15T15:17:27Z</time>
      </trkpt>
      <trkpt lat="42.70663" lon="1.41572">
        <ele>1375.7839355469</ele>
        <time>2012-09-15T15:17:29Z</time>
      </trkpt>
      <trkpt lat="42.70668" lon="1.4158">
        <ele>1375.3032226562</ele>
        <time>2012-09-15T15:17:35Z</time>
      </trkpt>
      <trkpt lat="42.7067" lon="1.41582">
        <ele>1373.861328125</ele>
        <time>2012-09-15T15:17:38Z</time>
      </trkpt>
      <trkpt lat="42.70671" lon="1.41583">
        <ele>1371.4577636719</ele>
        <time>2012-09-15T15:17:43Z</time>
      </trkpt>
      <trkpt lat="42.70674" lon="1.41585">
        <ele>1371.9384765625</ele>
        <time>2012-09-15T15:17:48Z</time>
      </trkpt>
      <trkpt lat="42.70676" lon="1.41593">
        <ele>1370.4965820312</ele>
        <time>2012-09-15T15:17:53Z</time>
      </trkpt>
      <trkpt lat="42.70684" lon="1.41602">
        <ele>1370.4965820312</ele>
        <time>2012-09-15T15:17:59Z</time>
      </trkpt>
      <trkpt lat="42.70683" lon="1.41609">
        <ele>1367.6125488281</ele>
        <time>2012-09-15T15:18:04Z</time>
      </trkpt>
      <trkpt lat="42.70682" lon="1.41613">
        <ele>1365.6901855469</ele>
        <time>2012-09-15T15:18:07Z</time>
      </trkpt>
      <trkpt lat="42.70683" lon="1.41619">
        <ele>1363.2868652344</ele>
        <time>2012-09-15T15:18:12Z</time>
      </trkpt>
      <trkpt lat="42.70684" lon="1.41625">
        <ele>1360.8835449219</ele>
        <time>2012-09-15T15:18:16Z</time>
      </trkpt>
      <trkpt lat="42.70684" lon="1.41629">
        <ele>1359.4416503906</ele>
        <time>2012-09-15T15:18:20Z</time>
      </trkpt>
      <trkpt lat="42.70684" lon="1.41631">
        <ele>1358.9609375</ele>
        <time>2012-09-15T15:18:21Z</time>
      </trkpt>
      <trkpt lat="42.70685" lon="1.41643">
        <ele>1357.5190429688</ele>
        <time>2012-09-15T15:18:28Z</time>
      </trkpt>
      <trkpt lat="42.70685" lon="1.41648">
        <ele>1356.5576171875</ele>
        <time>2012-09-15T15:18:32Z</time>
      </trkpt>
      <trkpt lat="42.70687" lon="1.41653">
        <ele>1356.5576171875</ele>
        <time>2012-09-15T15:18:36Z</time>
      </trkpt>
      <trkpt lat="42.7069" lon="1.41657">
        <ele>1357.5190429688</ele>
        <time>2012-09-15T15:18:39Z</time>
      </trkpt>
      <trkpt lat="42.70695" lon="1.41666">
        <ele>1358.4802246094</ele>
        <time>2012-09-15T15:18:43Z</time>
      </trkpt>
      <trkpt lat="42.70696" lon="1.41667">
        <ele>1358.9609375</ele>
        <time>2012-09-15T15:18:44Z</time>
      </trkpt>
      <trkpt lat="42.70702" lon="1.41674">
        <ele>1358.4802246094</ele>
        <time>2012-09-15T15:18:50Z</time>
      </trkpt>
      <trkpt lat="42.70705" lon="1.4168">
        <ele>1358.4802246094</ele>
        <time>2012-09-15T15:18:54Z</time>
      </trkpt>
      <trkpt lat="42.70706" lon="1.41684">
        <ele>1358.4802246094</ele>
        <time>2012-09-15T15:18:58Z</time>
      </trkpt>
      <trkpt lat="42.70705" lon="1.41689">
        <ele>1357.9997558594</ele>
        <time>2012-09-15T15:19:01Z</time>
      </trkpt>
      <trkpt lat="42.70704" lon="1.41695">
        <ele>1355.5961914062</ele>
        <time>2012-09-15T15:19:06Z</time>
      </trkpt>
      <trkpt lat="42.70704" lon="1.41702">
        <ele>1352.2314453125</ele>
        <time>2012-09-15T15:19:11Z</time>
      </trkpt>
      <trkpt lat="42.70705" lon="1.41709">
        <ele>1348.8669433594</ele>
        <time>2012-09-15T15:19:17Z</time>
      </trkpt>
      <trkpt lat="42.70707" lon="1.41714">
        <ele>1345.5024414062</ele>
        <time>2012-09-15T15:19:23Z</time>
      </trkpt>
      <trkpt lat="42.7071" lon="1.41713">
        <ele>1343.5798339844</ele>
        <time>2012-09-15T15:19:28Z</time>
      </trkpt>
      <trkpt lat="42.7071" lon="1.41708">
        <ele>1341.1765136719</ele>
        <time>2012-09-15T15:19:32Z</time>
      </trkpt>
      <trkpt lat="42.7071" lon="1.41703">
        <ele>1339.2536621094</ele>
        <time>2012-09-15T15:19:36Z</time>
      </trkpt>
      <trkpt lat="42.7071" lon="1.41702">
        <ele>1339.2536621094</ele>
        <time>2012-09-15T15:19:37Z</time>
      </trkpt>
      <trkpt lat="42.70713" lon="1.41697">
        <ele>1338.7731933594</ele>
        <time>2012-09-15T15:19:41Z</time>
      </trkpt>
      <trkpt lat="42.70715" lon="1.41691">
        <ele>1336.8503417969</ele>
        <time>2012-09-15T15:19:47Z</time>
      </trkpt>
      <trkpt lat="42.70718" lon="1.41687">
        <ele>1334.9279785156</ele>
        <time>2012-09-15T15:19:53Z</time>
      </trkpt>
      <trkpt lat="42.7072" lon="1.41682">
        <ele>1334.9279785156</ele>
        <time>2012-09-15T15:19:57Z</time>
      </trkpt>
      <trkpt lat="42.7072" lon="1.41679">
        <ele>1333.9665527344</ele>
        <time>2012-09-15T15:20:00Z</time>
      </trkpt>
      <trkpt lat="42.70721" lon="1.41676">
        <ele>1332.5246582031</ele>
        <time>2012-09-15T15:20:02Z</time>
      </trkpt>
      <trkpt lat="42.70726" lon="1.41669">
        <ele>1327.7180175781</ele>
        <time>2012-09-15T15:20:08Z</time>
      </trkpt>
      <trkpt lat="42.70726" lon="1.41668">
        <ele>1327.7180175781</ele>
        <time>2012-09-15T15:20:09Z</time>
      </trkpt>
      <trkpt lat="42.70727" lon="1.41667">
        <ele>1327.2375488281</ele>
        <time>2012-09-15T15:20:11Z</time>
      </trkpt>
      <trkpt lat="42.70731" lon="1.41664">
        <ele>1324.8342285156</ele>
        <time>2012-09-15T15:20:17Z</time>
      </trkpt>
      <trkpt lat="42.70736" lon="1.41663">
        <ele>1322.9113769531</ele>
        <time>2012-09-15T15:20:23Z</time>
      </trkpt>
      <trkpt lat="42.7074" lon="1.41655">
        <ele>1322.4306640625</ele>
        <time>2012-09-15T15:20:29Z</time>
      </trkpt>
      <trkpt lat="42.70744" lon="1.41647">
        <ele>1322.9113769531</ele>
        <time>2012-09-15T15:20:36Z</time>
      </trkpt>
      <trkpt lat="42.70749" lon="1.41642">
        <ele>1322.4306640625</ele>
        <time>2012-09-15T15:20:44Z</time>
      </trkpt>
      <trkpt lat="42.70753" lon="1.41639">
        <ele>1322.4306640625</ele>
        <time>2012-09-15T15:20:50Z</time>
      </trkpt>
      <trkpt lat="42.70757" lon="1.41636">
        <ele>1319.0661621094</ele>
        <time>2012-09-15T15:20:54Z</time>
      </trkpt>
      <trkpt lat="42.70758" lon="1.41634">
        <ele>1319.0661621094</ele>
        <time>2012-09-15T15:20:55Z</time>
      </trkpt>
      <trkpt lat="42.7076" lon="1.41633">
        <ele>1318.1047363281</ele>
        <time>2012-09-15T15:20:58Z</time>
      </trkpt>
      <trkpt lat="42.70762" lon="1.41634">
        <ele>1316.6628417969</ele>
        <time>2012-09-15T15:21:00Z</time>
      </trkpt>
      <trkpt lat="42.70763" lon="1.41631">
        <ele>1314.740234375</ele>
        <time>2012-09-15T15:21:02Z</time>
      </trkpt>
      <trkpt lat="42.7077" lon="1.41625">
        <ele>1309.93359375</ele>
        <time>2012-09-15T15:21:09Z</time>
      </trkpt>
      <trkpt lat="42.70773" lon="1.41622">
        <ele>1307.0495605469</ele>
        <time>2012-09-15T15:21:14Z</time>
      </trkpt>
      <trkpt lat="42.70776" lon="1.41616">
        <ele>1305.126953125</ele>
        <time>2012-09-15T15:21:19Z</time>
      </trkpt>
      <trkpt lat="42.70779" lon="1.41612">
        <ele>1302.7236328125</ele>
        <time>2012-09-15T15:21:24Z</time>
      </trkpt>
      <trkpt lat="42.70782" lon="1.41611">
        <ele>1300.8010253906</ele>
        <time>2012-09-15T15:21:28Z</time>
      </trkpt>
      <trkpt lat="42.70785" lon="1.41608">
        <ele>1298.3977050781</ele>
        <time>2012-09-15T15:21:32Z</time>
      </trkpt>
      <trkpt lat="42.70787" lon="1.41609">
        <ele>1297.4365234375</ele>
        <time>2012-09-15T15:21:34Z</time>
      </trkpt>
      <trkpt lat="42.7079" lon="1.4161">
        <ele>1295.033203125</ele>
        <time>2012-09-15T15:21:40Z</time>
      </trkpt>
      <trkpt lat="42.70794" lon="1.41605">
        <ele>1293.5913085938</ele>
        <time>2012-09-15T15:21:46Z</time>
      </trkpt>
      <trkpt lat="42.70797" lon="1.41606">
        <ele>1291.6684570312</ele>
        <time>2012-09-15T15:21:51Z</time>
      </trkpt>
      <trkpt lat="42.70799" lon="1.41605">
        <ele>1290.2265625</ele>
        <time>2012-09-15T15:21:55Z</time>
      </trkpt>
      <trkpt lat="42.70802" lon="1.416">
        <ele>1286.8618164062</ele>
        <time>2012-09-15T15:22:01Z</time>
      </trkpt>
      <trkpt lat="42.70805" lon="1.41596">
        <ele>1283.9780273438</ele>
        <time>2012-09-15T15:22:07Z</time>
      </trkpt>
      <trkpt lat="42.70809" lon="1.41589">
        <ele>1283.0166015625</ele>
        <time>2012-09-15T15:22:13Z</time>
      </trkpt>
      <trkpt lat="42.70809" lon="1.41587">
        <ele>1282.5361328125</ele>
        <time>2012-09-15T15:22:14Z</time>
      </trkpt>
      <trkpt lat="42.70811" lon="1.41581">
        <ele>1283.4973144531</ele>
        <time>2012-09-15T15:22:19Z</time>
      </trkpt>
      <trkpt lat="42.70813" lon="1.41582">
        <ele>1282.5361328125</ele>
        <time>2012-09-15T15:22:21Z</time>
      </trkpt>
      <trkpt lat="42.70816" lon="1.4158">
        <ele>1282.0554199219</ele>
        <time>2012-09-15T15:22:26Z</time>
      </trkpt>
      <trkpt lat="42.70819" lon="1.4158">
        <ele>1280.6135253906</ele>
        <time>2012-09-15T15:22:30Z</time>
      </trkpt>
      <trkpt lat="42.70821" lon="1.41577">
        <ele>1279.1713867188</ele>
        <time>2012-09-15T15:22:35Z</time>
      </trkpt>
      <trkpt lat="42.70821" lon="1.4157">
        <ele>1276.7683105469</ele>
        <time>2012-09-15T15:22:40Z</time>
      </trkpt>
      <trkpt lat="42.70825" lon="1.41569">
        <ele>1275.806640625</ele>
        <time>2012-09-15T15:22:44Z</time>
      </trkpt>
      <trkpt lat="42.70827" lon="1.41565">
        <ele>1274.3647460938</ele>
        <time>2012-09-15T15:22:51Z</time>
      </trkpt>
      <trkpt lat="42.70829" lon="1.41562">
        <ele>1273.8840332031</ele>
        <time>2012-09-15T15:22:56Z</time>
      </trkpt>
      <trkpt lat="42.7083" lon="1.41558">
        <ele>1274.8454589844</ele>
        <time>2012-09-15T15:23:00Z</time>
      </trkpt>
      <trkpt lat="42.7083" lon="1.41552">
        <ele>1274.8454589844</ele>
        <time>2012-09-15T15:23:05Z</time>
      </trkpt>
      <trkpt lat="42.70829" lon="1.41548">
        <ele>1274.8454589844</ele>
        <time>2012-09-15T15:23:08Z</time>
      </trkpt>
      <trkpt lat="42.70831" lon="1.4154">
        <ele>1271.9614257812</ele>
        <time>2012-09-15T15:23:13Z</time>
      </trkpt>
      <trkpt lat="42.7084" lon="1.41538">
        <ele>1268.5969238281</ele>
        <time>2012-09-15T15:23:18Z</time>
      </trkpt>
      <trkpt lat="42.70846" lon="1.41541">
        <ele>1267.1550292969</ele>
        <time>2012-09-15T15:23:22Z</time>
      </trkpt>
      <trkpt lat="42.70847" lon="1.41542">
        <ele>1266.1936035156</ele>
        <time>2012-09-15T15:23:23Z</time>
      </trkpt>
      <trkpt lat="42.70852" lon="1.41542">
        <ele>1263.7902832031</ele>
        <time>2012-09-15T15:23:28Z</time>
      </trkpt>
      <trkpt lat="42.70859" lon="1.41537">
        <ele>1260.9064941406</ele>
        <time>2012-09-15T15:23:33Z</time>
      </trkpt>
      <trkpt lat="42.70864" lon="1.41532">
        <ele>1257.0610351562</ele>
        <time>2012-09-15T15:23:37Z</time>
      </trkpt>
      <trkpt lat="42.70867" lon="1.41531">
        <ele>1255.1384277344</ele>
        <time>2012-09-15T15:23:39Z</time>
      </trkpt>
      <trkpt lat="42.70871" lon="1.41531">
        <ele>1253.6965332031</ele>
        <time>2012-09-15T15:23:42Z</time>
      </trkpt>
      <trkpt lat="42.70878" lon="1.41534">
        <ele>1248.8898925781</ele>
        <time>2012-09-15T15:23:47Z</time>
      </trkpt>
      <trkpt lat="42.70885" lon="1.41536">
        <ele>1246.0061035156</ele>
        <time>2012-09-15T15:23:52Z</time>
      </trkpt>
      <trkpt lat="42.7089" lon="1.41539">
        <ele>1243.6025390625</ele>
        <time>2012-09-15T15:23:56Z</time>
      </trkpt>
      <trkpt lat="42.70892" lon="1.41545">
        <ele>1240.2380371094</ele>
        <time>2012-09-15T15:24:02Z</time>
      </trkpt>
      <trkpt lat="42.70893" lon="1.41551">
        <ele>1238.7961425781</ele>
        <time>2012-09-15T15:24:07Z</time>
      </trkpt>
      <trkpt lat="42.70892" lon="1.41556">
        <ele>1237.8347167969</ele>
        <time>2012-09-15T15:24:10Z</time>
      </trkpt>
      <trkpt lat="42.70889" lon="1.41564">
        <ele>1236.8732910156</ele>
        <time>2012-09-15T15:24:14Z</time>
      </trkpt>
      <trkpt lat="42.70884" lon="1.41576">
        <ele>1234.4702148438</ele>
        <time>2012-09-15T15:24:19Z</time>
      </trkpt>
      <trkpt lat="42.70884" lon="1.41583">
        <ele>1231.5861816406</ele>
        <time>2012-09-15T15:24:22Z</time>
      </trkpt>
      <trkpt lat="42.70885" lon="1.41589">
        <ele>1230.625</ele>
        <time>2012-09-15T15:24:27Z</time>
      </trkpt>
      <trkpt lat="42.70887" lon="1.41591">
        <ele>1229.6635742188</ele>
        <time>2012-09-15T15:24:30Z</time>
      </trkpt>
      <trkpt lat="42.70887" lon="1.41601">
        <ele>1226.7795410156</ele>
        <time>2012-09-15T15:24:36Z</time>
      </trkpt>
      <trkpt lat="42.70891" lon="1.41609">
        <ele>1227.7407226562</ele>
        <time>2012-09-15T15:24:41Z</time>
      </trkpt>
      <trkpt lat="42.70891" lon="1.41616">
        <ele>1227.2602539062</ele>
        <time>2012-09-15T15:24:45Z</time>
      </trkpt>
      <trkpt lat="42.70892" lon="1.41626">
        <ele>1227.7407226562</ele>
        <time>2012-09-15T15:24:51Z</time>
      </trkpt>
      <trkpt lat="42.70894" lon="1.41633">
        <ele>1227.7407226562</ele>
        <time>2012-09-15T15:24:54Z</time>
      </trkpt>
      <trkpt lat="42.70895" lon="1.41636">
        <ele>1230.1442871094</ele>
        <time>2012-09-15T15:24:56Z</time>
      </trkpt>
      <trkpt lat="42.70897" lon="1.41646">
        <ele>1230.625</ele>
        <time>2012-09-15T15:25:02Z</time>
      </trkpt>
      <trkpt lat="42.70898" lon="1.41657">
        <ele>1229.6635742188</ele>
        <time>2012-09-15T15:25:09Z</time>
      </trkpt>
      <trkpt lat="42.70902" lon="1.41667">
        <ele>1229.1828613281</ele>
        <time>2012-09-15T15:25:15Z</time>
      </trkpt>
      <trkpt lat="42.70905" lon="1.4168">
        <ele>1231.5861816406</ele>
        <time>2012-09-15T15:25:22Z</time>
      </trkpt>
      <trkpt lat="42.70905" lon="1.41685">
        <ele>1230.1442871094</ele>
        <time>2012-09-15T15:25:26Z</time>
      </trkpt>
      <trkpt lat="42.70905" lon="1.41689">
        <ele>1228.7023925781</ele>
        <time>2012-09-15T15:25:29Z</time>
      </trkpt>
      <trkpt lat="42.70907" lon="1.41699">
        <ele>1227.7407226562</ele>
        <time>2012-09-15T15:25:36Z</time>
      </trkpt>
      <trkpt lat="42.70907" lon="1.417">
        <ele>1227.2602539062</ele>
        <time>2012-09-15T15:25:37Z</time>
      </trkpt>
      <trkpt lat="42.70907" lon="1.41702">
        <ele>1225.8181152344</ele>
        <time>2012-09-15T15:25:39Z</time>
      </trkpt>
      <trkpt lat="42.70908" lon="1.41711">
        <ele>1226.298828125</ele>
        <time>2012-09-15T15:25:45Z</time>
      </trkpt>
      <trkpt lat="42.7091" lon="1.41717">
        <ele>1225.8181152344</ele>
        <time>2012-09-15T15:25:49Z</time>
      </trkpt>
      <trkpt lat="42.70913" lon="1.41723">
        <ele>1222.9343261719</ele>
        <time>2012-09-15T15:25:54Z</time>
      </trkpt>
      <trkpt lat="42.70914" lon="1.41725">
        <ele>1222.9343261719</ele>
        <time>2012-09-15T15:25:55Z</time>
      </trkpt>
      <trkpt lat="42.70917" lon="1.41732">
        <ele>1221.01171875</ele>
        <time>2012-09-15T15:26:01Z</time>
      </trkpt>
      <trkpt lat="42.70918" lon="1.4174">
        <ele>1220.5310058594</ele>
        <time>2012-09-15T15:26:05Z</time>
      </trkpt>
      <trkpt lat="42.70922" lon="1.41749">
        <ele>1218.6083984375</ele>
        <time>2012-09-15T15:26:11Z</time>
      </trkpt>
      <trkpt lat="42.70921" lon="1.41755">
        <ele>1217.1665039062</ele>
        <time>2012-09-15T15:26:15Z</time>
      </trkpt>
      <trkpt lat="42.7092" lon="1.41758">
        <ele>1217.1665039062</ele>
        <time>2012-09-15T15:26:17Z</time>
      </trkpt>
      <trkpt lat="42.70923" lon="1.41762">
        <ele>1219.5698242188</ele>
        <time>2012-09-15T15:26:20Z</time>
      </trkpt>
      <trkpt lat="42.70924" lon="1.41768">
        <ele>1216.6857910156</ele>
        <time>2012-09-15T15:26:25Z</time>
      </trkpt>
      <trkpt lat="42.70927" lon="1.41775">
        <ele>1214.2824707031</ele>
        <time>2012-09-15T15:26:32Z</time>
      </trkpt>
      <trkpt lat="42.70929" lon="1.41782">
        <ele>1212.3598632812</ele>
        <time>2012-09-15T15:26:38Z</time>
      </trkpt>
      <trkpt lat="42.70932" lon="1.41789">
        <ele>1212.8405761719</ele>
        <time>2012-09-15T15:26:42Z</time>
      </trkpt>
      <trkpt lat="42.70932" lon="1.41793">
        <ele>1214.2824707031</ele>
        <time>2012-09-15T15:26:44Z</time>
      </trkpt>
      <trkpt lat="42.70933" lon="1.41798">
        <ele>1215.2438964844</ele>
        <time>2012-09-15T15:26:47Z</time>
      </trkpt>
      <trkpt lat="42.70929" lon="1.41808">
        <ele>1214.2824707031</ele>
        <time>2012-09-15T15:26:54Z</time>
      </trkpt>
      <trkpt lat="42.7093" lon="1.41815">
        <ele>1216.205078125</ele>
        <time>2012-09-15T15:26:59Z</time>
      </trkpt>
      <trkpt lat="42.70933" lon="1.41827">
        <ele>1218.6083984375</ele>
        <time>2012-09-15T15:27:06Z</time>
      </trkpt>
      <trkpt lat="42.70934" lon="1.41835">
        <ele>1219.0891113281</ele>
        <time>2012-09-15T15:27:11Z</time>
      </trkpt>
      <trkpt lat="42.70937" lon="1.41843">
        <ele>1219.0891113281</ele>
        <time>2012-09-15T15:27:16Z</time>
      </trkpt>
      <trkpt lat="42.70938" lon="1.41845">
        <ele>1218.6083984375</ele>
        <time>2012-09-15T15:27:18Z</time>
      </trkpt>
      <trkpt lat="42.70938" lon="1.41848">
        <ele>1219.0891113281</ele>
        <time>2012-09-15T15:27:22Z</time>
      </trkpt>
      <trkpt lat="42.70936" lon="1.41854">
        <ele>1217.6469726562</ele>
        <time>2012-09-15T15:27:26Z</time>
      </trkpt>
      <trkpt lat="42.70935" lon="1.41863">
        <ele>1216.6857910156</ele>
        <time>2012-09-15T15:27:31Z</time>
      </trkpt>
      <trkpt lat="42.70934" lon="1.41867">
        <ele>1215.2438964844</ele>
        <time>2012-09-15T15:27:34Z</time>
      </trkpt>
      <trkpt lat="42.70937" lon="1.41876">
        <ele>1212.8405761719</ele>
        <time>2012-09-15T15:27:41Z</time>
      </trkpt>
      <trkpt lat="42.70941" lon="1.41885">
        <ele>1213.3212890625</ele>
        <time>2012-09-15T15:27:50Z</time>
      </trkpt>
      <trkpt lat="42.70944" lon="1.4189">
        <ele>1214.7631835938</ele>
        <time>2012-09-15T15:27:55Z</time>
      </trkpt>
      <trkpt lat="42.70943" lon="1.41896">
        <ele>1216.6857910156</ele>
        <time>2012-09-15T15:28:03Z</time>
      </trkpt>
      <trkpt lat="42.70942" lon="1.41903">
        <ele>1219.0891113281</ele>
        <time>2012-09-15T15:28:09Z</time>
      </trkpt>
      <trkpt lat="42.70942" lon="1.41912">
        <ele>1219.0891113281</ele>
        <time>2012-09-15T15:28:15Z</time>
      </trkpt>
      <trkpt lat="42.70938" lon="1.41917">
        <ele>1220.0502929688</ele>
        <time>2012-09-15T15:28:20Z</time>
      </trkpt>
      <trkpt lat="42.70938" lon="1.41929">
        <ele>1220.0502929688</ele>
        <time>2012-09-15T15:28:27Z</time>
      </trkpt>
      <trkpt lat="42.70938" lon="1.41931">
        <ele>1224.3762207031</ele>
        <time>2012-09-15T15:28:29Z</time>
      </trkpt>
      <trkpt lat="42.70936" lon="1.41937">
        <ele>1225.3374023438</ele>
        <time>2012-09-15T15:28:35Z</time>
      </trkpt>
      <trkpt lat="42.70932" lon="1.41949">
        <ele>1225.3374023438</ele>
        <time>2012-09-15T15:28:43Z</time>
      </trkpt>
      <trkpt lat="42.70932" lon="1.41957">
        <ele>1222.9343261719</ele>
        <time>2012-09-15T15:28:48Z</time>
      </trkpt>
      <trkpt lat="42.70931" lon="1.41966">
        <ele>1221.01171875</ele>
        <time>2012-09-15T15:28:54Z</time>
      </trkpt>
      <trkpt lat="42.70929" lon="1.4197">
        <ele>1220.5310058594</ele>
        <time>2012-09-15T15:28:57Z</time>
      </trkpt>
      <trkpt lat="42.70927" lon="1.41979">
        <ele>1216.205078125</ele>
        <time>2012-09-15T15:29:03Z</time>
      </trkpt>
      <trkpt lat="42.70927" lon="1.41987">
        <ele>1213.8017578125</ele>
        <time>2012-09-15T15:29:07Z</time>
      </trkpt>
      <trkpt lat="42.70924" lon="1.41996">
        <ele>1212.3598632812</ele>
        <time>2012-09-15T15:29:14Z</time>
      </trkpt>
      <trkpt lat="42.70921" lon="1.42007">
        <ele>1209.4758300781</ele>
        <time>2012-09-15T15:29:21Z</time>
      </trkpt>
      <trkpt lat="42.70921" lon="1.42012">
        <ele>1209.4758300781</ele>
        <time>2012-09-15T15:29:24Z</time>
      </trkpt>
      <trkpt lat="42.7092" lon="1.42022">
        <ele>1208.0339355469</ele>
        <time>2012-09-15T15:29:29Z</time>
      </trkpt>
      <trkpt lat="42.70919" lon="1.42035">
        <ele>1208.9951171875</ele>
        <time>2012-09-15T15:29:36Z</time>
      </trkpt>
      <trkpt lat="42.7092" lon="1.42047">
        <ele>1209.4758300781</ele>
        <time>2012-09-15T15:29:42Z</time>
      </trkpt>
      <trkpt lat="42.70921" lon="1.42055">
        <ele>1208.0339355469</ele>
        <time>2012-09-15T15:29:47Z</time>
      </trkpt>
      <trkpt lat="42.70924" lon="1.42063">
        <ele>1207.5532226562</ele>
        <time>2012-09-15T15:29:52Z</time>
      </trkpt>
      <trkpt lat="42.70928" lon="1.42075">
        <ele>1206.1110839844</ele>
        <time>2012-09-15T15:30:01Z</time>
      </trkpt>
      <trkpt lat="42.7093" lon="1.42086">
        <ele>1206.591796875</ele>
        <time>2012-09-15T15:30:07Z</time>
      </trkpt>
      <trkpt lat="42.70934" lon="1.42097">
        <ele>1206.1110839844</ele>
        <time>2012-09-15T15:30:14Z</time>
      </trkpt>
      <trkpt lat="42.70935" lon="1.421">
        <ele>1205.1499023438</ele>
        <time>2012-09-15T15:30:16Z</time>
      </trkpt>
      <trkpt lat="42.70935" lon="1.42107">
        <ele>1204.6691894531</ele>
        <time>2012-09-15T15:30:21Z</time>
      </trkpt>
      <trkpt lat="42.70938" lon="1.42112">
        <ele>1206.1110839844</ele>
        <time>2012-09-15T15:30:25Z</time>
      </trkpt>
      <trkpt lat="42.70943" lon="1.4212">
        <ele>1206.591796875</ele>
        <time>2012-09-15T15:30:30Z</time>
      </trkpt>
      <trkpt lat="42.70945" lon="1.42127">
        <ele>1205.1499023438</ele>
        <time>2012-09-15T15:30:34Z</time>
      </trkpt>
      <trkpt lat="42.70943" lon="1.4214">
        <ele>1204.6691894531</ele>
        <time>2012-09-15T15:30:39Z</time>
      </trkpt>
      <trkpt lat="42.70943" lon="1.42142">
        <ele>1203.7080078125</ele>
        <time>2012-09-15T15:30:40Z</time>
      </trkpt>
      <trkpt lat="42.70945" lon="1.42156">
        <ele>1197.4594726562</ele>
        <time>2012-09-15T15:30:47Z</time>
      </trkpt>
      <trkpt lat="42.7095" lon="1.42167">
        <ele>1191.69140625</ele>
        <time>2012-09-15T15:30:53Z</time>
      </trkpt>
      <trkpt lat="42.70952" lon="1.42177">
        <ele>1188.8076171875</ele>
        <time>2012-09-15T15:30:59Z</time>
      </trkpt>
      <trkpt lat="42.70953" lon="1.42185">
        <ele>1188.8076171875</ele>
        <time>2012-09-15T15:31:04Z</time>
      </trkpt>
      <trkpt lat="42.70953" lon="1.42188">
        <ele>1190.7299804688</ele>
        <time>2012-09-15T15:31:06Z</time>
      </trkpt>
      <trkpt lat="42.70953" lon="1.42202">
        <ele>1193.6140136719</ele>
        <time>2012-09-15T15:31:13Z</time>
      </trkpt>
      <trkpt lat="42.70953" lon="1.42216">
        <ele>1195.0559082031</ele>
        <time>2012-09-15T15:31:20Z</time>
      </trkpt>
      <trkpt lat="42.70956" lon="1.42227">
        <ele>1196.4982910156</ele>
        <time>2012-09-15T15:31:26Z</time>
      </trkpt>
      <trkpt lat="42.70957" lon="1.42235">
        <ele>1193.6140136719</ele>
        <time>2012-09-15T15:31:31Z</time>
      </trkpt>
      <trkpt lat="42.70959" lon="1.42241">
        <ele>1193.6140136719</ele>
        <time>2012-09-15T15:31:34Z</time>
      </trkpt>
      <trkpt lat="42.70962" lon="1.42247">
        <ele>1192.1721191406</ele>
        <time>2012-09-15T15:31:39Z</time>
      </trkpt>
      <trkpt lat="42.70964" lon="1.42258">
        <ele>1191.69140625</ele>
        <time>2012-09-15T15:31:47Z</time>
      </trkpt>
      <trkpt lat="42.70964" lon="1.4227">
        <ele>1190.2495117188</ele>
        <time>2012-09-15T15:31:54Z</time>
      </trkpt>
      <trkpt lat="42.70964" lon="1.42278">
        <ele>1189.2880859375</ele>
        <time>2012-09-15T15:31:59Z</time>
      </trkpt>
      <trkpt lat="42.70964" lon="1.42286">
        <ele>1188.3269042969</ele>
        <time>2012-09-15T15:32:03Z</time>
      </trkpt>
      <trkpt lat="42.70965" lon="1.42304">
        <ele>1188.8076171875</ele>
        <time>2012-09-15T15:32:13Z</time>
      </trkpt>
      <trkpt lat="42.70967" lon="1.42317">
        <ele>1187.8461914062</ele>
        <time>2012-09-15T15:32:21Z</time>
      </trkpt>
      <trkpt lat="42.70971" lon="1.42329">
        <ele>1188.3269042969</ele>
        <time>2012-09-15T15:32:28Z</time>
      </trkpt>
      <trkpt lat="42.70972" lon="1.42336">
        <ele>1189.2880859375</ele>
        <time>2012-09-15T15:32:32Z</time>
      </trkpt>
      <trkpt lat="42.70977" lon="1.42347">
        <ele>1191.2106933594</ele>
        <time>2012-09-15T15:32:38Z</time>
      </trkpt>
      <trkpt lat="42.70983" lon="1.42355">
        <ele>1191.69140625</ele>
        <time>2012-09-15T15:32:44Z</time>
      </trkpt>
      <trkpt lat="42.70985" lon="1.42359">
        <ele>1191.69140625</ele>
        <time>2012-09-15T15:32:47Z</time>
      </trkpt>
      <trkpt lat="42.70988" lon="1.42373">
        <ele>1194.0947265625</ele>
        <time>2012-09-15T15:32:55Z</time>
      </trkpt>
      <trkpt lat="42.70987" lon="1.42375">
        <ele>1194.0947265625</ele>
        <time>2012-09-15T15:32:57Z</time>
      </trkpt>
      <trkpt lat="42.70988" lon="1.42387">
        <ele>1193.1333007812</ele>
        <time>2012-09-15T15:33:05Z</time>
      </trkpt>
      <trkpt lat="42.7099" lon="1.42392">
        <ele>1194.0947265625</ele>
        <time>2012-09-15T15:33:08Z</time>
      </trkpt>
      <trkpt lat="42.70995" lon="1.42401">
        <ele>1195.5366210938</ele>
        <time>2012-09-15T15:33:14Z</time>
      </trkpt>
      <trkpt lat="42.70996" lon="1.42405">
        <ele>1195.0559082031</ele>
        <time>2012-09-15T15:33:16Z</time>
      </trkpt>
      <trkpt lat="42.71" lon="1.42417">
        <ele>1194.5751953125</ele>
        <time>2012-09-15T15:33:24Z</time>
      </trkpt>
      <trkpt lat="42.71" lon="1.42424">
        <ele>1191.69140625</ele>
        <time>2012-09-15T15:33:29Z</time>
      </trkpt>
      <trkpt lat="42.71002" lon="1.42433">
        <ele>1189.7687988281</ele>
        <time>2012-09-15T15:33:36Z</time>
      </trkpt>
      <trkpt lat="42.71004" lon="1.42438">
        <ele>1188.8076171875</ele>
        <time>2012-09-15T15:33:40Z</time>
      </trkpt>
      <trkpt lat="42.71007" lon="1.42448">
        <ele>1185.9235839844</ele>
        <time>2012-09-15T15:33:47Z</time>
      </trkpt>
      <trkpt lat="42.71008" lon="1.42457">
        <ele>1184.4816894531</ele>
        <time>2012-09-15T15:33:53Z</time>
      </trkpt>
      <trkpt lat="42.71015" lon="1.42472">
        <ele>1188.8076171875</ele>
        <time>2012-09-15T15:34:01Z</time>
      </trkpt>
      <trkpt lat="42.71019" lon="1.42486">
        <ele>1188.3269042969</ele>
        <time>2012-09-15T15:34:11Z</time>
      </trkpt>
      <trkpt lat="42.71028" lon="1.42501">
        <ele>1191.69140625</ele>
        <time>2012-09-15T15:34:21Z</time>
      </trkpt>
      <trkpt lat="42.71035" lon="1.4251">
        <ele>1195.0559082031</ele>
        <time>2012-09-15T15:34:28Z</time>
      </trkpt>
      <trkpt lat="42.71043" lon="1.42524">
        <ele>1196.9787597656</ele>
        <time>2012-09-15T15:34:38Z</time>
      </trkpt>
      <trkpt lat="42.71043" lon="1.42527">
        <ele>1195.5366210938</ele>
        <time>2012-09-15T15:34:40Z</time>
      </trkpt>
      <trkpt lat="42.71043" lon="1.42535">
        <ele>1189.2880859375</ele>
        <time>2012-09-15T15:34:48Z</time>
      </trkpt>
      <trkpt lat="42.71043" lon="1.42536">
        <ele>1188.3269042969</ele>
        <time>2012-09-15T15:34:49Z</time>
      </trkpt>
      <trkpt lat="42.71038" lon="1.42535">
        <ele>1184.9624023438</ele>
        <time>2012-09-15T15:34:53Z</time>
      </trkpt>
      <trkpt lat="42.71035" lon="1.4254">
        <ele>1179.6748046875</ele>
        <time>2012-09-15T15:35:00Z</time>
      </trkpt>
      <trkpt lat="42.71039" lon="1.42547">
        <ele>1176.3103027344</ele>
        <time>2012-09-15T15:35:07Z</time>
      </trkpt>
      <trkpt lat="42.7104" lon="1.4255">
        <ele>1175.8295898438</ele>
        <time>2012-09-15T15:35:09Z</time>
      </trkpt>
      <trkpt lat="42.71037" lon="1.42551">
        <ele>1174.3876953125</ele>
        <time>2012-09-15T15:35:11Z</time>
      </trkpt>
      <trkpt lat="42.71031" lon="1.42551">
        <ele>1173.4265136719</ele>
        <time>2012-09-15T15:35:17Z</time>
      </trkpt>
      <trkpt lat="42.71029" lon="1.42553">
        <ele>1173.9069824219</ele>
        <time>2012-09-15T15:35:19Z</time>
      </trkpt>
      <trkpt lat="42.71026" lon="1.42554">
        <ele>1173.9069824219</ele>
        <time>2012-09-15T15:35:21Z</time>
      </trkpt>
      <trkpt lat="42.71021" lon="1.42557">
        <ele>1173.9069824219</ele>
        <time>2012-09-15T15:35:26Z</time>
      </trkpt>
      <trkpt lat="42.71014" lon="1.4256">
        <ele>1172.4650878906</ele>
        <time>2012-09-15T15:35:32Z</time>
      </trkpt>
      <trkpt lat="42.71014" lon="1.4256">
        <ele>1171.984375</ele>
        <time>2012-09-15T15:35:33Z</time>
      </trkpt>
      <trkpt lat="42.7101" lon="1.4256">
        <ele>1170.0617675781</ele>
        <time>2012-09-15T15:35:41Z</time>
      </trkpt>
      <trkpt lat="42.71006" lon="1.42562">
        <ele>1171.0231933594</ele>
        <time>2012-09-15T15:35:46Z</time>
      </trkpt>
      <trkpt lat="42.71004" lon="1.42559">
        <ele>1170.5424804688</ele>
        <time>2012-09-15T15:35:57Z</time>
      </trkpt>
      <trkpt lat="42.71004" lon="1.42558">
        <ele>1169.1005859375</ele>
        <time>2012-09-15T15:35:58Z</time>
      </trkpt>
    </trkseg>
  </trk>
</gpx>